<?xml version='1.0' encoding='UTF-8'?><gpx version="1.1" creator="JPX - https://github.com/jenetics/jpx" xmlns="http://www.topografix.com/GPX/1/1"><trk><trkseg><trkpt lat="44.47959473009128" lon="7.872977611738114"><ele>364.0</ele><time>2026-04-23T16:16:02.017Z</time></trkpt><trkpt lat="44.47954515550218" lon="7.872877981696932"><ele>364.0</ele><time>2026-04-23T16:16:06.016Z</time></trkpt><trkpt lat="44.47952002730689" lon="7.872790520308094"><ele>364.0</ele><time>2026-04-23T16:16:13.999Z</time></trkpt><trkpt lat="44.47949693530696" lon="7.872680073416735"><ele>364.0</ele><time>2026-04-23T16:16:21.998Z</time></trkpt><trkpt lat="44.479389955461755" lon="7.872679981311512"><ele>364.0</ele><time>2026-04-23T16:16:24.998Z</time></trkpt><trkpt lat="44.47931277215164" lon="7.872709852365151"><ele>364.0</ele><time>2026-04-23T16:16:26.998Z</time></trkpt><trkpt lat="44.4791228151212" lon="7.872827421325766"><ele>364.0</ele><time>2026-04-23T16:16:32.998Z</time></trkpt><trkpt lat="44.47913047389777" lon="7.873168921525346"><ele>364.0</ele><time>2026-04-23T16:16:48Z</time></trkpt><trkpt lat="44.479159738920046" lon="7.8732688349513404"><ele>364.0</ele><time>2026-04-23T16:16:49Z</time></trkpt><trkpt lat="44.47918369026814" lon="7.873361420906897"><ele>364.0</ele><time>2026-04-23T16:16:50Z</time></trkpt><trkpt lat="44.47921779435818" lon="7.873471605490868"><ele>363.66666666666663</ele><time>2026-04-23T16:16:51Z</time></trkpt><trkpt lat="44.47925976935191" lon="7.873583451303637"><ele>363.3333333333333</ele><time>2026-04-23T16:16:52Z</time></trkpt><trkpt lat="44.47928264774976" lon="7.873688158324639"><ele>363.0</ele><time>2026-04-23T16:16:53Z</time></trkpt><trkpt lat="44.479308904823576" lon="7.873778883478017"><ele>362.6666666666667</ele><time>2026-04-23T16:16:54Z</time></trkpt><trkpt lat="44.47932663713779" lon="7.8738872581215835"><ele>362.33333333333337</ele><time>2026-04-23T16:16:55Z</time></trkpt><trkpt lat="44.47935247782013" lon="7.87400046008889"><ele>362.0</ele><time>2026-04-23T16:16:56Z</time></trkpt><trkpt lat="44.479367749805775" lon="7.874111069176507"><ele>362.0</ele><time>2026-04-23T16:16:57Z</time></trkpt><trkpt lat="44.47938204484804" lon="7.874238973499227"><ele>362.0</ele><time>2026-04-23T16:16:58Z</time></trkpt><trkpt lat="44.47940069870303" lon="7.874371571496877"><ele>362.0</ele><time>2026-04-23T16:16:59Z</time></trkpt><trkpt lat="44.47942153619489" lon="7.874508340483537"><ele>362.0</ele><time>2026-04-23T16:17:00Z</time></trkpt><trkpt lat="44.479442180468425" lon="7.8746415032504675"><ele>362.0</ele><time>2026-04-23T16:17:01Z</time></trkpt><trkpt lat="44.4794646704633" lon="7.874754162179421"><ele>361.83333333333337</ele><time>2026-04-23T16:17:02Z</time></trkpt><trkpt lat="44.47946744805859" lon="7.874852481202113"><ele>361.6666666666667</ele><time>2026-04-23T16:17:03Z</time></trkpt><trkpt lat="44.47946403723263" lon="7.874974258192014"><ele>361.5</ele><time>2026-04-23T16:17:04Z</time></trkpt><trkpt lat="44.47947846512793" lon="7.875113588092863"><ele>361.3333333333333</ele><time>2026-04-23T16:17:05Z</time></trkpt><trkpt lat="44.47948692860668" lon="7.8752333809978685"><ele>361.16666666666663</ele><time>2026-04-23T16:17:06Z</time></trkpt><trkpt lat="44.479485150884" lon="7.875330165025851"><ele>361.0</ele><time>2026-04-23T16:17:07Z</time></trkpt><trkpt lat="44.47948253524392" lon="7.875422610095384"><ele>361.0</ele><time>2026-04-23T16:17:08Z</time></trkpt><trkpt lat="44.47947715430008" lon="7.87559370201273"><ele>361.0</ele><time>2026-04-23T16:17:10Z</time></trkpt><trkpt lat="44.4794679091037" lon="7.87569445561209"><ele>361.0</ele><time>2026-04-23T16:17:11Z</time></trkpt><trkpt lat="44.479465828842955" lon="7.875801624613243"><ele>361.0</ele><time>2026-04-23T16:17:12Z</time></trkpt><trkpt lat="44.479459037419375" lon="7.875922213482861"><ele>361.0</ele><time>2026-04-23T16:17:13Z</time></trkpt><trkpt lat="44.47945288680965" lon="7.87603399753362"><ele>361.0</ele><time>2026-04-23T16:17:14Z</time></trkpt><trkpt lat="44.47944353239569" lon="7.876139269538649"><ele>361.0</ele><time>2026-04-23T16:17:15Z</time></trkpt><trkpt lat="44.47943583373919" lon="7.876250077214238"><ele>361.0</ele><time>2026-04-23T16:17:16Z</time></trkpt><trkpt lat="44.479433940966196" lon="7.876366823608411"><ele>361.0</ele><time>2026-04-23T16:17:17Z</time></trkpt><trkpt lat="44.479427677074206" lon="7.876465557196457"><ele>361.0</ele><time>2026-04-23T16:17:18Z</time></trkpt><trkpt lat="44.47941984041728" lon="7.87657236072788"><ele>361.0</ele><time>2026-04-23T16:17:19Z</time></trkpt><trkpt lat="44.47942843728017" lon="7.876679497461246"><ele>361.0</ele><time>2026-04-23T16:17:19.999Z</time></trkpt><trkpt lat="44.4794322963523" lon="7.87677849695426"><ele>361.6</ele><time>2026-04-23T16:17:20.999Z</time></trkpt><trkpt lat="44.47942193303326" lon="7.876935071334403"><ele>362.20000000000005</ele><time>2026-04-23T16:17:22.999Z</time></trkpt><trkpt lat="44.479446974904434" lon="7.877071007032343"><ele>362.79999999999995</ele><time>2026-04-23T16:17:24.999Z</time></trkpt><trkpt lat="44.47930447325043" lon="7.87713091908372"><ele>363.4</ele><time>2026-04-23T16:17:25.999Z</time></trkpt><trkpt lat="44.47923880147488" lon="7.877189420221334"><ele>364.0</ele><time>2026-04-23T16:17:26.999Z</time></trkpt><trkpt lat="44.479172547429705" lon="7.877252326758974"><ele>364.0</ele><time>2026-04-23T16:17:27.999Z</time></trkpt><trkpt lat="44.47911014988498" lon="7.8773259395717625"><ele>364.0</ele><time>2026-04-23T16:17:28.999Z</time></trkpt><trkpt lat="44.47905789965968" lon="7.877391032091079"><ele>364.0</ele><time>2026-04-23T16:17:29.999Z</time></trkpt><trkpt lat="44.47897347513548" lon="7.877517060039005"><ele>364.0</ele><time>2026-04-23T16:17:31.999Z</time></trkpt><trkpt lat="44.478939999616934" lon="7.877597143552108"><ele>364.0</ele><time>2026-04-23T16:17:32.999Z</time></trkpt><trkpt lat="44.4789089711034" lon="7.8776874267594446"><ele>364.0</ele><time>2026-04-23T16:17:33.999Z</time></trkpt><trkpt lat="44.478858970589464" lon="7.877768437134054"><ele>364.0</ele><time>2026-04-23T16:17:34.999Z</time></trkpt><trkpt lat="44.47881417659612" lon="7.877867117875311"><ele>364.0</ele><time>2026-04-23T16:17:35.999Z</time></trkpt><trkpt lat="44.4787632337682" lon="7.8779793440608765"><ele>364.0</ele><time>2026-04-23T16:17:36.999Z</time></trkpt><trkpt lat="44.47870834485742" lon="7.878091260251364"><ele>364.0</ele><time>2026-04-23T16:17:37.999Z</time></trkpt><trkpt lat="44.4786520991856" lon="7.8781846421319655"><ele>364.0</ele><time>2026-04-23T16:17:38.999Z</time></trkpt><trkpt lat="44.47859606012235" lon="7.878266371046064"><ele>364.0</ele><time>2026-04-23T16:17:39.999Z</time></trkpt><trkpt lat="44.47854472605954" lon="7.8783330969705165"><ele>363.66666666666663</ele><time>2026-04-23T16:17:40.999Z</time></trkpt><trkpt lat="44.47847562013282" lon="7.878420317737455"><ele>363.3333333333333</ele><time>2026-04-23T16:17:41.999Z</time></trkpt><trkpt lat="44.4784058908349" lon="7.878491295333017"><ele>363.0</ele><time>2026-04-23T16:17:42.999Z</time></trkpt><trkpt lat="44.4783562819547" lon="7.878563559030028"><ele>362.6666666666667</ele><time>2026-04-23T16:17:43.999Z</time></trkpt><trkpt lat="44.478311127352086" lon="7.878636818474283"><ele>362.33333333333337</ele><time>2026-04-23T16:17:44.999Z</time></trkpt><trkpt lat="44.47822935786773" lon="7.878643685499365"><ele>362.0</ele><time>2026-04-23T16:17:46.999Z</time></trkpt><trkpt lat="44.47821028689517" lon="7.878747651734251"><ele>362.0</ele><time>2026-04-23T16:17:48.999Z</time></trkpt><trkpt lat="44.47809123453035" lon="7.878813012811046"><ele>362.0</ele><time>2026-04-23T16:17:50.999Z</time></trkpt><trkpt lat="44.478081942447595" lon="7.878925925817809"><ele>362.0</ele><time>2026-04-23T16:17:51.999Z</time></trkpt><trkpt lat="44.47804119577621" lon="7.878996712178615"><ele>362.0</ele><time>2026-04-23T16:17:52.999Z</time></trkpt><trkpt lat="44.47801643228026" lon="7.879091298581275"><ele>362.0</ele><time>2026-04-23T16:17:53.999Z</time></trkpt><trkpt lat="44.478010897715656" lon="7.879209370558968"><ele>362.0</ele><time>2026-04-23T16:17:54.999Z</time></trkpt><trkpt lat="44.47802693707401" lon="7.879352361413681"><ele>361.6666666666667</ele><time>2026-04-23T16:17:55.999Z</time></trkpt><trkpt lat="44.4780166082473" lon="7.879456998510865"><ele>361.33333333333337</ele><time>2026-04-23T16:17:56.999Z</time></trkpt><trkpt lat="44.47800063449685" lon="7.879559068042341"><ele>361.0</ele><time>2026-04-23T16:17:57.999Z</time></trkpt><trkpt lat="44.477945612130995" lon="7.879663624095217"><ele>360.6666666666667</ele><time>2026-04-23T16:17:58.999Z</time></trkpt><trkpt lat="44.47792994256318" lon="7.8797991322900875"><ele>360.3333333333333</ele><time>2026-04-23T16:17:59.999Z</time></trkpt><trkpt lat="44.47790700389319" lon="7.879911571774507"><ele>360.0</ele><time>2026-04-23T16:18:00.999Z</time></trkpt><trkpt lat="44.477885285147046" lon="7.880022603289742"><ele>358.0</ele><time>2026-04-23T16:18:01.999Z</time></trkpt><trkpt lat="44.477868275044585" lon="7.880147563008768"><ele>356.0</ele><time>2026-04-23T16:18:02.999Z</time></trkpt><trkpt lat="44.47786878929812" lon="7.88027418590853"><ele>354.0</ele><time>2026-04-23T16:18:03.999Z</time></trkpt><trkpt lat="44.47789515165053" lon="7.880414310468179"><ele>352.0</ele><time>2026-04-23T16:18:04.999Z</time></trkpt><trkpt lat="44.47793163119299" lon="7.880550619883841"><ele>350.0</ele><time>2026-04-23T16:18:05.999Z</time></trkpt><trkpt lat="44.4779625503226" lon="7.880685282314316"><ele>350.0</ele><time>2026-04-23T16:18:06.999Z</time></trkpt><trkpt lat="44.47798066206635" lon="7.880813581737909"><ele>350.0</ele><time>2026-04-23T16:18:07.999Z</time></trkpt><trkpt lat="44.47800397148834" lon="7.880935427017335"><ele>350.0</ele><time>2026-04-23T16:18:08.999Z</time></trkpt><trkpt lat="44.47803661840432" lon="7.881071106489645"><ele>350.0</ele><time>2026-04-23T16:18:09.999Z</time></trkpt><trkpt lat="44.47807541594499" lon="7.881184702949361"><ele>350.0</ele><time>2026-04-23T16:18:10.999Z</time></trkpt><trkpt lat="44.47812191972947" lon="7.8812980840729"><ele>347.0</ele><time>2026-04-23T16:18:11.999Z</time></trkpt><trkpt lat="44.478185309326" lon="7.881408879595223"><ele>344.0</ele><time>2026-04-23T16:18:12.999Z</time></trkpt><trkpt lat="44.47826181820687" lon="7.88148761289016"><ele>341.0</ele><time>2026-04-23T16:18:13.999Z</time></trkpt><trkpt lat="44.47833538835157" lon="7.881569825300163"><ele>338.0</ele><time>2026-04-23T16:18:14.999Z</time></trkpt><trkpt lat="44.47840886757045" lon="7.881640969464351"><ele>335.0</ele><time>2026-04-23T16:18:15.999Z</time></trkpt><trkpt lat="44.478481408711474" lon="7.8817342230953455"><ele>331.6666666666667</ele><time>2026-04-23T16:18:16.999Z</time></trkpt><trkpt lat="44.47854607593926" lon="7.881794669496658"><ele>328.33333333333337</ele><time>2026-04-23T16:18:17.999Z</time></trkpt><trkpt lat="44.47860557030029" lon="7.881848550228936"><ele>325.0</ele><time>2026-04-23T16:18:18.999Z</time></trkpt><trkpt lat="44.478674087786" lon="7.881918114704924"><ele>321.6666666666667</ele><time>2026-04-23T16:18:20.999Z</time></trkpt><trkpt lat="44.478622747382865" lon="7.881993190757242"><ele>318.3333333333333</ele><time>2026-04-23T16:18:24.998Z</time></trkpt><trkpt lat="44.4785213755267" lon="7.881912416796694"><ele>315.0</ele><time>2026-04-23T16:18:26.998Z</time></trkpt><trkpt lat="44.47845163412845" lon="7.881848962885363"><ele>315.0</ele><time>2026-04-23T16:18:27.998Z</time></trkpt><trkpt lat="44.47838194960429" lon="7.881781349930958"><ele>315.0</ele><time>2026-04-23T16:18:28.998Z</time></trkpt><trkpt lat="44.47830249654978" lon="7.881713836604258"><ele>315.0</ele><time>2026-04-23T16:18:29.998Z</time></trkpt><trkpt lat="44.478222109152746" lon="7.881655048213788"><ele>315.0</ele><time>2026-04-23T16:18:30.998Z</time></trkpt><trkpt lat="44.478145755198334" lon="7.88160286594717"><ele>315.0</ele><time>2026-04-23T16:18:31.998Z</time></trkpt><trkpt lat="44.4780801360605" lon="7.881557472075247"><ele>315.0</ele><time>2026-04-23T16:18:32.998Z</time></trkpt><trkpt lat="44.47801238993393" lon="7.881498793805098"><ele>314.6666666666667</ele><time>2026-04-23T16:18:33.998Z</time></trkpt><trkpt lat="44.47794525237281" lon="7.881423255591998"><ele>314.3333333333333</ele><time>2026-04-23T16:18:34.998Z</time></trkpt><trkpt lat="44.47790571538226" lon="7.881327153287804"><ele>314.0</ele><time>2026-04-23T16:18:35.998Z</time></trkpt><trkpt lat="44.47784791260656" lon="7.881248245885648"><ele>313.66666666666663</ele><time>2026-04-23T16:18:36.998Z</time></trkpt><trkpt lat="44.477811149552124" lon="7.8811538251248106"><ele>313.3333333333333</ele><time>2026-04-23T16:18:37.998Z</time></trkpt><trkpt lat="44.4777925568628" lon="7.881052642522178"><ele>313.0</ele><time>2026-04-23T16:18:38.998Z</time></trkpt><trkpt lat="44.47775480067546" lon="7.880978850060715"><ele>313.0</ele><time>2026-04-23T16:18:39.998Z</time></trkpt><trkpt lat="44.47772385880843" lon="7.880901480595271"><ele>313.0</ele><time>2026-04-23T16:18:40.998Z</time></trkpt><trkpt lat="44.477683565" lon="7.880786550476428"><ele>313.0</ele><time>2026-04-23T16:18:42.998Z</time></trkpt><trkpt lat="44.477599614581855" lon="7.880829101124253"><ele>313.0</ele><time>2026-04-23T16:18:45Z</time></trkpt><trkpt lat="44.47755640931037" lon="7.8808980529175905"><ele>313.0</ele><time>2026-04-23T16:18:46Z</time></trkpt><trkpt lat="44.477561036740354" lon="7.8810073269330685"><ele>313.0</ele><time>2026-04-23T16:18:47Z</time></trkpt><trkpt lat="44.477609742984" lon="7.881085959482842"><ele>313.0</ele><time>2026-04-23T16:18:48Z</time></trkpt><trkpt lat="44.47764756248832" lon="7.881181379490052"><ele>313.0</ele><time>2026-04-23T16:18:49Z</time></trkpt><trkpt lat="44.477679567763154" lon="7.881263371880914"><ele>313.0</ele><time>2026-04-23T16:18:50Z</time></trkpt><trkpt lat="44.47771986352885" lon="7.881357197662399"><ele>313.0</ele><time>2026-04-23T16:18:51Z</time></trkpt><trkpt lat="44.47776739593009" lon="7.881466554655151"><ele>313.0</ele><time>2026-04-23T16:18:52Z</time></trkpt><trkpt lat="44.477823234469554" lon="7.881578260820159"><ele>313.0</ele><time>2026-04-23T16:18:53Z</time></trkpt><trkpt lat="44.477885830631365" lon="7.881695753019181"><ele>313.4</ele><time>2026-04-23T16:18:54Z</time></trkpt><trkpt lat="44.47794933766882" lon="7.881784899686712"><ele>313.8</ele><time>2026-04-23T16:18:55Z</time></trkpt><trkpt lat="44.47801860484553" lon="7.881881522094477"><ele>314.2</ele><time>2026-04-23T16:18:56Z</time></trkpt><trkpt lat="44.478091216551576" lon="7.881961458025601"><ele>314.6</ele><time>2026-04-23T16:18:57Z</time></trkpt><trkpt lat="44.4781612700929" lon="7.8820419131369714"><ele>315.0</ele><time>2026-04-23T16:18:58Z</time></trkpt><trkpt lat="44.4782393644848" lon="7.88213938712764"><ele>315.0</ele><time>2026-04-23T16:18:59Z</time></trkpt><trkpt lat="44.47831517201096" lon="7.882226779314176"><ele>315.0</ele><time>2026-04-23T16:19:00Z</time></trkpt><trkpt lat="44.47838224414867" lon="7.882301097887548"><ele>315.0</ele><time>2026-04-23T16:19:01Z</time></trkpt><trkpt lat="44.47844690093606" lon="7.882372958463449"><ele>315.0</ele><time>2026-04-23T16:19:02Z</time></trkpt><trkpt lat="44.47851728466409" lon="7.882444263759245"><ele>315.0</ele><time>2026-04-23T16:19:03Z</time></trkpt><trkpt lat="44.47857684473296" lon="7.8824851750408795"><ele>315.0</ele><time>2026-04-23T16:19:04Z</time></trkpt><trkpt lat="44.47869725917222" lon="7.882538886456039"><ele>316.8333333333333</ele><time>2026-04-23T16:19:06Z</time></trkpt><trkpt lat="44.478769300980424" lon="7.882531030045874"><ele>318.6666666666667</ele><time>2026-04-23T16:19:07Z</time></trkpt><trkpt lat="44.47885941787594" lon="7.882493924169937"><ele>320.5</ele><time>2026-04-23T16:19:08Z</time></trkpt><trkpt lat="44.4789381793517" lon="7.8824350448018485"><ele>322.33333333333337</ele><time>2026-04-23T16:19:09Z</time></trkpt><trkpt lat="44.479011229880236" lon="7.882389864373969"><ele>324.1666666666667</ele><time>2026-04-23T16:19:10Z</time></trkpt><trkpt lat="44.479068078260205" lon="7.882351643021547"><ele>326.0</ele><time>2026-04-23T16:19:11Z</time></trkpt><trkpt lat="44.479187385479484" lon="7.882332843309202"><ele>326.0</ele><time>2026-04-23T16:19:13Z</time></trkpt><trkpt lat="44.479265781162674" lon="7.882457539687087"><ele>326.0</ele><time>2026-04-23T16:19:15Z</time></trkpt><trkpt lat="44.47925951629235" lon="7.882626492976103"><ele>326.0</ele><time>2026-04-23T16:19:17Z</time></trkpt><trkpt lat="44.479231593963114" lon="7.882735730590477"><ele>326.0</ele><time>2026-04-23T16:19:18Z</time></trkpt><trkpt lat="44.47918386041869" lon="7.882836025125551"><ele>326.0</ele><time>2026-04-23T16:19:19Z</time></trkpt><trkpt lat="44.47910348537665" lon="7.882913456606672"><ele>325.6</ele><time>2026-04-23T16:19:20Z</time></trkpt><trkpt lat="44.47901592725974" lon="7.882981573513783"><ele>325.20000000000005</ele><time>2026-04-23T16:19:21Z</time></trkpt><trkpt lat="44.478924560316734" lon="7.883053897608023"><ele>324.79999999999995</ele><time>2026-04-23T16:19:22Z</time></trkpt><trkpt lat="44.478834675773236" lon="7.883100715840459"><ele>324.4</ele><time>2026-04-23T16:19:23Z</time></trkpt><trkpt lat="44.478758338719466" lon="7.883138469309818"><ele>324.0</ele><time>2026-04-23T16:19:24Z</time></trkpt><trkpt lat="44.478647201387716" lon="7.883227887274057"><ele>319.2</ele><time>2026-04-23T16:19:26Z</time></trkpt><trkpt lat="44.478578027685145" lon="7.883360794845316"><ele>314.4</ele><time>2026-04-23T16:19:27.999Z</time></trkpt><trkpt lat="44.47855710344734" lon="7.883472305531737"><ele>309.6</ele><time>2026-04-23T16:19:28.999Z</time></trkpt><trkpt lat="44.47857095550935" lon="7.8835935084453785"><ele>304.8</ele><time>2026-04-23T16:19:29.999Z</time></trkpt><trkpt lat="44.4786024412501" lon="7.883714297341344"><ele>300.0</ele><time>2026-04-23T16:19:30.999Z</time></trkpt><trkpt lat="44.47865491125944" lon="7.88385267597543"><ele>300.25</ele><time>2026-04-23T16:19:31.999Z</time></trkpt><trkpt lat="44.47871210056235" lon="7.883966007936835"><ele>300.5</ele><time>2026-04-23T16:19:32.999Z</time></trkpt><trkpt lat="44.47879374674564" lon="7.884098925920557"><ele>300.75</ele><time>2026-04-23T16:19:33.999Z</time></trkpt><trkpt lat="44.47887760589432" lon="7.884202300951607"><ele>301.0</ele><time>2026-04-23T16:19:34.999Z</time></trkpt><trkpt lat="44.47895791398821" lon="7.884340487205928"><ele>301.0</ele><time>2026-04-23T16:19:35.999Z</time></trkpt><trkpt lat="44.47904765838479" lon="7.884477765868018"><ele>301.0</ele><time>2026-04-23T16:19:36.999Z</time></trkpt><trkpt lat="44.4791434800547" lon="7.884616745549074"><ele>301.0</ele><time>2026-04-23T16:19:37.999Z</time></trkpt><trkpt lat="44.47922620940517" lon="7.8847570028579215"><ele>301.0</ele><time>2026-04-23T16:19:38.999Z</time></trkpt><trkpt lat="44.479311919883656" lon="7.884908597659925"><ele>301.0</ele><time>2026-04-23T16:19:39.999Z</time></trkpt><trkpt lat="44.47938274793974" lon="7.885074625344505"><ele>301.0</ele><time>2026-04-23T16:19:40.999Z</time></trkpt><trkpt lat="44.47946316009388" lon="7.885254302272923"><ele>301.0</ele><time>2026-04-23T16:19:41.999Z</time></trkpt><trkpt lat="44.47952498895701" lon="7.885442657948368"><ele>301.0</ele><time>2026-04-23T16:19:42.999Z</time></trkpt><trkpt lat="44.47956260742371" lon="7.885641936214406"><ele>302.0</ele><time>2026-04-23T16:19:43.999Z</time></trkpt><trkpt lat="44.47960968627874" lon="7.885845021003621"><ele>303.0</ele><time>2026-04-23T16:19:44.999Z</time></trkpt><trkpt lat="44.47964814658099" lon="7.88602269381774"><ele>304.0</ele><time>2026-04-23T16:19:45.999Z</time></trkpt><trkpt lat="44.479693994685476" lon="7.886194925355188"><ele>305.0</ele><time>2026-04-23T16:19:46.999Z</time></trkpt><trkpt lat="44.47973233146147" lon="7.886375298380552"><ele>305.0</ele><time>2026-04-23T16:19:47.999Z</time></trkpt><trkpt lat="44.47977117202689" lon="7.886546624519859"><ele>305.0</ele><time>2026-04-23T16:19:48.999Z</time></trkpt><trkpt lat="44.47980094901061" lon="7.886694291465956"><ele>305.0</ele><time>2026-04-23T16:19:49.999Z</time></trkpt><trkpt lat="44.479826806688614" lon="7.886826371226696"><ele>305.0</ele><time>2026-04-23T16:19:50.999Z</time></trkpt><trkpt lat="44.47985322759522" lon="7.886962492850145"><ele>305.0</ele><time>2026-04-23T16:19:51.999Z</time></trkpt><trkpt lat="44.47986702597981" lon="7.887081187478465"><ele>303.1666666666667</ele><time>2026-04-23T16:19:52.999Z</time></trkpt><trkpt lat="44.47988166672384" lon="7.887189706434311"><ele>301.33333333333337</ele><time>2026-04-23T16:19:53.999Z</time></trkpt><trkpt lat="44.479879409512506" lon="7.887292154102666"><ele>299.5</ele><time>2026-04-23T16:19:54.999Z</time></trkpt><trkpt lat="44.479843096547675" lon="7.887413938721049"><ele>297.6666666666667</ele><time>2026-04-23T16:19:55.999Z</time></trkpt><trkpt lat="44.47979763329362" lon="7.8875104433963195"><ele>295.8333333333333</ele><time>2026-04-23T16:19:56.999Z</time></trkpt><trkpt lat="44.479735450568455" lon="7.887601170030102"><ele>294.0</ele><time>2026-04-23T16:19:57.999Z</time></trkpt><trkpt lat="44.479651785172905" lon="7.8876965537473"><ele>290.8</ele><time>2026-04-23T16:19:58.999Z</time></trkpt><trkpt lat="44.47956773909287" lon="7.887790047947856"><ele>287.59999999999997</ele><time>2026-04-23T16:19:59.999Z</time></trkpt><trkpt lat="44.47949199508487" lon="7.8878684691927035"><ele>284.4</ele><time>2026-04-23T16:20:00.999Z</time></trkpt><trkpt lat="44.47941951587924" lon="7.88796586670247"><ele>281.2</ele><time>2026-04-23T16:20:01.999Z</time></trkpt><trkpt lat="44.47937243201895" lon="7.888067747364233"><ele>278.0</ele><time>2026-04-23T16:20:02.999Z</time></trkpt><trkpt lat="44.47934578699808" lon="7.888177341727191"><ele>278.0</ele><time>2026-04-23T16:20:03.999Z</time></trkpt><trkpt lat="44.479336926169815" lon="7.888303936104411"><ele>278.0</ele><time>2026-04-23T16:20:04.999Z</time></trkpt><trkpt lat="44.479340365619564" lon="7.888440408517884"><ele>278.0</ele><time>2026-04-23T16:20:05.999Z</time></trkpt><trkpt lat="44.4793602069232" lon="7.888606705683782"><ele>278.0</ele><time>2026-04-23T16:20:06.999Z</time></trkpt><trkpt lat="44.47937395987038" lon="7.888779523233909"><ele>278.0</ele><time>2026-04-23T16:20:07.999Z</time></trkpt><trkpt lat="44.4793845069791" lon="7.888928978557241"><ele>277.6</ele><time>2026-04-23T16:20:08.999Z</time></trkpt><trkpt lat="44.47939669762381" lon="7.88907164099073"><ele>277.20000000000005</ele><time>2026-04-23T16:20:09.999Z</time></trkpt><trkpt lat="44.47940656627214" lon="7.889211872082027"><ele>276.8</ele><time>2026-04-23T16:20:10.999Z</time></trkpt><trkpt lat="44.47940570141445" lon="7.88934727184845"><ele>276.40000000000003</ele><time>2026-04-23T16:20:11.999Z</time></trkpt><trkpt lat="44.479398238252024" lon="7.889477049486056"><ele>276.0</ele><time>2026-04-23T16:20:12.999Z</time></trkpt><trkpt lat="44.47938247317016" lon="7.889590838633226"><ele>275.6</ele><time>2026-04-23T16:20:13.999Z</time></trkpt><trkpt lat="44.4793632870963" lon="7.889706392689981"><ele>275.20000000000005</ele><time>2026-04-23T16:20:14.999Z</time></trkpt><trkpt lat="44.479353539126286" lon="7.889838580178747"><ele>274.79999999999995</ele><time>2026-04-23T16:20:15.999Z</time></trkpt><trkpt lat="44.47927816412207" lon="7.889945562863983"><ele>274.4</ele><time>2026-04-23T16:20:16.999Z</time></trkpt><trkpt lat="44.47925692714852" lon="7.89005884587385"><ele>274.0</ele><time>2026-04-23T16:20:17.999Z</time></trkpt><trkpt lat="44.479159030756264" lon="7.8901121998920285"><ele>274.0</ele><time>2026-04-23T16:20:18.999Z</time></trkpt><trkpt lat="44.47907829521551" lon="7.890190360122124"><ele>274.0</ele><time>2026-04-23T16:20:19.999Z</time></trkpt><trkpt lat="44.478981541760334" lon="7.8902465276874905"><ele>274.0</ele><time>2026-04-23T16:20:20.999Z</time></trkpt><trkpt lat="44.478875037743556" lon="7.890278843606984"><ele>274.0</ele><time>2026-04-23T16:20:21.999Z</time></trkpt><trkpt lat="44.47875563635011" lon="7.890298179306655"><ele>274.0</ele><time>2026-04-23T16:20:22.999Z</time></trkpt><trkpt lat="44.47864329158003" lon="7.890301822534987"><ele>273.75</ele><time>2026-04-23T16:20:23.999Z</time></trkpt><trkpt lat="44.478521963949895" lon="7.890306312901461"><ele>273.5</ele><time>2026-04-23T16:20:24.999Z</time></trkpt><trkpt lat="44.478394099827206" lon="7.890301981672732"><ele>273.25</ele><time>2026-04-23T16:20:25.999Z</time></trkpt><trkpt lat="44.47825666807831" lon="7.890292486602656"><ele>273.0</ele><time>2026-04-23T16:20:26.999Z</time></trkpt><trkpt lat="44.47812025131419" lon="7.8902557572014285"><ele>273.0</ele><time>2026-04-23T16:20:27.999Z</time></trkpt><trkpt lat="44.477982028217326" lon="7.890216710072726"><ele>273.0</ele><time>2026-04-23T16:20:28.999Z</time></trkpt><trkpt lat="44.47784421823429" lon="7.890171197649506"><ele>273.0</ele><time>2026-04-23T16:20:29.999Z</time></trkpt><trkpt lat="44.477705669681875" lon="7.890123542082373"><ele>273.0</ele><time>2026-04-23T16:20:30.999Z</time></trkpt><trkpt lat="44.477565239208666" lon="7.89007752742019"><ele>273.6666666666667</ele><time>2026-04-23T16:20:31.999Z</time></trkpt><trkpt lat="44.47742290953989" lon="7.890029225432429"><ele>274.33333333333337</ele><time>2026-04-23T16:20:32.999Z</time></trkpt><trkpt lat="44.47727689918223" lon="7.889976011113591"><ele>275.0</ele><time>2026-04-23T16:20:33.998Z</time></trkpt><trkpt lat="44.4771293173903" lon="7.889920774585623"><ele>274.6666666666667</ele><time>2026-04-23T16:20:34.998Z</time></trkpt><trkpt lat="44.47698036135808" lon="7.8898615495400115"><ele>274.3333333333333</ele><time>2026-04-23T16:20:35.998Z</time></trkpt><trkpt lat="44.47682901420099" lon="7.889809962789719"><ele>274.0</ele><time>2026-04-23T16:20:36.998Z</time></trkpt><trkpt lat="44.4766819312108" lon="7.889772181742903"><ele>274.0</ele><time>2026-04-23T16:20:37.998Z</time></trkpt><trkpt lat="44.47653055553056" lon="7.889737455226622"><ele>274.0</ele><time>2026-04-23T16:20:38.998Z</time></trkpt><trkpt lat="44.47637299394052" lon="7.889711920595577"><ele>274.0</ele><time>2026-04-23T16:20:39.998Z</time></trkpt><trkpt lat="44.47621941892538" lon="7.889684599634147"><ele>274.0</ele><time>2026-04-23T16:20:40.998Z</time></trkpt><trkpt lat="44.476058862424615" lon="7.889659154622665"><ele>274.0</ele><time>2026-04-23T16:20:41.998Z</time></trkpt><trkpt lat="44.47589832415144" lon="7.889648504368252"><ele>274.0</ele><time>2026-04-23T16:20:42.998Z</time></trkpt><trkpt lat="44.47573791633849" lon="7.889640861278557"><ele>274.0</ele><time>2026-04-23T16:20:43.998Z</time></trkpt><trkpt lat="44.475571693065284" lon="7.889643349123711"><ele>274.0</ele><time>2026-04-23T16:20:44.998Z</time></trkpt><trkpt lat="44.47541275942237" lon="7.889650972018922"><ele>274.0</ele><time>2026-04-23T16:20:45.998Z</time></trkpt><trkpt lat="44.47525209220215" lon="7.889655069666772"><ele>274.66666666666663</ele><time>2026-04-23T16:20:46.998Z</time></trkpt><trkpt lat="44.47509676885904" lon="7.889664356045016"><ele>275.3333333333333</ele><time>2026-04-23T16:20:47.998Z</time></trkpt><trkpt lat="44.47493571215663" lon="7.889663635567124"><ele>276.0</ele><time>2026-04-23T16:20:48.998Z</time></trkpt><trkpt lat="44.47477586835948" lon="7.889659101664273"><ele>276.0</ele><time>2026-04-23T16:20:49.998Z</time></trkpt><trkpt lat="44.474614071265684" lon="7.8896556752859786"><ele>276.0</ele><time>2026-04-23T16:20:51Z</time></trkpt><trkpt lat="44.47445018745055" lon="7.889640522219287"><ele>276.0</ele><time>2026-04-23T16:20:52Z</time></trkpt><trkpt lat="44.47428883596041" lon="7.889621330952692"><ele>276.6666666666667</ele><time>2026-04-23T16:20:53Z</time></trkpt><trkpt lat="44.474130401411934" lon="7.889592816389625"><ele>277.33333333333337</ele><time>2026-04-23T16:20:54Z</time></trkpt><trkpt lat="44.473964581794" lon="7.889556562498293"><ele>278.0</ele><time>2026-04-23T16:20:55Z</time></trkpt><trkpt lat="44.47380919713771" lon="7.889515730247927"><ele>277.6666666666667</ele><time>2026-04-23T16:20:56Z</time></trkpt><trkpt lat="44.47365025276722" lon="7.889470971213625"><ele>277.3333333333333</ele><time>2026-04-23T16:20:57Z</time></trkpt><trkpt lat="44.47348941900744" lon="7.889421889400269"><ele>277.0</ele><time>2026-04-23T16:20:58Z</time></trkpt><trkpt lat="44.47332780966398" lon="7.8893573384972155"><ele>277.0</ele><time>2026-04-23T16:20:59Z</time></trkpt><trkpt lat="44.47317469526069" lon="7.889289720505625"><ele>277.0</ele><time>2026-04-23T16:21:00Z</time></trkpt><trkpt lat="44.4730150785173" lon="7.8892139855710095"><ele>277.0</ele><time>2026-04-23T16:21:01Z</time></trkpt><trkpt lat="44.47285900116129" lon="7.889134544440543"><ele>277.66666666666663</ele><time>2026-04-23T16:21:02Z</time></trkpt><trkpt lat="44.47270942124891" lon="7.88905236789888"><ele>278.3333333333333</ele><time>2026-04-23T16:21:03Z</time></trkpt><trkpt lat="44.47255857275681" lon="7.888963929753063"><ele>279.0</ele><time>2026-04-23T16:21:04Z</time></trkpt><trkpt lat="44.47240247650284" lon="7.888874155785594"><ele>279.0</ele><time>2026-04-23T16:21:05Z</time></trkpt><trkpt lat="44.47225455046641" lon="7.888770044300926"><ele>279.0</ele><time>2026-04-23T16:21:06Z</time></trkpt><trkpt lat="44.47210801429322" lon="7.888659272307981"><ele>279.0</ele><time>2026-04-23T16:21:07Z</time></trkpt><trkpt lat="44.4719691333331" lon="7.888548159761676"><ele>279.0</ele><time>2026-04-23T16:21:08Z</time></trkpt><trkpt lat="44.47182820543679" lon="7.88843565898437"><ele>279.0</ele><time>2026-04-23T16:21:09Z</time></trkpt><trkpt lat="44.47169755788646" lon="7.888320096090844"><ele>279.0</ele><time>2026-04-23T16:21:10Z</time></trkpt><trkpt lat="44.471570375823894" lon="7.8882038775939565"><ele>279.6666666666667</ele><time>2026-04-23T16:21:11Z</time></trkpt><trkpt lat="44.47144366997439" lon="7.888079407691133"><ele>280.33333333333337</ele><time>2026-04-23T16:21:12Z</time></trkpt><trkpt lat="44.471314129123776" lon="7.887949108854347"><ele>281.0</ele><time>2026-04-23T16:21:13Z</time></trkpt><trkpt lat="44.471189766306004" lon="7.887809203425887"><ele>281.33333333333337</ele><time>2026-04-23T16:21:14Z</time></trkpt><trkpt lat="44.471071948708094" lon="7.887665221962028"><ele>281.6666666666667</ele><time>2026-04-23T16:21:15Z</time></trkpt><trkpt lat="44.47095621941919" lon="7.887519943265075"><ele>282.0</ele><time>2026-04-23T16:21:16Z</time></trkpt><trkpt lat="44.470841116090625" lon="7.887366722304667"><ele>283.0</ele><time>2026-04-23T16:21:17Z</time></trkpt><trkpt lat="44.47072328081594" lon="7.8872147133922885"><ele>284.0</ele><time>2026-04-23T16:21:18Z</time></trkpt><trkpt lat="44.47060904992116" lon="7.887055081210686"><ele>285.0</ele><time>2026-04-23T16:21:19Z</time></trkpt><trkpt lat="44.47049562193806" lon="7.8869015488657315"><ele>285.5</ele><time>2026-04-23T16:21:20Z</time></trkpt><trkpt lat="44.47038443465666" lon="7.886751389023898"><ele>286.0</ele><time>2026-04-23T16:21:21Z</time></trkpt><trkpt lat="44.47027197733053" lon="7.886601787496628"><ele>286.5</ele><time>2026-04-23T16:21:22Z</time></trkpt><trkpt lat="44.47017471887747" lon="7.886462844182823"><ele>287.0</ele><time>2026-04-23T16:21:23Z</time></trkpt><trkpt lat="44.47007413707759" lon="7.886320930501483"><ele>287.0</ele><time>2026-04-23T16:21:24Z</time></trkpt><trkpt lat="44.469972721510736" lon="7.886182159789503"><ele>287.0</ele><time>2026-04-23T16:21:25Z</time></trkpt><trkpt lat="44.469863085697824" lon="7.886039103047386"><ele>287.0</ele><time>2026-04-23T16:21:26Z</time></trkpt><trkpt lat="44.46975287590328" lon="7.885898955915141"><ele>287.0</ele><time>2026-04-23T16:21:27Z</time></trkpt><trkpt lat="44.46964175621757" lon="7.88575847710217"><ele>286.75</ele><time>2026-04-23T16:21:28Z</time></trkpt><trkpt lat="44.469525961011016" lon="7.885633275542602"><ele>286.5</ele><time>2026-04-23T16:21:29Z</time></trkpt><trkpt lat="44.46940631826766" lon="7.885505692987127"><ele>286.25</ele><time>2026-04-23T16:21:30Z</time></trkpt><trkpt lat="44.469281797781" lon="7.885386626121131"><ele>286.0</ele><time>2026-04-23T16:21:31Z</time></trkpt><trkpt lat="44.46915268924113" lon="7.88526393417992"><ele>286.0</ele><time>2026-04-23T16:21:32Z</time></trkpt><trkpt lat="44.46902689996636" lon="7.885142866538096"><ele>286.0</ele><time>2026-04-23T16:21:33Z</time></trkpt><trkpt lat="44.468899025512904" lon="7.885026546804552"><ele>286.0</ele><time>2026-04-23T16:21:34Z</time></trkpt><trkpt lat="44.46876315330846" lon="7.884923932091657"><ele>285.66666666666663</ele><time>2026-04-23T16:21:35Z</time></trkpt><trkpt lat="44.46862093004926" lon="7.884824482457407"><ele>285.3333333333333</ele><time>2026-04-23T16:21:35.999Z</time></trkpt><trkpt lat="44.46848104038911" lon="7.884727465376978"><ele>285.0</ele><time>2026-04-23T16:21:36.999Z</time></trkpt><trkpt lat="44.468338878170634" lon="7.884637683696492"><ele>285.0</ele><time>2026-04-23T16:21:37.999Z</time></trkpt><trkpt lat="44.4681931515849" lon="7.884560407885615"><ele>285.0</ele><time>2026-04-23T16:21:38.999Z</time></trkpt><trkpt lat="44.46804626047872" lon="7.884479231635078"><ele>285.0</ele><time>2026-04-23T16:21:39.999Z</time></trkpt><trkpt lat="44.467893599344634" lon="7.884402327397068"><ele>285.0</ele><time>2026-04-23T16:21:40.999Z</time></trkpt><trkpt lat="44.46773837172121" lon="7.884329801186619"><ele>285.0</ele><time>2026-04-23T16:21:41.999Z</time></trkpt><trkpt lat="44.46758028544812" lon="7.8842696231259195"><ele>285.0</ele><time>2026-04-23T16:21:42.999Z</time></trkpt><trkpt lat="44.46742351244151" lon="7.88421703441269"><ele>285.0</ele><time>2026-04-23T16:21:43.999Z</time></trkpt><trkpt lat="44.46726114893609" lon="7.884173594557996"><ele>285.0</ele><time>2026-04-23T16:21:44.999Z</time></trkpt><trkpt lat="44.46709825121982" lon="7.884132956640131"><ele>285.0</ele><time>2026-04-23T16:21:45.999Z</time></trkpt><trkpt lat="44.46693175297508" lon="7.884101533397414"><ele>285.0</ele><time>2026-04-23T16:21:46.999Z</time></trkpt><trkpt lat="44.4667629224674" lon="7.884076074229607"><ele>285.0</ele><time>2026-04-23T16:21:47.999Z</time></trkpt><trkpt lat="44.4665924982936" lon="7.884058808586"><ele>285.0</ele><time>2026-04-23T16:21:48.999Z</time></trkpt><trkpt lat="44.46641951611995" lon="7.88404383834791"><ele>283.3333333333333</ele><time>2026-04-23T16:21:49.999Z</time></trkpt><trkpt lat="44.46624232796908" lon="7.884046285954956"><ele>281.66666666666663</ele><time>2026-04-23T16:21:50.999Z</time></trkpt><trkpt lat="44.46605933921065" lon="7.884056097709734"><ele>280.0</ele><time>2026-04-23T16:21:51.999Z</time></trkpt><trkpt lat="44.4658753175602" lon="7.884069919672827"><ele>280.0</ele><time>2026-04-23T16:21:52.999Z</time></trkpt><trkpt lat="44.4656948816396" lon="7.884093006684119"><ele>280.0</ele><time>2026-04-23T16:21:53.999Z</time></trkpt><trkpt lat="44.46551785561976" lon="7.8841245215628355"><ele>280.0</ele><time>2026-04-23T16:21:54.999Z</time></trkpt><trkpt lat="44.4653466768738" lon="7.88416250293772"><ele>279.66666666666663</ele><time>2026-04-23T16:21:55.999Z</time></trkpt><trkpt lat="44.46516961511811" lon="7.884208653371611"><ele>279.3333333333333</ele><time>2026-04-23T16:21:56.999Z</time></trkpt><trkpt lat="44.464991153428905" lon="7.884264272798687"><ele>279.0</ele><time>2026-04-23T16:21:57.999Z</time></trkpt><trkpt lat="44.46481086838313" lon="7.884327440102184"><ele>278.3333333333333</ele><time>2026-04-23T16:21:58.999Z</time></trkpt><trkpt lat="44.46463597104422" lon="7.884397320567832"><ele>277.66666666666663</ele><time>2026-04-23T16:21:59.999Z</time></trkpt><trkpt lat="44.46446068424776" lon="7.884479643464939"><ele>277.0</ele><time>2026-04-23T16:22:00.999Z</time></trkpt><trkpt lat="44.46429280935655" lon="7.884569942698892"><ele>277.0</ele><time>2026-04-23T16:22:01.999Z</time></trkpt><trkpt lat="44.4641255530628" lon="7.884672215943051"><ele>277.0</ele><time>2026-04-23T16:22:02.999Z</time></trkpt><trkpt lat="44.46395813080762" lon="7.884779551011505"><ele>277.0</ele><time>2026-04-23T16:22:03.999Z</time></trkpt><trkpt lat="44.463798175979555" lon="7.884895516974211"><ele>276.66666666666663</ele><time>2026-04-23T16:22:04.999Z</time></trkpt><trkpt lat="44.46364051002024" lon="7.885015452639743"><ele>276.3333333333333</ele><time>2026-04-23T16:22:05.999Z</time></trkpt><trkpt lat="44.46348680247157" lon="7.885141971161962"><ele>276.0</ele><time>2026-04-23T16:22:06.999Z</time></trkpt><trkpt lat="44.463338187139094" lon="7.885275376892444"><ele>275.0</ele><time>2026-04-23T16:22:07.999Z</time></trkpt><trkpt lat="44.46319310015505" lon="7.8854131312707905"><ele>274.0</ele><time>2026-04-23T16:22:08.999Z</time></trkpt><trkpt lat="44.46305405927704" lon="7.885560158684515"><ele>273.0</ele><time>2026-04-23T16:22:09.999Z</time></trkpt><trkpt lat="44.46290998603216" lon="7.885720826221711"><ele>277.3333333333333</ele><time>2026-04-23T16:22:10.999Z</time></trkpt><trkpt lat="44.462773706531664" lon="7.8858835295376"><ele>281.66666666666663</ele><time>2026-04-23T16:22:11.999Z</time></trkpt><trkpt lat="44.462630549225175" lon="7.886053864572582"><ele>286.0</ele><time>2026-04-23T16:22:12.999Z</time></trkpt><trkpt lat="44.46249753952543" lon="7.886226140342502"><ele>286.0</ele><time>2026-04-23T16:22:13.999Z</time></trkpt><trkpt lat="44.46236031915793" lon="7.886397904389794"><ele>286.0</ele><time>2026-04-23T16:22:14.999Z</time></trkpt><trkpt lat="44.46222407674137" lon="7.886572015340531"><ele>286.0</ele><time>2026-04-23T16:22:15.999Z</time></trkpt><trkpt lat="44.462087247031704" lon="7.8867378591512125"><ele>284.66666666666663</ele><time>2026-04-23T16:22:16.999Z</time></trkpt><trkpt lat="44.46194506822778" lon="7.886908331835857"><ele>283.3333333333333</ele><time>2026-04-23T16:22:17.999Z</time></trkpt><trkpt lat="44.46180767081644" lon="7.887073724354637"><ele>282.0</ele><time>2026-04-23T16:22:18.999Z</time></trkpt><trkpt lat="44.461678342724944" lon="7.88723578901469"><ele>282.0</ele><time>2026-04-23T16:22:19.999Z</time></trkpt><trkpt lat="44.461547356858986" lon="7.887400815038194"><ele>282.0</ele><time>2026-04-23T16:22:20.999Z</time></trkpt><trkpt lat="44.461417005309464" lon="7.887569861287285"><ele>282.0</ele><time>2026-04-23T16:22:21.999Z</time></trkpt><trkpt lat="44.46128320706819" lon="7.8877367119801285"><ele>281.6666666666667</ele><time>2026-04-23T16:22:22.999Z</time></trkpt><trkpt lat="44.461148917373706" lon="7.88790576006679"><ele>281.33333333333337</ele><time>2026-04-23T16:22:23.999Z</time></trkpt><trkpt lat="44.46101256346301" lon="7.888073346830656"><ele>281.0</ele><time>2026-04-23T16:22:24.999Z</time></trkpt><trkpt lat="44.460872945824676" lon="7.888238712153006"><ele>281.0</ele><time>2026-04-23T16:22:25.999Z</time></trkpt><trkpt lat="44.46073955050658" lon="7.888398667877194"><ele>281.0</ele><time>2026-04-23T16:22:26.999Z</time></trkpt><trkpt lat="44.46061072997912" lon="7.888556664521847"><ele>281.0</ele><time>2026-04-23T16:22:27.999Z</time></trkpt><trkpt lat="44.4604781180097" lon="7.888725303458389"><ele>281.0</ele><time>2026-04-23T16:22:28.999Z</time></trkpt><trkpt lat="44.46035021027215" lon="7.888877843931263"><ele>281.0</ele><time>2026-04-23T16:22:29.999Z</time></trkpt><trkpt lat="44.4602205399096" lon="7.88903187278194"><ele>281.0</ele><time>2026-04-23T16:22:30.999Z</time></trkpt><trkpt lat="44.460086607117326" lon="7.889187406114549"><ele>279.6666666666667</ele><time>2026-04-23T16:22:31.999Z</time></trkpt><trkpt lat="44.459948506674635" lon="7.889334465379082"><ele>278.3333333333333</ele><time>2026-04-23T16:22:32.999Z</time></trkpt><trkpt lat="44.45981231866376" lon="7.889474071907972"><ele>277.0</ele><time>2026-04-23T16:22:33.999Z</time></trkpt><trkpt lat="44.45966057841352" lon="7.889610709962595"><ele>277.0</ele><time>2026-04-23T16:22:34.999Z</time></trkpt><trkpt lat="44.45951357101566" lon="7.88973005808888"><ele>277.0</ele><time>2026-04-23T16:22:35.999Z</time></trkpt><trkpt lat="44.45935331972698" lon="7.889842844098937"><ele>277.0</ele><time>2026-04-23T16:22:36.999Z</time></trkpt><trkpt lat="44.459188696596996" lon="7.889950023383823"><ele>277.0</ele><time>2026-04-23T16:22:37.999Z</time></trkpt><trkpt lat="44.459017393032404" lon="7.890044670018713"><ele>277.0</ele><time>2026-04-23T16:22:38.999Z</time></trkpt><trkpt lat="44.45884433975304" lon="7.890125212527406"><ele>277.0</ele><time>2026-04-23T16:22:39.999Z</time></trkpt><trkpt lat="44.45866982660647" lon="7.8901958793087505"><ele>275.66666666666663</ele><time>2026-04-23T16:22:40.999Z</time></trkpt><trkpt lat="44.45849396285483" lon="7.890264090309927"><ele>274.3333333333333</ele><time>2026-04-23T16:22:41.999Z</time></trkpt><trkpt lat="44.45831729049915" lon="7.890320734205483"><ele>273.0</ele><time>2026-04-23T16:22:42.998Z</time></trkpt><trkpt lat="44.4581396096663" lon="7.890386640772932"><ele>273.0</ele><time>2026-04-23T16:22:43.998Z</time></trkpt><trkpt lat="44.457961428941" lon="7.890446390730741"><ele>273.0</ele><time>2026-04-23T16:22:44.998Z</time></trkpt><trkpt lat="44.457782199666624" lon="7.890508655784635"><ele>273.0</ele><time>2026-04-23T16:22:45.998Z</time></trkpt><trkpt lat="44.457603846104355" lon="7.89057259975718"><ele>272.6666666666667</ele><time>2026-04-23T16:22:46.998Z</time></trkpt><trkpt lat="44.45742522655984" lon="7.8906358878709675"><ele>272.33333333333337</ele><time>2026-04-23T16:22:47.998Z</time></trkpt><trkpt lat="44.457247929917095" lon="7.890701547225732"><ele>272.0</ele><time>2026-04-23T16:22:48.998Z</time></trkpt><trkpt lat="44.45707428416773" lon="7.890763188494366"><ele>273.0</ele><time>2026-04-23T16:22:49.998Z</time></trkpt><trkpt lat="44.45689957858652" lon="7.890825164751885"><ele>274.0</ele><time>2026-04-23T16:22:50.998Z</time></trkpt><trkpt lat="44.45672631273797" lon="7.890885776575446"><ele>275.0</ele><time>2026-04-23T16:22:51.998Z</time></trkpt><trkpt lat="44.456556471392304" lon="7.890942751879976"><ele>275.0</ele><time>2026-04-23T16:22:52.998Z</time></trkpt><trkpt lat="44.45638250467436" lon="7.891002646842226"><ele>275.0</ele><time>2026-04-23T16:22:53.998Z</time></trkpt><trkpt lat="44.45620909886021" lon="7.891053735027304"><ele>275.0</ele><time>2026-04-23T16:22:54.998Z</time></trkpt><trkpt lat="44.456037185342495" lon="7.891112975758378"><ele>277.33333333333337</ele><time>2026-04-23T16:22:55.998Z</time></trkpt><trkpt lat="44.455866274648955" lon="7.8911720980165105"><ele>279.6666666666667</ele><time>2026-04-23T16:22:57Z</time></trkpt><trkpt lat="44.45569232885287" lon="7.891243171228722"><ele>282.0</ele><time>2026-04-23T16:22:58Z</time></trkpt><trkpt lat="44.455520786563156" lon="7.891305493087488"><ele>283.0</ele><time>2026-04-23T16:22:59Z</time></trkpt><trkpt lat="44.45534821019689" lon="7.8913610683433815"><ele>284.0</ele><time>2026-04-23T16:23:00Z</time></trkpt><trkpt lat="44.45517795683005" lon="7.8914236815677"><ele>285.0</ele><time>2026-04-23T16:23:01Z</time></trkpt><trkpt lat="44.45501090744225" lon="7.89148228253143"><ele>285.0</ele><time>2026-04-23T16:23:02Z</time></trkpt><trkpt lat="44.45485089693662" lon="7.891535649773741"><ele>285.0</ele><time>2026-04-23T16:23:03Z</time></trkpt><trkpt lat="44.45468487389319" lon="7.891589168623788"><ele>285.0</ele><time>2026-04-23T16:23:04Z</time></trkpt><trkpt lat="44.4545171530917" lon="7.891646450049718"><ele>284.3333333333333</ele><time>2026-04-23T16:23:05Z</time></trkpt><trkpt lat="44.454354614283396" lon="7.891702223947789"><ele>283.66666666666663</ele><time>2026-04-23T16:23:06Z</time></trkpt><trkpt lat="44.45419289320165" lon="7.891756654192653"><ele>283.0</ele><time>2026-04-23T16:23:07Z</time></trkpt><trkpt lat="44.45403139673092" lon="7.891811432843371"><ele>283.0</ele><time>2026-04-23T16:23:08Z</time></trkpt><trkpt lat="44.45388015572124" lon="7.891867274357561"><ele>283.0</ele><time>2026-04-23T16:23:09Z</time></trkpt><trkpt lat="44.45372432390114" lon="7.891922732144438"><ele>283.0</ele><time>2026-04-23T16:23:10Z</time></trkpt><trkpt lat="44.45356758683394" lon="7.89197997960691"><ele>281.3333333333333</ele><time>2026-04-23T16:23:11Z</time></trkpt><trkpt lat="44.45341279917051" lon="7.892035434570684"><ele>279.6666666666667</ele><time>2026-04-23T16:23:12Z</time></trkpt><trkpt lat="44.4532519631335" lon="7.892088800059117"><ele>278.0</ele><time>2026-04-23T16:23:13Z</time></trkpt><trkpt lat="44.45308226308952" lon="7.892147971507402"><ele>278.6666666666667</ele><time>2026-04-23T16:23:14Z</time></trkpt><trkpt lat="44.45291387153022" lon="7.892204380872365"><ele>279.3333333333333</ele><time>2026-04-23T16:23:15Z</time></trkpt><trkpt lat="44.45275560563887" lon="7.892255041797447"><ele>280.0</ele><time>2026-04-23T16:23:16Z</time></trkpt><trkpt lat="44.4526066260246" lon="7.892306649819765"><ele>280.0</ele><time>2026-04-23T16:23:17Z</time></trkpt><trkpt lat="44.45245932148525" lon="7.892357268690543"><ele>280.0</ele><time>2026-04-23T16:23:18Z</time></trkpt><trkpt lat="44.45233374280263" lon="7.892392296112321"><ele>280.0</ele><time>2026-04-23T16:23:19Z</time></trkpt><trkpt lat="44.45220521398776" lon="7.8924351093688365"><ele>280.0</ele><time>2026-04-23T16:23:20Z</time></trkpt><trkpt lat="44.452092543983525" lon="7.892469209746633"><ele>280.6</ele><time>2026-04-23T16:23:21Z</time></trkpt><trkpt lat="44.452001596210515" lon="7.892517219604468"><ele>281.2</ele><time>2026-04-23T16:23:22Z</time></trkpt><trkpt lat="44.45190254705646" lon="7.892517812565283"><ele>281.8</ele><time>2026-04-23T16:23:23Z</time></trkpt><trkpt lat="44.45180179659378" lon="7.892497825029098"><ele>282.4</ele><time>2026-04-23T16:23:24Z</time></trkpt><trkpt lat="44.451695487318496" lon="7.892461495088477"><ele>283.0</ele><time>2026-04-23T16:23:25Z</time></trkpt><trkpt lat="44.45159267329522" lon="7.892402670063015"><ele>283.0</ele><time>2026-04-23T16:23:26Z</time></trkpt><trkpt lat="44.451492464004914" lon="7.892318507362553"><ele>283.0</ele><time>2026-04-23T16:23:27Z</time></trkpt><trkpt lat="44.451397292036035" lon="7.892212324444554"><ele>283.0</ele><time>2026-04-23T16:23:28Z</time></trkpt><trkpt lat="44.45131150055846" lon="7.892078263255691"><ele>283.0</ele><time>2026-04-23T16:23:29Z</time></trkpt><trkpt lat="44.45121672108455" lon="7.891959385366011"><ele>283.25</ele><time>2026-04-23T16:23:30Z</time></trkpt><trkpt lat="44.451154329567935" lon="7.891783022596744"><ele>283.5</ele><time>2026-04-23T16:23:31Z</time></trkpt><trkpt lat="44.45107459485189" lon="7.89161234904408"><ele>283.75</ele><time>2026-04-23T16:23:32Z</time></trkpt><trkpt lat="44.450989872448794" lon="7.891449702477873"><ele>284.0</ele><time>2026-04-23T16:23:33Z</time></trkpt><trkpt lat="44.450902801345485" lon="7.891268396595161"><ele>284.0</ele><time>2026-04-23T16:23:34Z</time></trkpt><trkpt lat="44.4508125579957" lon="7.891085822547751"><ele>284.0</ele><time>2026-04-23T16:23:35Z</time></trkpt><trkpt lat="44.45072405944835" lon="7.890899082127431"><ele>284.0</ele><time>2026-04-23T16:23:36Z</time></trkpt><trkpt lat="44.45062756039135" lon="7.8907109830549516"><ele>282.6666666666667</ele><time>2026-04-23T16:23:37Z</time></trkpt><trkpt lat="44.45052875319965" lon="7.89051093521444"><ele>281.3333333333333</ele><time>2026-04-23T16:23:38Z</time></trkpt><trkpt lat="44.45042534736745" lon="7.890308994867521"><ele>280.0</ele><time>2026-04-23T16:23:39Z</time></trkpt><trkpt lat="44.450323452779855" lon="7.890109851633926"><ele>283.0</ele><time>2026-04-23T16:23:40Z</time></trkpt><trkpt lat="44.450222523278306" lon="7.889910295315275"><ele>286.0</ele><time>2026-04-23T16:23:41Z</time></trkpt><trkpt lat="44.450119218889554" lon="7.889704451669585"><ele>289.0</ele><time>2026-04-23T16:23:42Z</time></trkpt><trkpt lat="44.45001117481963" lon="7.88949221601465"><ele>289.0</ele><time>2026-04-23T16:23:43Z</time></trkpt><trkpt lat="44.44990384074883" lon="7.8892798347087885"><ele>289.0</ele><time>2026-04-23T16:23:44Z</time></trkpt><trkpt lat="44.44979601903974" lon="7.889073656475126"><ele>289.0</ele><time>2026-04-23T16:23:44.999Z</time></trkpt><trkpt lat="44.44969367060136" lon="7.888863171347451"><ele>290.3333333333333</ele><time>2026-04-23T16:23:45.999Z</time></trkpt><trkpt lat="44.449588764999554" lon="7.888659101352741"><ele>291.6666666666667</ele><time>2026-04-23T16:23:46.999Z</time></trkpt><trkpt lat="44.44949427461786" lon="7.888462186145952"><ele>293.0</ele><time>2026-04-23T16:23:47.999Z</time></trkpt><trkpt lat="44.449393444931076" lon="7.888258251928208"><ele>293.0</ele><time>2026-04-23T16:23:48.999Z</time></trkpt><trkpt lat="44.44929405765172" lon="7.888065379821373"><ele>293.0</ele><time>2026-04-23T16:23:49.999Z</time></trkpt><trkpt lat="44.44919658097896" lon="7.887864459334416"><ele>293.0</ele><time>2026-04-23T16:23:50.999Z</time></trkpt><trkpt lat="44.44909896660356" lon="7.887666643563913"><ele>292.33333333333337</ele><time>2026-04-23T16:23:51.999Z</time></trkpt><trkpt lat="44.449001780736296" lon="7.8874753555282915"><ele>291.6666666666667</ele><time>2026-04-23T16:23:52.999Z</time></trkpt><trkpt lat="44.44890363684991" lon="7.887279189369491"><ele>291.0</ele><time>2026-04-23T16:23:53.999Z</time></trkpt><trkpt lat="44.44880286685469" lon="7.88707717357745"><ele>291.0</ele><time>2026-04-23T16:23:54.999Z</time></trkpt><trkpt lat="44.44870304187138" lon="7.886871280123562"><ele>291.0</ele><time>2026-04-23T16:23:55.999Z</time></trkpt><trkpt lat="44.448606847983484" lon="7.886670934510977"><ele>291.0</ele><time>2026-04-23T16:23:56.999Z</time></trkpt><trkpt lat="44.44850858346972" lon="7.886471793685211"><ele>291.6666666666667</ele><time>2026-04-23T16:23:57.999Z</time></trkpt><trkpt lat="44.448409105976744" lon="7.886273364198551"><ele>292.33333333333337</ele><time>2026-04-23T16:23:58.999Z</time></trkpt><trkpt lat="44.448308236647236" lon="7.886060504905864"><ele>293.0</ele><time>2026-04-23T16:23:59.999Z</time></trkpt><trkpt lat="44.448207819845386" lon="7.885858103060561"><ele>292.0</ele><time>2026-04-23T16:24:00.999Z</time></trkpt><trkpt lat="44.44810878046621" lon="7.885658298312203"><ele>291.0</ele><time>2026-04-23T16:24:01.999Z</time></trkpt><trkpt lat="44.44800980042443" lon="7.8854491923827785"><ele>290.0</ele><time>2026-04-23T16:24:02.999Z</time></trkpt><trkpt lat="44.44791741614883" lon="7.88523923162992"><ele>291.0</ele><time>2026-04-23T16:24:03.999Z</time></trkpt><trkpt lat="44.44782877325125" lon="7.8850255594708205"><ele>292.0</ele><time>2026-04-23T16:24:04.999Z</time></trkpt><trkpt lat="44.44774583579691" lon="7.884802889853749"><ele>293.0</ele><time>2026-04-23T16:24:05.999Z</time></trkpt><trkpt lat="44.447669949068185" lon="7.884578037327146"><ele>293.0</ele><time>2026-04-23T16:24:06.999Z</time></trkpt><trkpt lat="44.44759607843235" lon="7.884360839077517"><ele>293.0</ele><time>2026-04-23T16:24:07.999Z</time></trkpt><trkpt lat="44.44753174250815" lon="7.884148046342945"><ele>293.0</ele><time>2026-04-23T16:24:08.999Z</time></trkpt><trkpt lat="44.447476937818465" lon="7.883935035471824"><ele>293.6666666666667</ele><time>2026-04-23T16:24:09.999Z</time></trkpt><trkpt lat="44.4474374770729" lon="7.883713836218145"><ele>294.3333333333333</ele><time>2026-04-23T16:24:10.999Z</time></trkpt><trkpt lat="44.44740886148418" lon="7.883481537284189"><ele>295.0</ele><time>2026-04-23T16:24:11.999Z</time></trkpt><trkpt lat="44.447384983499866" lon="7.883242679102055"><ele>297.3333333333333</ele><time>2026-04-23T16:24:12.999Z</time></trkpt><trkpt lat="44.44736341429154" lon="7.882997754672016"><ele>299.6666666666667</ele><time>2026-04-23T16:24:13.999Z</time></trkpt><trkpt lat="44.44734463189163" lon="7.882746383732744"><ele>302.0</ele><time>2026-04-23T16:24:14.999Z</time></trkpt><trkpt lat="44.44732376144585" lon="7.882494027006178"><ele>303.33333333333337</ele><time>2026-04-23T16:24:15.999Z</time></trkpt><trkpt lat="44.44730711550004" lon="7.882242104615538"><ele>304.6666666666667</ele><time>2026-04-23T16:24:16.999Z</time></trkpt><trkpt lat="44.44729275466207" lon="7.8819903815640755"><ele>306.0</ele><time>2026-04-23T16:24:17.999Z</time></trkpt><trkpt lat="44.447277871476636" lon="7.88173336845375"><ele>307.0</ele><time>2026-04-23T16:24:18.999Z</time></trkpt><trkpt lat="44.44726377917552" lon="7.881478820805723"><ele>308.0</ele><time>2026-04-23T16:24:19.999Z</time></trkpt><trkpt lat="44.44724949277013" lon="7.881222093071893"><ele>309.0</ele><time>2026-04-23T16:24:20.999Z</time></trkpt><trkpt lat="44.447234270705415" lon="7.880974375428495"><ele>311.3333333333333</ele><time>2026-04-23T16:24:21.999Z</time></trkpt><trkpt lat="44.44721842853831" lon="7.880744866354229"><ele>313.66666666666663</ele><time>2026-04-23T16:24:22.999Z</time></trkpt><trkpt lat="44.44720785992913" lon="7.880525082335601"><ele>316.0</ele><time>2026-04-23T16:24:23.999Z</time></trkpt><trkpt lat="44.44720112333628" lon="7.880307208376898"><ele>316.0</ele><time>2026-04-23T16:24:24.999Z</time></trkpt><trkpt lat="44.447187304675964" lon="7.88010475903729"><ele>316.0</ele><time>2026-04-23T16:24:25.999Z</time></trkpt><trkpt lat="44.447171426636594" lon="7.879900128717939"><ele>316.0</ele><time>2026-04-23T16:24:26.999Z</time></trkpt><trkpt lat="44.44715484205362" lon="7.879692820408133"><ele>316.0</ele><time>2026-04-23T16:24:27.999Z</time></trkpt><trkpt lat="44.44712454944031" lon="7.879485225406394"><ele>311.66666666666663</ele><time>2026-04-23T16:24:28.999Z</time></trkpt><trkpt lat="44.447083453500774" lon="7.879278615621336"><ele>307.3333333333333</ele><time>2026-04-23T16:24:29.999Z</time></trkpt><trkpt lat="44.447028381500296" lon="7.879077745329016"><ele>303.0</ele><time>2026-04-23T16:24:30.999Z</time></trkpt><trkpt lat="44.44696114292375" lon="7.878884653061218"><ele>303.0</ele><time>2026-04-23T16:24:31.999Z</time></trkpt><trkpt lat="44.44686913808042" lon="7.878713455731332"><ele>303.0</ele><time>2026-04-23T16:24:32.999Z</time></trkpt><trkpt lat="44.44676558769951" lon="7.878552056953133"><ele>303.0</ele><time>2026-04-23T16:24:33.999Z</time></trkpt><trkpt lat="44.446654705317954" lon="7.8783994293357535"><ele>302.0</ele><time>2026-04-23T16:24:34.999Z</time></trkpt><trkpt lat="44.4465393533884" lon="7.87825861036841"><ele>301.0</ele><time>2026-04-23T16:24:35.999Z</time></trkpt><trkpt lat="44.44641632842439" lon="7.878131446550527"><ele>300.0</ele><time>2026-04-23T16:24:36.999Z</time></trkpt><trkpt lat="44.44629222043048" lon="7.878009415766199"><ele>300.0</ele><time>2026-04-23T16:24:37.999Z</time></trkpt><trkpt lat="44.44617423354581" lon="7.877878592582818"><ele>300.0</ele><time>2026-04-23T16:24:38.999Z</time></trkpt><trkpt lat="44.44605885872336" lon="7.877737607724292"><ele>300.0</ele><time>2026-04-23T16:24:39.999Z</time></trkpt><trkpt lat="44.44595900384534" lon="7.877567495837281"><ele>307.0</ele><time>2026-04-23T16:24:40.999Z</time></trkpt><trkpt lat="44.44587043696451" lon="7.877400528998592"><ele>314.0</ele><time>2026-04-23T16:24:41.999Z</time></trkpt><trkpt lat="44.445798462002045" lon="7.877224240871296"><ele>321.0</ele><time>2026-04-23T16:24:42.999Z</time></trkpt><trkpt lat="44.44573653954464" lon="7.877016822219814"><ele>321.0</ele><time>2026-04-23T16:24:43.999Z</time></trkpt><trkpt lat="44.44568382630713" lon="7.87681944156941"><ele>321.0</ele><time>2026-04-23T16:24:44.999Z</time></trkpt><trkpt lat="44.44564293096587" lon="7.876613700594479"><ele>321.0</ele><time>2026-04-23T16:24:45.999Z</time></trkpt><trkpt lat="44.44560685936714" lon="7.876405711864539"><ele>325.3333333333333</ele><time>2026-04-23T16:24:46.999Z</time></trkpt><trkpt lat="44.44557292186885" lon="7.876199894550086"><ele>329.66666666666663</ele><time>2026-04-23T16:24:47.999Z</time></trkpt><trkpt lat="44.44553676233987" lon="7.875992710536908"><ele>334.0</ele><time>2026-04-23T16:24:48.999Z</time></trkpt><trkpt lat="44.44550062336861" lon="7.875790704607203"><ele>332.5</ele><time>2026-04-23T16:24:49.999Z</time></trkpt><trkpt lat="44.44546084021981" lon="7.8755850458142325"><ele>331.0</ele><time>2026-04-23T16:24:50.998Z</time></trkpt><trkpt lat="44.44541733745084" lon="7.875387714547279"><ele>329.5</ele><time>2026-04-23T16:24:51.998Z</time></trkpt><trkpt lat="44.44536572574466" lon="7.875194761468834"><ele>328.0</ele><time>2026-04-23T16:24:52.998Z</time></trkpt><trkpt lat="44.44530908472021" lon="7.875005755257413"><ele>328.0</ele><time>2026-04-23T16:24:53.998Z</time></trkpt><trkpt lat="44.445240234566334" lon="7.8748201325337"><ele>328.0</ele><time>2026-04-23T16:24:54.998Z</time></trkpt><trkpt lat="44.44515846168672" lon="7.874645769824805"><ele>328.0</ele><time>2026-04-23T16:24:55.998Z</time></trkpt><trkpt lat="44.44507357792395" lon="7.874468875693939"><ele>328.0</ele><time>2026-04-23T16:24:56.998Z</time></trkpt><trkpt lat="44.44497586852316" lon="7.87430800174127"><ele>328.0</ele><time>2026-04-23T16:24:57.998Z</time></trkpt><trkpt lat="44.44486825507434" lon="7.874159166064668"><ele>328.0</ele><time>2026-04-23T16:24:58.998Z</time></trkpt><trkpt lat="44.44475084257137" lon="7.874025600125625"><ele>328.0</ele><time>2026-04-23T16:24:59.998Z</time></trkpt><trkpt lat="44.44463420656459" lon="7.873891349651675"><ele>328.0</ele><time>2026-04-23T16:25:00.998Z</time></trkpt><trkpt lat="44.44451346025648" lon="7.873770848720501"><ele>328.0</ele><time>2026-04-23T16:25:02Z</time></trkpt><trkpt lat="44.444389784787475" lon="7.873646666775059"><ele>328.0</ele><time>2026-04-23T16:25:03Z</time></trkpt><trkpt lat="44.44426147028546" lon="7.873525961272385"><ele>328.0</ele><time>2026-04-23T16:25:04Z</time></trkpt><trkpt lat="44.44413060258079" lon="7.873410250147524"><ele>328.0</ele><time>2026-04-23T16:25:05Z</time></trkpt><trkpt lat="44.44400657339735" lon="7.873288734781751"><ele>332.66666666666663</ele><time>2026-04-23T16:25:06Z</time></trkpt><trkpt lat="44.443880195379215" lon="7.873172008583832"><ele>337.3333333333333</ele><time>2026-04-23T16:25:07Z</time></trkpt><trkpt lat="44.44375152879794" lon="7.873054500624071"><ele>342.0</ele><time>2026-04-23T16:25:08Z</time></trkpt><trkpt lat="44.44362219521533" lon="7.872933101271222"><ele>342.0</ele><time>2026-04-23T16:25:09Z</time></trkpt><trkpt lat="44.44349548802477" lon="7.87280922841119"><ele>342.0</ele><time>2026-04-23T16:25:10Z</time></trkpt><trkpt lat="44.44336451080648" lon="7.872682448100499"><ele>342.0</ele><time>2026-04-23T16:25:11Z</time></trkpt><trkpt lat="44.44323193646476" lon="7.872556730317219"><ele>346.0</ele><time>2026-04-23T16:25:12Z</time></trkpt><trkpt lat="44.443100309926194" lon="7.872432976912099"><ele>350.0</ele><time>2026-04-23T16:25:13Z</time></trkpt><trkpt lat="44.44296626134993" lon="7.872308552952068"><ele>354.0</ele><time>2026-04-23T16:25:14Z</time></trkpt><trkpt lat="44.44283241326608" lon="7.8721961300103205"><ele>355.0</ele><time>2026-04-23T16:25:15Z</time></trkpt><trkpt lat="44.4426932646401" lon="7.872074134493111"><ele>356.0</ele><time>2026-04-23T16:25:16Z</time></trkpt><trkpt lat="44.44255929912722" lon="7.871963258411514"><ele>357.0</ele><time>2026-04-23T16:25:17Z</time></trkpt><trkpt lat="44.442415512431175" lon="7.871845031881894"><ele>357.3333333333333</ele><time>2026-04-23T16:25:18Z</time></trkpt><trkpt lat="44.442274418391015" lon="7.87172822709487"><ele>357.66666666666663</ele><time>2026-04-23T16:25:19Z</time></trkpt><trkpt lat="44.44212798178916" lon="7.871614238577142"><ele>358.0</ele><time>2026-04-23T16:25:20Z</time></trkpt><trkpt lat="44.44198126733193" lon="7.871501130862241"><ele>359.66666666666663</ele><time>2026-04-23T16:25:21Z</time></trkpt><trkpt lat="44.441833791846186" lon="7.871387877898024"><ele>361.3333333333333</ele><time>2026-04-23T16:25:22Z</time></trkpt><trkpt lat="44.44168522776848" lon="7.871270714428686"><ele>363.0</ele><time>2026-04-23T16:25:23Z</time></trkpt><trkpt lat="44.44153500064757" lon="7.871156214048839"><ele>363.0</ele><time>2026-04-23T16:25:24Z</time></trkpt><trkpt lat="44.44137875389341" lon="7.871042697612648"><ele>363.0</ele><time>2026-04-23T16:25:25Z</time></trkpt><trkpt lat="44.44122390591479" lon="7.870929056501287"><ele>363.0</ele><time>2026-04-23T16:25:26Z</time></trkpt><trkpt lat="44.44107157018247" lon="7.8708157284818805"><ele>365.3333333333333</ele><time>2026-04-23T16:25:27Z</time></trkpt><trkpt lat="44.44091386336553" lon="7.870699792355609"><ele>367.66666666666663</ele><time>2026-04-23T16:25:28Z</time></trkpt><trkpt lat="44.44075367663873" lon="7.8705804766745455"><ele>370.0</ele><time>2026-04-23T16:25:29Z</time></trkpt><trkpt lat="44.440592989354855" lon="7.870461240871141"><ele>370.3333333333333</ele><time>2026-04-23T16:25:30Z</time></trkpt><trkpt lat="44.44042975865959" lon="7.870336779050825"><ele>370.6666666666667</ele><time>2026-04-23T16:25:31Z</time></trkpt><trkpt lat="44.44026553245818" lon="7.870210675042025"><ele>371.0</ele><time>2026-04-23T16:25:32Z</time></trkpt><trkpt lat="44.44010432811079" lon="7.870087947457062"><ele>371.0</ele><time>2026-04-23T16:25:33Z</time></trkpt><trkpt lat="44.43994436457919" lon="7.869962709051695"><ele>371.0</ele><time>2026-04-23T16:25:34Z</time></trkpt><trkpt lat="44.439781933171155" lon="7.869838700868852"><ele>371.0</ele><time>2026-04-23T16:25:35Z</time></trkpt><trkpt lat="44.43961684038013" lon="7.869715409609278"><ele>371.0</ele><time>2026-04-23T16:25:36Z</time></trkpt><trkpt lat="44.439451500756746" lon="7.8695851724102175"><ele>371.0</ele><time>2026-04-23T16:25:37Z</time></trkpt><trkpt lat="44.439284282898804" lon="7.869462250782447"><ele>371.0</ele><time>2026-04-23T16:25:38Z</time></trkpt><trkpt lat="44.43911807399511" lon="7.86933247319782"><ele>371.0</ele><time>2026-04-23T16:25:39Z</time></trkpt><trkpt lat="44.43895620267615" lon="7.869197353717619"><ele>371.0</ele><time>2026-04-23T16:25:40Z</time></trkpt><trkpt lat="44.438793113916255" lon="7.869060990458723"><ele>371.0</ele><time>2026-04-23T16:25:41Z</time></trkpt><trkpt lat="44.43862674111347" lon="7.868917840902609"><ele>371.0</ele><time>2026-04-23T16:25:42Z</time></trkpt><trkpt lat="44.43846739409207" lon="7.868772181116269"><ele>371.0</ele><time>2026-04-23T16:25:43Z</time></trkpt><trkpt lat="44.43830550089607" lon="7.868621577086591"><ele>371.0</ele><time>2026-04-23T16:25:44Z</time></trkpt><trkpt lat="44.43814753891907" lon="7.868470864435308"><ele>371.0</ele><time>2026-04-23T16:25:45Z</time></trkpt><trkpt lat="44.43798613506403" lon="7.868316934763542"><ele>371.0</ele><time>2026-04-23T16:25:46Z</time></trkpt><trkpt lat="44.43782411819281" lon="7.868158831149895"><ele>371.0</ele><time>2026-04-23T16:25:47Z</time></trkpt><trkpt lat="44.4376614539883" lon="7.867995592462073"><ele>371.0</ele><time>2026-04-23T16:25:48Z</time></trkpt><trkpt lat="44.437499382147124" lon="7.867830422180697"><ele>371.0</ele><time>2026-04-23T16:25:49Z</time></trkpt><trkpt lat="44.43733955370046" lon="7.867664650439811"><ele>371.0</ele><time>2026-04-23T16:25:50Z</time></trkpt><trkpt lat="44.43718266407845" lon="7.867492942533846"><ele>371.6666666666667</ele><time>2026-04-23T16:25:51Z</time></trkpt><trkpt lat="44.437035635255036" lon="7.867328771060934"><ele>372.3333333333333</ele><time>2026-04-23T16:25:52Z</time></trkpt><trkpt lat="44.43688184769826" lon="7.867158360506502"><ele>373.0</ele><time>2026-04-23T16:25:52.999Z</time></trkpt><trkpt lat="44.43672969638003" lon="7.866992243025007"><ele>373.0</ele><time>2026-04-23T16:25:53.999Z</time></trkpt><trkpt lat="44.436577744911226" lon="7.866821395163034"><ele>373.0</ele><time>2026-04-23T16:25:54.999Z</time></trkpt><trkpt lat="44.43642583064731" lon="7.866644182517048"><ele>373.0</ele><time>2026-04-23T16:25:55.999Z</time></trkpt><trkpt lat="44.436271518277906" lon="7.8664678279639935"><ele>373.3333333333333</ele><time>2026-04-23T16:25:56.999Z</time></trkpt><trkpt lat="44.43611350853287" lon="7.866287086337814"><ele>373.6666666666667</ele><time>2026-04-23T16:25:57.999Z</time></trkpt><trkpt lat="44.43595801624162" lon="7.866116198476941"><ele>374.0</ele><time>2026-04-23T16:25:58.999Z</time></trkpt><trkpt lat="44.435804015205704" lon="7.865949380490534"><ele>374.0</ele><time>2026-04-23T16:25:59.999Z</time></trkpt><trkpt lat="44.43564820676237" lon="7.865769204870432"><ele>374.0</ele><time>2026-04-23T16:26:00.999Z</time></trkpt><trkpt lat="44.43549178573942" lon="7.865598474830034"><ele>374.0</ele><time>2026-04-23T16:26:01.999Z</time></trkpt><trkpt lat="44.43533440628949" lon="7.865423043806917"><ele>374.0</ele><time>2026-04-23T16:26:02.999Z</time></trkpt><trkpt lat="44.435181012948895" lon="7.865252902420793"><ele>374.0</ele><time>2026-04-23T16:26:03.999Z</time></trkpt><trkpt lat="44.435027122279585" lon="7.865084100976368"><ele>374.0</ele><time>2026-04-23T16:26:04.999Z</time></trkpt><trkpt lat="44.43487090471604" lon="7.864912199994227"><ele>374.0</ele><time>2026-04-23T16:26:05.999Z</time></trkpt><trkpt lat="44.434717563238" lon="7.864740546558644"><ele>374.0</ele><time>2026-04-23T16:26:06.999Z</time></trkpt><trkpt lat="44.43457070366107" lon="7.864566342665267"><ele>374.0</ele><time>2026-04-23T16:26:07.999Z</time></trkpt><trkpt lat="44.434420938253076" lon="7.864390065166433"><ele>374.0</ele><time>2026-04-23T16:26:08.999Z</time></trkpt><trkpt lat="44.434268361778024" lon="7.864216553886411"><ele>374.0</ele><time>2026-04-23T16:26:09.999Z</time></trkpt><trkpt lat="44.434107737851235" lon="7.864042426681094"><ele>374.0</ele><time>2026-04-23T16:26:10.999Z</time></trkpt><trkpt lat="44.433955824799675" lon="7.863872855683936"><ele>374.33333333333337</ele><time>2026-04-23T16:26:11.999Z</time></trkpt><trkpt lat="44.433798732156234" lon="7.863697351041994"><ele>374.6666666666667</ele><time>2026-04-23T16:26:12.999Z</time></trkpt><trkpt lat="44.43364189577381" lon="7.8635238719901475"><ele>375.0</ele><time>2026-04-23T16:26:13.999Z</time></trkpt><trkpt lat="44.433485482704384" lon="7.863350989476832"><ele>375.0</ele><time>2026-04-23T16:26:14.999Z</time></trkpt><trkpt lat="44.433332232391024" lon="7.863173983453766"><ele>375.0</ele><time>2026-04-23T16:26:15.999Z</time></trkpt><trkpt lat="44.433182180525215" lon="7.862999737438937"><ele>375.0</ele><time>2026-04-23T16:26:16.999Z</time></trkpt><trkpt lat="44.433028701073084" lon="7.862822290332571"><ele>375.0</ele><time>2026-04-23T16:26:17.999Z</time></trkpt><trkpt lat="44.43287418415137" lon="7.862645847062716"><ele>375.0</ele><time>2026-04-23T16:26:18.999Z</time></trkpt><trkpt lat="44.43271884947688" lon="7.862474661475985"><ele>375.0</ele><time>2026-04-23T16:26:19.999Z</time></trkpt><trkpt lat="44.43256818215473" lon="7.862300418963206"><ele>375.0</ele><time>2026-04-23T16:26:20.999Z</time></trkpt><trkpt lat="44.432413879047886" lon="7.862129526390464"><ele>375.0</ele><time>2026-04-23T16:26:21.999Z</time></trkpt><trkpt lat="44.43225666466241" lon="7.861950621627859"><ele>375.0</ele><time>2026-04-23T16:26:22.999Z</time></trkpt><trkpt lat="44.43210342034832" lon="7.861776277357067"><ele>376.3333333333333</ele><time>2026-04-23T16:26:23.999Z</time></trkpt><trkpt lat="44.431947874260494" lon="7.8616081966393905"><ele>377.66666666666663</ele><time>2026-04-23T16:26:24.999Z</time></trkpt><trkpt lat="44.4317864357432" lon="7.861432836799654"><ele>379.0</ele><time>2026-04-23T16:26:25.999Z</time></trkpt><trkpt lat="44.43163437579746" lon="7.861254468442538"><ele>379.0</ele><time>2026-04-23T16:26:26.999Z</time></trkpt><trkpt lat="44.43147864700246" lon="7.861081525687795"><ele>379.0</ele><time>2026-04-23T16:26:27.999Z</time></trkpt><trkpt lat="44.431321474163944" lon="7.86090800007935"><ele>379.0</ele><time>2026-04-23T16:26:28.999Z</time></trkpt><trkpt lat="44.43116546650673" lon="7.860738673853977"><ele>378.66666666666663</ele><time>2026-04-23T16:26:29.999Z</time></trkpt><trkpt lat="44.431011107234006" lon="7.860570198619633"><ele>378.3333333333333</ele><time>2026-04-23T16:26:30.999Z</time></trkpt><trkpt lat="44.430853340902814" lon="7.8603981994027485"><ele>378.0</ele><time>2026-04-23T16:26:31.999Z</time></trkpt><trkpt lat="44.430697812464366" lon="7.860219776183385"><ele>378.6666666666667</ele><time>2026-04-23T16:26:32.999Z</time></trkpt><trkpt lat="44.43054109026715" lon="7.860038346078862"><ele>379.33333333333337</ele><time>2026-04-23T16:26:33.999Z</time></trkpt><trkpt lat="44.430389231083566" lon="7.85986428947034"><ele>380.0</ele><time>2026-04-23T16:26:34.999Z</time></trkpt><trkpt lat="44.43023753575651" lon="7.859692023260961"><ele>380.0</ele><time>2026-04-23T16:26:35.999Z</time></trkpt><trkpt lat="44.43008606986626" lon="7.859519313303002"><ele>380.0</ele><time>2026-04-23T16:26:36.999Z</time></trkpt><trkpt lat="44.42992903658015" lon="7.859353027149008"><ele>380.0</ele><time>2026-04-23T16:26:37.999Z</time></trkpt><trkpt lat="44.42977755772308" lon="7.859178272843023"><ele>379.6666666666667</ele><time>2026-04-23T16:26:38.999Z</time></trkpt><trkpt lat="44.429620949439375" lon="7.859003213589141"><ele>379.3333333333333</ele><time>2026-04-23T16:26:39.999Z</time></trkpt><trkpt lat="44.429464275983705" lon="7.8588363515594395"><ele>379.0</ele><time>2026-04-23T16:26:40.999Z</time></trkpt><trkpt lat="44.42931362319235" lon="7.858658634762198"><ele>379.0</ele><time>2026-04-23T16:26:41.999Z</time></trkpt><trkpt lat="44.42915929266702" lon="7.8584846702189886"><ele>379.0</ele><time>2026-04-23T16:26:42.999Z</time></trkpt><trkpt lat="44.42900354488299" lon="7.858318437407853"><ele>379.0</ele><time>2026-04-23T16:26:43.999Z</time></trkpt><trkpt lat="44.42884581883563" lon="7.858139640956529"><ele>379.0</ele><time>2026-04-23T16:26:44.999Z</time></trkpt><trkpt lat="44.428691841869004" lon="7.857974701626565"><ele>379.0</ele><time>2026-04-23T16:26:45.999Z</time></trkpt><trkpt lat="44.42853612938408" lon="7.85780270260626"><ele>379.0</ele><time>2026-04-23T16:26:46.999Z</time></trkpt><trkpt lat="44.42837961468998" lon="7.857622344436886"><ele>379.0</ele><time>2026-04-23T16:26:47.999Z</time></trkpt><trkpt lat="44.42822266623535" lon="7.857444272577851"><ele>379.0</ele><time>2026-04-23T16:26:48.999Z</time></trkpt><trkpt lat="44.42806990898398" lon="7.857262044565817"><ele>379.0</ele><time>2026-04-23T16:26:49.999Z</time></trkpt><trkpt lat="44.4279155592126" lon="7.857083443234769"><ele>379.66666666666663</ele><time>2026-04-23T16:26:50.999Z</time></trkpt><trkpt lat="44.42777237081866" lon="7.856899312200555"><ele>380.3333333333333</ele><time>2026-04-23T16:26:51.999Z</time></trkpt><trkpt lat="44.427627006298934" lon="7.856719729824291"><ele>381.0</ele><time>2026-04-23T16:26:52.999Z</time></trkpt><trkpt lat="44.42748233316441" lon="7.856530068889536"><ele>381.3333333333333</ele><time>2026-04-23T16:26:53.999Z</time></trkpt><trkpt lat="44.42733952314004" lon="7.85634930851722"><ele>381.66666666666663</ele><time>2026-04-23T16:26:54.999Z</time></trkpt><trkpt lat="44.42719412261202" lon="7.8561678582990275"><ele>382.0</ele><time>2026-04-23T16:26:55.999Z</time></trkpt><trkpt lat="44.427053570551" lon="7.85597478322904"><ele>382.0</ele><time>2026-04-23T16:26:56.999Z</time></trkpt><trkpt lat="44.42691402678596" lon="7.855801811568212"><ele>382.0</ele><time>2026-04-23T16:26:57.998Z</time></trkpt><trkpt lat="44.42677739543131" lon="7.855631215564491"><ele>382.0</ele><time>2026-04-23T16:26:58.998Z</time></trkpt><trkpt lat="44.426645351684144" lon="7.855466674972597"><ele>382.0</ele><time>2026-04-23T16:26:59.998Z</time></trkpt><trkpt lat="44.426507713349686" lon="7.855289575259319"><ele>382.0</ele><time>2026-04-23T16:27:00.998Z</time></trkpt><trkpt lat="44.42637433528097" lon="7.855122079000502"><ele>382.0</ele><time>2026-04-23T16:27:01.998Z</time></trkpt><trkpt lat="44.4262467103349" lon="7.8549549706216935"><ele>382.3333333333333</ele><time>2026-04-23T16:27:02.998Z</time></trkpt><trkpt lat="44.42611559807642" lon="7.854788354755302"><ele>382.6666666666667</ele><time>2026-04-23T16:27:03.998Z</time></trkpt><trkpt lat="44.425983146757" lon="7.854613938302392"><ele>383.0</ele><time>2026-04-23T16:27:04.998Z</time></trkpt><trkpt lat="44.4258528348748" lon="7.854435755208634"><ele>383.0</ele><time>2026-04-23T16:27:05.998Z</time></trkpt><trkpt lat="44.425715446516264" lon="7.854259194912513"><ele>383.0</ele><time>2026-04-23T16:27:06.998Z</time></trkpt><trkpt lat="44.42558571913065" lon="7.854086876364527"><ele>383.0</ele><time>2026-04-23T16:27:08Z</time></trkpt><trkpt lat="44.425449417103366" lon="7.853906426594501"><ele>383.0</ele><time>2026-04-23T16:27:09Z</time></trkpt><trkpt lat="44.42531526519338" lon="7.853732422946917"><ele>383.0</ele><time>2026-04-23T16:27:10Z</time></trkpt><trkpt lat="44.42518673861877" lon="7.853565649080788"><ele>383.0</ele><time>2026-04-23T16:27:11Z</time></trkpt><trkpt lat="44.42506073133912" lon="7.853399464378205"><ele>382.6666666666667</ele><time>2026-04-23T16:27:12Z</time></trkpt><trkpt lat="44.42493878893367" lon="7.853240508987332"><ele>382.3333333333333</ele><time>2026-04-23T16:27:13Z</time></trkpt><trkpt lat="44.42481618747633" lon="7.853085311086532"><ele>382.0</ele><time>2026-04-23T16:27:14Z</time></trkpt><trkpt lat="44.424696152575066" lon="7.8529176870262045"><ele>382.0</ele><time>2026-04-23T16:27:15Z</time></trkpt><trkpt lat="44.424584681362916" lon="7.852741853610807"><ele>382.0</ele><time>2026-04-23T16:27:16Z</time></trkpt><trkpt lat="44.42448192360746" lon="7.8525553129147845"><ele>382.0</ele><time>2026-04-23T16:27:17Z</time></trkpt><trkpt lat="44.42438767147252" lon="7.852357880208254"><ele>382.0</ele><time>2026-04-23T16:27:18Z</time></trkpt><trkpt lat="44.42429294704578" lon="7.852148800258551"><ele>382.0</ele><time>2026-04-23T16:27:19Z</time></trkpt><trkpt lat="44.42419770746217" lon="7.851932700586546"><ele>382.0</ele><time>2026-04-23T16:27:20Z</time></trkpt><trkpt lat="44.42410527731263" lon="7.851716577621055"><ele>382.3333333333333</ele><time>2026-04-23T16:27:21Z</time></trkpt><trkpt lat="44.42401868656325" lon="7.851516025045765"><ele>382.6666666666667</ele><time>2026-04-23T16:27:22Z</time></trkpt><trkpt lat="44.4239328686944" lon="7.851332921946695"><ele>383.0</ele><time>2026-04-23T16:27:23Z</time></trkpt><trkpt lat="44.42385110583155" lon="7.851150967745032"><ele>383.25</ele><time>2026-04-23T16:27:24Z</time></trkpt><trkpt lat="44.42376977887561" lon="7.850972457837484"><ele>383.5</ele><time>2026-04-23T16:27:25Z</time></trkpt><trkpt lat="44.4236930125907" lon="7.850811573015124"><ele>383.75</ele><time>2026-04-23T16:27:26Z</time></trkpt><trkpt lat="44.423616683989955" lon="7.850660094724684"><ele>384.0</ele><time>2026-04-23T16:27:27Z</time></trkpt><trkpt lat="44.42354653526887" lon="7.850541082380771"><ele>384.0</ele><time>2026-04-23T16:27:28Z</time></trkpt><trkpt lat="44.42348219885708" lon="7.850431904460474"><ele>384.0</ele><time>2026-04-23T16:27:29Z</time></trkpt><trkpt lat="44.42342907230153" lon="7.850331672813879"><ele>384.0</ele><time>2026-04-23T16:27:30Z</time></trkpt><trkpt lat="44.42338253239064" lon="7.850232880705931"><ele>384.0</ele><time>2026-04-23T16:27:31Z</time></trkpt><trkpt lat="44.42334032887098" lon="7.850117767318022"><ele>384.0</ele><time>2026-04-23T16:27:32Z</time></trkpt><trkpt lat="44.42330345347654" lon="7.850014658816537"><ele>383.79999999999995</ele><time>2026-04-23T16:27:33Z</time></trkpt><trkpt lat="44.423250091811674" lon="7.849915953098261"><ele>383.59999999999997</ele><time>2026-04-23T16:27:34Z</time></trkpt><trkpt lat="44.42318448659848" lon="7.849838169407694"><ele>383.4</ele><time>2026-04-23T16:27:35Z</time></trkpt><trkpt lat="44.423104453868675" lon="7.84977521288061"><ele>383.2</ele><time>2026-04-23T16:27:36Z</time></trkpt><trkpt lat="44.42301172677276" lon="7.849706023816281"><ele>383.0</ele><time>2026-04-23T16:27:37Z</time></trkpt><trkpt lat="44.42292017829555" lon="7.849619727299057"><ele>383.2</ele><time>2026-04-23T16:27:38Z</time></trkpt><trkpt lat="44.4228347445184" lon="7.849525325505803"><ele>383.4</ele><time>2026-04-23T16:27:39Z</time></trkpt><trkpt lat="44.4227566072285" lon="7.849426771260311"><ele>383.59999999999997</ele><time>2026-04-23T16:27:40Z</time></trkpt><trkpt lat="44.422661855692844" lon="7.849326520578007"><ele>383.79999999999995</ele><time>2026-04-23T16:27:41Z</time></trkpt><trkpt lat="44.422564340271904" lon="7.849257522848132"><ele>384.0</ele><time>2026-04-23T16:27:42Z</time></trkpt><trkpt lat="44.42245943150123" lon="7.84920185661914"><ele>384.0</ele><time>2026-04-23T16:27:43Z</time></trkpt><trkpt lat="44.42236499372853" lon="7.849174086559122"><ele>384.0</ele><time>2026-04-23T16:27:44Z</time></trkpt><trkpt lat="44.42228778392967" lon="7.84915942394579"><ele>384.0</ele><time>2026-04-23T16:27:45Z</time></trkpt><trkpt lat="44.42222051714976" lon="7.849146596356957"><ele>384.0</ele><time>2026-04-23T16:27:46Z</time></trkpt><trkpt lat="44.422156329743984" lon="7.849120516410752"><ele>384.0</ele><time>2026-04-23T16:27:47Z</time></trkpt><trkpt lat="44.42208115467551" lon="7.849063762448232"><ele>384.0</ele><time>2026-04-23T16:27:48Z</time></trkpt><trkpt lat="44.42199542799105" lon="7.8489808574769695"><ele>384.2</ele><time>2026-04-23T16:27:49Z</time></trkpt><trkpt lat="44.421909930700444" lon="7.8489068573736445"><ele>384.4</ele><time>2026-04-23T16:27:50Z</time></trkpt><trkpt lat="44.42181808598418" lon="7.8488816341989995"><ele>384.6</ele><time>2026-04-23T16:27:51Z</time></trkpt><trkpt lat="44.421710679345864" lon="7.848867116177134"><ele>384.8</ele><time>2026-04-23T16:27:52Z</time></trkpt><trkpt lat="44.42160585195323" lon="7.84889332301668"><ele>385.0</ele><time>2026-04-23T16:27:53Z</time></trkpt><trkpt lat="44.421502013749084" lon="7.848836390968741"><ele>385.0</ele><time>2026-04-23T16:27:54Z</time></trkpt><trkpt lat="44.42139983604104" lon="7.848776641604527"><ele>385.0</ele><time>2026-04-23T16:27:55Z</time></trkpt><trkpt lat="44.42128319931809" lon="7.848696005812784"><ele>385.0</ele><time>2026-04-23T16:27:56Z</time></trkpt><trkpt lat="44.421159241146476" lon="7.848590439512358"><ele>385.0</ele><time>2026-04-23T16:27:56.999Z</time></trkpt><trkpt lat="44.42103179340786" lon="7.848487879168148"><ele>386.0</ele><time>2026-04-23T16:27:57.999Z</time></trkpt><trkpt lat="44.42089086469203" lon="7.84836129613483"><ele>387.0</ele><time>2026-04-23T16:27:58.999Z</time></trkpt><trkpt lat="44.42074607586424" lon="7.848243918357482"><ele>388.0</ele><time>2026-04-23T16:27:59.999Z</time></trkpt><trkpt lat="44.420604290119286" lon="7.848111113616907"><ele>388.0</ele><time>2026-04-23T16:28:00.999Z</time></trkpt><trkpt lat="44.42045125222345" lon="7.8479736973008"><ele>388.0</ele><time>2026-04-23T16:28:01.999Z</time></trkpt><trkpt lat="44.42031662675486" lon="7.84783807149535"><ele>388.0</ele><time>2026-04-23T16:28:02.999Z</time></trkpt><trkpt lat="44.420185268466355" lon="7.847706236753834"><ele>388.25</ele><time>2026-04-23T16:28:03.999Z</time></trkpt><trkpt lat="44.42006462862873" lon="7.847603807980857"><ele>388.5</ele><time>2026-04-23T16:28:04.999Z</time></trkpt><trkpt lat="44.41996155628946" lon="7.8474886829126795"><ele>388.75</ele><time>2026-04-23T16:28:05.999Z</time></trkpt><trkpt lat="44.419862052447456" lon="7.847403488652091"><ele>389.0</ele><time>2026-04-23T16:28:06.999Z</time></trkpt><trkpt lat="44.41975747640949" lon="7.84732321464402"><ele>389.0</ele><time>2026-04-23T16:28:07.999Z</time></trkpt><trkpt lat="44.419664265485785" lon="7.847268636128311"><ele>389.0</ele><time>2026-04-23T16:28:08.999Z</time></trkpt><trkpt lat="44.41956771462221" lon="7.847221087585915"><ele>389.0</ele><time>2026-04-23T16:28:09.999Z</time></trkpt><trkpt lat="44.41947179421872" lon="7.847210461836732"><ele>389.0</ele><time>2026-04-23T16:28:10.999Z</time></trkpt><trkpt lat="44.41937174584887" lon="7.847054727560431"><ele>389.0</ele><time>2026-04-23T16:28:11.999Z</time></trkpt><trkpt lat="44.419225525666306" lon="7.846950554783275"><ele>388.75</ele><time>2026-04-23T16:28:12.999Z</time></trkpt><trkpt lat="44.419092533549154" lon="7.846832384923194"><ele>388.5</ele><time>2026-04-23T16:28:13.999Z</time></trkpt><trkpt lat="44.4189879783095" lon="7.846710875054193"><ele>388.25</ele><time>2026-04-23T16:28:14.999Z</time></trkpt><trkpt lat="44.41887662300966" lon="7.846616803551751"><ele>388.0</ele><time>2026-04-23T16:28:15.999Z</time></trkpt><trkpt lat="44.418757559264755" lon="7.846516162277207"><ele>388.6666666666667</ele><time>2026-04-23T16:28:16.999Z</time></trkpt><trkpt lat="44.41862925846095" lon="7.846407960170633"><ele>389.33333333333337</ele><time>2026-04-23T16:28:17.999Z</time></trkpt><trkpt lat="44.41849931440603" lon="7.846298429631584"><ele>390.0</ele><time>2026-04-23T16:28:18.999Z</time></trkpt><trkpt lat="44.418361799716166" lon="7.846182321054328"><ele>390.0</ele><time>2026-04-23T16:28:19.999Z</time></trkpt><trkpt lat="44.418226446289786" lon="7.846067879739425"><ele>390.0</ele><time>2026-04-23T16:28:20.999Z</time></trkpt><trkpt lat="44.418086300798635" lon="7.845949393354073"><ele>390.0</ele><time>2026-04-23T16:28:21.999Z</time></trkpt><trkpt lat="44.417942401965846" lon="7.845827819865665"><ele>390.33333333333337</ele><time>2026-04-23T16:28:22.999Z</time></trkpt><trkpt lat="44.41779822581329" lon="7.845728442157829"><ele>390.6666666666667</ele><time>2026-04-23T16:28:23.999Z</time></trkpt><trkpt lat="44.41767201487059" lon="7.845597623026469"><ele>391.0</ele><time>2026-04-23T16:28:24.999Z</time></trkpt><trkpt lat="44.417536209035106" lon="7.8454820768408755"><ele>391.0</ele><time>2026-04-23T16:28:25.999Z</time></trkpt><trkpt lat="44.41739863716241" lon="7.845380162539464"><ele>391.0</ele><time>2026-04-23T16:28:26.999Z</time></trkpt><trkpt lat="44.417265168613284" lon="7.845263490504212"><ele>391.0</ele><time>2026-04-23T16:28:27.999Z</time></trkpt><trkpt lat="44.4171306687154" lon="7.845143009512867"><ele>390.33333333333337</ele><time>2026-04-23T16:28:28.999Z</time></trkpt><trkpt lat="44.416991091836515" lon="7.845017950110176"><ele>389.66666666666663</ele><time>2026-04-23T16:28:29.999Z</time></trkpt><trkpt lat="44.41685029773938" lon="7.844899657287592"><ele>389.0</ele><time>2026-04-23T16:28:30.999Z</time></trkpt><trkpt lat="44.41671510745681" lon="7.844782912311916"><ele>389.0</ele><time>2026-04-23T16:28:31.999Z</time></trkpt><trkpt lat="44.41658509468765" lon="7.8446618822793885"><ele>389.0</ele><time>2026-04-23T16:28:32.999Z</time></trkpt><trkpt lat="44.4164425794785" lon="7.8445365971844705"><ele>389.0</ele><time>2026-04-23T16:28:33.999Z</time></trkpt><trkpt lat="44.41629731291808" lon="7.84440954276134"><ele>389.66666666666663</ele><time>2026-04-23T16:28:34.999Z</time></trkpt><trkpt lat="44.41615700518116" lon="7.844279345555203"><ele>390.33333333333337</ele><time>2026-04-23T16:28:35.999Z</time></trkpt><trkpt lat="44.41600630730849" lon="7.844152873632067"><ele>391.0</ele><time>2026-04-23T16:28:36.999Z</time></trkpt><trkpt lat="44.41586824350456" lon="7.8440037789962815"><ele>391.0</ele><time>2026-04-23T16:28:37.999Z</time></trkpt><trkpt lat="44.41571882286463" lon="7.843881000357047"><ele>391.0</ele><time>2026-04-23T16:28:38.999Z</time></trkpt><trkpt lat="44.415561510814406" lon="7.84378050927964"><ele>391.0</ele><time>2026-04-23T16:28:39.999Z</time></trkpt><trkpt lat="44.415409834639235" lon="7.843665713355751"><ele>391.0</ele><time>2026-04-23T16:28:40.999Z</time></trkpt><trkpt lat="44.41524860037154" lon="7.843559628932001"><ele>391.0</ele><time>2026-04-23T16:28:41.999Z</time></trkpt><trkpt lat="44.41509022049102" lon="7.843457321650084"><ele>391.0</ele><time>2026-04-23T16:28:42.999Z</time></trkpt><trkpt lat="44.41492161580957" lon="7.8433586301522045"><ele>391.0</ele><time>2026-04-23T16:28:43.999Z</time></trkpt><trkpt lat="44.414755546315156" lon="7.843256941483703"><ele>391.0</ele><time>2026-04-23T16:28:44.999Z</time></trkpt><trkpt lat="44.414586857767496" lon="7.843156079511253"><ele>391.0</ele><time>2026-04-23T16:28:45.999Z</time></trkpt><trkpt lat="44.41442510063585" lon="7.843050182142248"><ele>391.0</ele><time>2026-04-23T16:28:46.999Z</time></trkpt><trkpt lat="44.4142734337341" lon="7.84295823762397"><ele>391.0</ele><time>2026-04-23T16:28:47.999Z</time></trkpt><trkpt lat="44.41411968988851" lon="7.8428657815987295"><ele>391.0</ele><time>2026-04-23T16:28:48.999Z</time></trkpt><trkpt lat="44.41398285843061" lon="7.842784100689135"><ele>391.0</ele><time>2026-04-23T16:28:49.999Z</time></trkpt><trkpt lat="44.41384946661136" lon="7.842700326011665"><ele>391.0</ele><time>2026-04-23T16:28:50.999Z</time></trkpt><trkpt lat="44.413718323368684" lon="7.842622160099433"><ele>391.0</ele><time>2026-04-23T16:28:51.999Z</time></trkpt><trkpt lat="44.413597320821545" lon="7.842549801493737"><ele>391.0</ele><time>2026-04-23T16:28:52.999Z</time></trkpt><trkpt lat="44.413482883112316" lon="7.842483306589228"><ele>391.0</ele><time>2026-04-23T16:28:53.999Z</time></trkpt><trkpt lat="44.41337180393066" lon="7.842413898905741"><ele>391.0</ele><time>2026-04-23T16:28:54.999Z</time></trkpt><trkpt lat="44.41326479774192" lon="7.842350897698314"><ele>391.0</ele><time>2026-04-23T16:28:55.999Z</time></trkpt><trkpt lat="44.41317093325895" lon="7.842288950130903"><ele>391.0</ele><time>2026-04-23T16:28:56.999Z</time></trkpt><trkpt lat="44.413074918535614" lon="7.84223729760249"><ele>391.0</ele><time>2026-04-23T16:28:57.999Z</time></trkpt><trkpt lat="44.41298965423342" lon="7.842191884421531"><ele>391.0</ele><time>2026-04-23T16:28:58.999Z</time></trkpt><trkpt lat="44.412901402004266" lon="7.842163862316729"><ele>391.0</ele><time>2026-04-23T16:28:59.998Z</time></trkpt><trkpt lat="44.41281930470738" lon="7.842145940952149"><ele>391.0</ele><time>2026-04-23T16:29:00.998Z</time></trkpt><trkpt lat="44.412736452226596" lon="7.842122963617491"><ele>391.0</ele><time>2026-04-23T16:29:01.998Z</time></trkpt><trkpt lat="44.41264344194341" lon="7.842083884550914"><ele>391.0</ele><time>2026-04-23T16:29:02.998Z</time></trkpt><trkpt lat="44.41255555920043" lon="7.8420276070455985"><ele>391.0</ele><time>2026-04-23T16:29:03.998Z</time></trkpt><trkpt lat="44.41246647490699" lon="7.841968405323371"><ele>391.0</ele><time>2026-04-23T16:29:04.998Z</time></trkpt><trkpt lat="44.41237500417855" lon="7.841944172758782"><ele>391.0</ele><time>2026-04-23T16:29:05.998Z</time></trkpt><trkpt lat="44.41231137588865" lon="7.841808249568646"><ele>391.0</ele><time>2026-04-23T16:29:06.998Z</time></trkpt><trkpt lat="44.41224889572262" lon="7.841692522067706"><ele>391.0</ele><time>2026-04-23T16:29:07.998Z</time></trkpt><trkpt lat="44.41217198267209" lon="7.841563513436466"><ele>391.25</ele><time>2026-04-23T16:29:08.998Z</time></trkpt><trkpt lat="44.41208400615063" lon="7.841435549460231"><ele>391.5</ele><time>2026-04-23T16:29:09.998Z</time></trkpt><trkpt lat="44.41198327044105" lon="7.841311709208516"><ele>391.75</ele><time>2026-04-23T16:29:10.998Z</time></trkpt><trkpt lat="44.41187546834851" lon="7.841182207018507"><ele>392.0</ele><time>2026-04-23T16:29:11.998Z</time></trkpt><trkpt lat="44.411774180870225" lon="7.841057519854272"><ele>392.0</ele><time>2026-04-23T16:29:12.998Z</time></trkpt><trkpt lat="44.411670165958114" lon="7.8409453746948685"><ele>392.0</ele><time>2026-04-23T16:29:14Z</time></trkpt><trkpt lat="44.41157386565214" lon="7.84082568254514"><ele>392.0</ele><time>2026-04-23T16:29:15Z</time></trkpt><trkpt lat="44.411476102834364" lon="7.840707258715208"><ele>392.0</ele><time>2026-04-23T16:29:16Z</time></trkpt><trkpt lat="44.41138966214164" lon="7.840599885505017"><ele>392.0</ele><time>2026-04-23T16:29:17Z</time></trkpt><trkpt lat="44.41130859556589" lon="7.84049597811866"><ele>392.0</ele><time>2026-04-23T16:29:18Z</time></trkpt><trkpt lat="44.41122792618119" lon="7.840397457632678"><ele>392.0</ele><time>2026-04-23T16:29:19Z</time></trkpt><trkpt lat="44.411144867747964" lon="7.8402922157843875"><ele>392.0</ele><time>2026-04-23T16:29:20Z</time></trkpt><trkpt lat="44.41105919490391" lon="7.840190113577908"><ele>392.0</ele><time>2026-04-23T16:29:21Z</time></trkpt><trkpt lat="44.41097215955584" lon="7.840083619634899"><ele>392.0</ele><time>2026-04-23T16:29:22Z</time></trkpt><trkpt lat="44.4108784685588" lon="7.839964232707373"><ele>392.0</ele><time>2026-04-23T16:29:23Z</time></trkpt><trkpt lat="44.41078454857819" lon="7.839852441768251"><ele>392.0</ele><time>2026-04-23T16:29:24Z</time></trkpt><trkpt lat="44.410692346101925" lon="7.839737139286026"><ele>392.0</ele><time>2026-04-23T16:29:25Z</time></trkpt><trkpt lat="44.41059687395272" lon="7.839626614454739"><ele>392.0</ele><time>2026-04-23T16:29:26Z</time></trkpt><trkpt lat="44.41050436658239" lon="7.839509850631256"><ele>392.0</ele><time>2026-04-23T16:29:27Z</time></trkpt><trkpt lat="44.410413264378704" lon="7.8394034083355315"><ele>392.0</ele><time>2026-04-23T16:29:28Z</time></trkpt><trkpt lat="44.41032733197032" lon="7.839297385070588"><ele>392.0</ele><time>2026-04-23T16:29:29Z</time></trkpt><trkpt lat="44.41023868002487" lon="7.839180419233991"><ele>392.75</ele><time>2026-04-23T16:29:30Z</time></trkpt><trkpt lat="44.41014541750261" lon="7.839068454128317"><ele>393.5</ele><time>2026-04-23T16:29:31Z</time></trkpt><trkpt lat="44.41005379033422" lon="7.838961961921238"><ele>394.25</ele><time>2026-04-23T16:29:32Z</time></trkpt><trkpt lat="44.40996677828797" lon="7.838855604202846"><ele>395.0</ele><time>2026-04-23T16:29:33Z</time></trkpt><trkpt lat="44.40988072591108" lon="7.838754109872256"><ele>395.0</ele><time>2026-04-23T16:29:34Z</time></trkpt><trkpt lat="44.40978958644117" lon="7.838645027086129"><ele>395.0</ele><time>2026-04-23T16:29:35Z</time></trkpt><trkpt lat="44.40970378652469" lon="7.838541146932075"><ele>395.0</ele><time>2026-04-23T16:29:36Z</time></trkpt><trkpt lat="44.40962063887431" lon="7.83843534851472"><ele>395.0</ele><time>2026-04-23T16:29:37Z</time></trkpt><trkpt lat="44.409537891064794" lon="7.838337952963712"><ele>395.4</ele><time>2026-04-23T16:29:38Z</time></trkpt><trkpt lat="44.40946595525519" lon="7.838250629044351"><ele>395.8</ele><time>2026-04-23T16:29:39Z</time></trkpt><trkpt lat="44.409395057992384" lon="7.838160272422157"><ele>396.20000000000005</ele><time>2026-04-23T16:29:40Z</time></trkpt><trkpt lat="44.40932754825561" lon="7.838074897060467"><ele>396.6</ele><time>2026-04-23T16:29:41Z</time></trkpt><trkpt lat="44.4092490910805" lon="7.8379815589836035"><ele>397.0</ele><time>2026-04-23T16:29:42Z</time></trkpt><trkpt lat="44.409165197319744" lon="7.8378889839706956"><ele>397.0</ele><time>2026-04-23T16:29:43Z</time></trkpt><trkpt lat="44.40908213711075" lon="7.837787517501837"><ele>397.0</ele><time>2026-04-23T16:29:44Z</time></trkpt><trkpt lat="44.40899428720114" lon="7.837687751626598"><ele>397.0</ele><time>2026-04-23T16:29:45Z</time></trkpt><trkpt lat="44.40891190421525" lon="7.837593850637826"><ele>397.0</ele><time>2026-04-23T16:29:46Z</time></trkpt><trkpt lat="44.408826266133204" lon="7.837496418839658"><ele>397.0</ele><time>2026-04-23T16:29:47Z</time></trkpt><trkpt lat="44.40875162766631" lon="7.837375633154375"><ele>397.0</ele><time>2026-04-23T16:29:48Z</time></trkpt><trkpt lat="44.40865698996257" lon="7.8372835039060345"><ele>397.0</ele><time>2026-04-23T16:29:49Z</time></trkpt><trkpt lat="44.408584501425715" lon="7.837158361295302"><ele>397.0</ele><time>2026-04-23T16:29:50Z</time></trkpt><trkpt lat="44.40849716447597" lon="7.837055377746786"><ele>397.0</ele><time>2026-04-23T16:29:51Z</time></trkpt><trkpt lat="44.40841042763046" lon="7.836948146221085"><ele>397.0</ele><time>2026-04-23T16:29:52Z</time></trkpt><trkpt lat="44.408316702288616" lon="7.836838087803341"><ele>397.0</ele><time>2026-04-23T16:29:53Z</time></trkpt><trkpt lat="44.408221495987156" lon="7.836721812720445"><ele>397.0</ele><time>2026-04-23T16:29:54Z</time></trkpt><trkpt lat="44.408133421629344" lon="7.836615290061857"><ele>397.0</ele><time>2026-04-23T16:29:55Z</time></trkpt><trkpt lat="44.40804123760937" lon="7.836503959194754"><ele>397.0</ele><time>2026-04-23T16:29:56Z</time></trkpt><trkpt lat="44.40794738334899" lon="7.836382846402351"><ele>397.0</ele><time>2026-04-23T16:29:57Z</time></trkpt><trkpt lat="44.40784536323618" lon="7.836262483162547"><ele>397.0</ele><time>2026-04-23T16:29:58Z</time></trkpt><trkpt lat="44.40773780775507" lon="7.836135948136543"><ele>397.0</ele><time>2026-04-23T16:29:59Z</time></trkpt><trkpt lat="44.407634212575715" lon="7.836013332872426"><ele>397.0</ele><time>2026-04-23T16:30:00Z</time></trkpt><trkpt lat="44.40753353101663" lon="7.835892843271872"><ele>397.0</ele><time>2026-04-23T16:30:01Z</time></trkpt><trkpt lat="44.407435104120516" lon="7.835778071438646"><ele>397.0</ele><time>2026-04-23T16:30:01.999Z</time></trkpt><trkpt lat="44.407341602336" lon="7.8356625313492465"><ele>397.0</ele><time>2026-04-23T16:30:02.999Z</time></trkpt><trkpt lat="44.407252155179485" lon="7.8355570045443566"><ele>397.0</ele><time>2026-04-23T16:30:03.999Z</time></trkpt><trkpt lat="44.4071734957419" lon="7.835460830649817"><ele>397.0</ele><time>2026-04-23T16:30:04.999Z</time></trkpt><trkpt lat="44.4070957281958" lon="7.835362575155192"><ele>397.0</ele><time>2026-04-23T16:30:05.999Z</time></trkpt><trkpt lat="44.407020219714866" lon="7.835266066000547"><ele>397.0</ele><time>2026-04-23T16:30:06.999Z</time></trkpt><trkpt lat="44.40693711977991" lon="7.835164559928829"><ele>397.0</ele><time>2026-04-23T16:30:07.999Z</time></trkpt><trkpt lat="44.40685117814074" lon="7.835065775745133"><ele>397.20000000000005</ele><time>2026-04-23T16:30:08.999Z</time></trkpt><trkpt lat="44.406775843035184" lon="7.834973167975729"><ele>397.4</ele><time>2026-04-23T16:30:09.999Z</time></trkpt><trkpt lat="44.406703236442446" lon="7.834885383383634"><ele>397.6</ele><time>2026-04-23T16:30:10.999Z</time></trkpt><trkpt lat="44.406628634927785" lon="7.834789170096909"><ele>397.79999999999995</ele><time>2026-04-23T16:30:11.999Z</time></trkpt><trkpt lat="44.406550394851415" lon="7.834688768624167"><ele>398.0</ele><time>2026-04-23T16:30:12.999Z</time></trkpt><trkpt lat="44.406475094013544" lon="7.8345893573276255"><ele>398.0</ele><time>2026-04-23T16:30:13.999Z</time></trkpt><trkpt lat="44.40640501680601" lon="7.834493755450209"><ele>398.0</ele><time>2026-04-23T16:30:14.999Z</time></trkpt><trkpt lat="44.40633760449571" lon="7.834397813949852"><ele>398.0</ele><time>2026-04-23T16:30:15.999Z</time></trkpt><trkpt lat="44.40627941757144" lon="7.834301826357913"><ele>398.0</ele><time>2026-04-23T16:30:16.999Z</time></trkpt><trkpt lat="44.406226688034" lon="7.834209068137374"><ele>398.0</ele><time>2026-04-23T16:30:17.999Z</time></trkpt><trkpt lat="44.4061689169" lon="7.834090854137818"><ele>396.79999999999995</ele><time>2026-04-23T16:30:18.999Z</time></trkpt><trkpt lat="44.40611590518292" lon="7.833982088065506"><ele>395.6</ele><time>2026-04-23T16:30:19.999Z</time></trkpt><trkpt lat="44.40608758721236" lon="7.833843344048343"><ele>394.4</ele><time>2026-04-23T16:30:20.999Z</time></trkpt><trkpt lat="44.40605176555404" lon="7.8337091977540965"><ele>393.20000000000005</ele><time>2026-04-23T16:30:21.999Z</time></trkpt><trkpt lat="44.40602132330783" lon="7.833585383796519"><ele>392.0</ele><time>2026-04-23T16:30:22.999Z</time></trkpt><trkpt lat="44.405997992430805" lon="7.833459713397402"><ele>392.0</ele><time>2026-04-23T16:30:23.999Z</time></trkpt><trkpt lat="44.40597280173355" lon="7.833324299219825"><ele>392.0</ele><time>2026-04-23T16:30:24.999Z</time></trkpt><trkpt lat="44.405952945365954" lon="7.8331988202370235"><ele>392.0</ele><time>2026-04-23T16:30:25.999Z</time></trkpt><trkpt lat="44.40593495012421" lon="7.833076061726691"><ele>392.0</ele><time>2026-04-23T16:30:26.999Z</time></trkpt><trkpt lat="44.405907364830654" lon="7.832953048503101"><ele>392.0</ele><time>2026-04-23T16:30:27.999Z</time></trkpt><trkpt lat="44.405879090484966" lon="7.832839863342899"><ele>392.0</ele><time>2026-04-23T16:30:28.999Z</time></trkpt><trkpt lat="44.405843516951414" lon="7.832684683455009"><ele>392.0</ele><time>2026-04-23T16:30:30.999Z</time></trkpt><trkpt lat="44.405806177356915" lon="7.832559025621523"><ele>392.0</ele><time>2026-04-23T16:30:32.999Z</time></trkpt><trkpt lat="44.40576353697756" lon="7.8324418335035055"><ele>392.0</ele><time>2026-04-23T16:30:34.999Z</time></trkpt><trkpt lat="44.405723786622374" lon="7.832320751375086"><ele>392.0</ele><time>2026-04-23T16:30:36.999Z</time></trkpt><trkpt lat="44.40568206852792" lon="7.832205231536392"><ele>392.99999999999994</ele><time>2026-04-23T16:30:38.999Z</time></trkpt><trkpt lat="44.405649588928874" lon="7.832097923770795"><ele>394.0</ele><time>2026-04-23T16:30:40.999Z</time></trkpt><trkpt lat="44.40563112143013" lon="7.832005931574007"><ele>395.0</ele><time>2026-04-23T16:30:42.999Z</time></trkpt><trkpt lat="44.40559296304768" lon="7.831917396171291"><ele>396.0</ele><time>2026-04-23T16:30:45.999Z</time></trkpt><trkpt lat="44.405600486284136" lon="7.831766220011109"><ele>396.99999999999994</ele><time>2026-04-23T16:30:47.999Z</time></trkpt><trkpt lat="44.405630002289854" lon="7.831618674878335"><ele>398.0</ele><time>2026-04-23T16:30:49.999Z</time></trkpt><trkpt lat="44.40560795173248" lon="7.831519427179845"><ele>398.3333333333333</ele><time>2026-04-23T16:30:51.999Z</time></trkpt><trkpt lat="44.40550890208368" lon="7.831458532603979"><ele>398.66666666666663</ele><time>2026-04-23T16:30:53.999Z</time></trkpt><trkpt lat="44.40543776836883" lon="7.831460210394244"><ele>399.0</ele><time>2026-04-23T16:30:54.999Z</time></trkpt><trkpt lat="44.405370588423274" lon="7.831491915306396"><ele>399.33333333333337</ele><time>2026-04-23T16:30:55.999Z</time></trkpt><trkpt lat="44.40527754135438" lon="7.831437287926094"><ele>399.6666666666667</ele><time>2026-04-23T16:30:56.999Z</time></trkpt><trkpt lat="44.40520224959222" lon="7.83135386800485"><ele>400.0</ele><time>2026-04-23T16:30:57.999Z</time></trkpt><trkpt lat="44.40513004340709" lon="7.831288770286109"><ele>400.2</ele><time>2026-04-23T16:30:58.999Z</time></trkpt><trkpt lat="44.40504604253079" lon="7.831207881692485"><ele>400.4</ele><time>2026-04-23T16:30:59.999Z</time></trkpt><trkpt lat="44.404948708386236" lon="7.831110759166503"><ele>400.6</ele><time>2026-04-23T16:31:00.999Z</time></trkpt><trkpt lat="44.40485455289151" lon="7.83101898451576"><ele>400.8</ele><time>2026-04-23T16:31:01.999Z</time></trkpt><trkpt lat="44.40476683505995" lon="7.830930083257916"><ele>401.0</ele><time>2026-04-23T16:31:02.999Z</time></trkpt><trkpt lat="44.40468041622224" lon="7.8308427706634545"><ele>400.16666666666663</ele><time>2026-04-23T16:31:03.999Z</time></trkpt><trkpt lat="44.404601321548135" lon="7.830763790834402"><ele>399.3333333333333</ele><time>2026-04-23T16:31:04.998Z</time></trkpt><trkpt lat="44.404525906438295" lon="7.830691147698725"><ele>398.5</ele><time>2026-04-23T16:31:05.998Z</time></trkpt><trkpt lat="44.40445826724748" lon="7.8306263597272165"><ele>397.66666666666663</ele><time>2026-04-23T16:31:06.998Z</time></trkpt><trkpt lat="44.404385931578474" lon="7.830546261727349"><ele>396.8333333333333</ele><time>2026-04-23T16:31:07.998Z</time></trkpt><trkpt lat="44.40431802938622" lon="7.830472820143203"><ele>396.0</ele><time>2026-04-23T16:31:08.998Z</time></trkpt><trkpt lat="44.4042569850129" lon="7.830399320289038"><ele>396.0</ele><time>2026-04-23T16:31:09.998Z</time></trkpt><trkpt lat="44.40419246275047" lon="7.83032784739373"><ele>396.0</ele><time>2026-04-23T16:31:10.998Z</time></trkpt><trkpt lat="44.40413242066535" lon="7.830261570035276"><ele>396.0</ele><time>2026-04-23T16:31:11.998Z</time></trkpt><trkpt lat="44.40407333557971" lon="7.8301991713441845"><ele>396.0</ele><time>2026-04-23T16:31:12.998Z</time></trkpt><trkpt lat="44.40401320587041" lon="7.830133040360988"><ele>396.0</ele><time>2026-04-23T16:31:13.998Z</time></trkpt><trkpt lat="44.403951096048594" lon="7.830070843599676"><ele>396.0</ele><time>2026-04-23T16:31:14.998Z</time></trkpt><trkpt lat="44.40388265326251" lon="7.829999298904495"><ele>396.3333333333333</ele><time>2026-04-23T16:31:15.998Z</time></trkpt><trkpt lat="44.40381248386266" lon="7.829921024370031"><ele>396.66666666666663</ele><time>2026-04-23T16:31:16.998Z</time></trkpt><trkpt lat="44.40374421316636" lon="7.829850430489046"><ele>397.0</ele><time>2026-04-23T16:31:17.998Z</time></trkpt><trkpt lat="44.40368071436954" lon="7.8297827635875645"><ele>397.3333333333333</ele><time>2026-04-23T16:31:18.998Z</time></trkpt><trkpt lat="44.40361750135846" lon="7.829723821668908"><ele>397.66666666666663</ele><time>2026-04-23T16:31:20Z</time></trkpt><trkpt lat="44.403555997664796" lon="7.829667726491512"><ele>398.0</ele><time>2026-04-23T16:31:21Z</time></trkpt><trkpt lat="44.403503562778845" lon="7.829612213241311"><ele>397.99999999999994</ele><time>2026-04-23T16:31:22Z</time></trkpt><trkpt lat="44.40345576809951" lon="7.829553263074226"><ele>398.0</ele><time>2026-04-23T16:31:23Z</time></trkpt><trkpt lat="44.4033851563818" lon="7.829419473417502"><ele>398.0</ele><time>2026-04-23T16:31:25Z</time></trkpt><trkpt lat="44.403361210528686" lon="7.829326976903614"><ele>398.0</ele><time>2026-04-23T16:31:26Z</time></trkpt><trkpt lat="44.403309555701995" lon="7.829196164485131"><ele>397.99999999999994</ele><time>2026-04-23T16:31:28Z</time></trkpt><trkpt lat="44.40323556517539" lon="7.8291779559110335"><ele>398.0</ele><time>2026-04-23T16:31:29Z</time></trkpt><trkpt lat="44.40316430835401" lon="7.8291761834188005"><ele>398.16666666666663</ele><time>2026-04-23T16:31:30Z</time></trkpt><trkpt lat="44.403099431527295" lon="7.829164574502889"><ele>398.3333333333333</ele><time>2026-04-23T16:31:31Z</time></trkpt><trkpt lat="44.40302587616148" lon="7.829129892821582"><ele>398.5</ele><time>2026-04-23T16:31:32Z</time></trkpt><trkpt lat="44.40295297954505" lon="7.8290680066161125"><ele>398.66666666666663</ele><time>2026-04-23T16:31:33Z</time></trkpt><trkpt lat="44.402870261183274" lon="7.828992187166512"><ele>398.8333333333333</ele><time>2026-04-23T16:31:34Z</time></trkpt><trkpt lat="44.402793185076916" lon="7.828908634308242"><ele>399.0</ele><time>2026-04-23T16:31:35Z</time></trkpt><trkpt lat="44.402706153176396" lon="7.828815558643398"><ele>399.2</ele><time>2026-04-23T16:31:36Z</time></trkpt><trkpt lat="44.40261565170145" lon="7.828726069800276"><ele>399.4</ele><time>2026-04-23T16:31:37Z</time></trkpt><trkpt lat="44.402516421548" lon="7.8286218697849215"><ele>399.6</ele><time>2026-04-23T16:31:38Z</time></trkpt><trkpt lat="44.40242722726957" lon="7.828527332207805"><ele>399.8</ele><time>2026-04-23T16:31:39Z</time></trkpt><trkpt lat="44.4023441124724" lon="7.8284448182159565"><ele>400.0</ele><time>2026-04-23T16:31:40Z</time></trkpt><trkpt lat="44.40225299134095" lon="7.828340846942779"><ele>398.5</ele><time>2026-04-23T16:31:41Z</time></trkpt><trkpt lat="44.402156091069195" lon="7.828244127751615"><ele>397.0</ele><time>2026-04-23T16:31:42Z</time></trkpt><trkpt lat="44.402069254128016" lon="7.828168984620717"><ele>395.5</ele><time>2026-04-23T16:31:43Z</time></trkpt><trkpt lat="44.40197558303792" lon="7.828082284022137"><ele>394.0</ele><time>2026-04-23T16:31:44Z</time></trkpt><trkpt lat="44.401879497707675" lon="7.827985090065337"><ele>394.0</ele><time>2026-04-23T16:31:45Z</time></trkpt><trkpt lat="44.40178864141437" lon="7.827887922338645"><ele>394.0</ele><time>2026-04-23T16:31:46Z</time></trkpt><trkpt lat="44.40170016618337" lon="7.827795253946764"><ele>394.0</ele><time>2026-04-23T16:31:47Z</time></trkpt><trkpt lat="44.40161573828641" lon="7.827706119584087"><ele>394.0</ele><time>2026-04-23T16:31:48Z</time></trkpt><trkpt lat="44.40152864552492" lon="7.827615080533902"><ele>394.0</ele><time>2026-04-23T16:31:49Z</time></trkpt><trkpt lat="44.40144037833265" lon="7.827519505414578"><ele>393.2</ele><time>2026-04-23T16:31:50Z</time></trkpt><trkpt lat="44.40134556526334" lon="7.827433794989484"><ele>392.4</ele><time>2026-04-23T16:31:51Z</time></trkpt><trkpt lat="44.40125475997279" lon="7.827338291860546"><ele>391.6</ele><time>2026-04-23T16:31:52Z</time></trkpt><trkpt lat="44.40116490253113" lon="7.827250409734909"><ele>390.8</ele><time>2026-04-23T16:31:53Z</time></trkpt><trkpt lat="44.40107876556442" lon="7.827155724713568"><ele>390.0</ele><time>2026-04-23T16:31:54Z</time></trkpt><trkpt lat="44.400989167760315" lon="7.82706581923369"><ele>390.0</ele><time>2026-04-23T16:31:55Z</time></trkpt><trkpt lat="44.40090691856543" lon="7.826982387667725"><ele>390.0</ele><time>2026-04-23T16:31:56Z</time></trkpt><trkpt lat="44.40082536386573" lon="7.826911043768321"><ele>390.0</ele><time>2026-04-23T16:31:57Z</time></trkpt><trkpt lat="44.400738612364854" lon="7.826836911471187"><ele>390.0</ele><time>2026-04-23T16:31:58Z</time></trkpt><trkpt lat="44.40065110672884" lon="7.826754647829842"><ele>390.0</ele><time>2026-04-23T16:31:59Z</time></trkpt><trkpt lat="44.40055510644845" lon="7.82669079883009"><ele>391.0</ele><time>2026-04-23T16:32:00Z</time></trkpt><trkpt lat="44.40046599299653" lon="7.826638055008105"><ele>392.0</ele><time>2026-04-23T16:32:01Z</time></trkpt><trkpt lat="44.40037444882833" lon="7.826589647052376"><ele>393.0</ele><time>2026-04-23T16:32:02Z</time></trkpt><trkpt lat="44.40029320198246" lon="7.826536539243503"><ele>394.0</ele><time>2026-04-23T16:32:03Z</time></trkpt><trkpt lat="44.40020109199914" lon="7.82649242069819"><ele>395.0</ele><time>2026-04-23T16:32:04Z</time></trkpt><trkpt lat="44.40012088255961" lon="7.826449894738786"><ele>395.0</ele><time>2026-04-23T16:32:05Z</time></trkpt><trkpt lat="44.40002713600169" lon="7.826414076572902"><ele>395.0</ele><time>2026-04-23T16:32:06Z</time></trkpt><trkpt lat="44.39994361394398" lon="7.8263703514290635"><ele>395.0</ele><time>2026-04-23T16:32:06.999Z</time></trkpt><trkpt lat="44.39986554170267" lon="7.82633026771098"><ele>395.0</ele><time>2026-04-23T16:32:07.999Z</time></trkpt><trkpt lat="44.39979418327575" lon="7.826275585203247"><ele>395.0</ele><time>2026-04-23T16:32:08.999Z</time></trkpt><trkpt lat="44.399704470041655" lon="7.826216835856652"><ele>395.8</ele><time>2026-04-23T16:32:09.999Z</time></trkpt><trkpt lat="44.39961887021593" lon="7.826153977714542"><ele>396.6</ele><time>2026-04-23T16:32:10.999Z</time></trkpt><trkpt lat="44.39952964259053" lon="7.826076924062237"><ele>397.4</ele><time>2026-04-23T16:32:11.999Z</time></trkpt><trkpt lat="44.39945215893576" lon="7.826006599207808"><ele>398.2</ele><time>2026-04-23T16:32:12.999Z</time></trkpt><trkpt lat="44.3993729378052" lon="7.825934554700588"><ele>399.0</ele><time>2026-04-23T16:32:13.999Z</time></trkpt><trkpt lat="44.39928820383997" lon="7.825858391902258"><ele>399.0</ele><time>2026-04-23T16:32:14.999Z</time></trkpt><trkpt lat="44.3992127124718" lon="7.825789803792349"><ele>399.0</ele><time>2026-04-23T16:32:15.999Z</time></trkpt><trkpt lat="44.399135137446144" lon="7.8257115617923905"><ele>399.0</ele><time>2026-04-23T16:32:16.999Z</time></trkpt><trkpt lat="44.399059840462044" lon="7.8256378426685105"><ele>399.0</ele><time>2026-04-23T16:32:17.999Z</time></trkpt><trkpt lat="44.398987258116684" lon="7.8255671637687"><ele>399.0</ele><time>2026-04-23T16:32:18.999Z</time></trkpt><trkpt lat="44.39891112739784" lon="7.825503477552942"><ele>399.6666666666667</ele><time>2026-04-23T16:32:19.999Z</time></trkpt><trkpt lat="44.398834189607925" lon="7.82543102279845"><ele>400.33333333333337</ele><time>2026-04-23T16:32:20.999Z</time></trkpt><trkpt lat="44.39876704365877" lon="7.825364357749064"><ele>401.0</ele><time>2026-04-23T16:32:21.999Z</time></trkpt><trkpt lat="44.39870493086554" lon="7.8253081299941405"><ele>401.6666666666667</ele><time>2026-04-23T16:32:22.999Z</time></trkpt><trkpt lat="44.39864688751266" lon="7.825256948488422"><ele>402.33333333333337</ele><time>2026-04-23T16:32:23.999Z</time></trkpt><trkpt lat="44.39858550304073" lon="7.825203392264586"><ele>403.0</ele><time>2026-04-23T16:32:24.999Z</time></trkpt><trkpt lat="44.39849674282345" lon="7.82511516191785"><ele>403.0</ele><time>2026-04-23T16:32:26.999Z</time></trkpt><trkpt lat="44.398427625699554" lon="7.824999762111862"><ele>403.0</ele><time>2026-04-23T16:32:28.999Z</time></trkpt><trkpt lat="44.39839359949353" lon="7.824910957769512"><ele>403.0</ele><time>2026-04-23T16:32:29.999Z</time></trkpt><trkpt lat="44.3983405964782" lon="7.824761524671626"><ele>403.0</ele><time>2026-04-23T16:32:31.999Z</time></trkpt><trkpt lat="44.39821673394246" lon="7.824680560578453"><ele>403.0</ele><time>2026-04-23T16:32:33.999Z</time></trkpt><trkpt lat="44.39808858756829" lon="7.824791959517019"><ele>403.00000000000006</ele><time>2026-04-23T16:32:35.999Z</time></trkpt><trkpt lat="44.39801278540977" lon="7.824771006068571"><ele>403.0</ele><time>2026-04-23T16:32:36.999Z</time></trkpt><trkpt lat="44.397937817230506" lon="7.824760256831163"><ele>403.0</ele><time>2026-04-23T16:32:37.999Z</time></trkpt><trkpt lat="44.39785099958878" lon="7.824728941476341"><ele>403.0</ele><time>2026-04-23T16:32:38.999Z</time></trkpt><trkpt lat="44.39775706239842" lon="7.824688787500161"><ele>403.00000000000006</ele><time>2026-04-23T16:32:39.999Z</time></trkpt><trkpt lat="44.3976629447417" lon="7.824627706793379"><ele>403.0</ele><time>2026-04-23T16:32:40.999Z</time></trkpt><trkpt lat="44.397555927360656" lon="7.824564964275715"><ele>401.5</ele><time>2026-04-23T16:32:41.999Z</time></trkpt><trkpt lat="44.39744457912192" lon="7.824522097872373"><ele>400.0</ele><time>2026-04-23T16:32:42.999Z</time></trkpt><trkpt lat="44.397322525048615" lon="7.824508300073407"><ele>398.5</ele><time>2026-04-23T16:32:43.999Z</time></trkpt><trkpt lat="44.39718826425608" lon="7.824514246949743"><ele>397.0</ele><time>2026-04-23T16:32:44.999Z</time></trkpt><trkpt lat="44.39704366984738" lon="7.824533544037417"><ele>395.5</ele><time>2026-04-23T16:32:45.999Z</time></trkpt><trkpt lat="44.396917080776646" lon="7.82455062220259"><ele>394.0</ele><time>2026-04-23T16:32:46.999Z</time></trkpt><trkpt lat="44.396787654103875" lon="7.824579024600656"><ele>392.5</ele><time>2026-04-23T16:32:47.999Z</time></trkpt><trkpt lat="44.39665992507497" lon="7.824585103580738"><ele>391.0</ele><time>2026-04-23T16:32:48.999Z</time></trkpt><trkpt lat="44.39653166076382" lon="7.8245816704159"><ele>391.0</ele><time>2026-04-23T16:32:49.999Z</time></trkpt><trkpt lat="44.396408842643915" lon="7.824568316828157"><ele>391.0</ele><time>2026-04-23T16:32:50.999Z</time></trkpt><trkpt lat="44.396285948482884" lon="7.8245430949146435"><ele>391.0</ele><time>2026-04-23T16:32:51.999Z</time></trkpt><trkpt lat="44.39617827892176" lon="7.824514487956718"><ele>391.0</ele><time>2026-04-23T16:32:52.999Z</time></trkpt><trkpt lat="44.39606853159347" lon="7.82447936209792"><ele>391.6</ele><time>2026-04-23T16:32:53.999Z</time></trkpt><trkpt lat="44.39595315243903" lon="7.824439611262261"><ele>392.20000000000005</ele><time>2026-04-23T16:32:54.999Z</time></trkpt><trkpt lat="44.39584759469842" lon="7.824392064175016"><ele>392.79999999999995</ele><time>2026-04-23T16:32:55.999Z</time></trkpt><trkpt lat="44.39573603221151" lon="7.824336350423033"><ele>393.4</ele><time>2026-04-23T16:32:56.999Z</time></trkpt><trkpt lat="44.39564437870192" lon="7.8242784818752416"><ele>394.0</ele><time>2026-04-23T16:32:57.999Z</time></trkpt><trkpt lat="44.39556044706626" lon="7.824216720374322"><ele>391.83333333333337</ele><time>2026-04-23T16:32:58.999Z</time></trkpt><trkpt lat="44.395469329879994" lon="7.824157962878361"><ele>389.6666666666667</ele><time>2026-04-23T16:32:59.999Z</time></trkpt><trkpt lat="44.39539128340951" lon="7.8240969051727065"><ele>387.5</ele><time>2026-04-23T16:33:00.999Z</time></trkpt><trkpt lat="44.39531240922681" lon="7.824046548235887"><ele>385.33333333333337</ele><time>2026-04-23T16:33:01.999Z</time></trkpt><trkpt lat="44.3952345172779" lon="7.823998373676254"><ele>383.1666666666667</ele><time>2026-04-23T16:33:02.999Z</time></trkpt><trkpt lat="44.395161896070285" lon="7.8239388772810345"><ele>381.0</ele><time>2026-04-23T16:33:03.999Z</time></trkpt><trkpt lat="44.395073620886" lon="7.823879297750888"><ele>381.0</ele><time>2026-04-23T16:33:04.999Z</time></trkpt><trkpt lat="44.39498753466056" lon="7.823812471242265"><ele>381.0</ele><time>2026-04-23T16:33:05.999Z</time></trkpt><trkpt lat="44.3949029237433" lon="7.823724454756369"><ele>381.0</ele><time>2026-04-23T16:33:06.999Z</time></trkpt><trkpt lat="44.394821586945795" lon="7.8236376741012625"><ele>381.0</ele><time>2026-04-23T16:33:07.998Z</time></trkpt><trkpt lat="44.39474160495614" lon="7.823558371558621"><ele>381.0</ele><time>2026-04-23T16:33:08.998Z</time></trkpt><trkpt lat="44.39465280308435" lon="7.823480109388991"><ele>380.6</ele><time>2026-04-23T16:33:09.998Z</time></trkpt><trkpt lat="44.39456148113765" lon="7.823385975679219"><ele>380.20000000000005</ele><time>2026-04-23T16:33:10.998Z</time></trkpt><trkpt lat="44.39446777346251" lon="7.823301126667982"><ele>379.79999999999995</ele><time>2026-04-23T16:33:11.998Z</time></trkpt><trkpt lat="44.39437934378896" lon="7.82322209410599"><ele>379.4</ele><time>2026-04-23T16:33:12.998Z</time></trkpt><trkpt lat="44.394293410410334" lon="7.823148170333778"><ele>379.0</ele><time>2026-04-23T16:33:13.998Z</time></trkpt><trkpt lat="44.3942148700263" lon="7.823081016743486"><ele>379.0</ele><time>2026-04-23T16:33:14.998Z</time></trkpt><trkpt lat="44.39412862237398" lon="7.823006213893915"><ele>379.0</ele><time>2026-04-23T16:33:15.998Z</time></trkpt><trkpt lat="44.39405068899427" lon="7.822940238028786"><ele>379.0</ele><time>2026-04-23T16:33:16.998Z</time></trkpt><trkpt lat="44.393965563776455" lon="7.822861131070759"><ele>379.0</ele><time>2026-04-23T16:33:17.998Z</time></trkpt><trkpt lat="44.39388967459274" lon="7.822780411926939"><ele>379.0</ele><time>2026-04-23T16:33:18.998Z</time></trkpt><trkpt lat="44.393816693600215" lon="7.822716952195334"><ele>379.5</ele><time>2026-04-23T16:33:19.998Z</time></trkpt><trkpt lat="44.393742920990995" lon="7.822642028298302"><ele>380.0</ele><time>2026-04-23T16:33:20.998Z</time></trkpt><trkpt lat="44.39367023071218" lon="7.822572828846733"><ele>380.5</ele><time>2026-04-23T16:33:21.998Z</time></trkpt><trkpt lat="44.39360543779961" lon="7.822508597279309"><ele>381.0</ele><time>2026-04-23T16:33:22.998Z</time></trkpt><trkpt lat="44.39354824598129" lon="7.8224458818836275"><ele>381.5</ele><time>2026-04-23T16:33:23.998Z</time></trkpt><trkpt lat="44.3934901092185" lon="7.822379780778991"><ele>382.0</ele><time>2026-04-23T16:33:24.998Z</time></trkpt><trkpt lat="44.39343675050729" lon="7.822324993248037"><ele>382.0</ele><time>2026-04-23T16:33:26Z</time></trkpt><trkpt lat="44.39336586260703" lon="7.822249194261086"><ele>382.0</ele><time>2026-04-23T16:33:28Z</time></trkpt><trkpt lat="44.39331530596476" lon="7.82218813784571"><ele>382.0</ele><time>2026-04-23T16:33:30Z</time></trkpt><trkpt lat="44.393237762121196" lon="7.822104908655756"><ele>382.0</ele><time>2026-04-23T16:33:32Z</time></trkpt><trkpt lat="44.3931806679006" lon="7.8220488548288545"><ele>382.0</ele><time>2026-04-23T16:33:33Z</time></trkpt><trkpt lat="44.39310245492203" lon="7.8219467678686225"><ele>382.0</ele><time>2026-04-23T16:33:35Z</time></trkpt><trkpt lat="44.393069285550695" lon="7.821750094867761"><ele>382.5</ele><time>2026-04-23T16:33:37Z</time></trkpt><trkpt lat="44.393069280775066" lon="7.82163239483992"><ele>383.0</ele><time>2026-04-23T16:33:38Z</time></trkpt><trkpt lat="44.393073596136176" lon="7.82152592137576"><ele>383.5</ele><time>2026-04-23T16:33:39Z</time></trkpt><trkpt lat="44.393080293810534" lon="7.821362728275338"><ele>384.0</ele><time>2026-04-23T16:33:41Z</time></trkpt><trkpt lat="44.39308662907797" lon="7.8212509449574315"><ele>384.50000000000006</ele><time>2026-04-23T16:33:43Z</time></trkpt><trkpt lat="44.39308912341159" lon="7.821157628577874"><ele>385.0</ele><time>2026-04-23T16:33:45Z</time></trkpt><trkpt lat="44.39309324139842" lon="7.821054825360197"><ele>385.50000000000006</ele><time>2026-04-23T16:33:49Z</time></trkpt><trkpt lat="44.393091236864194" lon="7.8209617151918005"><ele>386.0</ele><time>2026-04-23T16:33:53Z</time></trkpt><trkpt lat="44.39301797663679" lon="7.820839456713792"><ele>386.5</ele><time>2026-04-23T16:33:55Z</time></trkpt><trkpt lat="44.392969271980306" lon="7.820747916393614"><ele>387.0</ele><time>2026-04-23T16:33:56Z</time></trkpt><trkpt lat="44.39292305895834" lon="7.820674231151445"><ele>387.50000000000006</ele><time>2026-04-23T16:33:57Z</time></trkpt><trkpt lat="44.39289214438611" lon="7.820594303213179"><ele>388.0</ele><time>2026-04-23T16:33:58Z</time></trkpt><trkpt lat="44.392842024964" lon="7.820533348628457"><ele>388.0</ele><time>2026-04-23T16:33:59Z</time></trkpt><trkpt lat="44.39272172437106" lon="7.820488508984699"><ele>388.0</ele><time>2026-04-23T16:34:01Z</time></trkpt><trkpt lat="44.39264417722343" lon="7.820480775603771"><ele>388.0</ele><time>2026-04-23T16:34:02Z</time></trkpt><trkpt lat="44.392554947519265" lon="7.820482978226134"><ele>388.0</ele><time>2026-04-23T16:34:03Z</time></trkpt><trkpt lat="44.39246547811395" lon="7.820492619594173"><ele>388.0</ele><time>2026-04-23T16:34:04Z</time></trkpt><trkpt lat="44.392369045808294" lon="7.820503600669105"><ele>388.0</ele><time>2026-04-23T16:34:05Z</time></trkpt><trkpt lat="44.3922694510053" lon="7.82052081918513"><ele>388.0</ele><time>2026-04-23T16:34:06Z</time></trkpt><trkpt lat="44.39215458308095" lon="7.820532384632521"><ele>388.0</ele><time>2026-04-23T16:34:07Z</time></trkpt><trkpt lat="44.392050546650054" lon="7.820542014012775"><ele>388.0</ele><time>2026-04-23T16:34:08Z</time></trkpt><trkpt lat="44.391954831312155" lon="7.8205509775582165"><ele>388.0</ele><time>2026-04-23T16:34:08.999Z</time></trkpt><trkpt lat="44.39186508170944" lon="7.8205594371486775"><ele>388.1666666666667</ele><time>2026-04-23T16:34:09.999Z</time></trkpt><trkpt lat="44.39177433416162" lon="7.820583375302063"><ele>388.33333333333337</ele><time>2026-04-23T16:34:10.999Z</time></trkpt><trkpt lat="44.39167640281687" lon="7.82059699951983"><ele>388.5</ele><time>2026-04-23T16:34:11.999Z</time></trkpt><trkpt lat="44.391588669990966" lon="7.8206021375506936"><ele>388.66666666666663</ele><time>2026-04-23T16:34:12.999Z</time></trkpt><trkpt lat="44.391509872725855" lon="7.820607232137636"><ele>388.8333333333333</ele><time>2026-04-23T16:34:13.999Z</time></trkpt><trkpt lat="44.391419716350384" lon="7.820623343838506"><ele>389.0</ele><time>2026-04-23T16:34:14.999Z</time></trkpt><trkpt lat="44.39132258996972" lon="7.820627676275779"><ele>389.6</ele><time>2026-04-23T16:34:15.999Z</time></trkpt><trkpt lat="44.3912100163857" lon="7.820636448967152"><ele>390.2</ele><time>2026-04-23T16:34:16.999Z</time></trkpt><trkpt lat="44.39109819366059" lon="7.8206510991944995"><ele>390.8</ele><time>2026-04-23T16:34:17.999Z</time></trkpt><trkpt lat="44.39098640339222" lon="7.8206405704199105"><ele>391.40000000000003</ele><time>2026-04-23T16:34:18.999Z</time></trkpt><trkpt lat="44.39089452733453" lon="7.820644495485098"><ele>392.0</ele><time>2026-04-23T16:34:19.999Z</time></trkpt><trkpt lat="44.390831295698945" lon="7.820647923090239"><ele>391.99999999999994</ele><time>2026-04-23T16:34:20.999Z</time></trkpt><trkpt lat="44.39075711164673" lon="7.820651944419371"><ele>392.0</ele><time>2026-04-23T16:34:23.999Z</time></trkpt><trkpt lat="44.39063776916375" lon="7.820658180672935"><ele>392.0</ele><time>2026-04-23T16:34:26.999Z</time></trkpt><trkpt lat="44.39055810369621" lon="7.82066191426634"><ele>392.0</ele><time>2026-04-23T16:34:27.999Z</time></trkpt><trkpt lat="44.39047713510877" lon="7.8206663376687064"><ele>391.99999999999994</ele><time>2026-04-23T16:34:28.999Z</time></trkpt><trkpt lat="44.390409606816824" lon="7.820670103376204"><ele>392.0</ele><time>2026-04-23T16:34:29.999Z</time></trkpt><trkpt lat="44.39034059415706" lon="7.820673951860914"><ele>392.3333333333333</ele><time>2026-04-23T16:34:30.999Z</time></trkpt><trkpt lat="44.39024069695311" lon="7.820675970961056"><ele>392.66666666666663</ele><time>2026-04-23T16:34:32.999Z</time></trkpt><trkpt lat="44.390171368850694" lon="7.820668107129437"><ele>393.0</ele><time>2026-04-23T16:34:34.999Z</time></trkpt><trkpt lat="44.39014737309656" lon="7.820510597908956"><ele>393.33333333333337</ele><time>2026-04-23T16:34:36.999Z</time></trkpt><trkpt lat="44.39012320160367" lon="7.820407706367246"><ele>393.6666666666667</ele><time>2026-04-23T16:34:38.999Z</time></trkpt><trkpt lat="44.39006435424481" lon="7.820362013381095"><ele>394.0</ele><time>2026-04-23T16:34:40.999Z</time></trkpt><trkpt lat="44.38999018065347" lon="7.82035335156838"><ele>394.00000000000006</ele><time>2026-04-23T16:34:42.999Z</time></trkpt><trkpt lat="44.38991528125908" lon="7.8203729059836755"><ele>394.0</ele><time>2026-04-23T16:34:49.999Z</time></trkpt><trkpt lat="44.3898547941498" lon="7.820401979757707"><ele>394.0</ele><time>2026-04-23T16:34:51.999Z</time></trkpt><trkpt lat="44.38976497498261" lon="7.820376785745128"><ele>394.0</ele><time>2026-04-23T16:34:53.999Z</time></trkpt><trkpt lat="44.38968261732293" lon="7.820347979409148"><ele>394.00000000000006</ele><time>2026-04-23T16:34:55.999Z</time></trkpt><trkpt lat="44.38960985115837" lon="7.820317252549239"><ele>394.0</ele><time>2026-04-23T16:34:57.999Z</time></trkpt><trkpt lat="44.38951881860751" lon="7.820300298960699"><ele>394.83333333333337</ele><time>2026-04-23T16:34:59.999Z</time></trkpt><trkpt lat="44.38943200117408" lon="7.820282309446916"><ele>395.6666666666667</ele><time>2026-04-23T16:35:01.999Z</time></trkpt><trkpt lat="44.38933808941705" lon="7.8202577182912"><ele>396.5</ele><time>2026-04-23T16:35:03.999Z</time></trkpt><trkpt lat="44.38922603457098" lon="7.820265425359819"><ele>397.33333333333337</ele><time>2026-04-23T16:35:05.999Z</time></trkpt><trkpt lat="44.38915530583115" lon="7.820272087233455"><ele>398.1666666666667</ele><time>2026-04-23T16:35:06.999Z</time></trkpt><trkpt lat="44.38908037387663" lon="7.820276886492719"><ele>399.0</ele><time>2026-04-23T16:35:07.999Z</time></trkpt><trkpt lat="44.38901450345794" lon="7.8202924529616356"><ele>399.0</ele><time>2026-04-23T16:35:08.999Z</time></trkpt><trkpt lat="44.38894790897155" lon="7.820312978510656"><ele>399.0</ele><time>2026-04-23T16:35:09.998Z</time></trkpt><trkpt lat="44.38887327729" lon="7.820341192448938"><ele>399.0</ele><time>2026-04-23T16:35:10.998Z</time></trkpt><trkpt lat="44.3887992056551" lon="7.820381092872156"><ele>399.0</ele><time>2026-04-23T16:35:11.998Z</time></trkpt><trkpt lat="44.38871489302498" lon="7.820417890490992"><ele>399.0</ele><time>2026-04-23T16:35:12.998Z</time></trkpt><trkpt lat="44.388633161644606" lon="7.820450284483963"><ele>399.0</ele><time>2026-04-23T16:35:13.998Z</time></trkpt><trkpt lat="44.3885499503452" lon="7.820468348455238"><ele>399.5</ele><time>2026-04-23T16:35:14.998Z</time></trkpt><trkpt lat="44.38845808593663" lon="7.820482941621434"><ele>400.0</ele><time>2026-04-23T16:35:15.998Z</time></trkpt><trkpt lat="44.38837342771306" lon="7.820490849311722"><ele>400.5</ele><time>2026-04-23T16:35:16.998Z</time></trkpt><trkpt lat="44.3882972132435" lon="7.820476063414005"><ele>401.0</ele><time>2026-04-23T16:35:20.998Z</time></trkpt><trkpt lat="44.388185617819744" lon="7.820452848263561"><ele>401.5</ele><time>2026-04-23T16:35:22.998Z</time></trkpt><trkpt lat="44.388114719489934" lon="7.820433430699463"><ele>402.0</ele><time>2026-04-23T16:35:23.998Z</time></trkpt><trkpt lat="44.38800631628223" lon="7.820379625745186"><ele>402.1666666666667</ele><time>2026-04-23T16:35:25.998Z</time></trkpt><trkpt lat="44.38793493766817" lon="7.820348536022803"><ele>402.33333333333337</ele><time>2026-04-23T16:35:26.998Z</time></trkpt><trkpt lat="44.38786068667194" lon="7.820310748751466"><ele>402.5</ele><time>2026-04-23T16:35:27.998Z</time></trkpt><trkpt lat="44.38778764450489" lon="7.820278374522164"><ele>402.6666666666667</ele><time>2026-04-23T16:35:28.998Z</time></trkpt><trkpt lat="44.38770603190671" lon="7.820239908795826"><ele>402.83333333333337</ele><time>2026-04-23T16:35:29.998Z</time></trkpt><trkpt lat="44.387630913846564" lon="7.82016041834745"><ele>403.0</ele><time>2026-04-23T16:35:30.998Z</time></trkpt><trkpt lat="44.387550975183125" lon="7.820129692349243"><ele>402.33333333333337</ele><time>2026-04-23T16:35:32Z</time></trkpt><trkpt lat="44.387481953946676" lon="7.820083398544465"><ele>401.6666666666667</ele><time>2026-04-23T16:35:33Z</time></trkpt><trkpt lat="44.38740061327992" lon="7.8200469198269245"><ele>401.0</ele><time>2026-04-23T16:35:34Z</time></trkpt><trkpt lat="44.38733706193142" lon="7.820014758372565"><ele>400.33333333333337</ele><time>2026-04-23T16:35:35Z</time></trkpt><trkpt lat="44.38725306893127" lon="7.81999605490552"><ele>399.6666666666667</ele><time>2026-04-23T16:35:36Z</time></trkpt><trkpt lat="44.38717119164798" lon="7.819978372821392"><ele>399.0</ele><time>2026-04-23T16:35:37Z</time></trkpt><trkpt lat="44.38709093230825" lon="7.819971802374731"><ele>399.0</ele><time>2026-04-23T16:35:38Z</time></trkpt><trkpt lat="44.38701564137586" lon="7.819971418411922"><ele>399.0</ele><time>2026-04-23T16:35:39Z</time></trkpt><trkpt lat="44.38693058324171" lon="7.8199888968851035"><ele>399.0</ele><time>2026-04-23T16:35:40Z</time></trkpt><trkpt lat="44.386802380411574" lon="7.820025322138405"><ele>399.0</ele><time>2026-04-23T16:35:42Z</time></trkpt><trkpt lat="44.38671960038644" lon="7.820045148708572"><ele>399.0</ele><time>2026-04-23T16:35:43Z</time></trkpt><trkpt lat="44.38664015456494" lon="7.820066822191784"><ele>399.0</ele><time>2026-04-23T16:35:44Z</time></trkpt><trkpt lat="44.38657627127672" lon="7.820085066810882"><ele>399.0</ele><time>2026-04-23T16:35:45Z</time></trkpt><trkpt lat="44.386475311671134" lon="7.820107478165343"><ele>399.0</ele><time>2026-04-23T16:35:47Z</time></trkpt><trkpt lat="44.38638578966822" lon="7.820129108405385"><ele>399.0</ele><time>2026-04-23T16:35:49Z</time></trkpt><trkpt lat="44.38629562504119" lon="7.820154990413761"><ele>399.0</ele><time>2026-04-23T16:35:51Z</time></trkpt><trkpt lat="44.38623146119015" lon="7.82016045638379"><ele>399.0</ele><time>2026-04-23T16:35:52Z</time></trkpt><trkpt lat="44.38616750232636" lon="7.82014545379835"><ele>399.0</ele><time>2026-04-23T16:35:53Z</time></trkpt><trkpt lat="44.38609680415688" lon="7.82006318536308"><ele>399.0</ele><time>2026-04-23T16:35:54Z</time></trkpt><trkpt lat="44.38602153567889" lon="7.819992502225304"><ele>399.0</ele><time>2026-04-23T16:35:55Z</time></trkpt><trkpt lat="44.385956020244706" lon="7.819914771070092"><ele>399.0</ele><time>2026-04-23T16:35:56Z</time></trkpt><trkpt lat="44.38589395786218" lon="7.819837474116686"><ele>399.0</ele><time>2026-04-23T16:35:57Z</time></trkpt><trkpt lat="44.38583653336414" lon="7.819782547890971"><ele>399.0</ele><time>2026-04-23T16:35:58Z</time></trkpt><trkpt lat="44.385745849651265" lon="7.8196964080550755"><ele>399.0</ele><time>2026-04-23T16:36:00Z</time></trkpt><trkpt lat="44.38563541481604" lon="7.819709393529505"><ele>399.0</ele><time>2026-04-23T16:36:02Z</time></trkpt><trkpt lat="44.385586167396546" lon="7.81978892799479"><ele>399.0</ele><time>2026-04-23T16:36:03Z</time></trkpt><trkpt lat="44.38551607808598" lon="7.819855795263099"><ele>399.0</ele><time>2026-04-23T16:36:04Z</time></trkpt><trkpt lat="44.38543603478802" lon="7.819931458636552"><ele>399.0</ele><time>2026-04-23T16:36:05Z</time></trkpt><trkpt lat="44.38535505892363" lon="7.820006476811163"><ele>399.5</ele><time>2026-04-23T16:36:06Z</time></trkpt><trkpt lat="44.38525667268906" lon="7.820015738553041"><ele>400.0</ele><time>2026-04-23T16:36:07Z</time></trkpt><trkpt lat="44.38517742228679" lon="7.8200530450282075"><ele>400.5</ele><time>2026-04-23T16:36:08Z</time></trkpt><trkpt lat="44.38509422925139" lon="7.820088877659721"><ele>401.0</ele><time>2026-04-23T16:36:09Z</time></trkpt><trkpt lat="44.38501727670251" lon="7.820118709612083"><ele>401.5</ele><time>2026-04-23T16:36:10Z</time></trkpt><trkpt lat="44.38495554842326" lon="7.820147490977867"><ele>402.0</ele><time>2026-04-23T16:36:11Z</time></trkpt><trkpt lat="44.384841481794936" lon="7.82008776446119"><ele>402.0</ele><time>2026-04-23T16:36:13Z</time></trkpt><trkpt lat="44.384750986224844" lon="7.819994847873117"><ele>402.0</ele><time>2026-04-23T16:36:15Z</time></trkpt><trkpt lat="44.384725465878546" lon="7.819888173059164"><ele>402.0</ele><time>2026-04-23T16:36:16.999Z</time></trkpt><trkpt lat="44.384780285882044" lon="7.81973958981974"><ele>402.0</ele><time>2026-04-23T16:36:18.999Z</time></trkpt><trkpt lat="44.38481017668596" lon="7.819652845628975"><ele>402.0</ele><time>2026-04-23T16:36:19.999Z</time></trkpt><trkpt lat="44.38483067243314" lon="7.819554680043762"><ele>402.0</ele><time>2026-04-23T16:36:20.999Z</time></trkpt><trkpt lat="44.38484390946058" lon="7.81943389080183"><ele>402.0</ele><time>2026-04-23T16:36:21.999Z</time></trkpt><trkpt lat="44.38486701172396" lon="7.819313065610098"><ele>402.0</ele><time>2026-04-23T16:36:22.999Z</time></trkpt><trkpt lat="44.3848882755793" lon="7.819178177855742"><ele>402.0</ele><time>2026-04-23T16:36:23.999Z</time></trkpt><trkpt lat="44.384906582178004" lon="7.819035322857102"><ele>402.0</ele><time>2026-04-23T16:36:24.999Z</time></trkpt><trkpt lat="44.384926161513384" lon="7.81889964601539"><ele>403.0</ele><time>2026-04-23T16:36:25.999Z</time></trkpt><trkpt lat="44.38494513049072" lon="7.818772308463472"><ele>404.0</ele><time>2026-04-23T16:36:26.999Z</time></trkpt><trkpt lat="44.384965300374084" lon="7.818648006417443"><ele>405.0</ele><time>2026-04-23T16:36:27.999Z</time></trkpt><trkpt lat="44.38498388967181" lon="7.818510920141376"><ele>406.0</ele><time>2026-04-23T16:36:28.999Z</time></trkpt><trkpt lat="44.38500161964303" lon="7.818369569827712"><ele>407.0</ele><time>2026-04-23T16:36:29.999Z</time></trkpt><trkpt lat="44.385026604771724" lon="7.818218412835298"><ele>407.40000000000003</ele><time>2026-04-23T16:36:30.999Z</time></trkpt><trkpt lat="44.385051242199175" lon="7.818070333917092"><ele>407.8</ele><time>2026-04-23T16:36:31.999Z</time></trkpt><trkpt lat="44.385070227174886" lon="7.817945164900766"><ele>408.2</ele><time>2026-04-23T16:36:32.999Z</time></trkpt><trkpt lat="44.385096796708474" lon="7.817815342566044"><ele>408.6</ele><time>2026-04-23T16:36:33.999Z</time></trkpt><trkpt lat="44.3851299261065" lon="7.8176799995709585"><ele>409.0</ele><time>2026-04-23T16:36:34.999Z</time></trkpt><trkpt lat="44.38516706056482" lon="7.817543237403347"><ele>410.0</ele><time>2026-04-23T16:36:35.999Z</time></trkpt><trkpt lat="44.38522016258692" lon="7.817416161611756"><ele>411.0</ele><time>2026-04-23T16:36:36.999Z</time></trkpt><trkpt lat="44.385273041110885" lon="7.817300992608673"><ele>412.0</ele><time>2026-04-23T16:36:37.999Z</time></trkpt><trkpt lat="44.38532625054246" lon="7.8171925500834165"><ele>413.0</ele><time>2026-04-23T16:36:38.999Z</time></trkpt><trkpt lat="44.38537857077435" lon="7.81708982300112"><ele>414.0</ele><time>2026-04-23T16:36:39.999Z</time></trkpt><trkpt lat="44.38542363696881" lon="7.8170049209805"><ele>414.0</ele><time>2026-04-23T16:36:40.999Z</time></trkpt><trkpt lat="44.38545962652784" lon="7.816931002379584"><ele>414.0</ele><time>2026-04-23T16:36:41.999Z</time></trkpt><trkpt lat="44.38551972701066" lon="7.816825745533021"><ele>414.0</ele><time>2026-04-23T16:36:43.999Z</time></trkpt><trkpt lat="44.3855522799052" lon="7.816708417566019"><ele>414.0</ele><time>2026-04-23T16:36:46.999Z</time></trkpt><trkpt lat="44.385618087168986" lon="7.816611204340055"><ele>414.0</ele><time>2026-04-23T16:36:48.999Z</time></trkpt><trkpt lat="44.38558346375601" lon="7.81651365241144"><ele>414.0</ele><time>2026-04-23T16:36:50.999Z</time></trkpt><trkpt lat="44.3854778982153" lon="7.8164304479375915"><ele>415.3333333333333</ele><time>2026-04-23T16:36:52.999Z</time></trkpt><trkpt lat="44.385409500767835" lon="7.816393543372683"><ele>416.66666666666663</ele><time>2026-04-23T16:36:53.999Z</time></trkpt><trkpt lat="44.385344458493435" lon="7.816340501105985"><ele>418.0</ele><time>2026-04-23T16:36:54.999Z</time></trkpt><trkpt lat="44.385282413600194" lon="7.816285747695111"><ele>419.3333333333333</ele><time>2026-04-23T16:36:55.999Z</time></trkpt><trkpt lat="44.38522929880832" lon="7.816237589701542"><ele>420.66666666666663</ele><time>2026-04-23T16:36:56.999Z</time></trkpt><trkpt lat="44.385129158181215" lon="7.816150840616136"><ele>422.0</ele><time>2026-04-23T16:36:58.999Z</time></trkpt><trkpt lat="44.38505072325023" lon="7.81608457795665"><ele>421.99999999999994</ele><time>2026-04-23T16:37:00.999Z</time></trkpt><trkpt lat="44.38498989840337" lon="7.81602840121639"><ele>422.0</ele><time>2026-04-23T16:37:03.999Z</time></trkpt><trkpt lat="44.38489403430704" lon="7.815959767086516"><ele>422.0</ele><time>2026-04-23T16:37:32.998Z</time></trkpt><trkpt lat="44.38483759326718" lon="7.815904362906514"><ele>422.0</ele><time>2026-04-23T16:37:33.998Z</time></trkpt><trkpt lat="44.384775890181" lon="7.8158490455258285"><ele>421.99999999999994</ele><time>2026-04-23T16:37:34.998Z</time></trkpt><trkpt lat="44.384690699067924" lon="7.815767486408346"><ele>422.0</ele><time>2026-04-23T16:37:35.998Z</time></trkpt><trkpt lat="44.384596461761625" lon="7.815687751961591"><ele>423.40000000000003</ele><time>2026-04-23T16:37:36.998Z</time></trkpt><trkpt lat="44.38450599152336" lon="7.815601547277927"><ele>424.8</ele><time>2026-04-23T16:37:38Z</time></trkpt><trkpt lat="44.38440766922062" lon="7.815513301728043"><ele>426.2</ele><time>2026-04-23T16:37:39Z</time></trkpt><trkpt lat="44.3843053248293" lon="7.815425451066294"><ele>427.6</ele><time>2026-04-23T16:37:40Z</time></trkpt><trkpt lat="44.38422490536854" lon="7.8153567468555645"><ele>429.0</ele><time>2026-04-23T16:37:41Z</time></trkpt><trkpt lat="44.3841464272374" lon="7.8152943701659545"><ele>429.0</ele><time>2026-04-23T16:37:42Z</time></trkpt><trkpt lat="44.38405642756769" lon="7.815215215057923"><ele>429.0</ele><time>2026-04-23T16:37:43Z</time></trkpt><trkpt lat="44.383977225708726" lon="7.815134125130164"><ele>429.0</ele><time>2026-04-23T16:37:44Z</time></trkpt><trkpt lat="44.38390517150092" lon="7.815078658313117"><ele>429.0</ele><time>2026-04-23T16:37:45Z</time></trkpt><trkpt lat="44.3838385395707" lon="7.815002374999609"><ele>429.0</ele><time>2026-04-23T16:37:47Z</time></trkpt><trkpt lat="44.38375963549386" lon="7.814925126194723"><ele>429.5</ele><time>2026-04-23T16:37:49Z</time></trkpt><trkpt lat="44.38366143130165" lon="7.814818543257911"><ele>430.0</ele><time>2026-04-23T16:37:51Z</time></trkpt><trkpt lat="44.3835790782261" lon="7.814749344481842"><ele>430.5</ele><time>2026-04-23T16:37:52Z</time></trkpt><trkpt lat="44.383473829402725" lon="7.814660058942386"><ele>431.0</ele><time>2026-04-23T16:37:53Z</time></trkpt><trkpt lat="44.383372005092525" lon="7.814576189973792"><ele>431.0</ele><time>2026-04-23T16:37:54Z</time></trkpt><trkpt lat="44.38326741002252" lon="7.8144973950075345"><ele>431.0</ele><time>2026-04-23T16:37:55Z</time></trkpt><trkpt lat="44.38316329644171" lon="7.814418766589549"><ele>431.0</ele><time>2026-04-23T16:37:56Z</time></trkpt><trkpt lat="44.38306617156208" lon="7.814341312350741"><ele>431.0</ele><time>2026-04-23T16:37:57Z</time></trkpt><trkpt lat="44.382969415774696" lon="7.814249808260009"><ele>431.25</ele><time>2026-04-23T16:37:58Z</time></trkpt><trkpt lat="44.38286852667643" lon="7.814161672366786"><ele>431.5</ele><time>2026-04-23T16:37:59Z</time></trkpt><trkpt lat="44.3827747305911" lon="7.814074913196218"><ele>431.75</ele><time>2026-04-23T16:38:00Z</time></trkpt><trkpt lat="44.382669933711625" lon="7.813979488152758"><ele>432.0</ele><time>2026-04-23T16:38:01Z</time></trkpt><trkpt lat="44.38257026389552" lon="7.813886291065049"><ele>432.0</ele><time>2026-04-23T16:38:02Z</time></trkpt><trkpt lat="44.38247569860071" lon="7.813803746241381"><ele>432.00000000000006</ele><time>2026-04-23T16:38:03Z</time></trkpt><trkpt lat="44.38239524725686" lon="7.813725893591554"><ele>432.00000000000006</ele><time>2026-04-23T16:38:04Z</time></trkpt><trkpt lat="44.38230431985733" lon="7.813642587526042"><ele>432.0</ele><time>2026-04-23T16:38:05Z</time></trkpt><trkpt lat="44.38220735117459" lon="7.813551044763678"><ele>432.0</ele><time>2026-04-23T16:38:06Z</time></trkpt><trkpt lat="44.38212285826009" lon="7.813462482811959"><ele>432.5</ele><time>2026-04-23T16:38:07Z</time></trkpt><trkpt lat="44.38201905816681" lon="7.813370805389441"><ele>433.0</ele><time>2026-04-23T16:38:08Z</time></trkpt><trkpt lat="44.38192216332431" lon="7.813287977846345"><ele>433.5</ele><time>2026-04-23T16:38:09Z</time></trkpt><trkpt lat="44.38183257125048" lon="7.813201337029411"><ele>434.0</ele><time>2026-04-23T16:38:10Z</time></trkpt><trkpt lat="44.38173261783304" lon="7.813117264630537"><ele>434.0</ele><time>2026-04-23T16:38:11Z</time></trkpt><trkpt lat="44.381633080635055" lon="7.813027388477654"><ele>434.0</ele><time>2026-04-23T16:38:12Z</time></trkpt><trkpt lat="44.38154274851682" lon="7.81294378580863"><ele>434.0</ele><time>2026-04-23T16:38:13Z</time></trkpt><trkpt lat="44.38146142431828" lon="7.812860698346692"><ele>434.0</ele><time>2026-04-23T16:38:14Z</time></trkpt><trkpt lat="44.38135009314948" lon="7.812776934305914"><ele>433.25</ele><time>2026-04-23T16:38:15Z</time></trkpt><trkpt lat="44.38125802496533" lon="7.812693286345929"><ele>432.5</ele><time>2026-04-23T16:38:16Z</time></trkpt><trkpt lat="44.38116447225574" lon="7.812603687699695"><ele>431.75</ele><time>2026-04-23T16:38:17Z</time></trkpt><trkpt lat="44.381070732173406" lon="7.81251437887886"><ele>431.0</ele><time>2026-04-23T16:38:18Z</time></trkpt><trkpt lat="44.38096729296286" lon="7.8124305155601395"><ele>431.0</ele><time>2026-04-23T16:38:19Z</time></trkpt><trkpt lat="44.38087574906769" lon="7.812347205978125"><ele>431.0</ele><time>2026-04-23T16:38:20Z</time></trkpt><trkpt lat="44.38078085037725" lon="7.8122577050489"><ele>431.0</ele><time>2026-04-23T16:38:21Z</time></trkpt><trkpt lat="44.38069413920808" lon="7.812168356085993"><ele>431.0</ele><time>2026-04-23T16:38:21.999Z</time></trkpt><trkpt lat="44.38060082041946" lon="7.812075594833262"><ele>431.0</ele><time>2026-04-23T16:38:22.999Z</time></trkpt><trkpt lat="44.38050026253411" lon="7.811990739412772"><ele>431.25</ele><time>2026-04-23T16:38:23.999Z</time></trkpt><trkpt lat="44.380404769175364" lon="7.811899383889776"><ele>431.5</ele><time>2026-04-23T16:38:24.999Z</time></trkpt><trkpt lat="44.380299525156076" lon="7.81181203828086"><ele>431.75</ele><time>2026-04-23T16:38:25.999Z</time></trkpt><trkpt lat="44.380201407487974" lon="7.8117153794881276"><ele>432.0</ele><time>2026-04-23T16:38:26.999Z</time></trkpt><trkpt lat="44.3801075014857" lon="7.81162992238162"><ele>432.0</ele><time>2026-04-23T16:38:27.999Z</time></trkpt><trkpt lat="44.38000082678476" lon="7.811553624084982"><ele>432.0</ele><time>2026-04-23T16:38:28.999Z</time></trkpt><trkpt lat="44.3798903950998" lon="7.8114821784300466"><ele>432.0</ele><time>2026-04-23T16:38:29.999Z</time></trkpt><trkpt lat="44.37978215096078" lon="7.811409309159855"><ele>432.0</ele><time>2026-04-23T16:38:30.999Z</time></trkpt><trkpt lat="44.37968563650006" lon="7.811324501388558"><ele>432.0</ele><time>2026-04-23T16:38:31.999Z</time></trkpt><trkpt lat="44.3795932487889" lon="7.811234946708402"><ele>432.0</ele><time>2026-04-23T16:38:32.999Z</time></trkpt><trkpt lat="44.3794866182355" lon="7.811133003404489"><ele>432.0</ele><time>2026-04-23T16:38:33.999Z</time></trkpt><trkpt lat="44.37938839941026" lon="7.811044295548866"><ele>432.0</ele><time>2026-04-23T16:38:34.999Z</time></trkpt><trkpt lat="44.37929059466137" lon="7.810951350482023"><ele>432.40000000000003</ele><time>2026-04-23T16:38:35.999Z</time></trkpt><trkpt lat="44.37919862876327" lon="7.8108646154461185"><ele>432.80000000000007</ele><time>2026-04-23T16:38:36.999Z</time></trkpt><trkpt lat="44.37910613752336" lon="7.810776425477522"><ele>433.2</ele><time>2026-04-23T16:38:37.999Z</time></trkpt><trkpt lat="44.379011557150086" lon="7.81069152283546"><ele>433.6</ele><time>2026-04-23T16:38:38.999Z</time></trkpt><trkpt lat="44.37892285772758" lon="7.810603919703806"><ele>434.0</ele><time>2026-04-23T16:38:39.999Z</time></trkpt><trkpt lat="44.37882553649916" lon="7.810516969018651"><ele>434.0</ele><time>2026-04-23T16:38:40.999Z</time></trkpt><trkpt lat="44.37872831056558" lon="7.810430297554889"><ele>434.0</ele><time>2026-04-23T16:38:41.999Z</time></trkpt><trkpt lat="44.37863532957009" lon="7.810346497547217"><ele>434.0</ele><time>2026-04-23T16:38:42.999Z</time></trkpt><trkpt lat="44.37853934912178" lon="7.810258927761057"><ele>434.0</ele><time>2026-04-23T16:38:43.999Z</time></trkpt><trkpt lat="44.37844595700863" lon="7.810171636793225"><ele>434.25</ele><time>2026-04-23T16:38:44.999Z</time></trkpt><trkpt lat="44.37835110362571" lon="7.810081564794581"><ele>434.5</ele><time>2026-04-23T16:38:45.999Z</time></trkpt><trkpt lat="44.378254400962206" lon="7.809992012268411"><ele>434.75</ele><time>2026-04-23T16:38:46.999Z</time></trkpt><trkpt lat="44.378153936710454" lon="7.809903527038051"><ele>435.0</ele><time>2026-04-23T16:38:47.999Z</time></trkpt><trkpt lat="44.37804499500065" lon="7.809812942559902"><ele>435.25</ele><time>2026-04-23T16:38:48.999Z</time></trkpt><trkpt lat="44.37794082582015" lon="7.809723008058846"><ele>435.5</ele><time>2026-04-23T16:38:49.999Z</time></trkpt><trkpt lat="44.377831137490354" lon="7.809627597123947"><ele>435.75</ele><time>2026-04-23T16:38:50.999Z</time></trkpt><trkpt lat="44.377722517438116" lon="7.809526604509201"><ele>436.0</ele><time>2026-04-23T16:38:51.999Z</time></trkpt><trkpt lat="44.377603713077626" lon="7.809422592392287"><ele>435.6666666666667</ele><time>2026-04-23T16:38:52.999Z</time></trkpt><trkpt lat="44.37747316022127" lon="7.809298400922461"><ele>435.33333333333337</ele><time>2026-04-23T16:38:53.999Z</time></trkpt><trkpt lat="44.37733446208247" lon="7.80918096034504"><ele>435.0</ele><time>2026-04-23T16:38:54.999Z</time></trkpt><trkpt lat="44.37719669632139" lon="7.809065731431128"><ele>436.0</ele><time>2026-04-23T16:38:55.999Z</time></trkpt><trkpt lat="44.37705003400167" lon="7.808941717973606"><ele>437.0</ele><time>2026-04-23T16:38:56.999Z</time></trkpt><trkpt lat="44.376905599472956" lon="7.808818164105691"><ele>438.0</ele><time>2026-04-23T16:38:57.999Z</time></trkpt><trkpt lat="44.37676210049023" lon="7.808689914831189"><ele>438.0</ele><time>2026-04-23T16:38:58.999Z</time></trkpt><trkpt lat="44.376604215808285" lon="7.808562684119778"><ele>438.0</ele><time>2026-04-23T16:38:59.999Z</time></trkpt><trkpt lat="44.376432218608585" lon="7.808444002816716"><ele>438.0</ele><time>2026-04-23T16:39:00.999Z</time></trkpt><trkpt lat="44.37624867387976" lon="7.808333003727764"><ele>438.33333333333337</ele><time>2026-04-23T16:39:01.999Z</time></trkpt><trkpt lat="44.37607071765223" lon="7.808226897682316"><ele>438.6666666666667</ele><time>2026-04-23T16:39:02.999Z</time></trkpt><trkpt lat="44.37589234753381" lon="7.808133051011715"><ele>439.0</ele><time>2026-04-23T16:39:03.999Z</time></trkpt><trkpt lat="44.37570935044705" lon="7.808033186222542"><ele>439.0</ele><time>2026-04-23T16:39:04.999Z</time></trkpt><trkpt lat="44.375527353485595" lon="7.807929315875982"><ele>439.0</ele><time>2026-04-23T16:39:05.999Z</time></trkpt><trkpt lat="44.37534986645766" lon="7.807828596994383"><ele>439.0</ele><time>2026-04-23T16:39:06.999Z</time></trkpt><trkpt lat="44.37517462080406" lon="7.807731554233675"><ele>438.6666666666667</ele><time>2026-04-23T16:39:07.999Z</time></trkpt><trkpt lat="44.374987412086796" lon="7.807628580826293"><ele>438.33333333333337</ele><time>2026-04-23T16:39:08.999Z</time></trkpt><trkpt lat="44.3748077248894" lon="7.807532220434824"><ele>438.0</ele><time>2026-04-23T16:39:09.999Z</time></trkpt><trkpt lat="44.37462908210304" lon="7.807432322642174"><ele>439.0</ele><time>2026-04-23T16:39:10.999Z</time></trkpt><trkpt lat="44.37445356985674" lon="7.807335508199991"><ele>440.0</ele><time>2026-04-23T16:39:11.999Z</time></trkpt><trkpt lat="44.374278595054086" lon="7.807234644604503"><ele>441.0</ele><time>2026-04-23T16:39:12.999Z</time></trkpt><trkpt lat="44.37410502892774" lon="7.807138493027469"><ele>441.0</ele><time>2026-04-23T16:39:13.999Z</time></trkpt><trkpt lat="44.373945223291265" lon="7.807048654279339"><ele>441.0</ele><time>2026-04-23T16:39:14.999Z</time></trkpt><trkpt lat="44.37378618325931" lon="7.80695723728975"><ele>441.0</ele><time>2026-04-23T16:39:15.999Z</time></trkpt><trkpt lat="44.37362286241745" lon="7.80686855152713"><ele>443.0</ele><time>2026-04-23T16:39:16.999Z</time></trkpt><trkpt lat="44.373465733125514" lon="7.806785412068458"><ele>445.0</ele><time>2026-04-23T16:39:17.999Z</time></trkpt><trkpt lat="44.37331679973391" lon="7.806702951304385"><ele>447.0</ele><time>2026-04-23T16:39:18.999Z</time></trkpt><trkpt lat="44.37316092971588" lon="7.806615316629625"><ele>447.25</ele><time>2026-04-23T16:39:19.999Z</time></trkpt><trkpt lat="44.37302011498443" lon="7.806527148222442"><ele>447.5</ele><time>2026-04-23T16:39:20.999Z</time></trkpt><trkpt lat="44.37289188114002" lon="7.8064359055274934"><ele>447.75</ele><time>2026-04-23T16:39:21.999Z</time></trkpt><trkpt lat="44.372771245242994" lon="7.806326514144046"><ele>448.0</ele><time>2026-04-23T16:39:22.999Z</time></trkpt><trkpt lat="44.37265582078451" lon="7.806194400538003"><ele>448.0</ele><time>2026-04-23T16:39:23.998Z</time></trkpt><trkpt lat="44.37255285252152" lon="7.806053455794331"><ele>448.0</ele><time>2026-04-23T16:39:24.998Z</time></trkpt><trkpt lat="44.372455214386456" lon="7.805892625774624"><ele>448.0</ele><time>2026-04-23T16:39:25.998Z</time></trkpt><trkpt lat="44.37238152462756" lon="7.805718773043078"><ele>448.0</ele><time>2026-04-23T16:39:26.998Z</time></trkpt><trkpt lat="44.37230635564074" lon="7.805531650161593"><ele>450.0</ele><time>2026-04-23T16:39:27.998Z</time></trkpt><trkpt lat="44.37224291390526" lon="7.805334803724386"><ele>452.0</ele><time>2026-04-23T16:39:28.998Z</time></trkpt><trkpt lat="44.37218670506052" lon="7.805130201600656"><ele>454.0</ele><time>2026-04-23T16:39:29.998Z</time></trkpt><trkpt lat="44.372132034886604" lon="7.804924079065921"><ele>456.33333333333337</ele><time>2026-04-23T16:39:30.998Z</time></trkpt><trkpt lat="44.37207316762197" lon="7.804716784275024"><ele>458.66666666666663</ele><time>2026-04-23T16:39:31.998Z</time></trkpt><trkpt lat="44.372012760608456" lon="7.804518181476157"><ele>461.0</ele><time>2026-04-23T16:39:32.998Z</time></trkpt><trkpt lat="44.37195078951314" lon="7.80431095868594"><ele>461.0</ele><time>2026-04-23T16:39:33.998Z</time></trkpt><trkpt lat="44.3718858680982" lon="7.804103646918453"><ele>461.0</ele><time>2026-04-23T16:39:34.998Z</time></trkpt><trkpt lat="44.37182586672572" lon="7.8038949783647364"><ele>461.0</ele><time>2026-04-23T16:39:35.998Z</time></trkpt><trkpt lat="44.37176562619969" lon="7.803688834517636"><ele>462.3333333333333</ele><time>2026-04-23T16:39:36.998Z</time></trkpt><trkpt lat="44.37170386217395" lon="7.80348417993693"><ele>463.66666666666663</ele><time>2026-04-23T16:39:37.998Z</time></trkpt><trkpt lat="44.37163534695555" lon="7.803275491761994"><ele>465.0</ele><time>2026-04-23T16:39:38.998Z</time></trkpt><trkpt lat="44.37156274187259" lon="7.803073911148277"><ele>465.0</ele><time>2026-04-23T16:39:39.998Z</time></trkpt><trkpt lat="44.37149261724709" lon="7.802864514881217"><ele>465.0</ele><time>2026-04-23T16:39:40.998Z</time></trkpt><trkpt lat="44.37141425641743" lon="7.802658786288498"><ele>465.0</ele><time>2026-04-23T16:39:41.998Z</time></trkpt><trkpt lat="44.37133247602729" lon="7.802455990862999"><ele>464.33333333333337</ele><time>2026-04-23T16:39:42.998Z</time></trkpt><trkpt lat="44.371250528739935" lon="7.802250309550568"><ele>463.6666666666667</ele><time>2026-04-23T16:39:44Z</time></trkpt><trkpt lat="44.37115354741357" lon="7.8020393420840115"><ele>463.0</ele><time>2026-04-23T16:39:45Z</time></trkpt><trkpt lat="44.3710556516279" lon="7.8018397534942245"><ele>464.0</ele><time>2026-04-23T16:39:46Z</time></trkpt><trkpt lat="44.370955193246985" lon="7.801648796164934"><ele>465.0</ele><time>2026-04-23T16:39:47Z</time></trkpt><trkpt lat="44.370845991697514" lon="7.8014588752801615"><ele>466.0</ele><time>2026-04-23T16:39:48Z</time></trkpt><trkpt lat="44.3707391002578" lon="7.801295997416686"><ele>466.0</ele><time>2026-04-23T16:39:49Z</time></trkpt><trkpt lat="44.37061247720418" lon="7.801112698357433"><ele>466.0</ele><time>2026-04-23T16:39:50Z</time></trkpt><trkpt lat="44.37048010466751" lon="7.800934721762159"><ele>466.0</ele><time>2026-04-23T16:39:51Z</time></trkpt><trkpt lat="44.37033640366875" lon="7.800754515083364"><ele>466.6666666666667</ele><time>2026-04-23T16:39:52Z</time></trkpt><trkpt lat="44.37018527266353" lon="7.800586466510186"><ele>467.33333333333337</ele><time>2026-04-23T16:39:53Z</time></trkpt><trkpt lat="44.37002490213185" lon="7.800430021326613"><ele>468.0</ele><time>2026-04-23T16:39:54Z</time></trkpt><trkpt lat="44.36985945839235" lon="7.800268090318996"><ele>468.33333333333337</ele><time>2026-04-23T16:39:55Z</time></trkpt><trkpt lat="44.36969773041353" lon="7.800087635704736"><ele>468.6666666666667</ele><time>2026-04-23T16:39:56Z</time></trkpt><trkpt lat="44.36952237103733" lon="7.799926554223569"><ele>469.0</ele><time>2026-04-23T16:39:57Z</time></trkpt><trkpt lat="44.36936631757428" lon="7.799765595567925"><ele>469.0</ele><time>2026-04-23T16:39:58Z</time></trkpt><trkpt lat="44.36922848478447" lon="7.799605561256874"><ele>469.0</ele><time>2026-04-23T16:39:59Z</time></trkpt><trkpt lat="44.369079634692426" lon="7.799454008906072"><ele>469.0</ele><time>2026-04-23T16:40:00Z</time></trkpt><trkpt lat="44.36894136656108" lon="7.799306832042464"><ele>469.33333333333337</ele><time>2026-04-23T16:40:01Z</time></trkpt><trkpt lat="44.368804725470625" lon="7.79917488886213"><ele>469.66666666666663</ele><time>2026-04-23T16:40:02Z</time></trkpt><trkpt lat="44.3686775799625" lon="7.799048149171659"><ele>470.0</ele><time>2026-04-23T16:40:03Z</time></trkpt><trkpt lat="44.368568407207036" lon="7.79894245219091"><ele>470.0</ele><time>2026-04-23T16:40:04Z</time></trkpt><trkpt lat="44.36846387639825" lon="7.798835423048443"><ele>470.0</ele><time>2026-04-23T16:40:05Z</time></trkpt><trkpt lat="44.368370953603716" lon="7.798749198440836"><ele>470.0</ele><time>2026-04-23T16:40:06Z</time></trkpt><trkpt lat="44.368296290294765" lon="7.798655381193193"><ele>470.0</ele><time>2026-04-23T16:40:07Z</time></trkpt><trkpt lat="44.36824082009693" lon="7.7985777052176655"><ele>470.0</ele><time>2026-04-23T16:40:08Z</time></trkpt><trkpt lat="44.36818874310193" lon="7.798499106166061"><ele>470.4</ele><time>2026-04-23T16:40:09Z</time></trkpt><trkpt lat="44.36813968936995" lon="7.7984162374455925"><ele>470.8</ele><time>2026-04-23T16:40:10Z</time></trkpt><trkpt lat="44.36805957010253" lon="7.798236046271516"><ele>471.20000000000005</ele><time>2026-04-23T16:40:12Z</time></trkpt><trkpt lat="44.36801751140007" lon="7.798110902487567"><ele>471.6</ele><time>2026-04-23T16:40:13Z</time></trkpt><trkpt lat="44.367969204474726" lon="7.79801650835756"><ele>472.0</ele><time>2026-04-23T16:40:14Z</time></trkpt><trkpt lat="44.36790395584457" lon="7.797930016394327"><ele>472.0</ele><time>2026-04-23T16:40:15Z</time></trkpt><trkpt lat="44.367821729607755" lon="7.797835550548368"><ele>472.00000000000006</ele><time>2026-04-23T16:40:16Z</time></trkpt><trkpt lat="44.3677152538634" lon="7.797815911103614"><ele>472.00000000000006</ele><time>2026-04-23T16:40:17Z</time></trkpt><trkpt lat="44.36760619866311" lon="7.797794768552055"><ele>472.0</ele><time>2026-04-23T16:40:18Z</time></trkpt><trkpt lat="44.36749366225679" lon="7.797771059904992"><ele>472.0</ele><time>2026-04-23T16:40:19Z</time></trkpt><trkpt lat="44.36738872585543" lon="7.797727906116726"><ele>472.5</ele><time>2026-04-23T16:40:20Z</time></trkpt><trkpt lat="44.367272785247565" lon="7.797664962267584"><ele>473.0</ele><time>2026-04-23T16:40:21Z</time></trkpt><trkpt lat="44.36714981063083" lon="7.797580294760373"><ele>473.5</ele><time>2026-04-23T16:40:22Z</time></trkpt><trkpt lat="44.367039584947854" lon="7.797483014278707"><ele>474.0</ele><time>2026-04-23T16:40:23Z</time></trkpt><trkpt lat="44.36691386451938" lon="7.797371291600752"><ele>474.0</ele><time>2026-04-23T16:40:24Z</time></trkpt><trkpt lat="44.36679405152486" lon="7.797259401140039"><ele>474.0</ele><time>2026-04-23T16:40:25Z</time></trkpt><trkpt lat="44.36666845342754" lon="7.797135364385758"><ele>474.0</ele><time>2026-04-23T16:40:26Z</time></trkpt><trkpt lat="44.36653877626634" lon="7.7970184374112685"><ele>474.0</ele><time>2026-04-23T16:40:27Z</time></trkpt><trkpt lat="44.36642561615564" lon="7.7969084710909575"><ele>474.0</ele><time>2026-04-23T16:40:27.999Z</time></trkpt><trkpt lat="44.366306949459975" lon="7.796785966515444"><ele>474.0</ele><time>2026-04-23T16:40:28.999Z</time></trkpt><trkpt lat="44.36618327676168" lon="7.796672514838717"><ele>474.0</ele><time>2026-04-23T16:40:29.999Z</time></trkpt><trkpt lat="44.36606088542403" lon="7.79656101237991"><ele>474.66666666666663</ele><time>2026-04-23T16:40:30.999Z</time></trkpt><trkpt lat="44.365935710671245" lon="7.796441868613203"><ele>475.3333333333333</ele><time>2026-04-23T16:40:31.999Z</time></trkpt><trkpt lat="44.365812995548076" lon="7.79632053393591"><ele>476.0</ele><time>2026-04-23T16:40:32.999Z</time></trkpt><trkpt lat="44.36568875603844" lon="7.796198637680337"><ele>476.0</ele><time>2026-04-23T16:40:33.999Z</time></trkpt><trkpt lat="44.36554873576662" lon="7.796085931329603"><ele>476.0</ele><time>2026-04-23T16:40:34.999Z</time></trkpt><trkpt lat="44.36541178928113" lon="7.795956031414253"><ele>476.0</ele><time>2026-04-23T16:40:35.999Z</time></trkpt><trkpt lat="44.3652857886154" lon="7.795829346614272"><ele>476.3333333333333</ele><time>2026-04-23T16:40:36.999Z</time></trkpt><trkpt lat="44.36515409944846" lon="7.795701752729886"><ele>476.66666666666663</ele><time>2026-04-23T16:40:37.999Z</time></trkpt><trkpt lat="44.36502284504681" lon="7.795577411908269"><ele>477.0</ele><time>2026-04-23T16:40:38.999Z</time></trkpt><trkpt lat="44.36488648386442" lon="7.795446358567241"><ele>477.0</ele><time>2026-04-23T16:40:39.999Z</time></trkpt><trkpt lat="44.3647564215515" lon="7.795327299399085"><ele>477.0</ele><time>2026-04-23T16:40:40.999Z</time></trkpt><trkpt lat="44.364634583174265" lon="7.795218246580125"><ele>477.0</ele><time>2026-04-23T16:40:41.999Z</time></trkpt><trkpt lat="44.36451852511167" lon="7.795111256551987"><ele>477.0</ele><time>2026-04-23T16:40:42.999Z</time></trkpt><trkpt lat="44.36440068724921" lon="7.794994220549156"><ele>476.75</ele><time>2026-04-23T16:40:43.999Z</time></trkpt><trkpt lat="44.36427869161954" lon="7.794881981589828"><ele>476.5</ele><time>2026-04-23T16:40:44.999Z</time></trkpt><trkpt lat="44.364152809909264" lon="7.794769612615455"><ele>476.25</ele><time>2026-04-23T16:40:45.999Z</time></trkpt><trkpt lat="44.36402433889039" lon="7.794650516612837"><ele>476.0</ele><time>2026-04-23T16:40:46.999Z</time></trkpt><trkpt lat="44.363896009920715" lon="7.794531028221545"><ele>476.0</ele><time>2026-04-23T16:40:47.999Z</time></trkpt><trkpt lat="44.36376766676457" lon="7.794407782698067"><ele>476.0</ele><time>2026-04-23T16:40:48.999Z</time></trkpt><trkpt lat="44.36364776328606" lon="7.794294161352018"><ele>476.0</ele><time>2026-04-23T16:40:49.999Z</time></trkpt><trkpt lat="44.36353521809999" lon="7.794191711984836"><ele>476.0</ele><time>2026-04-23T16:40:50.999Z</time></trkpt><trkpt lat="44.36342282032352" lon="7.794085112209412"><ele>476.25</ele><time>2026-04-23T16:40:51.999Z</time></trkpt><trkpt lat="44.36330399179487" lon="7.793976326598969"><ele>476.5</ele><time>2026-04-23T16:40:52.999Z</time></trkpt><trkpt lat="44.36318397531852" lon="7.793859751087767"><ele>476.75</ele><time>2026-04-23T16:40:53.999Z</time></trkpt><trkpt lat="44.36306213427688" lon="7.793741624210002"><ele>477.0</ele><time>2026-04-23T16:40:54.999Z</time></trkpt><trkpt lat="44.36293890694029" lon="7.793621576932487"><ele>477.0</ele><time>2026-04-23T16:40:55.999Z</time></trkpt><trkpt lat="44.36282462194722" lon="7.793512413742273"><ele>477.0</ele><time>2026-04-23T16:40:56.999Z</time></trkpt><trkpt lat="44.362705397400546" lon="7.793400083150316"><ele>477.0</ele><time>2026-04-23T16:40:57.999Z</time></trkpt><trkpt lat="44.36259401424418" lon="7.793298347553256"><ele>477.0</ele><time>2026-04-23T16:40:58.999Z</time></trkpt><trkpt lat="44.36248888953229" lon="7.793201785354655"><ele>478.0</ele><time>2026-04-23T16:40:59.999Z</time></trkpt><trkpt lat="44.36238684124995" lon="7.793106051036195"><ele>479.0</ele><time>2026-04-23T16:41:00.999Z</time></trkpt><trkpt lat="44.36227780074198" lon="7.793008580172666"><ele>480.0</ele><time>2026-04-23T16:41:01.999Z</time></trkpt><trkpt lat="44.362168376469995" lon="7.792903603295604"><ele>481.0</ele><time>2026-04-23T16:41:02.999Z</time></trkpt><trkpt lat="44.36205418912116" lon="7.792800181992228"><ele>481.25</ele><time>2026-04-23T16:41:03.999Z</time></trkpt><trkpt lat="44.36194369733902" lon="7.792691924798903"><ele>481.5</ele><time>2026-04-23T16:41:04.999Z</time></trkpt><trkpt lat="44.3618272969779" lon="7.7925773440423995"><ele>481.75</ele><time>2026-04-23T16:41:05.999Z</time></trkpt><trkpt lat="44.36171414877171" lon="7.792465665723605"><ele>482.0</ele><time>2026-04-23T16:41:06.999Z</time></trkpt><trkpt lat="44.361599460695096" lon="7.792360248544907"><ele>482.0</ele><time>2026-04-23T16:41:07.999Z</time></trkpt><trkpt lat="44.36148969303255" lon="7.792261148985842"><ele>482.0</ele><time>2026-04-23T16:41:08.999Z</time></trkpt><trkpt lat="44.361377417804" lon="7.792158877689795"><ele>482.0</ele><time>2026-04-23T16:41:09.999Z</time></trkpt><trkpt lat="44.361265754060355" lon="7.792057398480147"><ele>482.0</ele><time>2026-04-23T16:41:10.999Z</time></trkpt><trkpt lat="44.36115282141078" lon="7.791945823838145"><ele>481.75</ele><time>2026-04-23T16:41:11.999Z</time></trkpt><trkpt lat="44.36103981709993" lon="7.791835412543901"><ele>481.5</ele><time>2026-04-23T16:41:12.999Z</time></trkpt><trkpt lat="44.36093214942715" lon="7.791734162100855"><ele>481.25</ele><time>2026-04-23T16:41:13.999Z</time></trkpt><trkpt lat="44.36083041359095" lon="7.791637258585331"><ele>481.0</ele><time>2026-04-23T16:41:14.999Z</time></trkpt><trkpt lat="44.360719849156006" lon="7.791526367724035"><ele>481.0</ele><time>2026-04-23T16:41:15.999Z</time></trkpt><trkpt lat="44.36061247527181" lon="7.791433076396612"><ele>481.0</ele><time>2026-04-23T16:41:16.999Z</time></trkpt><trkpt lat="44.36050378408155" lon="7.791334472293863"><ele>481.0</ele><time>2026-04-23T16:41:17.999Z</time></trkpt><trkpt lat="44.360396360564096" lon="7.791243526889531"><ele>481.0</ele><time>2026-04-23T16:41:18.999Z</time></trkpt><trkpt lat="44.360294312017416" lon="7.791148070736541"><ele>481.25</ele><time>2026-04-23T16:41:19.999Z</time></trkpt><trkpt lat="44.360191449669124" lon="7.791053932008024"><ele>481.5</ele><time>2026-04-23T16:41:20.999Z</time></trkpt><trkpt lat="44.36009260111329" lon="7.790954529124079"><ele>481.75</ele><time>2026-04-23T16:41:21.999Z</time></trkpt><trkpt lat="44.36000119254143" lon="7.790863099364492"><ele>482.0</ele><time>2026-04-23T16:41:22.999Z</time></trkpt><trkpt lat="44.359910075615595" lon="7.7907722271812005"><ele>482.0</ele><time>2026-04-23T16:41:23.999Z</time></trkpt><trkpt lat="44.35981474057509" lon="7.790677387707211"><ele>482.0</ele><time>2026-04-23T16:41:24.999Z</time></trkpt><trkpt lat="44.359713304242455" lon="7.790590146473216"><ele>482.0</ele><time>2026-04-23T16:41:25.999Z</time></trkpt><trkpt lat="44.359614867427375" lon="7.790508592856785"><ele>482.0</ele><time>2026-04-23T16:41:26.999Z</time></trkpt><trkpt lat="44.35951142179228" lon="7.790412195838329"><ele>482.6</ele><time>2026-04-23T16:41:27.999Z</time></trkpt><trkpt lat="44.35940656428597" lon="7.79031162339892"><ele>483.20000000000005</ele><time>2026-04-23T16:41:28.999Z</time></trkpt><trkpt lat="44.35931890516948" lon="7.790229094487018"><ele>483.8</ele><time>2026-04-23T16:41:29.998Z</time></trkpt><trkpt lat="44.35924244515445" lon="7.790137175709101"><ele>484.4</ele><time>2026-04-23T16:41:30.998Z</time></trkpt><trkpt lat="44.35914890528182" lon="7.790044743348992"><ele>485.0</ele><time>2026-04-23T16:41:31.998Z</time></trkpt><trkpt lat="44.35904584279972" lon="7.789959335801717"><ele>485.25</ele><time>2026-04-23T16:41:32.998Z</time></trkpt><trkpt lat="44.358940699156975" lon="7.789865242547598"><ele>485.5</ele><time>2026-04-23T16:41:33.998Z</time></trkpt><trkpt lat="44.35882946076836" lon="7.789767423406739"><ele>485.75</ele><time>2026-04-23T16:41:34.998Z</time></trkpt><trkpt lat="44.358711865761904" lon="7.789661548826288"><ele>486.0</ele><time>2026-04-23T16:41:35.998Z</time></trkpt><trkpt lat="44.358593809615144" lon="7.789552424617016"><ele>485.5</ele><time>2026-04-23T16:41:36.998Z</time></trkpt><trkpt lat="44.358470414886256" lon="7.789428806903727"><ele>485.0</ele><time>2026-04-23T16:41:37.998Z</time></trkpt><trkpt lat="44.358344353262034" lon="7.789316215987023"><ele>484.5</ele><time>2026-04-23T16:41:38.998Z</time></trkpt><trkpt lat="44.35822379155558" lon="7.789196771455972"><ele>484.0</ele><time>2026-04-23T16:41:39.998Z</time></trkpt><trkpt lat="44.35811035229169" lon="7.789085907995358"><ele>484.0</ele><time>2026-04-23T16:41:40.998Z</time></trkpt><trkpt lat="44.35799823290334" lon="7.788979606861668"><ele>484.0</ele><time>2026-04-23T16:41:41.998Z</time></trkpt><trkpt lat="44.357892997020116" lon="7.788876622342015"><ele>484.0</ele><time>2026-04-23T16:41:42.998Z</time></trkpt><trkpt lat="44.35778186762017" lon="7.788771361427415"><ele>484.0</ele><time>2026-04-23T16:41:43.998Z</time></trkpt><trkpt lat="44.35767341736179" lon="7.788668552507928"><ele>484.0</ele><time>2026-04-23T16:41:44.998Z</time></trkpt><trkpt lat="44.357576551295445" lon="7.788574101636635"><ele>484.0</ele><time>2026-04-23T16:41:45.998Z</time></trkpt><trkpt lat="44.35748860184743" lon="7.7884878523171075"><ele>484.0</ele><time>2026-04-23T16:41:46.998Z</time></trkpt><trkpt lat="44.35740871332885" lon="7.788415081537971"><ele>484.0</ele><time>2026-04-23T16:41:47.998Z</time></trkpt><trkpt lat="44.35734254528231" lon="7.788342169192448"><ele>484.0</ele><time>2026-04-23T16:41:48.998Z</time></trkpt><trkpt lat="44.3572834222281" lon="7.7882649146685505"><ele>484.1666666666667</ele><time>2026-04-23T16:41:50Z</time></trkpt><trkpt lat="44.357236462894356" lon="7.788188528813512"><ele>484.33333333333337</ele><time>2026-04-23T16:41:51Z</time></trkpt><trkpt lat="44.35719105173174" lon="7.788102519438671"><ele>484.5</ele><time>2026-04-23T16:41:52Z</time></trkpt><trkpt lat="44.35715503816185" lon="7.788028940249654"><ele>484.66666666666663</ele><time>2026-04-23T16:41:53Z</time></trkpt><trkpt lat="44.357115930519925" lon="7.7879567003503825"><ele>484.8333333333333</ele><time>2026-04-23T16:41:54Z</time></trkpt><trkpt lat="44.35699513287026" lon="7.787873117220538"><ele>485.0</ele><time>2026-04-23T16:41:56Z</time></trkpt><trkpt lat="44.35691792012145" lon="7.787859004724736"><ele>485.2</ele><time>2026-04-23T16:41:57Z</time></trkpt><trkpt lat="44.35683442608252" lon="7.787831358277614"><ele>485.4</ele><time>2026-04-23T16:41:58Z</time></trkpt><trkpt lat="44.356752433543136" lon="7.787780731238306"><ele>485.6</ele><time>2026-04-23T16:41:59Z</time></trkpt><trkpt lat="44.35666914934162" lon="7.787713007681566"><ele>485.8</ele><time>2026-04-23T16:42:00Z</time></trkpt><trkpt lat="44.35657944437824" lon="7.787632948498578"><ele>486.0</ele><time>2026-04-23T16:42:01Z</time></trkpt><trkpt lat="44.356482172908414" lon="7.787545703131413"><ele>486.0</ele><time>2026-04-23T16:42:02Z</time></trkpt><trkpt lat="44.35637618848049" lon="7.787455869789557"><ele>486.0</ele><time>2026-04-23T16:42:03Z</time></trkpt><trkpt lat="44.35626223648221" lon="7.787356685246797"><ele>486.0</ele><time>2026-04-23T16:42:04Z</time></trkpt><trkpt lat="44.35614590438416" lon="7.787244746794113"><ele>486.0</ele><time>2026-04-23T16:42:05Z</time></trkpt><trkpt lat="44.356024457765805" lon="7.787125684009767"><ele>486.25</ele><time>2026-04-23T16:42:06Z</time></trkpt><trkpt lat="44.355916316068935" lon="7.7870204687878735"><ele>486.5</ele><time>2026-04-23T16:42:07Z</time></trkpt><trkpt lat="44.35581023016323" lon="7.786917985663811"><ele>486.75</ele><time>2026-04-23T16:42:08Z</time></trkpt><trkpt lat="44.35570651913608" lon="7.786826367227934"><ele>487.0</ele><time>2026-04-23T16:42:09Z</time></trkpt><trkpt lat="44.3556061530253" lon="7.786726356382892"><ele>487.8</ele><time>2026-04-23T16:42:10Z</time></trkpt><trkpt lat="44.355514363136244" lon="7.786646375541516"><ele>488.6</ele><time>2026-04-23T16:42:11Z</time></trkpt><trkpt lat="44.355429353155536" lon="7.786563994078943"><ele>489.40000000000003</ele><time>2026-04-23T16:42:12Z</time></trkpt><trkpt lat="44.355330026699015" lon="7.786479401885807"><ele>490.20000000000005</ele><time>2026-04-23T16:42:13Z</time></trkpt><trkpt lat="44.35524658557047" lon="7.786394310305278"><ele>491.0</ele><time>2026-04-23T16:42:14Z</time></trkpt><trkpt lat="44.35515939431048" lon="7.7863064130599975"><ele>491.0</ele><time>2026-04-23T16:42:15Z</time></trkpt><trkpt lat="44.35508034731668" lon="7.786220189890503"><ele>491.0</ele><time>2026-04-23T16:42:16Z</time></trkpt><trkpt lat="44.3550083431643" lon="7.786136097193163"><ele>491.0</ele><time>2026-04-23T16:42:17Z</time></trkpt><trkpt lat="44.35493716757187" lon="7.786051445018845"><ele>491.0</ele><time>2026-04-23T16:42:18Z</time></trkpt><trkpt lat="44.35487290564874" lon="7.785970190777381"><ele>491.0</ele><time>2026-04-23T16:42:19Z</time></trkpt><trkpt lat="44.35482055191449" lon="7.785889756076502"><ele>491.16666666666663</ele><time>2026-04-23T16:42:20Z</time></trkpt><trkpt lat="44.354770311175734" lon="7.785809454612049"><ele>491.3333333333333</ele><time>2026-04-23T16:42:21Z</time></trkpt><trkpt lat="44.35472485779795" lon="7.78572065499755"><ele>491.5</ele><time>2026-04-23T16:42:22Z</time></trkpt><trkpt lat="44.35467005910237" lon="7.785619016523407"><ele>491.66666666666663</ele><time>2026-04-23T16:42:23Z</time></trkpt><trkpt lat="44.35459667974705" lon="7.785520235181912"><ele>491.8333333333333</ele><time>2026-04-23T16:42:24Z</time></trkpt><trkpt lat="44.35452402913564" lon="7.785433753505248"><ele>492.0</ele><time>2026-04-23T16:42:25Z</time></trkpt><trkpt lat="44.35445611521169" lon="7.785343198012261"><ele>492.0</ele><time>2026-04-23T16:42:26Z</time></trkpt><trkpt lat="44.354398663995454" lon="7.785245913790366"><ele>492.00000000000006</ele><time>2026-04-23T16:42:27Z</time></trkpt><trkpt lat="44.35434333399767" lon="7.78513445570781"><ele>492.00000000000006</ele><time>2026-04-23T16:42:28Z</time></trkpt><trkpt lat="44.35428346855969" lon="7.785019837341976"><ele>492.0</ele><time>2026-04-23T16:42:29Z</time></trkpt><trkpt lat="44.3542262852059" lon="7.784913481687992"><ele>492.0</ele><time>2026-04-23T16:42:30Z</time></trkpt><trkpt lat="44.35417162800116" lon="7.784798090333898"><ele>492.6</ele><time>2026-04-23T16:42:31Z</time></trkpt><trkpt lat="44.35412146393033" lon="7.784683367454445"><ele>493.20000000000005</ele><time>2026-04-23T16:42:32Z</time></trkpt><trkpt lat="44.35407776726106" lon="7.784574654820516"><ele>493.8</ele><time>2026-04-23T16:42:33Z</time></trkpt><trkpt lat="44.354029785082844" lon="7.7844641609157685"><ele>494.4</ele><time>2026-04-23T16:42:33.999Z</time></trkpt><trkpt lat="44.35397670174929" lon="7.784340746006229"><ele>495.0</ele><time>2026-04-23T16:42:34.999Z</time></trkpt><trkpt lat="44.35392231831836" lon="7.784216450442607"><ele>494.8</ele><time>2026-04-23T16:42:35.999Z</time></trkpt><trkpt lat="44.353864841535724" lon="7.784102029160136"><ele>494.6</ele><time>2026-04-23T16:42:36.999Z</time></trkpt><trkpt lat="44.35381208823495" lon="7.7839793936685675"><ele>494.4</ele><time>2026-04-23T16:42:37.999Z</time></trkpt><trkpt lat="44.353758802295744" lon="7.7838542573192635"><ele>494.2</ele><time>2026-04-23T16:42:38.999Z</time></trkpt><trkpt lat="44.35370745017183" lon="7.783745565064858"><ele>494.0</ele><time>2026-04-23T16:42:39.999Z</time></trkpt><trkpt lat="44.35367586479314" lon="7.783660112253857"><ele>493.99999999999994</ele><time>2026-04-23T16:42:40.999Z</time></trkpt><trkpt lat="44.353649352648524" lon="7.783563173936073"><ele>494.0</ele><time>2026-04-23T16:42:41.999Z</time></trkpt><trkpt lat="44.3536357454387" lon="7.78347610526051"><ele>494.0</ele><time>2026-04-23T16:42:42.999Z</time></trkpt><trkpt lat="44.35357234207758" lon="7.783347802441608"><ele>494.0</ele><time>2026-04-23T16:42:44.999Z</time></trkpt><trkpt lat="44.353568066566304" lon="7.783254188357546"><ele>493.99999999999994</ele><time>2026-04-23T16:42:46.999Z</time></trkpt><trkpt lat="44.353538122329184" lon="7.783157670379038"><ele>494.0</ele><time>2026-04-23T16:43:36.998Z</time></trkpt><trkpt lat="44.353520117273185" lon="7.783044344143359"><ele>494.6</ele><time>2026-04-23T16:43:39.998Z</time></trkpt><trkpt lat="44.35360276263089" lon="7.783090611538741"><ele>495.2</ele><time>2026-04-23T16:43:44.998Z</time></trkpt><trkpt lat="44.35360787452554" lon="7.783258828483778"><ele>495.80000000000007</ele><time>2026-04-23T16:43:46.998Z</time></trkpt><trkpt lat="44.3536143498308" lon="7.78335214593528"><ele>496.40000000000003</ele><time>2026-04-23T16:43:48.998Z</time></trkpt><trkpt lat="44.353534770627334" lon="7.783366203401824"><ele>497.0</ele><time>2026-04-23T16:43:56Z</time></trkpt><trkpt lat="44.35345003867098" lon="7.78326305319067"><ele>497.0</ele><time>2026-04-23T16:43:58Z</time></trkpt><trkpt lat="44.35341884482687" lon="7.783177262196997"><ele>497.00000000000006</ele><time>2026-04-23T16:43:59Z</time></trkpt><trkpt lat="44.353369887335965" lon="7.783061963728388"><ele>497.00000000000006</ele><time>2026-04-23T16:44:00Z</time></trkpt><trkpt lat="44.35332159551889" lon="7.782939063165939"><ele>497.0</ele><time>2026-04-23T16:44:01Z</time></trkpt><trkpt lat="44.35326284433394" lon="7.782814138584024"><ele>497.0</ele><time>2026-04-23T16:44:02Z</time></trkpt><trkpt lat="44.353194328491384" lon="7.782670608323967"><ele>497.25</ele><time>2026-04-23T16:44:03Z</time></trkpt><trkpt lat="44.35312148071485" lon="7.782514523197539"><ele>497.5</ele><time>2026-04-23T16:44:04Z</time></trkpt><trkpt lat="44.353061809496054" lon="7.78238001968938"><ele>497.75</ele><time>2026-04-23T16:44:05Z</time></trkpt><trkpt lat="44.353000266330035" lon="7.78224547574159"><ele>498.0</ele><time>2026-04-23T16:44:06Z</time></trkpt><trkpt lat="44.35293931595159" lon="7.782116409765678"><ele>498.2</ele><time>2026-04-23T16:44:07Z</time></trkpt><trkpt lat="44.35287703578856" lon="7.781995888531074"><ele>498.4</ele><time>2026-04-23T16:44:08Z</time></trkpt><trkpt lat="44.35280823525963" lon="7.781859202406487"><ele>498.59999999999997</ele><time>2026-04-23T16:44:09Z</time></trkpt><trkpt lat="44.35273867601958" lon="7.78172097336984"><ele>498.79999999999995</ele><time>2026-04-23T16:44:10Z</time></trkpt><trkpt lat="44.35269123691509" lon="7.7816018091801675"><ele>499.0</ele><time>2026-04-23T16:44:11Z</time></trkpt><trkpt lat="44.35264168525693" lon="7.781492372201351"><ele>499.1666666666667</ele><time>2026-04-23T16:44:12Z</time></trkpt><trkpt lat="44.35260788899364" lon="7.781393112643288"><ele>499.33333333333337</ele><time>2026-04-23T16:44:13Z</time></trkpt><trkpt lat="44.35256005397389" lon="7.781295306940434"><ele>499.5</ele><time>2026-04-23T16:44:14Z</time></trkpt><trkpt lat="44.35251683653237" lon="7.781197497090369"><ele>499.66666666666663</ele><time>2026-04-23T16:44:15Z</time></trkpt><trkpt lat="44.35247195911716" lon="7.781075349868826"><ele>499.8333333333333</ele><time>2026-04-23T16:44:16Z</time></trkpt><trkpt lat="44.35241830116417" lon="7.780956987444177"><ele>500.0</ele><time>2026-04-23T16:44:17Z</time></trkpt><trkpt lat="44.35236053097126" lon="7.780823829232641"><ele>499.8</ele><time>2026-04-23T16:44:18Z</time></trkpt><trkpt lat="44.35230115601642" lon="7.780686156788634"><ele>499.6</ele><time>2026-04-23T16:44:19Z</time></trkpt><trkpt lat="44.35224398235479" lon="7.78056447759"><ele>499.4</ele><time>2026-04-23T16:44:20Z</time></trkpt><trkpt lat="44.352184749701834" lon="7.780434692854145"><ele>499.2</ele><time>2026-04-23T16:44:21Z</time></trkpt><trkpt lat="44.35212668122639" lon="7.780310837552866"><ele>499.0</ele><time>2026-04-23T16:44:22Z</time></trkpt><trkpt lat="44.352074161062056" lon="7.780185916247696"><ele>498.79999999999995</ele><time>2026-04-23T16:44:23Z</time></trkpt><trkpt lat="44.35201573471021" lon="7.780062701284943"><ele>498.59999999999997</ele><time>2026-04-23T16:44:24Z</time></trkpt><trkpt lat="44.35195912704442" lon="7.779940147907428"><ele>498.4</ele><time>2026-04-23T16:44:25Z</time></trkpt><trkpt lat="44.351904213397674" lon="7.7798167700664855"><ele>498.2</ele><time>2026-04-23T16:44:26Z</time></trkpt><trkpt lat="44.351849118365685" lon="7.779689578833831"><ele>498.0</ele><time>2026-04-23T16:44:27Z</time></trkpt><trkpt lat="44.35179796701551" lon="7.779571325126088"><ele>498.0</ele><time>2026-04-23T16:44:28Z</time></trkpt><trkpt lat="44.35174344838055" lon="7.779447321055217"><ele>497.99999999999994</ele><time>2026-04-23T16:44:29Z</time></trkpt><trkpt lat="44.351684542135814" lon="7.77931764375565"><ele>497.99999999999994</ele><time>2026-04-23T16:44:30Z</time></trkpt><trkpt lat="44.35162547015066" lon="7.779182274944488"><ele>498.0</ele><time>2026-04-23T16:44:31Z</time></trkpt><trkpt lat="44.35156286791677" lon="7.779054582026788"><ele>498.0</ele><time>2026-04-23T16:44:32Z</time></trkpt><trkpt lat="44.35150473620496" lon="7.778914560642217"><ele>497.79999999999995</ele><time>2026-04-23T16:44:33Z</time></trkpt><trkpt lat="44.35144635371917" lon="7.77877703052364"><ele>497.59999999999997</ele><time>2026-04-23T16:44:34Z</time></trkpt><trkpt lat="44.35139241676923" lon="7.778645210912749"><ele>497.40000000000003</ele><time>2026-04-23T16:44:35Z</time></trkpt><trkpt lat="44.351338364536765" lon="7.778522670269573"><ele>497.20000000000005</ele><time>2026-04-23T16:44:36Z</time></trkpt><trkpt lat="44.35127991939684" lon="7.778391312703719"><ele>497.0</ele><time>2026-04-23T16:44:37Z</time></trkpt><trkpt lat="44.35121602924152" lon="7.778257507558177"><ele>497.5</ele><time>2026-04-23T16:44:38Z</time></trkpt><trkpt lat="44.35115730212703" lon="7.77811690681173"><ele>498.0</ele><time>2026-04-23T16:44:39Z</time></trkpt><trkpt lat="44.351101104202584" lon="7.777996547131255"><ele>498.5</ele><time>2026-04-23T16:44:40Z</time></trkpt><trkpt lat="44.35104200761458" lon="7.777854081616158"><ele>499.0</ele><time>2026-04-23T16:44:40.999Z</time></trkpt><trkpt lat="44.35098093509957" lon="7.777706994246156"><ele>499.6</ele><time>2026-04-23T16:44:41.999Z</time></trkpt><trkpt lat="44.35092275628038" lon="7.7775633597141995"><ele>500.2</ele><time>2026-04-23T16:44:42.999Z</time></trkpt><trkpt lat="44.350863682892836" lon="7.777435094549677"><ele>500.80000000000007</ele><time>2026-04-23T16:44:43.999Z</time></trkpt><trkpt lat="44.350812442869" lon="7.777299382458492"><ele>501.40000000000003</ele><time>2026-04-23T16:44:44.999Z</time></trkpt><trkpt lat="44.35075264821223" lon="7.777174156399028"><ele>502.0</ele><time>2026-04-23T16:44:45.999Z</time></trkpt><trkpt lat="44.35069217973011" lon="7.777045810122964"><ele>502.0</ele><time>2026-04-23T16:44:46.999Z</time></trkpt><trkpt lat="44.35063481946047" lon="7.776904349162928"><ele>502.00000000000006</ele><time>2026-04-23T16:44:47.999Z</time></trkpt><trkpt lat="44.35057840945382" lon="7.7767805924559745"><ele>502.00000000000006</ele><time>2026-04-23T16:44:48.999Z</time></trkpt><trkpt lat="44.35052137297679" lon="7.7766619519997215"><ele>502.0</ele><time>2026-04-23T16:44:49.999Z</time></trkpt><trkpt lat="44.35046144881639" lon="7.77653659281288"><ele>502.0</ele><time>2026-04-23T16:44:50.999Z</time></trkpt><trkpt lat="44.350406759995224" lon="7.77641339397892"><ele>502.40000000000003</ele><time>2026-04-23T16:44:51.999Z</time></trkpt><trkpt lat="44.350345803343366" lon="7.776279253294756"><ele>502.80000000000007</ele><time>2026-04-23T16:44:52.999Z</time></trkpt><trkpt lat="44.35028801503478" lon="7.776152385563343"><ele>503.2</ele><time>2026-04-23T16:44:53.999Z</time></trkpt><trkpt lat="44.35023090686544" lon="7.77602494894222"><ele>503.6</ele><time>2026-04-23T16:44:54.999Z</time></trkpt><trkpt lat="44.350166125131764" lon="7.775891165544804"><ele>504.0</ele><time>2026-04-23T16:44:55.999Z</time></trkpt><trkpt lat="44.35010507377544" lon="7.775751206609857"><ele>504.0</ele><time>2026-04-23T16:44:56.999Z</time></trkpt><trkpt lat="44.350043475863934" lon="7.775620043663089"><ele>504.0</ele><time>2026-04-23T16:44:57.999Z</time></trkpt><trkpt lat="44.34998577807705" lon="7.775486635906413"><ele>504.0</ele><time>2026-04-23T16:44:58.999Z</time></trkpt><trkpt lat="44.34992853501426" lon="7.775338270182817"><ele>504.0</ele><time>2026-04-23T16:44:59.999Z</time></trkpt><trkpt lat="44.34986818351235" lon="7.775209947833307"><ele>504.0</ele><time>2026-04-23T16:45:00.999Z</time></trkpt><trkpt lat="44.34981225286862" lon="7.775082950778614"><ele>504.0</ele><time>2026-04-23T16:45:01.999Z</time></trkpt><trkpt lat="44.349752228929525" lon="7.77495826696997"><ele>504.0</ele><time>2026-04-23T16:45:02.999Z</time></trkpt><trkpt lat="44.349691904522835" lon="7.774824756159456"><ele>504.0</ele><time>2026-04-23T16:45:03.999Z</time></trkpt><trkpt lat="44.34963494688426" lon="7.774690031493667"><ele>504.0</ele><time>2026-04-23T16:45:04.999Z</time></trkpt><trkpt lat="44.34957808132718" lon="7.774554866258029"><ele>504.0</ele><time>2026-04-23T16:45:05.999Z</time></trkpt><trkpt lat="44.34952059718195" lon="7.77440970679615"><ele>504.0</ele><time>2026-04-23T16:45:06.999Z</time></trkpt><trkpt lat="44.34945904712198" lon="7.7742717091390725"><ele>504.0</ele><time>2026-04-23T16:45:07.999Z</time></trkpt><trkpt lat="44.349404887700366" lon="7.774146943869583"><ele>504.0</ele><time>2026-04-23T16:45:08.999Z</time></trkpt><trkpt lat="44.34935115961645" lon="7.774008220426309"><ele>504.79999999999995</ele><time>2026-04-23T16:45:09.999Z</time></trkpt><trkpt lat="44.34929123561971" lon="7.773873579375435"><ele>505.59999999999997</ele><time>2026-04-23T16:45:10.999Z</time></trkpt><trkpt lat="44.34922828939161" lon="7.773727759881854"><ele>506.4</ele><time>2026-04-23T16:45:11.999Z</time></trkpt><trkpt lat="44.34916556965463" lon="7.773597445161973"><ele>507.2</ele><time>2026-04-23T16:45:12.999Z</time></trkpt><trkpt lat="44.349110222113914" lon="7.773478179952641"><ele>508.0</ele><time>2026-04-23T16:45:13.999Z</time></trkpt><trkpt lat="44.34906111806111" lon="7.773354460442256"><ele>508.0</ele><time>2026-04-23T16:45:14.999Z</time></trkpt><trkpt lat="44.349007449403885" lon="7.773216815101451"><ele>507.99999999999994</ele><time>2026-04-23T16:45:15.999Z</time></trkpt><trkpt lat="44.34895052407186" lon="7.773092045831071"><ele>507.99999999999994</ele><time>2026-04-23T16:45:16.999Z</time></trkpt><trkpt lat="44.34889208126844" lon="7.772959420463493"><ele>508.0</ele><time>2026-04-23T16:45:17.999Z</time></trkpt><trkpt lat="44.3488381191298" lon="7.7728210364460315"><ele>508.0</ele><time>2026-04-23T16:45:18.999Z</time></trkpt><trkpt lat="44.34877608253138" lon="7.7726707809148685"><ele>508.2</ele><time>2026-04-23T16:45:19.999Z</time></trkpt><trkpt lat="44.34870911458865" lon="7.772535358655766"><ele>508.4</ele><time>2026-04-23T16:45:20.999Z</time></trkpt><trkpt lat="44.34864759744484" lon="7.772401842282695"><ele>508.59999999999997</ele><time>2026-04-23T16:45:21.999Z</time></trkpt><trkpt lat="44.34858578878195" lon="7.772289861039884"><ele>508.79999999999995</ele><time>2026-04-23T16:45:22.999Z</time></trkpt><trkpt lat="44.34852671647129" lon="7.772189677541323"><ele>509.0</ele><time>2026-04-23T16:45:23.999Z</time></trkpt><trkpt lat="44.34847091817064" lon="7.77208130863492"><ele>508.99999999999994</ele><time>2026-04-23T16:45:24.999Z</time></trkpt><trkpt lat="44.348417883361684" lon="7.771995916989305"><ele>509.0</ele><time>2026-04-23T16:45:25.999Z</time></trkpt><trkpt lat="44.34836964798325" lon="7.771923888486784"><ele>509.0</ele><time>2026-04-23T16:45:26.999Z</time></trkpt><trkpt lat="44.34831991963002" lon="7.7718585160556515"><ele>509.0</ele><time>2026-04-23T16:45:27.999Z</time></trkpt><trkpt lat="44.34824761976915" lon="7.771770504481842"><ele>508.99999999999994</ele><time>2026-04-23T16:45:29.999Z</time></trkpt><trkpt lat="44.34814718625952" lon="7.771650657375814"><ele>509.0</ele><time>2026-04-23T16:45:31.999Z</time></trkpt><trkpt lat="44.348105089870224" lon="7.771560837997596"><ele>508.99999999999994</ele><time>2026-04-23T16:45:33.999Z</time></trkpt><trkpt lat="44.34805552379074" lon="7.771463654174826"><ele>509.0</ele><time>2026-04-23T16:45:36.999Z</time></trkpt><trkpt lat="44.3480179522066" lon="7.771302618332126"><ele>509.0</ele><time>2026-04-23T16:45:38.999Z</time></trkpt><trkpt lat="44.347988451577336" lon="7.7712168676771745"><ele>509.0</ele><time>2026-04-23T16:45:39.999Z</time></trkpt><trkpt lat="44.34794046827769" lon="7.771128988457089"><ele>508.99999999999994</ele><time>2026-04-23T16:45:40.999Z</time></trkpt><trkpt lat="44.34789250908356" lon="7.77104765240485"><ele>509.0</ele><time>2026-04-23T16:45:41.999Z</time></trkpt><trkpt lat="44.34784570126446" lon="7.770973055262807"><ele>509.79999999999995</ele><time>2026-04-23T16:45:42.998Z</time></trkpt><trkpt lat="44.34780456730925" lon="7.770885822930108"><ele>510.59999999999997</ele><time>2026-04-23T16:45:43.998Z</time></trkpt><trkpt lat="44.347777105033195" lon="7.7707939757626106"><ele>511.4</ele><time>2026-04-23T16:45:44.998Z</time></trkpt><trkpt lat="44.34775638882637" lon="7.770710751413997"><ele>512.1999999999999</ele><time>2026-04-23T16:45:45.998Z</time></trkpt><trkpt lat="44.347731858659316" lon="7.770545253896016"><ele>513.0</ele><time>2026-04-23T16:45:47.998Z</time></trkpt><trkpt lat="44.347739839223074" lon="7.77036251366984"><ele>513.0</ele><time>2026-04-23T16:45:49.998Z</time></trkpt><trkpt lat="44.34773508073935" lon="7.770260130949806"><ele>513.0</ele><time>2026-04-23T16:45:50.998Z</time></trkpt><trkpt lat="44.34771334158511" lon="7.770103485881874"><ele>513.0</ele><time>2026-04-23T16:45:52.998Z</time></trkpt><trkpt lat="44.34760909987477" lon="7.770067575867437"><ele>513.0</ele><time>2026-04-23T16:45:53.998Z</time></trkpt><trkpt lat="44.34753057975582" lon="7.769991905764847"><ele>513.0</ele><time>2026-04-23T16:45:54.998Z</time></trkpt><trkpt lat="44.34745198105668" lon="7.769897360904899"><ele>513.4</ele><time>2026-04-23T16:45:55.998Z</time></trkpt><trkpt lat="44.347376512523965" lon="7.769773579044406"><ele>513.8</ele><time>2026-04-23T16:45:56.998Z</time></trkpt><trkpt lat="44.347314743383535" lon="7.769650421843647"><ele>514.2</ele><time>2026-04-23T16:45:57.998Z</time></trkpt><trkpt lat="44.347259996396396" lon="7.76953072766887"><ele>514.6</ele><time>2026-04-23T16:45:58.998Z</time></trkpt><trkpt lat="44.347199030990915" lon="7.769408910306886"><ele>515.0</ele><time>2026-04-23T16:45:59.998Z</time></trkpt><trkpt lat="44.34713555755523" lon="7.76927922006758"><ele>515.6</ele><time>2026-04-23T16:46:00.998Z</time></trkpt><trkpt lat="44.34707878370826" lon="7.769156359538334"><ele>516.2</ele><time>2026-04-23T16:46:02Z</time></trkpt><trkpt lat="44.34701768511474" lon="7.7690373419846095"><ele>516.8</ele><time>2026-04-23T16:46:03Z</time></trkpt><trkpt lat="44.34695692192594" lon="7.768909254416638"><ele>517.4</ele><time>2026-04-23T16:46:04Z</time></trkpt><trkpt lat="44.34690045064001" lon="7.768780105545689"><ele>518.0</ele><time>2026-04-23T16:46:05Z</time></trkpt><trkpt lat="44.346845098978505" lon="7.768649743435599"><ele>518.6</ele><time>2026-04-23T16:46:06Z</time></trkpt><trkpt lat="44.34678953465844" lon="7.7685179956410515"><ele>519.1999999999999</ele><time>2026-04-23T16:46:07Z</time></trkpt><trkpt lat="44.34673626469808" lon="7.768394229503469"><ele>519.8</ele><time>2026-04-23T16:46:08Z</time></trkpt><trkpt lat="44.34668466919266" lon="7.768276540508567"><ele>520.4</ele><time>2026-04-23T16:46:09Z</time></trkpt><trkpt lat="44.34662772916987" lon="7.768155129891858"><ele>521.0</ele><time>2026-04-23T16:46:10Z</time></trkpt><trkpt lat="44.34656484811931" lon="7.768020996637587"><ele>521.0</ele><time>2026-04-23T16:46:11Z</time></trkpt><trkpt lat="44.34650566132851" lon="7.767893793228037"><ele>521.0</ele><time>2026-04-23T16:46:12Z</time></trkpt><trkpt lat="44.346442904759606" lon="7.767772194961446"><ele>521.0</ele><time>2026-04-23T16:46:13Z</time></trkpt><trkpt lat="44.34638705673679" lon="7.767657549318896"><ele>521.0</ele><time>2026-04-23T16:46:14Z</time></trkpt><trkpt lat="44.346325717172725" lon="7.76752773306872"><ele>521.0</ele><time>2026-04-23T16:46:15Z</time></trkpt><trkpt lat="44.34626198682853" lon="7.767400032978455"><ele>521.2</ele><time>2026-04-23T16:46:16Z</time></trkpt><trkpt lat="44.34619334125039" lon="7.767269527631118"><ele>521.4000000000001</ele><time>2026-04-23T16:46:17Z</time></trkpt><trkpt lat="44.34612601343754" lon="7.767156849049319"><ele>521.6</ele><time>2026-04-23T16:46:18Z</time></trkpt><trkpt lat="44.34605142502483" lon="7.767054697518771"><ele>521.8000000000001</ele><time>2026-04-23T16:46:19Z</time></trkpt><trkpt lat="44.34596563293527" lon="7.766967868857928"><ele>522.0</ele><time>2026-04-23T16:46:20Z</time></trkpt><trkpt lat="44.34587002603845" lon="7.766902624519944"><ele>522.2</ele><time>2026-04-23T16:46:21Z</time></trkpt><trkpt lat="44.345768805115156" lon="7.766839711708474"><ele>522.4000000000001</ele><time>2026-04-23T16:46:22Z</time></trkpt><trkpt lat="44.34566499581105" lon="7.766782735574931"><ele>522.5999999999999</ele><time>2026-04-23T16:46:23Z</time></trkpt><trkpt lat="44.345566746310546" lon="7.7667393120413095"><ele>522.8</ele><time>2026-04-23T16:46:24Z</time></trkpt><trkpt lat="44.34545873100344" lon="7.766715768330884"><ele>523.0</ele><time>2026-04-23T16:46:25Z</time></trkpt><trkpt lat="44.34534025746909" lon="7.766708879351222"><ele>523.0</ele><time>2026-04-23T16:46:26Z</time></trkpt><trkpt lat="44.34523854723403" lon="7.766719560428833"><ele>523.0</ele><time>2026-04-23T16:46:27Z</time></trkpt><trkpt lat="44.34512488039578" lon="7.766723391689758"><ele>523.0</ele><time>2026-04-23T16:46:28Z</time></trkpt><trkpt lat="44.34501112971431" lon="7.766731646374181"><ele>523.0</ele><time>2026-04-23T16:46:29Z</time></trkpt><trkpt lat="44.3449000866905" lon="7.766741687122911"><ele>523.0</ele><time>2026-04-23T16:46:30Z</time></trkpt><trkpt lat="44.344784995823225" lon="7.766738734336763"><ele>522.75</ele><time>2026-04-23T16:46:31Z</time></trkpt><trkpt lat="44.344673591846544" lon="7.766744822574959"><ele>522.5</ele><time>2026-04-23T16:46:32Z</time></trkpt><trkpt lat="44.344563833944946" lon="7.766755444819051"><ele>522.25</ele><time>2026-04-23T16:46:33Z</time></trkpt><trkpt lat="44.344449502071946" lon="7.766763382966567"><ele>522.0</ele><time>2026-04-23T16:46:34Z</time></trkpt><trkpt lat="44.344335668391054" lon="7.7667755783526164"><ele>522.0</ele><time>2026-04-23T16:46:35Z</time></trkpt><trkpt lat="44.344225071660425" lon="7.766781375900371"><ele>522.0</ele><time>2026-04-23T16:46:36Z</time></trkpt><trkpt lat="44.34411341046903" lon="7.7667885939745895"><ele>522.0</ele><time>2026-04-23T16:46:37Z</time></trkpt><trkpt lat="44.3440069991651" lon="7.766792901480626"><ele>522.0</ele><time>2026-04-23T16:46:38Z</time></trkpt><trkpt lat="44.343899598399716" lon="7.766798580272732"><ele>522.0</ele><time>2026-04-23T16:46:39Z</time></trkpt><trkpt lat="44.34378704844747" lon="7.766802796389447"><ele>521.6</ele><time>2026-04-23T16:46:40Z</time></trkpt><trkpt lat="44.343673956704635" lon="7.766796762955161"><ele>521.2</ele><time>2026-04-23T16:46:41Z</time></trkpt><trkpt lat="44.343569796327095" lon="7.766784710591375"><ele>520.8</ele><time>2026-04-23T16:46:42Z</time></trkpt><trkpt lat="44.34346267440778" lon="7.766755616597844"><ele>520.4</ele><time>2026-04-23T16:46:43Z</time></trkpt><trkpt lat="44.34335661382266" lon="7.7667114115259235"><ele>520.0</ele><time>2026-04-23T16:46:44Z</time></trkpt><trkpt lat="44.343253041723294" lon="7.766652795198649"><ele>520.0</ele><time>2026-04-23T16:46:45Z</time></trkpt><trkpt lat="44.34314521135942" lon="7.76657596751569"><ele>520.0</ele><time>2026-04-23T16:46:46Z</time></trkpt><trkpt lat="44.34304602676342" lon="7.766471731363983"><ele>520.0</ele><time>2026-04-23T16:46:46.999Z</time></trkpt><trkpt lat="44.34295800012585" lon="7.766350496006717"><ele>520.0</ele><time>2026-04-23T16:46:47.999Z</time></trkpt><trkpt lat="44.3428787656384" lon="7.7662113714114565"><ele>519.5</ele><time>2026-04-23T16:46:48.999Z</time></trkpt><trkpt lat="44.34279691386211" lon="7.766080742094796"><ele>519.0</ele><time>2026-04-23T16:46:49.999Z</time></trkpt><trkpt lat="44.342714571262825" lon="7.765944925834501"><ele>518.5</ele><time>2026-04-23T16:46:50.999Z</time></trkpt><trkpt lat="44.342637763956866" lon="7.765817914340268"><ele>518.0</ele><time>2026-04-23T16:46:51.999Z</time></trkpt><trkpt lat="44.34257035265738" lon="7.765683750648557"><ele>518.0</ele><time>2026-04-23T16:46:52.999Z</time></trkpt><trkpt lat="44.34249500290478" lon="7.765558660319445"><ele>518.0</ele><time>2026-04-23T16:46:53.999Z</time></trkpt><trkpt lat="44.34240954457604" lon="7.76542503695393"><ele>518.0</ele><time>2026-04-23T16:46:54.999Z</time></trkpt><trkpt lat="44.342331626252715" lon="7.765303005291992"><ele>518.0</ele><time>2026-04-23T16:46:55.999Z</time></trkpt><trkpt lat="44.34225428377576" lon="7.76517959781898"><ele>517.6</ele><time>2026-04-23T16:46:56.999Z</time></trkpt><trkpt lat="44.34218017745776" lon="7.765060031161131"><ele>517.1999999999999</ele><time>2026-04-23T16:46:57.999Z</time></trkpt><trkpt lat="44.342109308357664" lon="7.764937986184996"><ele>516.8</ele><time>2026-04-23T16:46:58.999Z</time></trkpt><trkpt lat="44.34203793913395" lon="7.76483321811924"><ele>516.4</ele><time>2026-04-23T16:46:59.999Z</time></trkpt><trkpt lat="44.34197311182721" lon="7.764731775509099"><ele>516.0</ele><time>2026-04-23T16:47:00.999Z</time></trkpt><trkpt lat="44.341901134531795" lon="7.764628979862235"><ele>516.0</ele><time>2026-04-23T16:47:01.999Z</time></trkpt><trkpt lat="44.34182826644954" lon="7.764522521758163"><ele>516.0</ele><time>2026-04-23T16:47:02.999Z</time></trkpt><trkpt lat="44.3417434696276" lon="7.764418384367344"><ele>516.0</ele><time>2026-04-23T16:47:03.999Z</time></trkpt><trkpt lat="44.341652758205434" lon="7.764312358345912"><ele>516.0</ele><time>2026-04-23T16:47:04.999Z</time></trkpt><trkpt lat="44.34156609135162" lon="7.7641957601886045"><ele>515.75</ele><time>2026-04-23T16:47:05.999Z</time></trkpt><trkpt lat="44.34147108800964" lon="7.764091985015554"><ele>515.5</ele><time>2026-04-23T16:47:06.999Z</time></trkpt><trkpt lat="44.3413854112022" lon="7.763995869201181"><ele>515.25</ele><time>2026-04-23T16:47:07.999Z</time></trkpt><trkpt lat="44.34129597641625" lon="7.763908180760653"><ele>515.0</ele><time>2026-04-23T16:47:08.999Z</time></trkpt><trkpt lat="44.341204366315544" lon="7.763819281696754"><ele>515.0</ele><time>2026-04-23T16:47:09.999Z</time></trkpt><trkpt lat="44.34110373493672" lon="7.763720839931401"><ele>515.0</ele><time>2026-04-23T16:47:10.999Z</time></trkpt><trkpt lat="44.34101188336753" lon="7.763633845113854"><ele>515.0</ele><time>2026-04-23T16:47:11.999Z</time></trkpt><trkpt lat="44.34091513827145" lon="7.763541357419244"><ele>515.0</ele><time>2026-04-23T16:47:12.999Z</time></trkpt><trkpt lat="44.34082453446135" lon="7.763455205256958"><ele>515.0</ele><time>2026-04-23T16:47:13.999Z</time></trkpt><trkpt lat="44.34073286008761" lon="7.76336959373852"><ele>515.0</ele><time>2026-04-23T16:47:14.999Z</time></trkpt><trkpt lat="44.34064003933924" lon="7.763295567247719"><ele>515.0</ele><time>2026-04-23T16:47:15.999Z</time></trkpt><trkpt lat="44.34054862019961" lon="7.763221121663925"><ele>515.0</ele><time>2026-04-23T16:47:16.999Z</time></trkpt><trkpt lat="44.340452929668785" lon="7.763139271487337"><ele>515.0</ele><time>2026-04-23T16:47:17.999Z</time></trkpt><trkpt lat="44.34036245637564" lon="7.763065429142177"><ele>515.0</ele><time>2026-04-23T16:47:18.999Z</time></trkpt><trkpt lat="44.34026205369348" lon="7.762990450568382"><ele>515.0</ele><time>2026-04-23T16:47:19.999Z</time></trkpt><trkpt lat="44.34015943859128" lon="7.762916071387899"><ele>515.0</ele><time>2026-04-23T16:47:20.999Z</time></trkpt><trkpt lat="44.34005748069634" lon="7.762838901080852"><ele>515.0</ele><time>2026-04-23T16:47:21.999Z</time></trkpt><trkpt lat="44.33995134919274" lon="7.762757515699063"><ele>516.75</ele><time>2026-04-23T16:47:22.999Z</time></trkpt><trkpt lat="44.3398419738229" lon="7.762667783995191"><ele>518.5</ele><time>2026-04-23T16:47:23.999Z</time></trkpt><trkpt lat="44.339727523727646" lon="7.762593339192002"><ele>520.25</ele><time>2026-04-23T16:47:24.999Z</time></trkpt><trkpt lat="44.33961146370334" lon="7.762509446930034"><ele>522.0</ele><time>2026-04-23T16:47:25.999Z</time></trkpt><trkpt lat="44.339500168944255" lon="7.7624292251853575"><ele>522.0</ele><time>2026-04-23T16:47:26.999Z</time></trkpt><trkpt lat="44.339375027490604" lon="7.762342966891333"><ele>522.0</ele><time>2026-04-23T16:47:27.999Z</time></trkpt><trkpt lat="44.339244438035465" lon="7.7622507712150846"><ele>522.0</ele><time>2026-04-23T16:47:28.999Z</time></trkpt><trkpt lat="44.339117536761854" lon="7.762153726139068"><ele>522.0</ele><time>2026-04-23T16:47:29.999Z</time></trkpt><trkpt lat="44.33898984544333" lon="7.762064551244871"><ele>521.6666666666666</ele><time>2026-04-23T16:47:30.999Z</time></trkpt><trkpt lat="44.33885085450203" lon="7.7619619252746705"><ele>521.3333333333333</ele><time>2026-04-23T16:47:31.999Z</time></trkpt><trkpt lat="44.33871852905396" lon="7.76186863049376"><ele>521.0</ele><time>2026-04-23T16:47:32.999Z</time></trkpt><trkpt lat="44.3385821751221" lon="7.761776371221885"><ele>521.0</ele><time>2026-04-23T16:47:33.999Z</time></trkpt><trkpt lat="44.33844831011653" lon="7.76167544699568"><ele>521.0</ele><time>2026-04-23T16:47:34.999Z</time></trkpt><trkpt lat="44.338317450495914" lon="7.761581347501703"><ele>521.0</ele><time>2026-04-23T16:47:35.999Z</time></trkpt><trkpt lat="44.338183608461044" lon="7.7614884178665635"><ele>521.0</ele><time>2026-04-23T16:47:36.999Z</time></trkpt><trkpt lat="44.33804012325975" lon="7.761387593696026"><ele>521.0</ele><time>2026-04-23T16:47:37.999Z</time></trkpt><trkpt lat="44.3378915000352" lon="7.761286066500468"><ele>521.0</ele><time>2026-04-23T16:47:38.999Z</time></trkpt><trkpt lat="44.33775500173179" lon="7.76118952331131"><ele>521.0</ele><time>2026-04-23T16:47:39.999Z</time></trkpt><trkpt lat="44.337630627702175" lon="7.761098877660621"><ele>522.6666666666666</ele><time>2026-04-23T16:47:40.999Z</time></trkpt><trkpt lat="44.33749241683345" lon="7.761002111893628"><ele>524.3333333333334</ele><time>2026-04-23T16:47:41.999Z</time></trkpt><trkpt lat="44.33735760174838" lon="7.760901379145829"><ele>526.0</ele><time>2026-04-23T16:47:42.999Z</time></trkpt><trkpt lat="44.33722511034085" lon="7.760803577216001"><ele>524.25</ele><time>2026-04-23T16:47:43.999Z</time></trkpt><trkpt lat="44.33710855000205" lon="7.760710232675372"><ele>522.5</ele><time>2026-04-23T16:47:44.999Z</time></trkpt><trkpt lat="44.33699451712011" lon="7.760625391897885"><ele>520.75</ele><time>2026-04-23T16:47:45.999Z</time></trkpt><trkpt lat="44.336891191104954" lon="7.760534636598535"><ele>519.0</ele><time>2026-04-23T16:47:46.999Z</time></trkpt><trkpt lat="44.33679644617006" lon="7.760436315434141"><ele>519.0</ele><time>2026-04-23T16:47:47.999Z</time></trkpt><trkpt lat="44.336704210899974" lon="7.760324257072896"><ele>519.0</ele><time>2026-04-23T16:47:48.998Z</time></trkpt><trkpt lat="44.33661062857314" lon="7.760200518467552"><ele>519.0</ele><time>2026-04-23T16:47:49.998Z</time></trkpt><trkpt lat="44.33652906835416" lon="7.760057022279126"><ele>519.0</ele><time>2026-04-23T16:47:50.998Z</time></trkpt><trkpt lat="44.33644354430715" lon="7.759897816332304"><ele>519.0</ele><time>2026-04-23T16:47:51.998Z</time></trkpt><trkpt lat="44.33636568364368" lon="7.7597302517823685"><ele>519.0</ele><time>2026-04-23T16:47:52.998Z</time></trkpt><trkpt lat="44.3362823501608" lon="7.75955055957334"><ele>519.0</ele><time>2026-04-23T16:47:53.998Z</time></trkpt><trkpt lat="44.33619763020589" lon="7.759361458992101"><ele>519.6666666666666</ele><time>2026-04-23T16:47:54.998Z</time></trkpt><trkpt lat="44.33611332499426" lon="7.7591882169292985"><ele>520.3333333333333</ele><time>2026-04-23T16:47:55.998Z</time></trkpt><trkpt lat="44.33600752399154" lon="7.759019912241392"><ele>521.0</ele><time>2026-04-23T16:47:56.998Z</time></trkpt><trkpt lat="44.33588542272149" lon="7.758871824614718"><ele>521.0</ele><time>2026-04-23T16:47:57.998Z</time></trkpt><trkpt lat="44.335749678594006" lon="7.758717693253272"><ele>521.0</ele><time>2026-04-23T16:47:58.998Z</time></trkpt><trkpt lat="44.335601465064435" lon="7.758578480401924"><ele>521.0</ele><time>2026-04-23T16:47:59.998Z</time></trkpt><trkpt lat="44.335460107974825" lon="7.75844515800904"><ele>521.3333333333333</ele><time>2026-04-23T16:48:00.998Z</time></trkpt><trkpt lat="44.33532430846964" lon="7.758329869248355"><ele>521.6666666666666</ele><time>2026-04-23T16:48:01.998Z</time></trkpt><trkpt lat="44.33519225713819" lon="7.758202216573874"><ele>522.0</ele><time>2026-04-23T16:48:02.998Z</time></trkpt><trkpt lat="44.33507378162926" lon="7.75808441471865"><ele>522.0</ele><time>2026-04-23T16:48:03.998Z</time></trkpt><trkpt lat="44.33495259807965" lon="7.757969158066312"><ele>522.0</ele><time>2026-04-23T16:48:04.998Z</time></trkpt><trkpt lat="44.33482568585617" lon="7.7578509480158155"><ele>522.0</ele><time>2026-04-23T16:48:05.998Z</time></trkpt><trkpt lat="44.33470063049176" lon="7.757738174064486"><ele>522.0</ele><time>2026-04-23T16:48:06.998Z</time></trkpt><trkpt lat="44.334574403700756" lon="7.757627246193897"><ele>523.6666666666666</ele><time>2026-04-23T16:48:08Z</time></trkpt><trkpt lat="44.33444386743293" lon="7.757514685545543"><ele>525.3333333333333</ele><time>2026-04-23T16:48:09Z</time></trkpt><trkpt lat="44.3343064709168" lon="7.757402151398901"><ele>527.0</ele><time>2026-04-23T16:48:10Z</time></trkpt><trkpt lat="44.334175974570734" lon="7.757280609617432"><ele>527.0</ele><time>2026-04-23T16:48:11Z</time></trkpt><trkpt lat="44.33404584907456" lon="7.757150358641377"><ele>527.0</ele><time>2026-04-23T16:48:12Z</time></trkpt><trkpt lat="44.333905183055876" lon="7.757011976025442"><ele>527.0</ele><time>2026-04-23T16:48:13Z</time></trkpt><trkpt lat="44.33377469775537" lon="7.756846295788376"><ele>527.6666666666666</ele><time>2026-04-23T16:48:14Z</time></trkpt><trkpt lat="44.33365001351334" lon="7.7566976182211675"><ele>528.3333333333334</ele><time>2026-04-23T16:48:15Z</time></trkpt><trkpt lat="44.33352406781757" lon="7.756544769112157"><ele>529.0</ele><time>2026-04-23T16:48:16Z</time></trkpt><trkpt lat="44.3333938661027" lon="7.756415157037309"><ele>529.0</ele><time>2026-04-23T16:48:17Z</time></trkpt><trkpt lat="44.33327910847103" lon="7.756252976429145"><ele>529.0</ele><time>2026-04-23T16:48:18Z</time></trkpt><trkpt lat="44.33315603254266" lon="7.756103518502359"><ele>529.0</ele><time>2026-04-23T16:48:19Z</time></trkpt><trkpt lat="44.333047125933525" lon="7.755963916327773"><ele>529.3333333333334</ele><time>2026-04-23T16:48:20Z</time></trkpt><trkpt lat="44.33293559954562" lon="7.75582280548332"><ele>529.6666666666666</ele><time>2026-04-23T16:48:21Z</time></trkpt><trkpt lat="44.33281790448514" lon="7.755693332628988"><ele>530.0</ele><time>2026-04-23T16:48:22Z</time></trkpt><trkpt lat="44.332701438307126" lon="7.75555745111264"><ele>530.0</ele><time>2026-04-23T16:48:23Z</time></trkpt><trkpt lat="44.332590191373846" lon="7.755423685407548"><ele>530.0</ele><time>2026-04-23T16:48:24Z</time></trkpt><trkpt lat="44.3324848670302" lon="7.755285231788834"><ele>530.0</ele><time>2026-04-23T16:48:25Z</time></trkpt><trkpt lat="44.332373425693156" lon="7.755152662636302"><ele>530.0</ele><time>2026-04-23T16:48:26Z</time></trkpt><trkpt lat="44.33226410406805" lon="7.755021598253856"><ele>529.75</ele><time>2026-04-23T16:48:27Z</time></trkpt><trkpt lat="44.33215191679063" lon="7.75488285107733"><ele>529.5</ele><time>2026-04-23T16:48:28Z</time></trkpt><trkpt lat="44.33203576937381" lon="7.754746798228753"><ele>529.25</ele><time>2026-04-23T16:48:29Z</time></trkpt><trkpt lat="44.33192449796328" lon="7.754621123406412"><ele>529.0</ele><time>2026-04-23T16:48:30Z</time></trkpt><trkpt lat="44.33182407756761" lon="7.754500607443496"><ele>529.0</ele><time>2026-04-23T16:48:31Z</time></trkpt><trkpt lat="44.33171690386305" lon="7.754376947925183"><ele>529.0</ele><time>2026-04-23T16:48:32Z</time></trkpt><trkpt lat="44.33161464042539" lon="7.754262231223694"><ele>529.0</ele><time>2026-04-23T16:48:33Z</time></trkpt><trkpt lat="44.331498890126376" lon="7.754149029569577"><ele>529.0</ele><time>2026-04-23T16:48:34Z</time></trkpt><trkpt lat="44.33138990409038" lon="7.754016794067447"><ele>529.5</ele><time>2026-04-23T16:48:35Z</time></trkpt><trkpt lat="44.331276240507016" lon="7.753898756748431"><ele>530.0</ele><time>2026-04-23T16:48:36Z</time></trkpt><trkpt lat="44.33115657654482" lon="7.753772014278565"><ele>530.5</ele><time>2026-04-23T16:48:37Z</time></trkpt><trkpt lat="44.33103960127713" lon="7.753647398255972"><ele>531.0</ele><time>2026-04-23T16:48:38Z</time></trkpt><trkpt lat="44.33092546820274" lon="7.753514497632823"><ele>531.0</ele><time>2026-04-23T16:48:39Z</time></trkpt><trkpt lat="44.33080543557032" lon="7.753381813585461"><ele>531.0</ele><time>2026-04-23T16:48:40Z</time></trkpt><trkpt lat="44.33068269384392" lon="7.753251636831354"><ele>531.0</ele><time>2026-04-23T16:48:41Z</time></trkpt><trkpt lat="44.33055724315122" lon="7.753117147798682"><ele>531.0</ele><time>2026-04-23T16:48:42Z</time></trkpt><trkpt lat="44.33043159158942" lon="7.752979039144458"><ele>531.0</ele><time>2026-04-23T16:48:43Z</time></trkpt><trkpt lat="44.330304030677716" lon="7.752843207988505"><ele>531.0</ele><time>2026-04-23T16:48:44Z</time></trkpt><trkpt lat="44.33018257410444" lon="7.752709658537658"><ele>533.0</ele><time>2026-04-23T16:48:45Z</time></trkpt><trkpt lat="44.330059257701166" lon="7.752578406948288"><ele>535.0</ele><time>2026-04-23T16:48:46Z</time></trkpt><trkpt lat="44.32993043442105" lon="7.752448153358321"><ele>537.0</ele><time>2026-04-23T16:48:47Z</time></trkpt><trkpt lat="44.3298104751765" lon="7.752320832799993"><ele>537.3333333333334</ele><time>2026-04-23T16:48:48Z</time></trkpt><trkpt lat="44.329684326871806" lon="7.752188151385709"><ele>537.6666666666667</ele><time>2026-04-23T16:48:49Z</time></trkpt><trkpt lat="44.32956334859303" lon="7.752049765795654"><ele>538.0</ele><time>2026-04-23T16:48:50Z</time></trkpt><trkpt lat="44.32943884702331" lon="7.751913687329775"><ele>539.0</ele><time>2026-04-23T16:48:51Z</time></trkpt><trkpt lat="44.32930890570928" lon="7.751768308084279"><ele>540.0</ele><time>2026-04-23T16:48:52Z</time></trkpt><trkpt lat="44.329178676949944" lon="7.751620687999669"><ele>541.0</ele><time>2026-04-23T16:48:53Z</time></trkpt><trkpt lat="44.329047262062694" lon="7.751477530652399"><ele>541.0</ele><time>2026-04-23T16:48:53.999Z</time></trkpt><trkpt lat="44.32892344007404" lon="7.751342087096929"><ele>541.0</ele><time>2026-04-23T16:48:54.999Z</time></trkpt><trkpt lat="44.32879904496749" lon="7.7512102629099005"><ele>541.0</ele><time>2026-04-23T16:48:55.999Z</time></trkpt><trkpt lat="44.3286712896225" lon="7.75107065039836"><ele>541.6666666666667</ele><time>2026-04-23T16:48:56.999Z</time></trkpt><trkpt lat="44.32854889219694" lon="7.750934442125242"><ele>542.3333333333334</ele><time>2026-04-23T16:48:57.999Z</time></trkpt><trkpt lat="44.328427578364014" lon="7.750800152691791"><ele>543.0</ele><time>2026-04-23T16:48:58.999Z</time></trkpt><trkpt lat="44.32830492344016" lon="7.750673076690512"><ele>543.0</ele><time>2026-04-23T16:48:59.999Z</time></trkpt><trkpt lat="44.328185112102936" lon="7.750544132765249"><ele>543.0</ele><time>2026-04-23T16:49:00.999Z</time></trkpt><trkpt lat="44.32805881943553" lon="7.750414810664704"><ele>543.0</ele><time>2026-04-23T16:49:01.999Z</time></trkpt><trkpt lat="44.3279325638" lon="7.750281255196707"><ele>544.6666666666666</ele><time>2026-04-23T16:49:02.999Z</time></trkpt><trkpt lat="44.32780781310386" lon="7.750154641647453"><ele>546.3333333333333</ele><time>2026-04-23T16:49:03.999Z</time></trkpt><trkpt lat="44.32767856299868" lon="7.750021865427644"><ele>548.0</ele><time>2026-04-23T16:49:04.999Z</time></trkpt><trkpt lat="44.32754704203066" lon="7.749891814971579"><ele>548.0</ele><time>2026-04-23T16:49:05.999Z</time></trkpt><trkpt lat="44.32741255369451" lon="7.749766297247189"><ele>548.0</ele><time>2026-04-23T16:49:06.999Z</time></trkpt><trkpt lat="44.327272824395145" lon="7.749641067830787"><ele>548.0</ele><time>2026-04-23T16:49:07.999Z</time></trkpt><trkpt lat="44.327128890460614" lon="7.749512338735224"><ele>548.3333333333333</ele><time>2026-04-23T16:49:08.999Z</time></trkpt><trkpt lat="44.32698051713486" lon="7.749384705041327"><ele>548.6666666666666</ele><time>2026-04-23T16:49:09.999Z</time></trkpt><trkpt lat="44.32682455419214" lon="7.749249654370435"><ele>549.0</ele><time>2026-04-23T16:49:10.999Z</time></trkpt><trkpt lat="44.32666780833946" lon="7.7491132315579465"><ele>549.0</ele><time>2026-04-23T16:49:11.999Z</time></trkpt><trkpt lat="44.326502677472035" lon="7.748974498301161"><ele>549.0</ele><time>2026-04-23T16:49:12.999Z</time></trkpt><trkpt lat="44.32633513613992" lon="7.748834761401768"><ele>549.0</ele><time>2026-04-23T16:49:13.999Z</time></trkpt><trkpt lat="44.326165443636924" lon="7.7487020724088636"><ele>549.6666666666666</ele><time>2026-04-23T16:49:14.999Z</time></trkpt><trkpt lat="44.326009854610696" lon="7.748581040446233"><ele>550.3333333333333</ele><time>2026-04-23T16:49:15.999Z</time></trkpt><trkpt lat="44.325853495217686" lon="7.7484669306864715"><ele>551.0</ele><time>2026-04-23T16:49:16.999Z</time></trkpt><trkpt lat="44.325693022836674" lon="7.748351817711289"><ele>552.3333333333333</ele><time>2026-04-23T16:49:17.999Z</time></trkpt><trkpt lat="44.32552702128922" lon="7.748236166059837"><ele>553.6666666666666</ele><time>2026-04-23T16:49:18.999Z</time></trkpt><trkpt lat="44.32535867959981" lon="7.748120203804309"><ele>555.0</ele><time>2026-04-23T16:49:19.999Z</time></trkpt><trkpt lat="44.32519707453456" lon="7.747999982822863"><ele>555.0</ele><time>2026-04-23T16:49:20.999Z</time></trkpt><trkpt lat="44.32505313252327" lon="7.747882576334855"><ele>555.0</ele><time>2026-04-23T16:49:21.999Z</time></trkpt><trkpt lat="44.32490366182078" lon="7.747769966857542"><ele>555.0</ele><time>2026-04-23T16:49:22.999Z</time></trkpt><trkpt lat="44.3247574667991" lon="7.74766024230653"><ele>555.25</ele><time>2026-04-23T16:49:23.999Z</time></trkpt><trkpt lat="44.32462035065386" lon="7.747554195373605"><ele>555.5</ele><time>2026-04-23T16:49:24.999Z</time></trkpt><trkpt lat="44.32449747519921" lon="7.747461613769287"><ele>555.75</ele><time>2026-04-23T16:49:25.999Z</time></trkpt><trkpt lat="44.324381824367336" lon="7.747375581775081"><ele>556.0</ele><time>2026-04-23T16:49:26.999Z</time></trkpt><trkpt lat="44.32427687358512" lon="7.747292514053855"><ele>556.0</ele><time>2026-04-23T16:49:27.999Z</time></trkpt><trkpt lat="44.324181554251304" lon="7.747222412626847"><ele>556.0</ele><time>2026-04-23T16:49:28.999Z</time></trkpt><trkpt lat="44.3240934936075" lon="7.747163546108402"><ele>556.0</ele><time>2026-04-23T16:49:29.999Z</time></trkpt><trkpt lat="44.32402415303215" lon="7.747113606951951"><ele>556.0</ele><time>2026-04-23T16:49:30.999Z</time></trkpt><trkpt lat="44.32391604937248" lon="7.747062690852813"><ele>556.0</ele><time>2026-04-23T16:49:32.999Z</time></trkpt><trkpt lat="44.3238039732116" lon="7.747104463389228"><ele>556.6666666666667</ele><time>2026-04-23T16:49:34.999Z</time></trkpt><trkpt lat="44.32373927063314" lon="7.747159643839041"><ele>557.3333333333334</ele><time>2026-04-23T16:49:35.999Z</time></trkpt><trkpt lat="44.32366762937273" lon="7.747229719072975"><ele>558.0</ele><time>2026-04-23T16:49:36.999Z</time></trkpt><trkpt lat="44.32358833484842" lon="7.747302545383485"><ele>558.6666666666666</ele><time>2026-04-23T16:49:37.999Z</time></trkpt><trkpt lat="44.32350315727962" lon="7.747374003293669"><ele>559.3333333333333</ele><time>2026-04-23T16:49:38.999Z</time></trkpt><trkpt lat="44.323429496229515" lon="7.747436404065334"><ele>560.0</ele><time>2026-04-23T16:49:39.999Z</time></trkpt><trkpt lat="44.323355565236035" lon="7.747500398855287"><ele>560.0</ele><time>2026-04-23T16:49:40.999Z</time></trkpt><trkpt lat="44.32327680313655" lon="7.747558355026686"><ele>560.0</ele><time>2026-04-23T16:49:41.999Z</time></trkpt><trkpt lat="44.32320120566021" lon="7.74760967535198"><ele>560.0</ele><time>2026-04-23T16:49:42.999Z</time></trkpt><trkpt lat="44.323137691484824" lon="7.747663377233342"><ele>560.0</ele><time>2026-04-23T16:49:43.999Z</time></trkpt><trkpt lat="44.32305966231336" lon="7.747710989153786"><ele>560.0</ele><time>2026-04-23T16:49:44.999Z</time></trkpt><trkpt lat="44.32297936576292" lon="7.747743218493487"><ele>560.0</ele><time>2026-04-23T16:49:45.999Z</time></trkpt><trkpt lat="44.32289136173272" lon="7.747758318274404"><ele>560.5</ele><time>2026-04-23T16:49:46.999Z</time></trkpt><trkpt lat="44.322794909783504" lon="7.747760555100207"><ele>561.0</ele><time>2026-04-23T16:49:47.999Z</time></trkpt><trkpt lat="44.32268431193808" lon="7.747753027701129"><ele>561.5</ele><time>2026-04-23T16:49:48.999Z</time></trkpt><trkpt lat="44.322562498125315" lon="7.74772603435135"><ele>562.0</ele><time>2026-04-23T16:49:49.999Z</time></trkpt><trkpt lat="44.322441110890104" lon="7.747690084530892"><ele>562.0</ele><time>2026-04-23T16:49:50.999Z</time></trkpt><trkpt lat="44.322346472989075" lon="7.747639977841193"><ele>562.0</ele><time>2026-04-23T16:49:51.999Z</time></trkpt><trkpt lat="44.3222576557707" lon="7.747585086830392"><ele>562.0</ele><time>2026-04-23T16:49:52.999Z</time></trkpt><trkpt lat="44.32215762051989" lon="7.747514863485454"><ele>562.0</ele><time>2026-04-23T16:49:53.999Z</time></trkpt><trkpt lat="44.32206897220645" lon="7.747449482076812"><ele>562.0</ele><time>2026-04-23T16:49:54.999Z</time></trkpt><trkpt lat="44.32198745578435" lon="7.747388284033475"><ele>562.6</ele><time>2026-04-23T16:49:55.998Z</time></trkpt><trkpt lat="44.32190293408064" lon="7.747334544778779"><ele>563.2</ele><time>2026-04-23T16:49:56.998Z</time></trkpt><trkpt lat="44.32181184044348" lon="7.7472824155723545"><ele>563.8</ele><time>2026-04-23T16:49:57.998Z</time></trkpt><trkpt lat="44.32171147847083" lon="7.747235319402657"><ele>564.4</ele><time>2026-04-23T16:49:58.998Z</time></trkpt><trkpt lat="44.321627434256165" lon="7.747206387431829"><ele>565.0</ele><time>2026-04-23T16:49:59.998Z</time></trkpt><trkpt lat="44.321547726596144" lon="7.747170119999293"><ele>565.0</ele><time>2026-04-23T16:50:00.998Z</time></trkpt><trkpt lat="44.32146213566494" lon="7.74713872503928"><ele>565.0</ele><time>2026-04-23T16:50:01.998Z</time></trkpt><trkpt lat="44.321372430373486" lon="7.74710692982676"><ele>565.0</ele><time>2026-04-23T16:50:02.998Z</time></trkpt><trkpt lat="44.32129063967157" lon="7.747080689787298"><ele>565.0</ele><time>2026-04-23T16:50:03.998Z</time></trkpt><trkpt lat="44.3212132413806" lon="7.7470579410283085"><ele>565.0</ele><time>2026-04-23T16:50:04.998Z</time></trkpt><trkpt lat="44.321127394794146" lon="7.74704485372509"><ele>565.0</ele><time>2026-04-23T16:50:05.998Z</time></trkpt><trkpt lat="44.321057352693884" lon="7.747030737125443"><ele>565.2</ele><time>2026-04-23T16:50:06.998Z</time></trkpt><trkpt lat="44.32094074004518" lon="7.747017705551782"><ele>565.4</ele><time>2026-04-23T16:50:08.998Z</time></trkpt><trkpt lat="44.320863447994235" lon="7.747007282144845"><ele>565.6</ele><time>2026-04-23T16:50:09.998Z</time></trkpt><trkpt lat="44.320779806055924" lon="7.746998052962658"><ele>565.8</ele><time>2026-04-23T16:50:10.998Z</time></trkpt><trkpt lat="44.32070741954547" lon="7.746989967354413"><ele>566.0</ele><time>2026-04-23T16:50:11.998Z</time></trkpt><trkpt lat="44.32060197810518" lon="7.746990070992829"><ele>566.3333333333333</ele><time>2026-04-23T16:50:14Z</time></trkpt><trkpt lat="44.32047105901282" lon="7.7469743424656565"><ele>566.6666666666666</ele><time>2026-04-23T16:50:16Z</time></trkpt><trkpt lat="44.320392106433005" lon="7.746973849106233"><ele>567.0</ele><time>2026-04-23T16:50:17Z</time></trkpt><trkpt lat="44.32030650712912" lon="7.746967255701946"><ele>567.3333333333334</ele><time>2026-04-23T16:50:18Z</time></trkpt><trkpt lat="44.320236071617146" lon="7.746960154979972"><ele>567.6666666666667</ele><time>2026-04-23T16:50:19Z</time></trkpt><trkpt lat="44.32017072670825" lon="7.746941745305914"><ele>568.0</ele><time>2026-04-23T16:50:20Z</time></trkpt><trkpt lat="44.32009868520177" lon="7.746906482811857"><ele>568.1666666666667</ele><time>2026-04-23T16:50:21Z</time></trkpt><trkpt lat="44.32001243498459" lon="7.746873270087268"><ele>568.3333333333334</ele><time>2026-04-23T16:50:22Z</time></trkpt><trkpt lat="44.31991256877291" lon="7.746835637489284"><ele>568.5</ele><time>2026-04-23T16:50:23Z</time></trkpt><trkpt lat="44.3198457513136" lon="7.746785911434666"><ele>568.6666666666666</ele><time>2026-04-23T16:50:24Z</time></trkpt><trkpt lat="44.319779593911" lon="7.746726008301845"><ele>568.8333333333333</ele><time>2026-04-23T16:50:25Z</time></trkpt><trkpt lat="44.31972098461552" lon="7.746658061699683"><ele>569.0</ele><time>2026-04-23T16:50:26Z</time></trkpt><trkpt lat="44.31966334262782" lon="7.746580316886636"><ele>569.5</ele><time>2026-04-23T16:50:27Z</time></trkpt><trkpt lat="44.319595045044274" lon="7.746518835367294"><ele>570.0</ele><time>2026-04-23T16:50:28Z</time></trkpt><trkpt lat="44.31950772206243" lon="7.746451746562936"><ele>570.5</ele><time>2026-04-23T16:50:29Z</time></trkpt><trkpt lat="44.31941533611523" lon="7.746391171650423"><ele>571.0</ele><time>2026-04-23T16:50:30Z</time></trkpt><trkpt lat="44.31934849113886" lon="7.746334461287936"><ele>571.5</ele><time>2026-04-23T16:50:31Z</time></trkpt><trkpt lat="44.31927089020351" lon="7.7462834570023045"><ele>572.0</ele><time>2026-04-23T16:50:32Z</time></trkpt><trkpt lat="44.31918662890242" lon="7.746236096464926"><ele>572.0</ele><time>2026-04-23T16:50:33Z</time></trkpt><trkpt lat="44.31911389356815" lon="7.746200385098844"><ele>572.0</ele><time>2026-04-23T16:50:34Z</time></trkpt><trkpt lat="44.31903584667295" lon="7.746132422136048"><ele>572.0</ele><time>2026-04-23T16:50:35Z</time></trkpt><trkpt lat="44.31893816950971" lon="7.746072982260259"><ele>572.0</ele><time>2026-04-23T16:50:36Z</time></trkpt><trkpt lat="44.31885375264976" lon="7.745981563377171"><ele>572.0</ele><time>2026-04-23T16:50:37Z</time></trkpt><trkpt lat="44.31879072400596" lon="7.745929558003759"><ele>572.5</ele><time>2026-04-23T16:50:38Z</time></trkpt><trkpt lat="44.31871408296286" lon="7.74586727418537"><ele>573.0</ele><time>2026-04-23T16:50:39Z</time></trkpt><trkpt lat="44.31862988180578" lon="7.745807890321006"><ele>573.5</ele><time>2026-04-23T16:50:40Z</time></trkpt><trkpt lat="44.31856635293344" lon="7.745769756483664"><ele>574.0</ele><time>2026-04-23T16:50:41Z</time></trkpt><trkpt lat="44.318460912459194" lon="7.745729888438242"><ele>574.5</ele><time>2026-04-23T16:50:43Z</time></trkpt><trkpt lat="44.318387026437776" lon="7.745695810627194"><ele>575.0</ele><time>2026-04-23T16:50:45Z</time></trkpt><trkpt lat="44.318321177169594" lon="7.745681207332917"><ele>575.0</ele><time>2026-04-23T16:50:47Z</time></trkpt><trkpt lat="44.31834324739007" lon="7.7455263968056265"><ele>575.0</ele><time>2026-04-23T16:50:48Z</time></trkpt><trkpt lat="44.3183757203739" lon="7.74533546506395"><ele>575.0</ele><time>2026-04-23T16:50:50Z</time></trkpt><trkpt lat="44.318397866571864" lon="7.745238753289103"><ele>575.0</ele><time>2026-04-23T16:50:51Z</time></trkpt><trkpt lat="44.31841781770588" lon="7.745154344996552"><ele>575.0</ele><time>2026-04-23T16:50:52Z</time></trkpt><trkpt lat="44.318448651159365" lon="7.745058217288971"><ele>575.1666666666666</ele><time>2026-04-23T16:50:53Z</time></trkpt><trkpt lat="44.318469368693" lon="7.744947125956564"><ele>575.3333333333333</ele><time>2026-04-23T16:50:54Z</time></trkpt><trkpt lat="44.31851284100338" lon="7.744868950415387"><ele>575.5</ele><time>2026-04-23T16:50:55Z</time></trkpt><trkpt lat="44.31852782071566" lon="7.744762974394364"><ele>575.6666666666666</ele><time>2026-04-23T16:50:56Z</time></trkpt><trkpt lat="44.31853543433998" lon="7.744644799800604"><ele>575.8333333333334</ele><time>2026-04-23T16:50:57Z</time></trkpt><trkpt lat="44.31853931460571" lon="7.744541526968535"><ele>576.0</ele><time>2026-04-23T16:50:58Z</time></trkpt><trkpt lat="44.31854720874373" lon="7.7444148864300475"><ele>576.0</ele><time>2026-04-23T16:50:58.999Z</time></trkpt><trkpt lat="44.3185313156532" lon="7.744328442508649"><ele>576.0</ele><time>2026-04-23T16:50:59.999Z</time></trkpt><trkpt lat="44.31852190102908" lon="7.744221061734069"><ele>576.0</ele><time>2026-04-23T16:51:00.999Z</time></trkpt><trkpt lat="44.31852310327356" lon="7.744101249398098"><ele>576.0</ele><time>2026-04-23T16:51:01.999Z</time></trkpt><trkpt lat="44.31850980883829" lon="7.743979390554039"><ele>576.0</ele><time>2026-04-23T16:51:02.999Z</time></trkpt><trkpt lat="44.318504587945476" lon="7.7438712853004175"><ele>576.0</ele><time>2026-04-23T16:51:03.999Z</time></trkpt><trkpt lat="44.31848071558277" lon="7.743694270457571"><ele>576.0</ele><time>2026-04-23T16:51:05.999Z</time></trkpt><trkpt lat="44.31847250819265" lon="7.743602896471467"><ele>576.0</ele><time>2026-04-23T16:51:06.999Z</time></trkpt><trkpt lat="44.31847153725906" lon="7.743485676004855"><ele>576.0</ele><time>2026-04-23T16:51:08.999Z</time></trkpt><trkpt lat="44.31844622741812" lon="7.743328675562766"><ele>576.0</ele><time>2026-04-23T16:51:10.999Z</time></trkpt><trkpt lat="44.31843584244612" lon="7.74320771325688"><ele>576.0</ele><time>2026-04-23T16:51:12.999Z</time></trkpt><trkpt lat="44.318439755478416" lon="7.743112310970793"><ele>576.0</ele><time>2026-04-23T16:51:15.999Z</time></trkpt><trkpt lat="44.318417851681296" lon="7.742991477314598"><ele>576.0000000000001</ele><time>2026-04-23T16:51:24.999Z</time></trkpt><trkpt lat="44.31836911369924" lon="7.742933003148814"><ele>576.0</ele><time>2026-04-23T16:51:25.999Z</time></trkpt><trkpt lat="44.31832712420075" lon="7.742858575417582"><ele>576.0</ele><time>2026-04-23T16:51:26.999Z</time></trkpt><trkpt lat="44.31826474539537" lon="7.742787886245466"><ele>576.0</ele><time>2026-04-23T16:51:27.999Z</time></trkpt><trkpt lat="44.31819482407797" lon="7.742712811262825"><ele>576.0</ele><time>2026-04-23T16:51:28.999Z</time></trkpt><trkpt lat="44.31814072165533" lon="7.742644408698947"><ele>576.0000000000001</ele><time>2026-04-23T16:51:29.999Z</time></trkpt><trkpt lat="44.31809015572515" lon="7.742573763926392"><ele>576.0</ele><time>2026-04-23T16:51:30.999Z</time></trkpt><trkpt lat="44.31803925878928" lon="7.742471330829935"><ele>576.2</ele><time>2026-04-23T16:51:31.999Z</time></trkpt><trkpt lat="44.31799190848306" lon="7.742364598761078"><ele>576.4000000000001</ele><time>2026-04-23T16:51:32.999Z</time></trkpt><trkpt lat="44.317940794497076" lon="7.742257614339238"><ele>576.6</ele><time>2026-04-23T16:51:33.999Z</time></trkpt><trkpt lat="44.31788079500464" lon="7.742123123645828"><ele>576.8000000000001</ele><time>2026-04-23T16:51:34.999Z</time></trkpt><trkpt lat="44.31782030600917" lon="7.7419905363756705"><ele>577.0</ele><time>2026-04-23T16:51:35.999Z</time></trkpt><trkpt lat="44.31776964723398" lon="7.741860082235191"><ele>577.4</ele><time>2026-04-23T16:51:36.999Z</time></trkpt><trkpt lat="44.31772137057977" lon="7.741740216037381"><ele>577.8000000000001</ele><time>2026-04-23T16:51:37.999Z</time></trkpt><trkpt lat="44.31768551366202" lon="7.741620370348027"><ele>578.2</ele><time>2026-04-23T16:51:38.999Z</time></trkpt><trkpt lat="44.31764919763997" lon="7.741492350212096"><ele>578.6</ele><time>2026-04-23T16:51:39.999Z</time></trkpt><trkpt lat="44.317617596184675" lon="7.741347413898369"><ele>579.0</ele><time>2026-04-23T16:51:40.999Z</time></trkpt><trkpt lat="44.317578101489474" lon="7.741211223270146"><ele>579.0</ele><time>2026-04-23T16:51:41.999Z</time></trkpt><trkpt lat="44.31754181679189" lon="7.741078069304251"><ele>579.0</ele><time>2026-04-23T16:51:42.999Z</time></trkpt><trkpt lat="44.31750673082782" lon="7.740949085302099"><ele>579.0</ele><time>2026-04-23T16:51:43.999Z</time></trkpt><trkpt lat="44.31746807615804" lon="7.740816470105539"><ele>579.0</ele><time>2026-04-23T16:51:44.999Z</time></trkpt><trkpt lat="44.31743375097136" lon="7.74068751966936"><ele>579.0</ele><time>2026-04-23T16:51:45.999Z</time></trkpt><trkpt lat="44.31740173605284" lon="7.740557501584934"><ele>579.0</ele><time>2026-04-23T16:51:46.999Z</time></trkpt><trkpt lat="44.317369039578125" lon="7.740428330160857"><ele>579.0</ele><time>2026-04-23T16:51:47.999Z</time></trkpt><trkpt lat="44.317335818648104" lon="7.740292904828812"><ele>579.0</ele><time>2026-04-23T16:51:48.999Z</time></trkpt><trkpt lat="44.31730023320034" lon="7.740153438942259"><ele>579.0</ele><time>2026-04-23T16:51:49.999Z</time></trkpt><trkpt lat="44.31726540463682" lon="7.74001256497022"><ele>579.0</ele><time>2026-04-23T16:51:50.999Z</time></trkpt><trkpt lat="44.31722483319158" lon="7.7398579465988515"><ele>579.0</ele><time>2026-04-23T16:51:51.999Z</time></trkpt><trkpt lat="44.3171786800312" lon="7.739684718656412"><ele>579.0</ele><time>2026-04-23T16:51:52.999Z</time></trkpt><trkpt lat="44.31713022217703" lon="7.739511306474873"><ele>579.0</ele><time>2026-04-23T16:51:53.999Z</time></trkpt><trkpt lat="44.317079589137386" lon="7.739320767423814"><ele>579.0</ele><time>2026-04-23T16:51:54.999Z</time></trkpt><trkpt lat="44.31703047709298" lon="7.739141805093381"><ele>578.75</ele><time>2026-04-23T16:51:55.999Z</time></trkpt><trkpt lat="44.31698301098067" lon="7.738977962835788"><ele>578.5</ele><time>2026-04-23T16:51:56.999Z</time></trkpt><trkpt lat="44.31694225019535" lon="7.738815208065227"><ele>578.25</ele><time>2026-04-23T16:51:57.999Z</time></trkpt><trkpt lat="44.31690607075219" lon="7.738667978420406"><ele>578.0</ele><time>2026-04-23T16:51:58.999Z</time></trkpt><trkpt lat="44.316875742155666" lon="7.738536802147935"><ele>578.3333333333333</ele><time>2026-04-23T16:51:59.999Z</time></trkpt><trkpt lat="44.31685045221172" lon="7.738439569823188"><ele>578.6666666666666</ele><time>2026-04-23T16:52:00.998Z</time></trkpt><trkpt lat="44.316825186958944" lon="7.738339311118611"><ele>579.0</ele><time>2026-04-23T16:52:01.998Z</time></trkpt><trkpt lat="44.31680462291111" lon="7.73825190531207"><ele>579.3333333333334</ele><time>2026-04-23T16:52:02.998Z</time></trkpt><trkpt lat="44.31677991841314" lon="7.738117119764578"><ele>579.6666666666667</ele><time>2026-04-23T16:52:04.998Z</time></trkpt><trkpt lat="44.3168728480739" lon="7.738080684869669"><ele>580.0</ele><time>2026-04-23T16:52:38Z</time></trkpt><trkpt lat="44.316929997280845" lon="7.738038756716366"><ele>580.0</ele><time>2026-04-23T16:52:44Z</time></trkpt><trkpt lat="44.316970813050204" lon="7.738107433354398"><ele>580.0</ele><time>2026-04-23T16:53:32.999Z</time></trkpt><trkpt lat="44.31695467455233" lon="7.737991744877866"><ele>580.0</ele><time>2026-04-23T17:07:47.999Z</time></trkpt><trkpt lat="44.316993133892296" lon="7.738063490125856"><ele>580.0</ele><time>2026-04-23T17:10:52.998Z</time></trkpt><trkpt lat="44.3170832380779" lon="7.7380530816384"><ele>580.0</ele><time>2026-04-23T17:12:30.999Z</time></trkpt><trkpt lat="44.31702588261902" lon="7.738003231847683"><ele>580.0</ele><time>2026-04-23T17:12:47.999Z</time></trkpt><trkpt lat="44.31693182196214" lon="7.738011131734976"><ele>580.0</ele><time>2026-04-23T17:12:51.999Z</time></trkpt><trkpt lat="44.31685492311645" lon="7.738029089128051"><ele>580.0</ele><time>2026-04-23T17:12:53.999Z</time></trkpt><trkpt lat="44.31678301370063" lon="7.7380562921206035"><ele>580.0</ele><time>2026-04-23T17:12:56.998Z</time></trkpt><trkpt lat="44.31671173987796" lon="7.738006479308431"><ele>580.0</ele><time>2026-04-23T17:13:02.998Z</time></trkpt><trkpt lat="44.3166688637714" lon="7.737876739692448"><ele>580.0</ele><time>2026-04-23T17:13:04.998Z</time></trkpt><trkpt lat="44.316649559939485" lon="7.737791067967317"><ele>580.0</ele><time>2026-04-23T17:13:05.998Z</time></trkpt><trkpt lat="44.31662077230467" lon="7.737676122391664"><ele>579.6</ele><time>2026-04-23T17:13:06.998Z</time></trkpt><trkpt lat="44.31658295896741" lon="7.737548017373026"><ele>579.2</ele><time>2026-04-23T17:13:07.998Z</time></trkpt><trkpt lat="44.31654720754431" lon="7.737418289286184"><ele>578.8</ele><time>2026-04-23T17:13:08.998Z</time></trkpt><trkpt lat="44.316512710690176" lon="7.737273298761613"><ele>578.4</ele><time>2026-04-23T17:13:09.998Z</time></trkpt><trkpt lat="44.31647157181848" lon="7.737129007628939"><ele>578.0</ele><time>2026-04-23T17:13:10.998Z</time></trkpt><trkpt lat="44.31643159474928" lon="7.736982468795126"><ele>578.25</ele><time>2026-04-23T17:13:11.998Z</time></trkpt><trkpt lat="44.31638829864141" lon="7.736827943183723"><ele>578.5</ele><time>2026-04-23T17:13:12.998Z</time></trkpt><trkpt lat="44.31634518853487" lon="7.736673493314422"><ele>578.75</ele><time>2026-04-23T17:13:13.998Z</time></trkpt><trkpt lat="44.31630503400235" lon="7.736520745479224"><ele>579.0</ele><time>2026-04-23T17:13:14.998Z</time></trkpt><trkpt lat="44.31626072635891" lon="7.7363477548305575"><ele>579.0</ele><time>2026-04-23T17:13:15.998Z</time></trkpt><trkpt lat="44.31621634399222" lon="7.736172339510336"><ele>579.0</ele><time>2026-04-23T17:13:16.998Z</time></trkpt><trkpt lat="44.31617408705486" lon="7.735990349039888"><ele>579.0</ele><time>2026-04-23T17:13:17.998Z</time></trkpt><trkpt lat="44.316128456713486" lon="7.735815913145691"><ele>579.0</ele><time>2026-04-23T17:13:18.998Z</time></trkpt><trkpt lat="44.31608840422396" lon="7.735628279031648"><ele>578.75</ele><time>2026-04-23T17:13:20Z</time></trkpt><trkpt lat="44.31604231975732" lon="7.73543294702072"><ele>578.5</ele><time>2026-04-23T17:13:21Z</time></trkpt><trkpt lat="44.31599553347832" lon="7.7352325397980115"><ele>578.25</ele><time>2026-04-23T17:13:22Z</time></trkpt><trkpt lat="44.315957662175876" lon="7.73504195101267"><ele>578.0</ele><time>2026-04-23T17:13:23Z</time></trkpt><trkpt lat="44.315925374344985" lon="7.734856363723548"><ele>578.0</ele><time>2026-04-23T17:13:24Z</time></trkpt><trkpt lat="44.31588955857733" lon="7.734670037924362"><ele>578.0</ele><time>2026-04-23T17:13:25Z</time></trkpt><trkpt lat="44.31585566190044" lon="7.734479979488189"><ele>578.0</ele><time>2026-04-23T17:13:26Z</time></trkpt><trkpt lat="44.315822960809136" lon="7.734298409846241"><ele>578.0</ele><time>2026-04-23T17:13:27Z</time></trkpt><trkpt lat="44.315796426572945" lon="7.7341081815783195"><ele>578.25</ele><time>2026-04-23T17:13:28Z</time></trkpt><trkpt lat="44.31576920191097" lon="7.733917547844812"><ele>578.5</ele><time>2026-04-23T17:13:29Z</time></trkpt><trkpt lat="44.315741221091194" lon="7.733725381526666"><ele>578.75</ele><time>2026-04-23T17:13:30Z</time></trkpt><trkpt lat="44.31571392720192" lon="7.733523929975633"><ele>579.0</ele><time>2026-04-23T17:13:31Z</time></trkpt><trkpt lat="44.315686771407364" lon="7.73332927033072"><ele>579.0</ele><time>2026-04-23T17:13:32Z</time></trkpt><trkpt lat="44.31566019507138" lon="7.7331203699826165"><ele>579.0</ele><time>2026-04-23T17:13:33Z</time></trkpt><trkpt lat="44.31563525538558" lon="7.732922874605821"><ele>579.0</ele><time>2026-04-23T17:13:34Z</time></trkpt><trkpt lat="44.3156102528983" lon="7.73272968667445"><ele>579.0</ele><time>2026-04-23T17:13:35Z</time></trkpt><trkpt lat="44.31558673059468" lon="7.732537927349394"><ele>580.0</ele><time>2026-04-23T17:13:36Z</time></trkpt><trkpt lat="44.31556133459879" lon="7.732340267320956"><ele>581.0</ele><time>2026-04-23T17:13:37Z</time></trkpt><trkpt lat="44.315531184374606" lon="7.732138223374575"><ele>582.0</ele><time>2026-04-23T17:13:38Z</time></trkpt><trkpt lat="44.315498468062785" lon="7.7319350859865645"><ele>583.0</ele><time>2026-04-23T17:13:39Z</time></trkpt><trkpt lat="44.315466733236335" lon="7.731727488814783"><ele>583.0</ele><time>2026-04-23T17:13:40Z</time></trkpt><trkpt lat="44.31543543362857" lon="7.731531323643371"><ele>583.0</ele><time>2026-04-23T17:13:41Z</time></trkpt><trkpt lat="44.31540326642975" lon="7.731336763927115"><ele>583.0</ele><time>2026-04-23T17:13:42Z</time></trkpt><trkpt lat="44.31537756639047" lon="7.73113565098904"><ele>583.0</ele><time>2026-04-23T17:13:43Z</time></trkpt><trkpt lat="44.315324795491215" lon="7.730944692197088"><ele>583.6666666666667</ele><time>2026-04-23T17:13:44Z</time></trkpt><trkpt lat="44.31525502552778" lon="7.730756844054795"><ele>584.3333333333334</ele><time>2026-04-23T17:13:45Z</time></trkpt><trkpt lat="44.31518467753491" lon="7.730566412120086"><ele>585.0</ele><time>2026-04-23T17:13:46Z</time></trkpt><trkpt lat="44.31511128960441" lon="7.730381717196357"><ele>585.3333333333334</ele><time>2026-04-23T17:13:47Z</time></trkpt><trkpt lat="44.315034809330406" lon="7.730197096071538"><ele>585.6666666666667</ele><time>2026-04-23T17:13:48Z</time></trkpt><trkpt lat="44.31495660527761" lon="7.730015935081874"><ele>586.0</ele><time>2026-04-23T17:13:49Z</time></trkpt><trkpt lat="44.31487407172685" lon="7.7298280885576025"><ele>586.0</ele><time>2026-04-23T17:13:50Z</time></trkpt><trkpt lat="44.31479279962896" lon="7.729638148791473"><ele>586.0</ele><time>2026-04-23T17:13:51Z</time></trkpt><trkpt lat="44.31471138225532" lon="7.729451983969265"><ele>586.0</ele><time>2026-04-23T17:13:52Z</time></trkpt><trkpt lat="44.31462749748753" lon="7.729263854277668"><ele>586.6666666666667</ele><time>2026-04-23T17:13:53Z</time></trkpt><trkpt lat="44.31454512362487" lon="7.729080508456041"><ele>587.3333333333334</ele><time>2026-04-23T17:13:54Z</time></trkpt><trkpt lat="44.3144650736286" lon="7.728892929922815"><ele>588.0</ele><time>2026-04-23T17:13:55Z</time></trkpt><trkpt lat="44.31438463236618" lon="7.728706253966364"><ele>588.3333333333334</ele><time>2026-04-23T17:13:56Z</time></trkpt><trkpt lat="44.31430514561319" lon="7.728523048862143"><ele>588.6666666666667</ele><time>2026-04-23T17:13:57Z</time></trkpt><trkpt lat="44.31422989957558" lon="7.7283379401635495"><ele>589.0</ele><time>2026-04-23T17:13:58Z</time></trkpt><trkpt lat="44.31415305572229" lon="7.728146311227586"><ele>589.0</ele><time>2026-04-23T17:13:59Z</time></trkpt><trkpt lat="44.314073714222836" lon="7.727962906862605"><ele>589.0</ele><time>2026-04-23T17:14:00Z</time></trkpt><trkpt lat="44.31399841620484" lon="7.727768725303346"><ele>589.0</ele><time>2026-04-23T17:14:01Z</time></trkpt><trkpt lat="44.3139232870069" lon="7.727575690807882"><ele>590.6666666666667</ele><time>2026-04-23T17:14:01.999Z</time></trkpt><trkpt lat="44.313855815112014" lon="7.727385726784951"><ele>592.3333333333334</ele><time>2026-04-23T17:14:02.999Z</time></trkpt><trkpt lat="44.31378914333971" lon="7.727187873019062"><ele>594.0</ele><time>2026-04-23T17:14:03.999Z</time></trkpt><trkpt lat="44.313730426072794" lon="7.726980485215415"><ele>594.6666666666666</ele><time>2026-04-23T17:14:04.999Z</time></trkpt><trkpt lat="44.3136718391433" lon="7.726768470285809"><ele>595.3333333333333</ele><time>2026-04-23T17:14:05.999Z</time></trkpt><trkpt lat="44.313616502780704" lon="7.726549378532046"><ele>596.0</ele><time>2026-04-23T17:14:06.999Z</time></trkpt><trkpt lat="44.31356501415138" lon="7.726336788965553"><ele>596.0</ele><time>2026-04-23T17:14:07.999Z</time></trkpt><trkpt lat="44.313511028213256" lon="7.726123096014012"><ele>596.0</ele><time>2026-04-23T17:14:08.999Z</time></trkpt><trkpt lat="44.313459586685966" lon="7.725906705164976"><ele>596.0</ele><time>2026-04-23T17:14:09.999Z</time></trkpt><trkpt lat="44.313411658091894" lon="7.725684111115919"><ele>596.0</ele><time>2026-04-23T17:14:10.999Z</time></trkpt><trkpt lat="44.3133640361847" lon="7.725488883161778"><ele>596.0</ele><time>2026-04-23T17:14:11.999Z</time></trkpt><trkpt lat="44.31331571967651" lon="7.725286718811889"><ele>596.0</ele><time>2026-04-23T17:14:12.999Z</time></trkpt><trkpt lat="44.31326000011811" lon="7.725102916006667"><ele>596.0</ele><time>2026-04-23T17:14:13.999Z</time></trkpt><trkpt lat="44.31322706020134" lon="7.72489627893314"><ele>596.0</ele><time>2026-04-23T17:14:14.999Z</time></trkpt><trkpt lat="44.31316455665806" lon="7.724705752983631"><ele>596.0</ele><time>2026-04-23T17:14:15.999Z</time></trkpt><trkpt lat="44.31309769137917" lon="7.7245190401600095"><ele>596.0</ele><time>2026-04-23T17:14:16.999Z</time></trkpt><trkpt lat="44.31302829761628" lon="7.724334559260548"><ele>596.0</ele><time>2026-04-23T17:14:17.999Z</time></trkpt><trkpt lat="44.31295774555359" lon="7.7241527211142635"><ele>597.0</ele><time>2026-04-23T17:14:18.999Z</time></trkpt><trkpt lat="44.31288615837145" lon="7.723977786772649"><ele>598.0</ele><time>2026-04-23T17:14:19.999Z</time></trkpt><trkpt lat="44.312811502285186" lon="7.723806624015462"><ele>599.0</ele><time>2026-04-23T17:14:20.999Z</time></trkpt><trkpt lat="44.31273014016277" lon="7.723647547632622"><ele>600.0</ele><time>2026-04-23T17:14:21.999Z</time></trkpt><trkpt lat="44.31264250671231" lon="7.723518954889166"><ele>600.25</ele><time>2026-04-23T17:14:22.999Z</time></trkpt><trkpt lat="44.312541783278526" lon="7.72339726737427"><ele>600.5</ele><time>2026-04-23T17:14:23.999Z</time></trkpt><trkpt lat="44.31242635310955" lon="7.723291234854137"><ele>600.75</ele><time>2026-04-23T17:14:24.999Z</time></trkpt><trkpt lat="44.312298248796004" lon="7.72319925354333"><ele>601.0</ele><time>2026-04-23T17:14:25.999Z</time></trkpt><trkpt lat="44.31216395651023" lon="7.723120793939117"><ele>602.0</ele><time>2026-04-23T17:14:26.999Z</time></trkpt><trkpt lat="44.31201941401086" lon="7.723044789113505"><ele>603.0</ele><time>2026-04-23T17:14:27.999Z</time></trkpt><trkpt lat="44.31187822439203" lon="7.722981374567877"><ele>604.0</ele><time>2026-04-23T17:14:28.999Z</time></trkpt><trkpt lat="44.31173302635446" lon="7.7229201774149745"><ele>604.0</ele><time>2026-04-23T17:14:29.999Z</time></trkpt><trkpt lat="44.31158771632064" lon="7.722865193860831"><ele>604.0</ele><time>2026-04-23T17:14:30.999Z</time></trkpt><trkpt lat="44.31145489655629" lon="7.722807427341825"><ele>604.0</ele><time>2026-04-23T17:14:31.999Z</time></trkpt><trkpt lat="44.31132696042405" lon="7.722741842439711"><ele>604.0</ele><time>2026-04-23T17:14:32.999Z</time></trkpt><trkpt lat="44.31120294772328" lon="7.722654727468103"><ele>605.25</ele><time>2026-04-23T17:14:33.999Z</time></trkpt><trkpt lat="44.31110509584912" lon="7.722560273156127"><ele>606.5</ele><time>2026-04-23T17:14:34.999Z</time></trkpt><trkpt lat="44.31101445418948" lon="7.722455035738098"><ele>607.75</ele><time>2026-04-23T17:14:35.999Z</time></trkpt><trkpt lat="44.310928370644035" lon="7.72232361031986"><ele>609.0</ele><time>2026-04-23T17:14:36.999Z</time></trkpt><trkpt lat="44.31086080261567" lon="7.722177686204609"><ele>609.0</ele><time>2026-04-23T17:14:37.999Z</time></trkpt><trkpt lat="44.31080071333885" lon="7.72202695607843"><ele>609.0</ele><time>2026-04-23T17:14:38.999Z</time></trkpt><trkpt lat="44.31075889476046" lon="7.721848597731106"><ele>609.0</ele><time>2026-04-23T17:14:39.999Z</time></trkpt><trkpt lat="44.310727027116506" lon="7.721654072195249"><ele>609.0</ele><time>2026-04-23T17:14:40.999Z</time></trkpt><trkpt lat="44.31070581186054" lon="7.721457115488612"><ele>608.75</ele><time>2026-04-23T17:14:41.999Z</time></trkpt><trkpt lat="44.31068923330889" lon="7.721256648830193"><ele>608.5</ele><time>2026-04-23T17:14:42.999Z</time></trkpt><trkpt lat="44.31068114135906" lon="7.721055425981237"><ele>608.25</ele><time>2026-04-23T17:14:43.999Z</time></trkpt><trkpt lat="44.31066848897109" lon="7.720847881261449"><ele>608.0</ele><time>2026-04-23T17:14:44.999Z</time></trkpt><trkpt lat="44.310650545977715" lon="7.720636951962469"><ele>608.0</ele><time>2026-04-23T17:14:45.999Z</time></trkpt><trkpt lat="44.31062799798609" lon="7.720435417587744"><ele>608.0</ele><time>2026-04-23T17:14:46.999Z</time></trkpt><trkpt lat="44.310615709369294" lon="7.720220408629986"><ele>608.0</ele><time>2026-04-23T17:14:47.999Z</time></trkpt><trkpt lat="44.31059824569658" lon="7.72001298790871"><ele>608.3333333333333</ele><time>2026-04-23T17:14:48.999Z</time></trkpt><trkpt lat="44.310577636457644" lon="7.719808662006309"><ele>608.6666666666666</ele><time>2026-04-23T17:14:49.999Z</time></trkpt><trkpt lat="44.31055838471879" lon="7.719592063706063"><ele>609.0</ele><time>2026-04-23T17:14:50.999Z</time></trkpt><trkpt lat="44.31053777718438" lon="7.719377209430743"><ele>611.6666666666666</ele><time>2026-04-23T17:14:51.999Z</time></trkpt><trkpt lat="44.31051868030687" lon="7.719161987067514"><ele>614.3333333333333</ele><time>2026-04-23T17:14:52.999Z</time></trkpt><trkpt lat="44.31050137891134" lon="7.718943877627581"><ele>617.0</ele><time>2026-04-23T17:14:53.999Z</time></trkpt><trkpt lat="44.31048168830511" lon="7.71875371691949"><ele>616.5</ele><time>2026-04-23T17:14:54.999Z</time></trkpt><trkpt lat="44.31046995478454" lon="7.718546222625512"><ele>616.0</ele><time>2026-04-23T17:14:55.999Z</time></trkpt><trkpt lat="44.31045603127082" lon="7.718339385904012"><ele>615.5</ele><time>2026-04-23T17:14:56.999Z</time></trkpt><trkpt lat="44.310449690567474" lon="7.718130897343697"><ele>615.0</ele><time>2026-04-23T17:14:57.999Z</time></trkpt><trkpt lat="44.310445088115486" lon="7.717920596236242"><ele>615.3333333333334</ele><time>2026-04-23T17:14:58.999Z</time></trkpt><trkpt lat="44.310442299590264" lon="7.71771111689856"><ele>615.6666666666667</ele><time>2026-04-23T17:14:59.998Z</time></trkpt><trkpt lat="44.31044258642981" lon="7.717496202250124"><ele>616.0</ele><time>2026-04-23T17:15:00.998Z</time></trkpt><trkpt lat="44.310448539205034" lon="7.717275768512462"><ele>616.0</ele><time>2026-04-23T17:15:01.998Z</time></trkpt><trkpt lat="44.31046379401773" lon="7.717066233367629"><ele>616.0</ele><time>2026-04-23T17:15:02.998Z</time></trkpt><trkpt lat="44.31048149361898" lon="7.716865040918951"><ele>616.0</ele><time>2026-04-23T17:15:03.998Z</time></trkpt><trkpt lat="44.310504764296816" lon="7.716659169144207"><ele>616.0</ele><time>2026-04-23T17:15:04.998Z</time></trkpt><trkpt lat="44.31052970524082" lon="7.716464858989649"><ele>616.75</ele><time>2026-04-23T17:15:05.998Z</time></trkpt><trkpt lat="44.310556998511736" lon="7.716275229984992"><ele>617.5</ele><time>2026-04-23T17:15:06.998Z</time></trkpt><trkpt lat="44.31058527737934" lon="7.716113767804127"><ele>618.25</ele><time>2026-04-23T17:15:07.998Z</time></trkpt><trkpt lat="44.31061875609911" lon="7.715936600965235"><ele>619.0</ele><time>2026-04-23T17:15:08.998Z</time></trkpt><trkpt lat="44.31064704010138" lon="7.715758710997627"><ele>621.5</ele><time>2026-04-23T17:15:09.998Z</time></trkpt><trkpt lat="44.310663362088" lon="7.7155899145573485"><ele>624.0</ele><time>2026-04-23T17:15:10.998Z</time></trkpt><trkpt lat="44.31066834050008" lon="7.715419958846065"><ele>626.5</ele><time>2026-04-23T17:15:11.998Z</time></trkpt><trkpt lat="44.31065062936791" lon="7.715254701687964"><ele>629.0</ele><time>2026-04-23T17:15:12.998Z</time></trkpt><trkpt lat="44.31062431919611" lon="7.715081364135116"><ele>630.25</ele><time>2026-04-23T17:15:13.998Z</time></trkpt><trkpt lat="44.31057605429194" lon="7.714917827952645"><ele>631.5</ele><time>2026-04-23T17:15:14.998Z</time></trkpt><trkpt lat="44.31052060479125" lon="7.714762197213"><ele>632.75</ele><time>2026-04-23T17:15:15.998Z</time></trkpt><trkpt lat="44.31045845279622" lon="7.7146050770400585"><ele>634.0</ele><time>2026-04-23T17:15:16.998Z</time></trkpt><trkpt lat="44.310400527575666" lon="7.7144513227847025"><ele>636.75</ele><time>2026-04-23T17:15:17.998Z</time></trkpt><trkpt lat="44.31033735110856" lon="7.714300474579177"><ele>639.5</ele><time>2026-04-23T17:15:18.998Z</time></trkpt><trkpt lat="44.310278773686235" lon="7.714153493219547"><ele>642.25</ele><time>2026-04-23T17:15:19.998Z</time></trkpt><trkpt lat="44.31021060173569" lon="7.713999701202638"><ele>645.0</ele><time>2026-04-23T17:15:20.998Z</time></trkpt><trkpt lat="44.31013609144131" lon="7.7138539044152115"><ele>645.0</ele><time>2026-04-23T17:15:21.998Z</time></trkpt><trkpt lat="44.310060132032625" lon="7.713704278900477"><ele>645.0</ele><time>2026-04-23T17:15:22.998Z</time></trkpt><trkpt lat="44.30998410520633" lon="7.713557213129631"><ele>645.0</ele><time>2026-04-23T17:15:23.998Z</time></trkpt><trkpt lat="44.30990108094823" lon="7.7134134583081835"><ele>645.0</ele><time>2026-04-23T17:15:24.998Z</time></trkpt><trkpt lat="44.30981970168366" lon="7.713268586496692"><ele>644.5</ele><time>2026-04-23T17:15:26Z</time></trkpt><trkpt lat="44.30973564218172" lon="7.713119140694866"><ele>644.0</ele><time>2026-04-23T17:15:27Z</time></trkpt><trkpt lat="44.30965299721483" lon="7.712969250064405"><ele>643.5</ele><time>2026-04-23T17:15:28Z</time></trkpt><trkpt lat="44.309572999336524" lon="7.712816646771683"><ele>643.0</ele><time>2026-04-23T17:15:29Z</time></trkpt><trkpt lat="44.309492066558334" lon="7.712661979411412"><ele>646.5</ele><time>2026-04-23T17:15:30Z</time></trkpt><trkpt lat="44.3094125091218" lon="7.712505956663318"><ele>650.0</ele><time>2026-04-23T17:15:31Z</time></trkpt><trkpt lat="44.309335187318254" lon="7.712346604849941"><ele>653.5</ele><time>2026-04-23T17:15:32Z</time></trkpt><trkpt lat="44.30926183416332" lon="7.712185019536317"><ele>657.0</ele><time>2026-04-23T17:15:33Z</time></trkpt><trkpt lat="44.30919537461411" lon="7.712025079349388"><ele>660.5</ele><time>2026-04-23T17:15:34Z</time></trkpt><trkpt lat="44.30913095175248" lon="7.711860091460089"><ele>664.0</ele><time>2026-04-23T17:15:35Z</time></trkpt><trkpt lat="44.30906563924657" lon="7.711698789803225"><ele>667.5</ele><time>2026-04-23T17:15:36Z</time></trkpt><trkpt lat="44.30900330034676" lon="7.711534108404759"><ele>671.0</ele><time>2026-04-23T17:15:37Z</time></trkpt><trkpt lat="44.308944768617124" lon="7.711382584584803"><ele>670.8</ele><time>2026-04-23T17:15:38Z</time></trkpt><trkpt lat="44.30889392530243" lon="7.711258402778264"><ele>670.5999999999999</ele><time>2026-04-23T17:15:39Z</time></trkpt><trkpt lat="44.30884856918603" lon="7.711126562248066"><ele>670.4</ele><time>2026-04-23T17:15:40Z</time></trkpt><trkpt lat="44.30880948850983" lon="7.71098850985906"><ele>670.2</ele><time>2026-04-23T17:15:41Z</time></trkpt><trkpt lat="44.308784462081036" lon="7.710843535909189"><ele>670.0</ele><time>2026-04-23T17:15:42Z</time></trkpt><trkpt lat="44.30877994622566" lon="7.710705437344635"><ele>670.0</ele><time>2026-04-23T17:15:43Z</time></trkpt><trkpt lat="44.30880929894839" lon="7.710575515020257"><ele>670.0</ele><time>2026-04-23T17:15:44Z</time></trkpt><trkpt lat="44.30885853501183" lon="7.710456518813414"><ele>670.0</ele><time>2026-04-23T17:15:45Z</time></trkpt><trkpt lat="44.308925747244984" lon="7.7103516476821765"><ele>670.0</ele><time>2026-04-23T17:15:46Z</time></trkpt><trkpt lat="44.3090124126485" lon="7.710269702063354"><ele>670.0</ele><time>2026-04-23T17:15:47Z</time></trkpt><trkpt lat="44.309105812113394" lon="7.7101983633756905"><ele>673.0</ele><time>2026-04-23T17:15:48Z</time></trkpt><trkpt lat="44.30920172006089" lon="7.710129634392211"><ele>676.0</ele><time>2026-04-23T17:15:49Z</time></trkpt><trkpt lat="44.30931003712904" lon="7.710065530929341"><ele>679.0</ele><time>2026-04-23T17:15:50Z</time></trkpt><trkpt lat="44.309431504340616" lon="7.709996732650728"><ele>682.0</ele><time>2026-04-23T17:15:51Z</time></trkpt><trkpt lat="44.30955629185233" lon="7.709932341479363"><ele>682.0</ele><time>2026-04-23T17:15:52Z</time></trkpt><trkpt lat="44.30967611016511" lon="7.709872853524563"><ele>682.0</ele><time>2026-04-23T17:15:53Z</time></trkpt><trkpt lat="44.309803942219744" lon="7.709811566953279"><ele>682.0</ele><time>2026-04-23T17:15:54Z</time></trkpt><trkpt lat="44.309926373033925" lon="7.70974621373284"><ele>682.0</ele><time>2026-04-23T17:15:55Z</time></trkpt><trkpt lat="44.31004419642512" lon="7.709707353914998"><ele>682.25</ele><time>2026-04-23T17:15:56Z</time></trkpt><trkpt lat="44.310159493479134" lon="7.709610358405743"><ele>682.5</ele><time>2026-04-23T17:15:57Z</time></trkpt><trkpt lat="44.31027076562418" lon="7.70949184605128"><ele>682.75</ele><time>2026-04-23T17:15:58Z</time></trkpt><trkpt lat="44.31037354551888" lon="7.709348984247355"><ele>683.0</ele><time>2026-04-23T17:15:59Z</time></trkpt><trkpt lat="44.31047172048688" lon="7.709204768992379"><ele>683.0</ele><time>2026-04-23T17:16:00Z</time></trkpt><trkpt lat="44.310559001842755" lon="7.709071456374678"><ele>683.0</ele><time>2026-04-23T17:16:01Z</time></trkpt><trkpt lat="44.31064268791641" lon="7.708958496315951"><ele>683.0</ele><time>2026-04-23T17:16:02Z</time></trkpt><trkpt lat="44.3107219076511" lon="7.708849896736028"><ele>683.0</ele><time>2026-04-23T17:16:03Z</time></trkpt><trkpt lat="44.31079722068454" lon="7.708755255443444"><ele>683.8</ele><time>2026-04-23T17:16:04Z</time></trkpt><trkpt lat="44.310878361162416" lon="7.708660782983005"><ele>684.5999999999999</ele><time>2026-04-23T17:16:05Z</time></trkpt><trkpt lat="44.31095492425597" lon="7.70858806093476"><ele>685.4000000000001</ele><time>2026-04-23T17:16:06Z</time></trkpt><trkpt lat="44.311044664452965" lon="7.708536065017703"><ele>686.2</ele><time>2026-04-23T17:16:06.999Z</time></trkpt><trkpt lat="44.311143528370906" lon="7.708493964185459"><ele>687.0</ele><time>2026-04-23T17:16:07.999Z</time></trkpt><trkpt lat="44.31125485193356" lon="7.708461675593852"><ele>687.0</ele><time>2026-04-23T17:16:08.999Z</time></trkpt><trkpt lat="44.31137349986572" lon="7.708448063879497"><ele>687.0</ele><time>2026-04-23T17:16:09.999Z</time></trkpt><trkpt lat="44.31149907274242" lon="7.708431390141592"><ele>687.0</ele><time>2026-04-23T17:16:10.999Z</time></trkpt><trkpt lat="44.31162456751771" lon="7.708417000298386"><ele>687.0</ele><time>2026-04-23T17:16:11.999Z</time></trkpt><trkpt lat="44.311744965576004" lon="7.708386397254327"><ele>688.25</ele><time>2026-04-23T17:16:12.999Z</time></trkpt><trkpt lat="44.31187119078782" lon="7.708329225603837"><ele>689.5</ele><time>2026-04-23T17:16:13.999Z</time></trkpt><trkpt lat="44.31199767939713" lon="7.708241249559271"><ele>690.75</ele><time>2026-04-23T17:16:14.999Z</time></trkpt><trkpt lat="44.31212433213457" lon="7.708130192700125"><ele>692.0</ele><time>2026-04-23T17:16:15.999Z</time></trkpt><trkpt lat="44.31225198270181" lon="7.708013210714391"><ele>692.0</ele><time>2026-04-23T17:16:16.999Z</time></trkpt><trkpt lat="44.31238543303021" lon="7.707884654818719"><ele>692.0</ele><time>2026-04-23T17:16:17.999Z</time></trkpt><trkpt lat="44.31252546297324" lon="7.707754525475795"><ele>692.0</ele><time>2026-04-23T17:16:18.999Z</time></trkpt><trkpt lat="44.31267445298378" lon="7.707616877909801"><ele>692.0</ele><time>2026-04-23T17:16:19.999Z</time></trkpt><trkpt lat="44.31281290508146" lon="7.707489710720625"><ele>692.0</ele><time>2026-04-23T17:16:20.999Z</time></trkpt><trkpt lat="44.312940226439444" lon="7.7073755368059755"><ele>692.0</ele><time>2026-04-23T17:16:21.999Z</time></trkpt><trkpt lat="44.31305649438194" lon="7.707270618962177"><ele>692.75</ele><time>2026-04-23T17:16:22.999Z</time></trkpt><trkpt lat="44.31315952636149" lon="7.707172584352488"><ele>693.5</ele><time>2026-04-23T17:16:23.999Z</time></trkpt><trkpt lat="44.31325747135577" lon="7.70707631638466"><ele>694.25</ele><time>2026-04-23T17:16:24.999Z</time></trkpt><trkpt lat="44.31334048823171" lon="7.706981426737421"><ele>695.0</ele><time>2026-04-23T17:16:25.999Z</time></trkpt><trkpt lat="44.313413807271004" lon="7.706874120427711"><ele>695.0</ele><time>2026-04-23T17:16:26.999Z</time></trkpt><trkpt lat="44.31346063103343" lon="7.706749026799944"><ele>695.0</ele><time>2026-04-23T17:16:27.999Z</time></trkpt><trkpt lat="44.31349491492628" lon="7.70660531552182"><ele>695.0</ele><time>2026-04-23T17:16:28.999Z</time></trkpt><trkpt lat="44.313511846020056" lon="7.706453185659343"><ele>695.0</ele><time>2026-04-23T17:16:29.999Z</time></trkpt><trkpt lat="44.313501058365375" lon="7.706287014621645"><ele>695.0</ele><time>2026-04-23T17:16:30.999Z</time></trkpt><trkpt lat="44.31347386564027" lon="7.706116162588727"><ele>696.25</ele><time>2026-04-23T17:16:31.999Z</time></trkpt><trkpt lat="44.31343492905359" lon="7.705944535097357"><ele>697.5</ele><time>2026-04-23T17:16:32.999Z</time></trkpt><trkpt lat="44.31339401476791" lon="7.705766545630759"><ele>698.75</ele><time>2026-04-23T17:16:33.999Z</time></trkpt><trkpt lat="44.31336346818425" lon="7.705588936897631"><ele>700.0</ele><time>2026-04-23T17:16:34.999Z</time></trkpt><trkpt lat="44.313350479862784" lon="7.705411492183749"><ele>700.5</ele><time>2026-04-23T17:16:35.999Z</time></trkpt><trkpt lat="44.313353205549454" lon="7.705224099944943"><ele>701.0</ele><time>2026-04-23T17:16:36.999Z</time></trkpt><trkpt lat="44.31335976717428" lon="7.705028141931201"><ele>701.5</ele><time>2026-04-23T17:16:37.999Z</time></trkpt><trkpt lat="44.31336984305123" lon="7.704828576293109"><ele>702.0</ele><time>2026-04-23T17:16:38.999Z</time></trkpt><trkpt lat="44.31337172464095" lon="7.7046329494857755"><ele>702.0</ele><time>2026-04-23T17:16:39.999Z</time></trkpt><trkpt lat="44.313339305771166" lon="7.704438063564418"><ele>702.0</ele><time>2026-04-23T17:16:40.999Z</time></trkpt><trkpt lat="44.313285311085615" lon="7.7042366856729805"><ele>702.0</ele><time>2026-04-23T17:16:41.999Z</time></trkpt><trkpt lat="44.31322041922353" lon="7.704047621830856"><ele>702.0</ele><time>2026-04-23T17:16:42.999Z</time></trkpt><trkpt lat="44.31316210120418" lon="7.703877551581185"><ele>702.75</ele><time>2026-04-23T17:16:43.999Z</time></trkpt><trkpt lat="44.313111739508095" lon="7.70371618691259"><ele>703.5</ele><time>2026-04-23T17:16:44.999Z</time></trkpt><trkpt lat="44.31306355189891" lon="7.703554906733402"><ele>704.25</ele><time>2026-04-23T17:16:45.999Z</time></trkpt><trkpt lat="44.31301855671282" lon="7.703386003404279"><ele>705.0</ele><time>2026-04-23T17:16:46.999Z</time></trkpt><trkpt lat="44.313001134550746" lon="7.703201773739974"><ele>705.0</ele><time>2026-04-23T17:16:47.999Z</time></trkpt><trkpt lat="44.312986779158294" lon="7.703047442379307"><ele>705.0</ele><time>2026-04-23T17:16:48.999Z</time></trkpt><trkpt lat="44.31295029065556" lon="7.702904662147665"><ele>705.0</ele><time>2026-04-23T17:16:49.999Z</time></trkpt><trkpt lat="44.31292248609184" lon="7.702769418064584"><ele>705.0</ele><time>2026-04-23T17:16:50.999Z</time></trkpt><trkpt lat="44.3128694504936" lon="7.702646042553223"><ele>705.0</ele><time>2026-04-23T17:16:51.999Z</time></trkpt><trkpt lat="44.312797614572325" lon="7.7025429926765865"><ele>706.8333333333334</ele><time>2026-04-23T17:16:52.999Z</time></trkpt><trkpt lat="44.31270296620625" lon="7.7024818441535565"><ele>708.6666666666666</ele><time>2026-04-23T17:16:53.999Z</time></trkpt><trkpt lat="44.31260148812839" lon="7.702424776555821"><ele>710.5</ele><time>2026-04-23T17:16:54.999Z</time></trkpt><trkpt lat="44.31251665123612" lon="7.702373648551081"><ele>712.3333333333333</ele><time>2026-04-23T17:16:55.999Z</time></trkpt><trkpt lat="44.312452896078675" lon="7.702321996655275"><ele>714.1666666666666</ele><time>2026-04-23T17:16:56.999Z</time></trkpt><trkpt lat="44.31239906738266" lon="7.702263275892778"><ele>716.0</ele><time>2026-04-23T17:16:57.999Z</time></trkpt><trkpt lat="44.312353658756486" lon="7.702198985741145"><ele>716.0</ele><time>2026-04-23T17:16:58.999Z</time></trkpt><trkpt lat="44.31231954221105" lon="7.7021146284191575"><ele>716.0</ele><time>2026-04-23T17:16:59.999Z</time></trkpt><trkpt lat="44.312312346781795" lon="7.702026358842693"><ele>716.0</ele><time>2026-04-23T17:17:00.999Z</time></trkpt><trkpt lat="44.312329887604875" lon="7.701932411436117"><ele>716.0</ele><time>2026-04-23T17:17:01.999Z</time></trkpt><trkpt lat="44.31234802161613" lon="7.701813601887612"><ele>716.0</ele><time>2026-04-23T17:17:02.999Z</time></trkpt><trkpt lat="44.31237200673946" lon="7.7016794408124944"><ele>716.0</ele><time>2026-04-23T17:17:03.999Z</time></trkpt><trkpt lat="44.312385410239656" lon="7.70155556196083"><ele>715.8</ele><time>2026-04-23T17:17:04.999Z</time></trkpt><trkpt lat="44.31242124793562" lon="7.701425920593579"><ele>715.5999999999999</ele><time>2026-04-23T17:17:05.998Z</time></trkpt><trkpt lat="44.312466321201285" lon="7.701299839987248"><ele>715.4</ele><time>2026-04-23T17:17:06.998Z</time></trkpt><trkpt lat="44.31251729067724" lon="7.701189336681118"><ele>715.2</ele><time>2026-04-23T17:17:07.998Z</time></trkpt><trkpt lat="44.312570849775916" lon="7.701085760977698"><ele>715.0</ele><time>2026-04-23T17:17:08.998Z</time></trkpt><trkpt lat="44.31262941293605" lon="7.700988875159528"><ele>715.0</ele><time>2026-04-23T17:17:09.998Z</time></trkpt><trkpt lat="44.312690702031674" lon="7.700905989372271"><ele>715.0</ele><time>2026-04-23T17:17:10.998Z</time></trkpt><trkpt lat="44.312765097739664" lon="7.700831925773418"><ele>715.0</ele><time>2026-04-23T17:17:11.998Z</time></trkpt><trkpt lat="44.312840173266956" lon="7.700770262276868"><ele>715.0</ele><time>2026-04-23T17:17:12.998Z</time></trkpt><trkpt lat="44.312929734686946" lon="7.70074972190014"><ele>715.0</ele><time>2026-04-23T17:17:13.998Z</time></trkpt><trkpt lat="44.31301219500584" lon="7.700743386113858"><ele>715.0</ele><time>2026-04-23T17:17:14.998Z</time></trkpt><trkpt lat="44.31309548871212" lon="7.700738043181829"><ele>715.6666666666667</ele><time>2026-04-23T17:17:15.998Z</time></trkpt><trkpt lat="44.31316976752178" lon="7.700726685824841"><ele>716.3333333333334</ele><time>2026-04-23T17:17:16.998Z</time></trkpt><trkpt lat="44.31324843183788" lon="7.700704325419035"><ele>717.0</ele><time>2026-04-23T17:17:17.998Z</time></trkpt><trkpt lat="44.31332759282052" lon="7.700643807110817"><ele>717.6666666666666</ele><time>2026-04-23T17:17:18.998Z</time></trkpt><trkpt lat="44.313400321125904" lon="7.700561961643913"><ele>718.3333333333333</ele><time>2026-04-23T17:17:19.998Z</time></trkpt><trkpt lat="44.31344541202823" lon="7.700456207134104"><ele>719.0</ele><time>2026-04-23T17:17:20.998Z</time></trkpt><trkpt lat="44.31348612062289" lon="7.700337036684907"><ele>716.6</ele><time>2026-04-23T17:17:21.998Z</time></trkpt><trkpt lat="44.31351048108797" lon="7.700207313108138"><ele>714.2</ele><time>2026-04-23T17:17:22.998Z</time></trkpt><trkpt lat="44.31353014763233" lon="7.70008340684746"><ele>711.8000000000001</ele><time>2026-04-23T17:17:23.998Z</time></trkpt><trkpt lat="44.313527863458454" lon="7.699953305003868"><ele>709.4000000000001</ele><time>2026-04-23T17:17:24.998Z</time></trkpt><trkpt lat="44.31350923984363" lon="7.69980632084437"><ele>707.0</ele><time>2026-04-23T17:17:25.998Z</time></trkpt><trkpt lat="44.313490215467176" lon="7.699669623549592"><ele>707.0</ele><time>2026-04-23T17:17:26.998Z</time></trkpt><trkpt lat="44.31345992156436" lon="7.6995270716972515"><ele>707.0</ele><time>2026-04-23T17:17:27.998Z</time></trkpt><trkpt lat="44.313429682105706" lon="7.699385211979779"><ele>707.0</ele><time>2026-04-23T17:17:28.998Z</time></trkpt><trkpt lat="44.31339127307422" lon="7.699249037787187"><ele>707.0</ele><time>2026-04-23T17:17:29.998Z</time></trkpt><trkpt lat="44.313364433391264" lon="7.6991064177912465"><ele>707.0</ele><time>2026-04-23T17:17:30.998Z</time></trkpt><trkpt lat="44.31334231734474" lon="7.698962652279569"><ele>706.25</ele><time>2026-04-23T17:17:32Z</time></trkpt><trkpt lat="44.31332011324681" lon="7.698813167934232"><ele>705.5</ele><time>2026-04-23T17:17:33Z</time></trkpt><trkpt lat="44.31330605910284" lon="7.698653442513284"><ele>704.75</ele><time>2026-04-23T17:17:34Z</time></trkpt><trkpt lat="44.313307914693645" lon="7.698486239975326"><ele>704.0</ele><time>2026-04-23T17:17:35Z</time></trkpt><trkpt lat="44.313309027278265" lon="7.698315183484322"><ele>704.0</ele><time>2026-04-23T17:17:36Z</time></trkpt><trkpt lat="44.31331220870339" lon="7.6981467843784435"><ele>704.0</ele><time>2026-04-23T17:17:37Z</time></trkpt><trkpt lat="44.31331593109031" lon="7.697978088374642"><ele>704.0</ele><time>2026-04-23T17:17:38Z</time></trkpt><trkpt lat="44.313325795398576" lon="7.697816609195737"><ele>704.0</ele><time>2026-04-23T17:17:39Z</time></trkpt><trkpt lat="44.313338413346095" lon="7.6976549011675015"><ele>701.75</ele><time>2026-04-23T17:17:40Z</time></trkpt><trkpt lat="44.31336418196955" lon="7.697494620937887"><ele>699.5</ele><time>2026-04-23T17:17:41Z</time></trkpt><trkpt lat="44.313398951728196" lon="7.697331046129852"><ele>697.25</ele><time>2026-04-23T17:17:42Z</time></trkpt><trkpt lat="44.31345061263417" lon="7.697160906616243"><ele>695.0</ele><time>2026-04-23T17:17:43Z</time></trkpt><trkpt lat="44.31350928314788" lon="7.696981095233712"><ele>693.3333333333333</ele><time>2026-04-23T17:17:44Z</time></trkpt><trkpt lat="44.313575155195544" lon="7.6967729288064515"><ele>691.6666666666666</ele><time>2026-04-23T17:17:45Z</time></trkpt><trkpt lat="44.31364565232153" lon="7.696558865090647"><ele>690.0</ele><time>2026-04-23T17:17:46Z</time></trkpt><trkpt lat="44.31372132494336" lon="7.696330732170675"><ele>689.3333333333334</ele><time>2026-04-23T17:17:47Z</time></trkpt><trkpt lat="44.31380196172499" lon="7.696085444970219"><ele>688.6666666666667</ele><time>2026-04-23T17:17:48Z</time></trkpt><trkpt lat="44.31387957491994" lon="7.695853688283978"><ele>688.0</ele><time>2026-04-23T17:17:49Z</time></trkpt><trkpt lat="44.31395711358813" lon="7.6956250495205065"><ele>688.0</ele><time>2026-04-23T17:17:50Z</time></trkpt><trkpt lat="44.314034110084904" lon="7.695397435744908"><ele>688.0</ele><time>2026-04-23T17:17:51Z</time></trkpt><trkpt lat="44.314109002829824" lon="7.695170740266083"><ele>688.0</ele><time>2026-04-23T17:17:52Z</time></trkpt><trkpt lat="44.314184292607436" lon="7.694956368867993"><ele>684.6666666666667</ele><time>2026-04-23T17:17:53Z</time></trkpt><trkpt lat="44.31425902976589" lon="7.694729429314026"><ele>681.3333333333334</ele><time>2026-04-23T17:17:54Z</time></trkpt><trkpt lat="44.314339479890585" lon="7.694499449777872"><ele>678.0</ele><time>2026-04-23T17:17:55Z</time></trkpt><trkpt lat="44.31441563088426" lon="7.694272190753912"><ele>677.3333333333334</ele><time>2026-04-23T17:17:56Z</time></trkpt><trkpt lat="44.314478797770725" lon="7.694062591244368"><ele>676.6666666666667</ele><time>2026-04-23T17:17:57Z</time></trkpt><trkpt lat="44.31454327951314" lon="7.693860247449143"><ele>676.0</ele><time>2026-04-23T17:17:58Z</time></trkpt><trkpt lat="44.31460748106463" lon="7.693649865666998"><ele>677.6666666666667</ele><time>2026-04-23T17:17:59Z</time></trkpt><trkpt lat="44.31466635036246" lon="7.693441088260713"><ele>679.3333333333334</ele><time>2026-04-23T17:18:00Z</time></trkpt><trkpt lat="44.314726750020334" lon="7.693219808997937"><ele>681.0</ele><time>2026-04-23T17:18:01Z</time></trkpt><trkpt lat="44.31478299481503" lon="7.693016282910902"><ele>679.25</ele><time>2026-04-23T17:18:02Z</time></trkpt><trkpt lat="44.314857219958235" lon="7.692824365474474"><ele>677.5</ele><time>2026-04-23T17:18:03Z</time></trkpt><trkpt lat="44.31490924466533" lon="7.692643836759916"><ele>675.75</ele><time>2026-04-23T17:18:04Z</time></trkpt><trkpt lat="44.31495442383793" lon="7.6924775700581565"><ele>674.0</ele><time>2026-04-23T17:18:05Z</time></trkpt><trkpt lat="44.315007864370166" lon="7.692307134166782"><ele>674.0</ele><time>2026-04-23T17:18:06Z</time></trkpt><trkpt lat="44.31505727504409" lon="7.692147011585804"><ele>674.0</ele><time>2026-04-23T17:18:07Z</time></trkpt><trkpt lat="44.315122352472194" lon="7.691989420146866"><ele>674.0</ele><time>2026-04-23T17:18:08Z</time></trkpt><trkpt lat="44.315191395224794" lon="7.691853500022107"><ele>674.0</ele><time>2026-04-23T17:18:09Z</time></trkpt><trkpt lat="44.315270864877526" lon="7.691725255383003"><ele>674.25</ele><time>2026-04-23T17:18:10Z</time></trkpt><trkpt lat="44.315369510725326" lon="7.69159087456979"><ele>674.5</ele><time>2026-04-23T17:18:11Z</time></trkpt><trkpt lat="44.315475819443655" lon="7.6914652169293545"><ele>674.75</ele><time>2026-04-23T17:18:12Z</time></trkpt><trkpt lat="44.31558373805544" lon="7.691349478696833"><ele>675.0</ele><time>2026-04-23T17:18:13Z</time></trkpt><trkpt lat="44.31569671031144" lon="7.691231538741939"><ele>674.0</ele><time>2026-04-23T17:18:13.999Z</time></trkpt><trkpt lat="44.31579427842039" lon="7.691122369656431"><ele>673.0</ele><time>2026-04-23T17:18:14.999Z</time></trkpt><trkpt lat="44.315890197589106" lon="7.691027628497174"><ele>672.0</ele><time>2026-04-23T17:18:15.999Z</time></trkpt><trkpt lat="44.31599066808031" lon="7.690925010518574"><ele>671.0</ele><time>2026-04-23T17:18:16.999Z</time></trkpt><trkpt lat="44.31607843519736" lon="7.690831018140779"><ele>671.0</ele><time>2026-04-23T17:18:17.999Z</time></trkpt><trkpt lat="44.316162913109245" lon="7.690739714845809"><ele>671.0</ele><time>2026-04-23T17:18:18.999Z</time></trkpt><trkpt lat="44.31623695080006" lon="7.690642079283228"><ele>671.0</ele><time>2026-04-23T17:18:19.999Z</time></trkpt><trkpt lat="44.316298764427266" lon="7.690529193982786"><ele>671.0</ele><time>2026-04-23T17:18:20.999Z</time></trkpt><trkpt lat="44.316358041719354" lon="7.690403171530699"><ele>671.0</ele><time>2026-04-23T17:18:21.999Z</time></trkpt><trkpt lat="44.31640436322125" lon="7.690247406974015"><ele>669.75</ele><time>2026-04-23T17:18:22.999Z</time></trkpt><trkpt lat="44.316438545251835" lon="7.690079415708086"><ele>668.5</ele><time>2026-04-23T17:18:23.999Z</time></trkpt><trkpt lat="44.31645514393363" lon="7.68989693645531"><ele>667.25</ele><time>2026-04-23T17:18:24.999Z</time></trkpt><trkpt lat="44.316477820824865" lon="7.689722900338193"><ele>666.0</ele><time>2026-04-23T17:18:25.999Z</time></trkpt><trkpt lat="44.316493111255504" lon="7.6895436345469355"><ele>663.75</ele><time>2026-04-23T17:18:26.999Z</time></trkpt><trkpt lat="44.316511339158254" lon="7.689364934237809"><ele>661.5</ele><time>2026-04-23T17:18:27.999Z</time></trkpt><trkpt lat="44.316521631280004" lon="7.689198308484831"><ele>659.25</ele><time>2026-04-23T17:18:28.999Z</time></trkpt><trkpt lat="44.31652707376735" lon="7.6890383683475365"><ele>657.0</ele><time>2026-04-23T17:18:29.999Z</time></trkpt><trkpt lat="44.316541226035476" lon="7.688879649030104"><ele>657.0</ele><time>2026-04-23T17:18:30.999Z</time></trkpt><trkpt lat="44.316552834442625" lon="7.688727282568703"><ele>657.0</ele><time>2026-04-23T17:18:31.999Z</time></trkpt><trkpt lat="44.31656339677199" lon="7.688574230070042"><ele>657.0</ele><time>2026-04-23T17:18:32.999Z</time></trkpt><trkpt lat="44.31657695129008" lon="7.688428218361802"><ele>657.0</ele><time>2026-04-23T17:18:33.999Z</time></trkpt><trkpt lat="44.316582679852836" lon="7.6882860299377285"><ele>657.0</ele><time>2026-04-23T17:18:34.999Z</time></trkpt><trkpt lat="44.31658991343211" lon="7.688152998500626"><ele>655.1666666666666</ele><time>2026-04-23T17:18:35.999Z</time></trkpt><trkpt lat="44.3165958059291" lon="7.688041409115212"><ele>653.3333333333334</ele><time>2026-04-23T17:18:36.999Z</time></trkpt><trkpt lat="44.3166009915931" lon="7.687949051930215"><ele>651.5</ele><time>2026-04-23T17:18:37.999Z</time></trkpt><trkpt lat="44.31661804116633" lon="7.687836037119051"><ele>649.6666666666667</ele><time>2026-04-23T17:18:38.999Z</time></trkpt><trkpt lat="44.316660066238384" lon="7.687742249841048"><ele>647.8333333333334</ele><time>2026-04-23T17:18:39.999Z</time></trkpt><trkpt lat="44.316724916382775" lon="7.6876584851038"><ele>646.0</ele><time>2026-04-23T17:18:40.999Z</time></trkpt><trkpt lat="44.3168231342847" lon="7.687616271320137"><ele>641.0</ele><time>2026-04-23T17:18:41.999Z</time></trkpt><trkpt lat="44.316922738995885" lon="7.68756711556652"><ele>636.0</ele><time>2026-04-23T17:18:42.999Z</time></trkpt><trkpt lat="44.31703093026158" lon="7.687494023876499"><ele>631.0</ele><time>2026-04-23T17:18:43.999Z</time></trkpt><trkpt lat="44.31713525337066" lon="7.6873974239524685"><ele>626.0</ele><time>2026-04-23T17:18:44.999Z</time></trkpt><trkpt lat="44.31723394274677" lon="7.687277495196972"><ele>622.75</ele><time>2026-04-23T17:18:45.999Z</time></trkpt><trkpt lat="44.317329967020235" lon="7.687141882270846"><ele>619.5</ele><time>2026-04-23T17:18:46.999Z</time></trkpt><trkpt lat="44.31741666921276" lon="7.68701183524806"><ele>616.25</ele><time>2026-04-23T17:18:47.999Z</time></trkpt><trkpt lat="44.317500708467115" lon="7.6868855567694"><ele>613.0</ele><time>2026-04-23T17:18:48.999Z</time></trkpt><trkpt lat="44.317584095416564" lon="7.686769804663736"><ele>613.0</ele><time>2026-04-23T17:18:49.999Z</time></trkpt><trkpt lat="44.31767707467679" lon="7.686667739160454"><ele>613.0</ele><time>2026-04-23T17:18:50.999Z</time></trkpt><trkpt lat="44.317782938321834" lon="7.686576623243008"><ele>613.0</ele><time>2026-04-23T17:18:51.999Z</time></trkpt><trkpt lat="44.31791762751146" lon="7.686497648914085"><ele>613.0</ele><time>2026-04-23T17:18:52.999Z</time></trkpt><trkpt lat="44.318045232814846" lon="7.686426881421238"><ele>616.5</ele><time>2026-04-23T17:18:53.999Z</time></trkpt><trkpt lat="44.31817259715239" lon="7.68636152950972"><ele>620.0</ele><time>2026-04-23T17:18:54.999Z</time></trkpt><trkpt lat="44.31829662959148" lon="7.686272126319443"><ele>623.5</ele><time>2026-04-23T17:18:55.999Z</time></trkpt><trkpt lat="44.31841844463368" lon="7.686187029802921"><ele>627.0</ele><time>2026-04-23T17:18:56.999Z</time></trkpt><trkpt lat="44.31854959409598" lon="7.686122823508967"><ele>621.75</ele><time>2026-04-23T17:18:57.999Z</time></trkpt><trkpt lat="44.31866814924334" lon="7.686031090298139"><ele>616.5</ele><time>2026-04-23T17:18:58.999Z</time></trkpt><trkpt lat="44.31878184624702" lon="7.685946643542851"><ele>611.25</ele><time>2026-04-23T17:18:59.999Z</time></trkpt><trkpt lat="44.318878151890196" lon="7.6858736862433785"><ele>606.0</ele><time>2026-04-23T17:19:00.999Z</time></trkpt><trkpt lat="44.318980582767864" lon="7.6857951475912305"><ele>606.0</ele><time>2026-04-23T17:19:01.999Z</time></trkpt><trkpt lat="44.31908296636881" lon="7.685718936063495"><ele>606.0</ele><time>2026-04-23T17:19:02.999Z</time></trkpt><trkpt lat="44.319188887412025" lon="7.685641753773173"><ele>606.0</ele><time>2026-04-23T17:19:03.999Z</time></trkpt><trkpt lat="44.31928344390049" lon="7.685564752772053"><ele>606.0</ele><time>2026-04-23T17:19:04.999Z</time></trkpt><trkpt lat="44.319381839548164" lon="7.685476630681112"><ele>606.0</ele><time>2026-04-23T17:19:05.999Z</time></trkpt><trkpt lat="44.31947769778646" lon="7.6854064546733145"><ele>606.0</ele><time>2026-04-23T17:19:06.999Z</time></trkpt><trkpt lat="44.31956940351179" lon="7.685346650428114"><ele>606.0</ele><time>2026-04-23T17:19:07.999Z</time></trkpt><trkpt lat="44.31965544343294" lon="7.685275964230998"><ele>606.0</ele><time>2026-04-23T17:19:08.999Z</time></trkpt><trkpt lat="44.31975206078973" lon="7.6852013205122685"><ele>606.0</ele><time>2026-04-23T17:19:09.999Z</time></trkpt><trkpt lat="44.31984902489084" lon="7.685104854968085"><ele>603.25</ele><time>2026-04-23T17:19:10.999Z</time></trkpt><trkpt lat="44.31993915215373" lon="7.6849965169066845"><ele>600.5</ele><time>2026-04-23T17:19:11.999Z</time></trkpt><trkpt lat="44.32003196615665" lon="7.684892051380825"><ele>597.75</ele><time>2026-04-23T17:19:12.999Z</time></trkpt><trkpt lat="44.32012588342104" lon="7.6847836386722745"><ele>595.0</ele><time>2026-04-23T17:19:13.998Z</time></trkpt><trkpt lat="44.32021965054211" lon="7.684674451245934"><ele>595.0</ele><time>2026-04-23T17:19:14.998Z</time></trkpt><trkpt lat="44.32030270409906" lon="7.684569176154035"><ele>595.0</ele><time>2026-04-23T17:19:15.998Z</time></trkpt><trkpt lat="44.32039510489458" lon="7.684488078188656"><ele>595.0</ele><time>2026-04-23T17:19:16.998Z</time></trkpt><trkpt lat="44.32047577740404" lon="7.684406771043088"><ele>595.0</ele><time>2026-04-23T17:19:17.998Z</time></trkpt><trkpt lat="44.32055404780855" lon="7.68433622311969"><ele>595.0</ele><time>2026-04-23T17:19:18.998Z</time></trkpt><trkpt lat="44.32061769327943" lon="7.684297952432036"><ele>594.4</ele><time>2026-04-23T17:19:19.998Z</time></trkpt><trkpt lat="44.32067056803574" lon="7.684245978570902"><ele>593.8</ele><time>2026-04-23T17:19:20.998Z</time></trkpt><trkpt lat="44.320750560036764" lon="7.6841963594337095"><ele>593.2</ele><time>2026-04-23T17:19:22.998Z</time></trkpt><trkpt lat="44.32075605388332" lon="7.683932742408251"><ele>592.6</ele><time>2026-04-23T17:19:25.998Z</time></trkpt><trkpt lat="44.32073863935382" lon="7.683827876941592"><ele>592.0</ele><time>2026-04-23T17:19:26.998Z</time></trkpt><trkpt lat="44.32074280832455" lon="7.683718163575601"><ele>592.0</ele><time>2026-04-23T17:19:27.998Z</time></trkpt><trkpt lat="44.32073742654375" lon="7.683601194470015"><ele>592.0</ele><time>2026-04-23T17:19:28.998Z</time></trkpt><trkpt lat="44.32074262352971" lon="7.683495050624791"><ele>592.0</ele><time>2026-04-23T17:19:29.998Z</time></trkpt><trkpt lat="44.32073921215979" lon="7.683401552672532"><ele>592.0</ele><time>2026-04-23T17:19:30.998Z</time></trkpt><trkpt lat="44.320739840667926" lon="7.68330244788241"><ele>592.0</ele><time>2026-04-23T17:19:31.998Z</time></trkpt><trkpt lat="44.32074728818577" lon="7.683197984522791"><ele>592.0</ele><time>2026-04-23T17:19:32.998Z</time></trkpt><trkpt lat="44.32074215356249" lon="7.683086785780007"><ele>590.3333333333334</ele><time>2026-04-23T17:19:33.998Z</time></trkpt><trkpt lat="44.32072669798858" lon="7.682968543517364"><ele>588.6666666666667</ele><time>2026-04-23T17:19:34.998Z</time></trkpt><trkpt lat="44.320713622753395" lon="7.682840419225616"><ele>587.0</ele><time>2026-04-23T17:19:35.998Z</time></trkpt><trkpt lat="44.32069451407648" lon="7.68272371109045"><ele>585.3333333333334</ele><time>2026-04-23T17:19:36.998Z</time></trkpt><trkpt lat="44.32067119502791" lon="7.6825948263299875"><ele>583.6666666666666</ele><time>2026-04-23T17:19:38Z</time></trkpt><trkpt lat="44.32065531102789" lon="7.682479621207595"><ele>582.0</ele><time>2026-04-23T17:19:39Z</time></trkpt><trkpt lat="44.320643449583834" lon="7.682372030628976"><ele>581.8000000000001</ele><time>2026-04-23T17:19:40Z</time></trkpt><trkpt lat="44.32063037379109" lon="7.68226062390488"><ele>581.6</ele><time>2026-04-23T17:19:41Z</time></trkpt><trkpt lat="44.32061675578545" lon="7.682135508378423"><ele>581.4000000000001</ele><time>2026-04-23T17:19:42Z</time></trkpt><trkpt lat="44.32059905912361" lon="7.682025056765879"><ele>581.2</ele><time>2026-04-23T17:19:43Z</time></trkpt><trkpt lat="44.32058437217838" lon="7.681939191675153"><ele>581.0</ele><time>2026-04-23T17:19:44Z</time></trkpt><trkpt lat="44.32055248524537" lon="7.681757088768992"><ele>581.5</ele><time>2026-04-23T17:19:46Z</time></trkpt><trkpt lat="44.320538566160096" lon="7.681631752430575"><ele>582.0</ele><time>2026-04-23T17:19:47Z</time></trkpt><trkpt lat="44.320523502352565" lon="7.681530803812899"><ele>582.5</ele><time>2026-04-23T17:19:48Z</time></trkpt><trkpt lat="44.32051142294884" lon="7.681405708877763"><ele>583.0</ele><time>2026-04-23T17:19:49Z</time></trkpt><trkpt lat="44.320502488283346" lon="7.681276972544086"><ele>583.5</ele><time>2026-04-23T17:19:50Z</time></trkpt><trkpt lat="44.320494924952285" lon="7.681158508587469"><ele>584.0</ele><time>2026-04-23T17:19:51Z</time></trkpt><trkpt lat="44.32048552962165" lon="7.681046037706308"><ele>584.1666666666666</ele><time>2026-04-23T17:19:52Z</time></trkpt><trkpt lat="44.32047054360801" lon="7.68092961023591"><ele>584.3333333333333</ele><time>2026-04-23T17:19:53Z</time></trkpt><trkpt lat="44.320456556184574" lon="7.680831792315232"><ele>584.5</ele><time>2026-04-23T17:19:54Z</time></trkpt><trkpt lat="44.32044558349212" lon="7.6807239132500715"><ele>584.6666666666666</ele><time>2026-04-23T17:19:55Z</time></trkpt><trkpt lat="44.32043857864808" lon="7.6806355703411215"><ele>584.8333333333334</ele><time>2026-04-23T17:19:56Z</time></trkpt><trkpt lat="44.32042606156306" lon="7.680547637849355"><ele>585.0</ele><time>2026-04-23T17:19:57Z</time></trkpt><trkpt lat="44.32041291439936" lon="7.680379815718914"><ele>585.0</ele><time>2026-04-23T17:19:59Z</time></trkpt><trkpt lat="44.32041142240767" lon="7.6802886330292965"><ele>585.0</ele><time>2026-04-23T17:20:00Z</time></trkpt><trkpt lat="44.32041940882222" lon="7.680154224864517"><ele>585.0</ele><time>2026-04-23T17:20:02Z</time></trkpt><trkpt lat="44.32047594171973" lon="7.679978352995335"><ele>585.0</ele><time>2026-04-23T17:20:04Z</time></trkpt><trkpt lat="44.320497979889495" lon="7.679853241054464"><ele>585.0</ele><time>2026-04-23T17:20:05Z</time></trkpt><trkpt lat="44.3205258538929" lon="7.6797321247696475"><ele>585.1428571428571</ele><time>2026-04-23T17:20:06Z</time></trkpt><trkpt lat="44.32055100727311" lon="7.679627688824762"><ele>585.2857142857142</ele><time>2026-04-23T17:20:07Z</time></trkpt><trkpt lat="44.32057804076734" lon="7.679537223955529"><ele>585.4285714285713</ele><time>2026-04-23T17:20:08Z</time></trkpt><trkpt lat="44.320598626652036" lon="7.679446152734266"><ele>585.5714285714286</ele><time>2026-04-23T17:20:09Z</time></trkpt><trkpt lat="44.32061702118887" lon="7.679361336956191"><ele>585.7142857142857</ele><time>2026-04-23T17:20:10Z</time></trkpt><trkpt lat="44.32065024913887" lon="7.679240500817811"><ele>585.8571428571428</ele><time>2026-04-23T17:20:12Z</time></trkpt><trkpt lat="44.3206454547293" lon="7.679150167432433"><ele>586.0</ele><time>2026-04-23T17:20:14Z</time></trkpt><trkpt lat="44.32063969825178" lon="7.679057668033357"><ele>585.6666666666667</ele><time>2026-04-23T17:20:17Z</time></trkpt><trkpt lat="44.32062430302805" lon="7.678971581994314"><ele>585.3333333333334</ele><time>2026-04-23T17:20:19Z</time></trkpt><trkpt lat="44.3206245652785" lon="7.678810357316901"><ele>585.0</ele><time>2026-04-23T17:20:21Z</time></trkpt><trkpt lat="44.32063238921353" lon="7.678707106424696"><ele>584.6666666666666</ele><time>2026-04-23T17:20:21.999Z</time></trkpt><trkpt lat="44.32063741034035" lon="7.678614463980124"><ele>584.3333333333333</ele><time>2026-04-23T17:20:22.999Z</time></trkpt><trkpt lat="44.32063836067581" lon="7.678516919937639"><ele>584.0</ele><time>2026-04-23T17:20:23.999Z</time></trkpt><trkpt lat="44.32063040660995" lon="7.678397760521279"><ele>584.0</ele><time>2026-04-23T17:20:24.999Z</time></trkpt><trkpt lat="44.32062821781858" lon="7.678289500120619"><ele>584.0</ele><time>2026-04-23T17:20:25.999Z</time></trkpt><trkpt lat="44.320677182508646" lon="7.67812415950074"><ele>584.0</ele><time>2026-04-23T17:20:27.999Z</time></trkpt><trkpt lat="44.32074116391382" lon="7.677973941886822"><ele>584.0</ele><time>2026-04-23T17:20:29.999Z</time></trkpt><trkpt lat="44.32078118995801" lon="7.677904108317141"><ele>584.0</ele><time>2026-04-23T17:20:30.999Z</time></trkpt><trkpt lat="44.32082557185524" lon="7.677841425571216"><ele>585.2</ele><time>2026-04-23T17:20:31.999Z</time></trkpt><trkpt lat="44.320923803956354" lon="7.677740893856368"><ele>586.4</ele><time>2026-04-23T17:20:33.999Z</time></trkpt><trkpt lat="44.32098657772913" lon="7.677596610566082"><ele>587.6</ele><time>2026-04-23T17:20:35.999Z</time></trkpt><trkpt lat="44.32100042206101" lon="7.6774943488343235"><ele>588.8</ele><time>2026-04-23T17:20:36.999Z</time></trkpt><trkpt lat="44.32101691411902" lon="7.677401655335837"><ele>590.0</ele><time>2026-04-23T17:20:37.999Z</time></trkpt><trkpt lat="44.32100842184485" lon="7.67723439467362"><ele>590.0</ele><time>2026-04-23T17:20:39.999Z</time></trkpt><trkpt lat="44.32097689653117" lon="7.677153302196116"><ele>590.0</ele><time>2026-04-23T17:20:40.999Z</time></trkpt><trkpt lat="44.32094991289686" lon="7.677059379927435"><ele>590.0</ele><time>2026-04-23T17:20:41.999Z</time></trkpt><trkpt lat="44.32090146766501" lon="7.676915692875371"><ele>590.0</ele><time>2026-04-23T17:20:43.999Z</time></trkpt><trkpt lat="44.32087216615302" lon="7.676818214787055"><ele>590.0</ele><time>2026-04-23T17:20:45.999Z</time></trkpt><trkpt lat="44.3208773659122" lon="7.676723935963254"><ele>590.0</ele><time>2026-04-23T17:20:53.999Z</time></trkpt><trkpt lat="44.320956079245754" lon="7.676667400896428"><ele>590.4</ele><time>2026-04-23T17:20:54.999Z</time></trkpt><trkpt lat="44.321068047191645" lon="7.676596420616228"><ele>590.8</ele><time>2026-04-23T17:20:56.999Z</time></trkpt><trkpt lat="44.32115162560157" lon="7.676545439510951"><ele>591.2</ele><time>2026-04-23T17:20:57.999Z</time></trkpt><trkpt lat="44.321235575460065" lon="7.676479326688093"><ele>591.6</ele><time>2026-04-23T17:20:58.999Z</time></trkpt><trkpt lat="44.32130736103339" lon="7.676429724915849"><ele>592.0</ele><time>2026-04-23T17:20:59.999Z</time></trkpt><trkpt lat="44.32137036597252" lon="7.67639066654488"><ele>591.6666666666667</ele><time>2026-04-23T17:21:00.999Z</time></trkpt><trkpt lat="44.32144437711172" lon="7.67631442135845"><ele>591.3333333333334</ele><time>2026-04-23T17:21:01.999Z</time></trkpt><trkpt lat="44.32151992363841" lon="7.676280724171365"><ele>591.0</ele><time>2026-04-23T17:21:02.999Z</time></trkpt><trkpt lat="44.321587902512626" lon="7.676226989725696"><ele>590.6666666666666</ele><time>2026-04-23T17:21:03.999Z</time></trkpt><trkpt lat="44.32166204504721" lon="7.676168383184068"><ele>590.3333333333333</ele><time>2026-04-23T17:21:04.999Z</time></trkpt><trkpt lat="44.32174572004802" lon="7.676084733329072"><ele>590.0</ele><time>2026-04-23T17:21:05.999Z</time></trkpt><trkpt lat="44.32182911480526" lon="7.676015423826899"><ele>590.0</ele><time>2026-04-23T17:21:06.999Z</time></trkpt><trkpt lat="44.32189981664304" lon="7.675962435974443"><ele>590.0</ele><time>2026-04-23T17:21:07.999Z</time></trkpt><trkpt lat="44.321980925180426" lon="7.675905508525048"><ele>590.0</ele><time>2026-04-23T17:21:08.999Z</time></trkpt><trkpt lat="44.32207090009157" lon="7.675838575231059"><ele>590.0</ele><time>2026-04-23T17:21:09.999Z</time></trkpt><trkpt lat="44.322148020654836" lon="7.675777981654972"><ele>590.0</ele><time>2026-04-23T17:21:10.999Z</time></trkpt><trkpt lat="44.3222204548623" lon="7.675721155929742"><ele>590.0</ele><time>2026-04-23T17:21:11.999Z</time></trkpt><trkpt lat="44.32229204615109" lon="7.675656478547095"><ele>590.0</ele><time>2026-04-23T17:21:12.999Z</time></trkpt><trkpt lat="44.32236555921651" lon="7.675588739652225"><ele>590.0</ele><time>2026-04-23T17:21:13.999Z</time></trkpt><trkpt lat="44.322444323421664" lon="7.675512416305664"><ele>590.0</ele><time>2026-04-23T17:21:14.999Z</time></trkpt><trkpt lat="44.322513118995815" lon="7.6754323528918755"><ele>590.0</ele><time>2026-04-23T17:21:15.999Z</time></trkpt><trkpt lat="44.32259111955292" lon="7.675342784101513"><ele>590.0</ele><time>2026-04-23T17:21:16.999Z</time></trkpt><trkpt lat="44.32266268297012" lon="7.675251729707201"><ele>589.6</ele><time>2026-04-23T17:21:17.999Z</time></trkpt><trkpt lat="44.32273391720374" lon="7.6751723813956145"><ele>589.2</ele><time>2026-04-23T17:21:18.999Z</time></trkpt><trkpt lat="44.322799554603826" lon="7.675089282624005"><ele>588.8</ele><time>2026-04-23T17:21:19.999Z</time></trkpt><trkpt lat="44.32286527251475" lon="7.674997833067033"><ele>588.4</ele><time>2026-04-23T17:21:20.999Z</time></trkpt><trkpt lat="44.322933059417885" lon="7.674914663681417"><ele>588.0</ele><time>2026-04-23T17:21:21.998Z</time></trkpt><trkpt lat="44.32299598123349" lon="7.674825918920801"><ele>588.0</ele><time>2026-04-23T17:21:22.998Z</time></trkpt><trkpt lat="44.32306346196551" lon="7.674736429669882"><ele>588.0</ele><time>2026-04-23T17:21:23.998Z</time></trkpt><trkpt lat="44.32312761989608" lon="7.674662719898097"><ele>588.0</ele><time>2026-04-23T17:21:24.998Z</time></trkpt><trkpt lat="44.323195360213894" lon="7.674576631690232"><ele>588.0</ele><time>2026-04-23T17:21:25.998Z</time></trkpt><trkpt lat="44.32326844717235" lon="7.6744880916561415"><ele>588.0</ele><time>2026-04-23T17:21:26.998Z</time></trkpt><trkpt lat="44.32334773018089" lon="7.674397520880912"><ele>588.1999999999999</ele><time>2026-04-23T17:21:27.998Z</time></trkpt><trkpt lat="44.3234232016755" lon="7.6742999181024505"><ele>588.4</ele><time>2026-04-23T17:21:28.998Z</time></trkpt><trkpt lat="44.323505388544376" lon="7.674227044572236"><ele>588.5999999999999</ele><time>2026-04-23T17:21:29.998Z</time></trkpt><trkpt lat="44.323584421016164" lon="7.674134454218454"><ele>588.8</ele><time>2026-04-23T17:21:30.998Z</time></trkpt><trkpt lat="44.323649519253316" lon="7.67405131653385"><ele>589.0</ele><time>2026-04-23T17:21:31.998Z</time></trkpt><trkpt lat="44.32371837583926" lon="7.673955146382406"><ele>589.0</ele><time>2026-04-23T17:21:32.998Z</time></trkpt><trkpt lat="44.32380055912179" lon="7.673859490286018"><ele>589.0</ele><time>2026-04-23T17:21:33.998Z</time></trkpt><trkpt lat="44.32386818234796" lon="7.6737732181427"><ele>589.0</ele><time>2026-04-23T17:21:34.998Z</time></trkpt><trkpt lat="44.323940130076984" lon="7.673684765697582"><ele>589.0</ele><time>2026-04-23T17:21:35.998Z</time></trkpt><trkpt lat="44.32400650416919" lon="7.673607814742198"><ele>589.0</ele><time>2026-04-23T17:21:36.998Z</time></trkpt><trkpt lat="44.32406666968512" lon="7.673544023382043"><ele>588.5</ele><time>2026-04-23T17:21:37.998Z</time></trkpt><trkpt lat="44.324139218177805" lon="7.673440977660852"><ele>588.0</ele><time>2026-04-23T17:21:39.998Z</time></trkpt><trkpt lat="44.32420093398072" lon="7.673379278966638"><ele>587.5</ele><time>2026-04-23T17:21:47Z</time></trkpt><trkpt lat="44.32424931179028" lon="7.673321915458773"><ele>587.0</ele><time>2026-04-23T17:22:01Z</time></trkpt><trkpt lat="44.32410534326231" lon="7.6730435052843635"><ele>587.0</ele><time>2026-04-23T17:22:02Z</time></trkpt><trkpt lat="44.32416311839651" lon="7.672945728622562"><ele>587.0</ele><time>2026-04-23T17:22:04Z</time></trkpt><trkpt lat="44.32425596412193" lon="7.672872087105959"><ele>587.0</ele><time>2026-04-23T17:22:06Z</time></trkpt><trkpt lat="44.32431227134764" lon="7.672823225226347"><ele>587.0</ele><time>2026-04-23T17:22:07Z</time></trkpt><trkpt lat="44.32438471433158" lon="7.672752643774852"><ele>587.0</ele><time>2026-04-23T17:22:08Z</time></trkpt><trkpt lat="44.32445844967721" lon="7.6726852266064745"><ele>587.0</ele><time>2026-04-23T17:22:09Z</time></trkpt><trkpt lat="44.32452382702928" lon="7.672627273523833"><ele>586.2</ele><time>2026-04-23T17:22:10Z</time></trkpt><trkpt lat="44.32459543359292" lon="7.672557401934493"><ele>585.4000000000001</ele><time>2026-04-23T17:22:11Z</time></trkpt><trkpt lat="44.32466884861931" lon="7.672490128385351"><ele>584.5999999999999</ele><time>2026-04-23T17:22:12Z</time></trkpt><trkpt lat="44.324762395369675" lon="7.672410084031174"><ele>583.8</ele><time>2026-04-23T17:22:13Z</time></trkpt><trkpt lat="44.324868827311604" lon="7.672321827281758"><ele>583.0</ele><time>2026-04-23T17:22:14Z</time></trkpt><trkpt lat="44.32496107596932" lon="7.672241462260116"><ele>583.0</ele><time>2026-04-23T17:22:15Z</time></trkpt><trkpt lat="44.325050171715546" lon="7.6721733210836"><ele>583.0</ele><time>2026-04-23T17:22:16Z</time></trkpt><trkpt lat="44.32513485349554" lon="7.672111558003168"><ele>583.0</ele><time>2026-04-23T17:22:17Z</time></trkpt><trkpt lat="44.325224621960025" lon="7.672048754231319"><ele>583.0</ele><time>2026-04-23T17:22:18Z</time></trkpt><trkpt lat="44.32531488730445" lon="7.671986942895366"><ele>583.0</ele><time>2026-04-23T17:22:19Z</time></trkpt><trkpt lat="44.32540743484427" lon="7.671932155747906"><ele>583.0</ele><time>2026-04-23T17:22:20Z</time></trkpt><trkpt lat="44.32550432881036" lon="7.67187475639591"><ele>583.0</ele><time>2026-04-23T17:22:21Z</time></trkpt><trkpt lat="44.32559860042909" lon="7.671818798879968"><ele>583.0</ele><time>2026-04-23T17:22:22Z</time></trkpt><trkpt lat="44.32568869449005" lon="7.671777600415152"><ele>583.0</ele><time>2026-04-23T17:22:23Z</time></trkpt><trkpt lat="44.32577891165719" lon="7.671736206649586"><ele>583.0</ele><time>2026-04-23T17:22:24Z</time></trkpt><trkpt lat="44.32587196984568" lon="7.67169526809276"><ele>582.6</ele><time>2026-04-23T17:22:25Z</time></trkpt><trkpt lat="44.32596991782152" lon="7.671656150844804"><ele>582.1999999999999</ele><time>2026-04-23T17:22:26Z</time></trkpt><trkpt lat="44.32606349694833" lon="7.6716215281131"><ele>581.8</ele><time>2026-04-23T17:22:27Z</time></trkpt><trkpt lat="44.32616175086641" lon="7.671576993592436"><ele>581.4</ele><time>2026-04-23T17:22:28Z</time></trkpt><trkpt lat="44.32625864211547" lon="7.671530107896571"><ele>581.0</ele><time>2026-04-23T17:22:28.999Z</time></trkpt><trkpt lat="44.326368339860075" lon="7.671489119813585"><ele>580.8</ele><time>2026-04-23T17:22:29.999Z</time></trkpt><trkpt lat="44.326480309091195" lon="7.671444009982612"><ele>580.6</ele><time>2026-04-23T17:22:30.999Z</time></trkpt><trkpt lat="44.32658004900218" lon="7.67140646383026"><ele>580.4</ele><time>2026-04-23T17:22:31.999Z</time></trkpt><trkpt lat="44.32668145135796" lon="7.6713664635439285"><ele>580.2</ele><time>2026-04-23T17:22:32.999Z</time></trkpt><trkpt lat="44.3267897631784" lon="7.671323840092303"><ele>580.0</ele><time>2026-04-23T17:22:33.999Z</time></trkpt><trkpt lat="44.32689858203507" lon="7.671286455166203"><ele>580.0</ele><time>2026-04-23T17:22:34.999Z</time></trkpt><trkpt lat="44.326997306739585" lon="7.671249495642676"><ele>580.0</ele><time>2026-04-23T17:22:35.999Z</time></trkpt><trkpt lat="44.327088681211166" lon="7.671214183169365"><ele>580.0</ele><time>2026-04-23T17:22:36.999Z</time></trkpt><trkpt lat="44.327186101381635" lon="7.671182283991825"><ele>580.0</ele><time>2026-04-23T17:22:37.999Z</time></trkpt><trkpt lat="44.32727713610537" lon="7.671144415480278"><ele>580.0</ele><time>2026-04-23T17:22:38.999Z</time></trkpt><trkpt lat="44.32737037341599" lon="7.671107159885513"><ele>579.2</ele><time>2026-04-23T17:22:39.999Z</time></trkpt><trkpt lat="44.3274741797287" lon="7.671070212400211"><ele>578.4</ele><time>2026-04-23T17:22:40.999Z</time></trkpt><trkpt lat="44.32756745795014" lon="7.671026593094069"><ele>577.6</ele><time>2026-04-23T17:22:41.999Z</time></trkpt><trkpt lat="44.327660448465764" lon="7.670988317592847"><ele>576.8</ele><time>2026-04-23T17:22:42.999Z</time></trkpt><trkpt lat="44.327736074328094" lon="7.670935564850974"><ele>576.0</ele><time>2026-04-23T17:22:43.999Z</time></trkpt><trkpt lat="44.32782193578085" lon="7.670881612002743"><ele>576.0</ele><time>2026-04-23T17:22:44.999Z</time></trkpt><trkpt lat="44.32791615837839" lon="7.67081230738567"><ele>576.0</ele><time>2026-04-23T17:22:45.999Z</time></trkpt><trkpt lat="44.32802428259166" lon="7.670717232204297"><ele>576.0</ele><time>2026-04-23T17:22:46.999Z</time></trkpt><trkpt lat="44.32812537609623" lon="7.670616725484347"><ele>576.0</ele><time>2026-04-23T17:22:47.999Z</time></trkpt><trkpt lat="44.32821013116463" lon="7.670517088347405"><ele>576.0</ele><time>2026-04-23T17:22:48.999Z</time></trkpt><trkpt lat="44.32829463107333" lon="7.67040522572696"><ele>576.0</ele><time>2026-04-23T17:22:49.999Z</time></trkpt><trkpt lat="44.32838505400183" lon="7.6702898388018"><ele>576.0</ele><time>2026-04-23T17:22:50.999Z</time></trkpt><trkpt lat="44.32846342488531" lon="7.670179626280056"><ele>576.0</ele><time>2026-04-23T17:22:51.999Z</time></trkpt><trkpt lat="44.32853720945565" lon="7.67007454657596"><ele>575.5</ele><time>2026-04-23T17:22:52.999Z</time></trkpt><trkpt lat="44.32860961163451" lon="7.669964637003529"><ele>575.0</ele><time>2026-04-23T17:22:53.999Z</time></trkpt><trkpt lat="44.32868917709915" lon="7.669844699367138"><ele>574.5</ele><time>2026-04-23T17:22:54.999Z</time></trkpt><trkpt lat="44.328774438232145" lon="7.669721453027357"><ele>574.0</ele><time>2026-04-23T17:22:55.999Z</time></trkpt><trkpt lat="44.32885253640977" lon="7.669599686159762"><ele>573.6</ele><time>2026-04-23T17:22:56.999Z</time></trkpt><trkpt lat="44.32892995818581" lon="7.669486239233551"><ele>573.2</ele><time>2026-04-23T17:22:57.999Z</time></trkpt><trkpt lat="44.329002256243975" lon="7.669371693229115"><ele>572.8000000000001</ele><time>2026-04-23T17:22:58.999Z</time></trkpt><trkpt lat="44.32907237456477" lon="7.669256776272177"><ele>572.4</ele><time>2026-04-23T17:22:59.999Z</time></trkpt><trkpt lat="44.32914084102322" lon="7.669151297809704"><ele>572.0</ele><time>2026-04-23T17:23:00.999Z</time></trkpt><trkpt lat="44.32921745897605" lon="7.669039563798523"><ele>572.0</ele><time>2026-04-23T17:23:01.999Z</time></trkpt><trkpt lat="44.32929079174306" lon="7.6689339051466625"><ele>572.0</ele><time>2026-04-23T17:23:02.999Z</time></trkpt><trkpt lat="44.32935903168582" lon="7.668815696369474"><ele>572.0</ele><time>2026-04-23T17:23:03.999Z</time></trkpt><trkpt lat="44.32941833867444" lon="7.668699913065899"><ele>572.0</ele><time>2026-04-23T17:23:04.999Z</time></trkpt><trkpt lat="44.32947270170651" lon="7.66859911086745"><ele>572.0</ele><time>2026-04-23T17:23:05.999Z</time></trkpt><trkpt lat="44.32952618043149" lon="7.668487872125874"><ele>572.2</ele><time>2026-04-23T17:23:06.999Z</time></trkpt><trkpt lat="44.32957373971439" lon="7.668366552111048"><ele>572.4000000000001</ele><time>2026-04-23T17:23:07.999Z</time></trkpt><trkpt lat="44.32962142712976" lon="7.6682304827608"><ele>572.5999999999999</ele><time>2026-04-23T17:23:08.999Z</time></trkpt><trkpt lat="44.32966320022473" lon="7.668080508761548"><ele>572.8</ele><time>2026-04-23T17:23:09.999Z</time></trkpt><trkpt lat="44.32970911288673" lon="7.667920811815326"><ele>573.0</ele><time>2026-04-23T17:23:10.999Z</time></trkpt><trkpt lat="44.32975644613103" lon="7.667747331925866"><ele>572.0</ele><time>2026-04-23T17:23:11.999Z</time></trkpt><trkpt lat="44.32979544077292" lon="7.667563496919991"><ele>571.0</ele><time>2026-04-23T17:23:12.999Z</time></trkpt><trkpt lat="44.329829669840514" lon="7.667366003515162"><ele>570.0</ele><time>2026-04-23T17:23:13.999Z</time></trkpt><trkpt lat="44.32985917456827" lon="7.667158680788463"><ele>569.0</ele><time>2026-04-23T17:23:14.999Z</time></trkpt><trkpt lat="44.329880759753664" lon="7.666938680310438"><ele>568.0</ele><time>2026-04-23T17:23:15.999Z</time></trkpt><trkpt lat="44.32991807382082" lon="7.6667037361628205"><ele>567.0</ele><time>2026-04-23T17:23:16.999Z</time></trkpt><trkpt lat="44.32992626333103" lon="7.6664717084076965"><ele>566.0</ele><time>2026-04-23T17:23:17.999Z</time></trkpt><trkpt lat="44.32992644163201" lon="7.666226031829924"><ele>566.0</ele><time>2026-04-23T17:23:18.999Z</time></trkpt><trkpt lat="44.329915758342075" lon="7.6659711206754855"><ele>566.0</ele><time>2026-04-23T17:23:19.999Z</time></trkpt><trkpt lat="44.329891800699826" lon="7.6657146027542415"><ele>566.0</ele><time>2026-04-23T17:23:20.999Z</time></trkpt><trkpt lat="44.32985845560221" lon="7.665452679654961"><ele>566.0</ele><time>2026-04-23T17:23:21.999Z</time></trkpt><trkpt lat="44.32982086906933" lon="7.665180554339176"><ele>566.0</ele><time>2026-04-23T17:23:22.999Z</time></trkpt><trkpt lat="44.32978754951226" lon="7.6649001277601245"><ele>566.0</ele><time>2026-04-23T17:23:23.999Z</time></trkpt><trkpt lat="44.32975481261524" lon="7.664619631757836"><ele>565.6666666666666</ele><time>2026-04-23T17:23:24.999Z</time></trkpt><trkpt lat="44.3297148118847" lon="7.664324378913197"><ele>565.3333333333334</ele><time>2026-04-23T17:23:25.999Z</time></trkpt><trkpt lat="44.32967298162151" lon="7.664030011629187"><ele>565.0</ele><time>2026-04-23T17:23:26.999Z</time></trkpt><trkpt lat="44.32963198857485" lon="7.663720387554566"><ele>565.0</ele><time>2026-04-23T17:23:27.999Z</time></trkpt><trkpt lat="44.32959128167898" lon="7.663410852140948"><ele>565.0</ele><time>2026-04-23T17:23:28.998Z</time></trkpt><trkpt lat="44.329552749255356" lon="7.663115763262928"><ele>565.0</ele><time>2026-04-23T17:23:29.998Z</time></trkpt><trkpt lat="44.3295175891017" lon="7.662838307450476"><ele>565.0</ele><time>2026-04-23T17:23:30.998Z</time></trkpt><trkpt lat="44.32948414777313" lon="7.662550871089444"><ele>565.0</ele><time>2026-04-23T17:23:31.998Z</time></trkpt><trkpt lat="44.32944905067112" lon="7.662272903910338"><ele>565.0</ele><time>2026-04-23T17:23:32.998Z</time></trkpt><trkpt lat="44.32941337347191" lon="7.661995182166038"><ele>563.6666666666667</ele><time>2026-04-23T17:23:33.998Z</time></trkpt><trkpt lat="44.32937747345505" lon="7.661720131469269"><ele>562.3333333333334</ele><time>2026-04-23T17:23:34.998Z</time></trkpt><trkpt lat="44.32934154216508" lon="7.661444507421614"><ele>561.0</ele><time>2026-04-23T17:23:35.998Z</time></trkpt><trkpt lat="44.329302573566366" lon="7.661166984043581"><ele>561.0</ele><time>2026-04-23T17:23:36.998Z</time></trkpt><trkpt lat="44.329265641237804" lon="7.660891608624121"><ele>561.0</ele><time>2026-04-23T17:23:37.998Z</time></trkpt><trkpt lat="44.329230467607246" lon="7.66061212390503"><ele>561.0</ele><time>2026-04-23T17:23:38.998Z</time></trkpt><trkpt lat="44.329197937170534" lon="7.660331146732463"><ele>561.0</ele><time>2026-04-23T17:23:39.998Z</time></trkpt><trkpt lat="44.3291565568218" lon="7.660056133910515"><ele>561.0</ele><time>2026-04-23T17:23:40.998Z</time></trkpt><trkpt lat="44.32911947514504" lon="7.659779534182616"><ele>561.0</ele><time>2026-04-23T17:23:41.998Z</time></trkpt><trkpt lat="44.329086890014025" lon="7.659493880009547"><ele>561.0</ele><time>2026-04-23T17:23:42.998Z</time></trkpt><trkpt lat="44.32905015270953" lon="7.659213743898323"><ele>561.0</ele><time>2026-04-23T17:23:43.998Z</time></trkpt><trkpt lat="44.32900952153707" lon="7.658936951878315"><ele>561.0</ele><time>2026-04-23T17:23:44.998Z</time></trkpt><trkpt lat="44.32897186169627" lon="7.658659256329388"><ele>560.3333333333334</ele><time>2026-04-23T17:23:45.998Z</time></trkpt><trkpt lat="44.3289341873455" lon="7.658371032776718"><ele>559.6666666666667</ele><time>2026-04-23T17:23:46.998Z</time></trkpt><trkpt lat="44.328901210167466" lon="7.658084902909865"><ele>559.0</ele><time>2026-04-23T17:23:47.998Z</time></trkpt><trkpt lat="44.32886255897693" lon="7.657800483719214"><ele>558.3333333333334</ele><time>2026-04-23T17:23:48.998Z</time></trkpt><trkpt lat="44.328826148098585" lon="7.6575243180480275"><ele>557.6666666666666</ele><time>2026-04-23T17:23:50Z</time></trkpt><trkpt lat="44.32879241863921" lon="7.657247791135636"><ele>557.0</ele><time>2026-04-23T17:23:51Z</time></trkpt><trkpt lat="44.3287609965795" lon="7.656988814379351"><ele>556.6666666666666</ele><time>2026-04-23T17:23:52Z</time></trkpt><trkpt lat="44.328728391466434" lon="7.656740457716011"><ele>556.3333333333334</ele><time>2026-04-23T17:23:53Z</time></trkpt><trkpt lat="44.328695141186095" lon="7.656483400750564"><ele>556.0</ele><time>2026-04-23T17:23:54Z</time></trkpt><trkpt lat="44.328662868278826" lon="7.656229527832815"><ele>556.3333333333334</ele><time>2026-04-23T17:23:55Z</time></trkpt><trkpt lat="44.32862966875414" lon="7.655975156819965"><ele>556.6666666666666</ele><time>2026-04-23T17:23:56Z</time></trkpt><trkpt lat="44.32860039335159" lon="7.6557185170102535"><ele>557.0</ele><time>2026-04-23T17:23:57Z</time></trkpt><trkpt lat="44.32856891794162" lon="7.655466956077338"><ele>557.0</ele><time>2026-04-23T17:23:58Z</time></trkpt><trkpt lat="44.3285395182344" lon="7.65521186614661"><ele>557.0</ele><time>2026-04-23T17:23:59Z</time></trkpt><trkpt lat="44.328506941688794" lon="7.654966544789575"><ele>557.0</ele><time>2026-04-23T17:24:00Z</time></trkpt><trkpt lat="44.328475974515015" lon="7.654726982834778"><ele>557.0</ele><time>2026-04-23T17:24:01Z</time></trkpt><trkpt lat="44.32844735738076" lon="7.654491554191265"><ele>557.0</ele><time>2026-04-23T17:24:02Z</time></trkpt><trkpt lat="44.32841524929499" lon="7.654251360275597"><ele>557.0</ele><time>2026-04-23T17:24:03Z</time></trkpt><trkpt lat="44.3283810068396" lon="7.654023434233546"><ele>557.0</ele><time>2026-04-23T17:24:04Z</time></trkpt><trkpt lat="44.32835121606872" lon="7.653807481380018"><ele>557.0</ele><time>2026-04-23T17:24:05Z</time></trkpt><trkpt lat="44.32831732193246" lon="7.65359752684224"><ele>557.0</ele><time>2026-04-23T17:24:06Z</time></trkpt><trkpt lat="44.32828753326743" lon="7.653374239527429"><ele>557.3333333333333</ele><time>2026-04-23T17:24:07Z</time></trkpt><trkpt lat="44.328257846167716" lon="7.6531568113033"><ele>557.6666666666666</ele><time>2026-04-23T17:24:08Z</time></trkpt><trkpt lat="44.32822978555465" lon="7.6529358937982686"><ele>558.0</ele><time>2026-04-23T17:24:09Z</time></trkpt><trkpt lat="44.328217224705504" lon="7.652711700203021"><ele>559.0</ele><time>2026-04-23T17:24:10Z</time></trkpt><trkpt lat="44.328174639060016" lon="7.652500013392992"><ele>560.0</ele><time>2026-04-23T17:24:11Z</time></trkpt><trkpt lat="44.328152871363905" lon="7.6522800653256295"><ele>561.0</ele><time>2026-04-23T17:24:12Z</time></trkpt><trkpt lat="44.32812473859285" lon="7.652064480527895"><ele>562.0</ele><time>2026-04-23T17:24:13Z</time></trkpt><trkpt lat="44.32810020919073" lon="7.651843878336431"><ele>563.0</ele><time>2026-04-23T17:24:14Z</time></trkpt><trkpt lat="44.32807470404237" lon="7.651621163781463"><ele>564.0</ele><time>2026-04-23T17:24:15Z</time></trkpt><trkpt lat="44.32804550841405" lon="7.651400528551143"><ele>566.0</ele><time>2026-04-23T17:24:16Z</time></trkpt><trkpt lat="44.32801698286784" lon="7.651178269507489"><ele>568.0</ele><time>2026-04-23T17:24:17Z</time></trkpt><trkpt lat="44.3279858061087" lon="7.650954126109404"><ele>570.0</ele><time>2026-04-23T17:24:18Z</time></trkpt><trkpt lat="44.32795437882978" lon="7.650731122331665"><ele>570.0</ele><time>2026-04-23T17:24:19Z</time></trkpt><trkpt lat="44.32792680804129" lon="7.650504525571975"><ele>570.0</ele><time>2026-04-23T17:24:20Z</time></trkpt><trkpt lat="44.32790114956842" lon="7.650279348409242"><ele>570.0</ele><time>2026-04-23T17:24:21Z</time></trkpt><trkpt lat="44.327879063521344" lon="7.650052229989384"><ele>571.0</ele><time>2026-04-23T17:24:22Z</time></trkpt><trkpt lat="44.327850938642605" lon="7.649831958175116"><ele>572.0</ele><time>2026-04-23T17:24:23Z</time></trkpt><trkpt lat="44.327823955801236" lon="7.649609860533218"><ele>573.0</ele><time>2026-04-23T17:24:24Z</time></trkpt><trkpt lat="44.327794016959935" lon="7.649390769123969"><ele>574.0</ele><time>2026-04-23T17:24:25Z</time></trkpt><trkpt lat="44.327764358684895" lon="7.6491739292359915"><ele>575.0</ele><time>2026-04-23T17:24:26Z</time></trkpt><trkpt lat="44.32773352659894" lon="7.648955670849516"><ele>576.0</ele><time>2026-04-23T17:24:27Z</time></trkpt><trkpt lat="44.327700219624596" lon="7.64874151136773"><ele>575.3333333333334</ele><time>2026-04-23T17:24:28Z</time></trkpt><trkpt lat="44.32766798761494" lon="7.6485221444004265"><ele>574.6666666666667</ele><time>2026-04-23T17:24:29Z</time></trkpt><trkpt lat="44.32763566004355" lon="7.648305076214573"><ele>574.0</ele><time>2026-04-23T17:24:30Z</time></trkpt><trkpt lat="44.32762340653035" lon="7.648085158456173"><ele>574.0</ele><time>2026-04-23T17:24:31Z</time></trkpt><trkpt lat="44.327577667106404" lon="7.647869299291608"><ele>574.0</ele><time>2026-04-23T17:24:32Z</time></trkpt><trkpt lat="44.32753967701822" lon="7.647657467670216"><ele>574.0</ele><time>2026-04-23T17:24:33Z</time></trkpt><trkpt lat="44.327493381570584" lon="7.647443523509282"><ele>573.0</ele><time>2026-04-23T17:24:34Z</time></trkpt><trkpt lat="44.32744190804788" lon="7.647237706103194"><ele>572.0</ele><time>2026-04-23T17:24:34.999Z</time></trkpt><trkpt lat="44.327394212573516" lon="7.647044646312567"><ele>571.0</ele><time>2026-04-23T17:24:35.999Z</time></trkpt><trkpt lat="44.32734114680721" lon="7.6468504290463875"><ele>571.0</ele><time>2026-04-23T17:24:36.999Z</time></trkpt><trkpt lat="44.32730636965084" lon="7.6466478406261285"><ele>571.0</ele><time>2026-04-23T17:24:37.999Z</time></trkpt><trkpt lat="44.32725802942642" lon="7.646459530723165"><ele>571.0</ele><time>2026-04-23T17:24:38.999Z</time></trkpt><trkpt lat="44.32721135203227" lon="7.646276296443015"><ele>571.0</ele><time>2026-04-23T17:24:39.999Z</time></trkpt><trkpt lat="44.32716251691846" lon="7.646084592335511"><ele>573.25</ele><time>2026-04-23T17:24:40.999Z</time></trkpt><trkpt lat="44.32711650718337" lon="7.645903979029686"><ele>575.5</ele><time>2026-04-23T17:24:41.999Z</time></trkpt><trkpt lat="44.32706852205634" lon="7.6457176528178845"><ele>577.75</ele><time>2026-04-23T17:24:42.999Z</time></trkpt><trkpt lat="44.32702230169414" lon="7.645541117007217"><ele>580.0</ele><time>2026-04-23T17:24:43.999Z</time></trkpt><trkpt lat="44.32698073079654" lon="7.645372430869719"><ele>578.75</ele><time>2026-04-23T17:24:44.999Z</time></trkpt><trkpt lat="44.326946071378295" lon="7.64520853651948"><ele>577.5</ele><time>2026-04-23T17:24:45.999Z</time></trkpt><trkpt lat="44.32691618342797" lon="7.64503270935586"><ele>576.25</ele><time>2026-04-23T17:24:46.999Z</time></trkpt><trkpt lat="44.32689491749112" lon="7.644855440288494"><ele>575.0</ele><time>2026-04-23T17:24:47.999Z</time></trkpt><trkpt lat="44.32687970889238" lon="7.644672023014148"><ele>575.0</ele><time>2026-04-23T17:24:48.999Z</time></trkpt><trkpt lat="44.32687115103035" lon="7.644478340696899"><ele>575.0</ele><time>2026-04-23T17:24:49.999Z</time></trkpt><trkpt lat="44.32686894738424" lon="7.6442864820011"><ele>575.0</ele><time>2026-04-23T17:24:50.999Z</time></trkpt><trkpt lat="44.326877074487776" lon="7.644082230260138"><ele>575.0</ele><time>2026-04-23T17:24:51.999Z</time></trkpt><trkpt lat="44.326895094420976" lon="7.643872137723156"><ele>573.0</ele><time>2026-04-23T17:24:52.999Z</time></trkpt><trkpt lat="44.32691854525382" lon="7.643656331636533"><ele>571.0</ele><time>2026-04-23T17:24:53.999Z</time></trkpt><trkpt lat="44.3269455173152" lon="7.643432036870761"><ele>569.0</ele><time>2026-04-23T17:24:54.999Z</time></trkpt><trkpt lat="44.326976264703895" lon="7.6431933690610565"><ele>567.6666666666666</ele><time>2026-04-23T17:24:55.999Z</time></trkpt><trkpt lat="44.3270080672139" lon="7.642946511369362"><ele>566.3333333333334</ele><time>2026-04-23T17:24:56.999Z</time></trkpt><trkpt lat="44.32704058280722" lon="7.6426911638679424"><ele>565.0</ele><time>2026-04-23T17:24:57.999Z</time></trkpt><trkpt lat="44.3270739680608" lon="7.642426002964381"><ele>564.0</ele><time>2026-04-23T17:24:58.999Z</time></trkpt><trkpt lat="44.327107064363375" lon="7.642163137684863"><ele>563.0</ele><time>2026-04-23T17:24:59.999Z</time></trkpt><trkpt lat="44.327141173046805" lon="7.641892230708366"><ele>562.0</ele><time>2026-04-23T17:25:00.999Z</time></trkpt><trkpt lat="44.32717536159261" lon="7.641618126767486"><ele>562.0</ele><time>2026-04-23T17:25:01.999Z</time></trkpt><trkpt lat="44.32721156731035" lon="7.641336942052389"><ele>562.0</ele><time>2026-04-23T17:25:02.999Z</time></trkpt><trkpt lat="44.32724602719531" lon="7.641064650374098"><ele>562.0</ele><time>2026-04-23T17:25:03.999Z</time></trkpt><trkpt lat="44.32727805559277" lon="7.640805637119516"><ele>561.6666666666667</ele><time>2026-04-23T17:25:04.999Z</time></trkpt><trkpt lat="44.32730829463702" lon="7.640561094249431"><ele>561.3333333333334</ele><time>2026-04-23T17:25:05.999Z</time></trkpt><trkpt lat="44.32733779097534" lon="7.64032255740258"><ele>561.0</ele><time>2026-04-23T17:25:06.999Z</time></trkpt><trkpt lat="44.327353539870295" lon="7.640079967382188"><ele>561.0</ele><time>2026-04-23T17:25:07.999Z</time></trkpt><trkpt lat="44.3273852776079" lon="7.639850408800399"><ele>561.0</ele><time>2026-04-23T17:25:08.999Z</time></trkpt><trkpt lat="44.32743910829551" lon="7.639635526181851"><ele>561.0</ele><time>2026-04-23T17:25:09.999Z</time></trkpt><trkpt lat="44.32748754531175" lon="7.639421168456615"><ele>562.0</ele><time>2026-04-23T17:25:10.999Z</time></trkpt><trkpt lat="44.32754263884968" lon="7.63921685262294"><ele>563.0</ele><time>2026-04-23T17:25:11.999Z</time></trkpt><trkpt lat="44.32761207299119" lon="7.639010056293322"><ele>564.0</ele><time>2026-04-23T17:25:12.999Z</time></trkpt><trkpt lat="44.32769270695958" lon="7.638806473550413"><ele>564.3333333333334</ele><time>2026-04-23T17:25:13.999Z</time></trkpt><trkpt lat="44.32777898204494" lon="7.638628706244466"><ele>564.6666666666667</ele><time>2026-04-23T17:25:14.999Z</time></trkpt><trkpt lat="44.32788115865721" lon="7.638451805298341"><ele>565.0</ele><time>2026-04-23T17:25:15.999Z</time></trkpt><trkpt lat="44.32799100584615" lon="7.6382661293303915"><ele>565.3333333333334</ele><time>2026-04-23T17:25:16.999Z</time></trkpt><trkpt lat="44.32810211884545" lon="7.638081155979528"><ele>565.6666666666666</ele><time>2026-04-23T17:25:17.999Z</time></trkpt><trkpt lat="44.32821459061604" lon="7.6378939206977"><ele>566.0</ele><time>2026-04-23T17:25:18.999Z</time></trkpt><trkpt lat="44.328329101629386" lon="7.637703290436209"><ele>566.0</ele><time>2026-04-23T17:25:19.999Z</time></trkpt><trkpt lat="44.32843978449687" lon="7.637514957950044"><ele>566.0</ele><time>2026-04-23T17:25:20.999Z</time></trkpt><trkpt lat="44.328545237213156" lon="7.637320131807659"><ele>566.0</ele><time>2026-04-23T17:25:21.999Z</time></trkpt><trkpt lat="44.32864793548104" lon="7.63711506665011"><ele>566.3333333333333</ele><time>2026-04-23T17:25:22.999Z</time></trkpt><trkpt lat="44.328748387176475" lon="7.6368992091350725"><ele>566.6666666666666</ele><time>2026-04-23T17:25:23.999Z</time></trkpt><trkpt lat="44.32884582779005" lon="7.636668990347906"><ele>567.0</ele><time>2026-04-23T17:25:24.999Z</time></trkpt><trkpt lat="44.32893817577486" lon="7.636434312376662"><ele>567.0</ele><time>2026-04-23T17:25:25.999Z</time></trkpt><trkpt lat="44.32902332743723" lon="7.636188760495532"><ele>567.0</ele><time>2026-04-23T17:25:26.999Z</time></trkpt><trkpt lat="44.32908450076289" lon="7.635930713232601"><ele>567.0</ele><time>2026-04-23T17:25:27.999Z</time></trkpt><trkpt lat="44.3291577543056" lon="7.635681007922729"><ele>567.3333333333334</ele><time>2026-04-23T17:25:28.999Z</time></trkpt><trkpt lat="44.32923419585256" lon="7.635415307517405"><ele>567.6666666666667</ele><time>2026-04-23T17:25:29.999Z</time></trkpt><trkpt lat="44.329325113106826" lon="7.635161628282076"><ele>568.0</ele><time>2026-04-23T17:25:30.999Z</time></trkpt><trkpt lat="44.329402145745384" lon="7.634895494616042"><ele>568.0</ele><time>2026-04-23T17:25:31.999Z</time></trkpt><trkpt lat="44.32948143099228" lon="7.634621578897819"><ele>568.0</ele><time>2026-04-23T17:25:32.999Z</time></trkpt><trkpt lat="44.3295623989629" lon="7.634341596742351"><ele>568.0</ele><time>2026-04-23T17:25:33.998Z</time></trkpt><trkpt lat="44.329645009320544" lon="7.634055578802851"><ele>568.0</ele><time>2026-04-23T17:25:34.998Z</time></trkpt><trkpt lat="44.32972519554533" lon="7.63377795393684"><ele>568.0</ele><time>2026-04-23T17:25:35.998Z</time></trkpt><trkpt lat="44.32978659895495" lon="7.63351179789655"><ele>568.0</ele><time>2026-04-23T17:25:36.998Z</time></trkpt><trkpt lat="44.32985918872881" lon="7.633272447705637"><ele>568.0</ele><time>2026-04-23T17:25:37.998Z</time></trkpt><trkpt lat="44.32992745690462" lon="7.633042872974496"><ele>568.0</ele><time>2026-04-23T17:25:38.998Z</time></trkpt><trkpt lat="44.329991629479636" lon="7.6328186318419196"><ele>568.0</ele><time>2026-04-23T17:25:39.998Z</time></trkpt><trkpt lat="44.33005727629382" lon="7.632588603512872"><ele>568.3333333333334</ele><time>2026-04-23T17:25:40.998Z</time></trkpt><trkpt lat="44.33011897824682" lon="7.632360661801404"><ele>568.6666666666666</ele><time>2026-04-23T17:25:41.998Z</time></trkpt><trkpt lat="44.33017657906199" lon="7.632132664911418"><ele>569.0</ele><time>2026-04-23T17:25:42.998Z</time></trkpt><trkpt lat="44.33024272463578" lon="7.631912335892946"><ele>569.0</ele><time>2026-04-23T17:25:43.998Z</time></trkpt><trkpt lat="44.330270728997434" lon="7.631672439103484"><ele>569.0</ele><time>2026-04-23T17:25:44.998Z</time></trkpt><trkpt lat="44.33030859598883" lon="7.631427185146415"><ele>569.0</ele><time>2026-04-23T17:25:45.998Z</time></trkpt><trkpt lat="44.33032986717418" lon="7.631199349318308"><ele>569.3333333333333</ele><time>2026-04-23T17:25:46.998Z</time></trkpt><trkpt lat="44.33035038100749" lon="7.6309666886500915"><ele>569.6666666666666</ele><time>2026-04-23T17:25:47.998Z</time></trkpt><trkpt lat="44.330365104888756" lon="7.6307338907489175"><ele>570.0</ele><time>2026-04-23T17:25:48.998Z</time></trkpt><trkpt lat="44.330371433782766" lon="7.6305047271756745"><ele>571.0</ele><time>2026-04-23T17:25:49.998Z</time></trkpt><trkpt lat="44.33037893245695" lon="7.630276064240614"><ele>572.0</ele><time>2026-04-23T17:25:50.998Z</time></trkpt><trkpt lat="44.330380637948494" lon="7.630048924343135"><ele>573.0</ele><time>2026-04-23T17:25:51.998Z</time></trkpt><trkpt lat="44.330396109641335" lon="7.629833997535814"><ele>573.0</ele><time>2026-04-23T17:25:52.998Z</time></trkpt><trkpt lat="44.330383633642924" lon="7.62961203890325"><ele>573.0</ele><time>2026-04-23T17:25:53.998Z</time></trkpt><trkpt lat="44.3303892392722" lon="7.629402743414917"><ele>573.0</ele><time>2026-04-23T17:25:54.998Z</time></trkpt><trkpt lat="44.33039536088521" lon="7.629195038564051"><ele>573.25</ele><time>2026-04-23T17:25:56Z</time></trkpt><trkpt lat="44.33039533278397" lon="7.628992069180206"><ele>573.5</ele><time>2026-04-23T17:25:57Z</time></trkpt><trkpt lat="44.330396465268066" lon="7.628802035379926"><ele>573.75</ele><time>2026-04-23T17:25:58Z</time></trkpt><trkpt lat="44.33040486831647" lon="7.628614501183966"><ele>574.0</ele><time>2026-04-23T17:25:59Z</time></trkpt><trkpt lat="44.33041222367899" lon="7.628423104734833"><ele>574.0</ele><time>2026-04-23T17:26:00Z</time></trkpt><trkpt lat="44.33041763492075" lon="7.628234041223474"><ele>574.0</ele><time>2026-04-23T17:26:01Z</time></trkpt><trkpt lat="44.330426671035575" lon="7.628040155301842"><ele>574.0</ele><time>2026-04-23T17:26:02Z</time></trkpt><trkpt lat="44.33043177654403" lon="7.627870528676315"><ele>574.0</ele><time>2026-04-23T17:26:03Z</time></trkpt><trkpt lat="44.33043425383181" lon="7.627682035657377"><ele>574.25</ele><time>2026-04-23T17:26:04Z</time></trkpt><trkpt lat="44.330438312732625" lon="7.627497774476116"><ele>574.5</ele><time>2026-04-23T17:26:05Z</time></trkpt><trkpt lat="44.330442339686996" lon="7.627330969658958"><ele>574.75</ele><time>2026-04-23T17:26:06Z</time></trkpt><trkpt lat="44.33044584321991" lon="7.627158537602116"><ele>575.0</ele><time>2026-04-23T17:26:07Z</time></trkpt><trkpt lat="44.33045014159136" lon="7.627004157339816"><ele>575.0</ele><time>2026-04-23T17:26:08Z</time></trkpt><trkpt lat="44.33044777655297" lon="7.6268525877649935"><ele>575.0</ele><time>2026-04-23T17:26:09Z</time></trkpt><trkpt lat="44.33044703472875" lon="7.626698779620966"><ele>575.0</ele><time>2026-04-23T17:26:10Z</time></trkpt><trkpt lat="44.33044688600328" lon="7.626567715325564"><ele>575.0</ele><time>2026-04-23T17:26:11Z</time></trkpt><trkpt lat="44.33044668934768" lon="7.626441494999212"><ele>575.0</ele><time>2026-04-23T17:26:12Z</time></trkpt><trkpt lat="44.330447864477954" lon="7.6263270396370695"><ele>575.0</ele><time>2026-04-23T17:26:13Z</time></trkpt><trkpt lat="44.330453744365435" lon="7.626232577629672"><ele>575.0</ele><time>2026-04-23T17:26:14Z</time></trkpt><trkpt lat="44.33046084841957" lon="7.626108532631347"><ele>575.0</ele><time>2026-04-23T17:26:16Z</time></trkpt><trkpt lat="44.33048251120731" lon="7.6259873750339215"><ele>575.0</ele><time>2026-04-23T17:26:19Z</time></trkpt><trkpt lat="44.330537755512424" lon="7.625820506203294"><ele>575.0</ele><time>2026-04-23T17:26:21Z</time></trkpt><trkpt lat="44.33059471396722" lon="7.625730975483406"><ele>574.4</ele><time>2026-04-23T17:26:22Z</time></trkpt><trkpt lat="44.33066262341103" lon="7.625659258448886"><ele>573.8</ele><time>2026-04-23T17:26:23Z</time></trkpt><trkpt lat="44.33072964769657" lon="7.625598168780387"><ele>573.2</ele><time>2026-04-23T17:26:24Z</time></trkpt><trkpt lat="44.33081149323429" lon="7.625532723271174"><ele>572.6</ele><time>2026-04-23T17:26:25Z</time></trkpt><trkpt lat="44.33091047268851" lon="7.625481758298401"><ele>572.0</ele><time>2026-04-23T17:26:26Z</time></trkpt><trkpt lat="44.33102882792446" lon="7.6254229122374415"><ele>572.0</ele><time>2026-04-23T17:26:27Z</time></trkpt><trkpt lat="44.3311490332176" lon="7.6253620876568915"><ele>572.0</ele><time>2026-04-23T17:26:28Z</time></trkpt><trkpt lat="44.331267868788935" lon="7.6253308422816035"><ele>572.0</ele><time>2026-04-23T17:26:29Z</time></trkpt><trkpt lat="44.33137319228007" lon="7.62526084602583"><ele>572.0</ele><time>2026-04-23T17:26:30Z</time></trkpt><trkpt lat="44.331478861257196" lon="7.625238631265663"><ele>571.6</ele><time>2026-04-23T17:26:31Z</time></trkpt><trkpt lat="44.33157692308606" lon="7.6251958177792565"><ele>571.2</ele><time>2026-04-23T17:26:32Z</time></trkpt><trkpt lat="44.33166639869924" lon="7.625136607914552"><ele>570.8</ele><time>2026-04-23T17:26:33Z</time></trkpt><trkpt lat="44.331769447493514" lon="7.625096751150171"><ele>570.4</ele><time>2026-04-23T17:26:34Z</time></trkpt><trkpt lat="44.33186663212279" lon="7.625056337321006"><ele>570.0</ele><time>2026-04-23T17:26:35Z</time></trkpt><trkpt lat="44.331969395493495" lon="7.625003801096805"><ele>570.0</ele><time>2026-04-23T17:26:36Z</time></trkpt><trkpt lat="44.33206488972668" lon="7.6249499601031605"><ele>570.0</ele><time>2026-04-23T17:26:37Z</time></trkpt><trkpt lat="44.33215460568431" lon="7.624891975245957"><ele>570.0</ele><time>2026-04-23T17:26:38Z</time></trkpt><trkpt lat="44.33223949492114" lon="7.624830059253959"><ele>570.0</ele><time>2026-04-23T17:26:39Z</time></trkpt><trkpt lat="44.33234194467447" lon="7.624761350077982"><ele>570.0</ele><time>2026-04-23T17:26:40Z</time></trkpt><trkpt lat="44.33243472757547" lon="7.624683334619098"><ele>569.8</ele><time>2026-04-23T17:26:40.999Z</time></trkpt><trkpt lat="44.33251987406029" lon="7.624601538646313"><ele>569.6</ele><time>2026-04-23T17:26:41.999Z</time></trkpt><trkpt lat="44.33260669923039" lon="7.624517967959589"><ele>569.4</ele><time>2026-04-23T17:26:42.999Z</time></trkpt><trkpt lat="44.33268336150675" lon="7.624424776494464"><ele>569.2</ele><time>2026-04-23T17:26:43.999Z</time></trkpt><trkpt lat="44.332763832831574" lon="7.624325018094423"><ele>569.0</ele><time>2026-04-23T17:26:44.999Z</time></trkpt><trkpt lat="44.33283262212058" lon="7.6242316119251745"><ele>569.0</ele><time>2026-04-23T17:26:45.999Z</time></trkpt><trkpt lat="44.33290654710107" lon="7.624139124959636"><ele>569.0</ele><time>2026-04-23T17:26:46.999Z</time></trkpt><trkpt lat="44.33298753817625" lon="7.6240370205478625"><ele>569.0</ele><time>2026-04-23T17:26:47.999Z</time></trkpt><trkpt lat="44.333062637925636" lon="7.623911215179842"><ele>569.0</ele><time>2026-04-23T17:26:48.999Z</time></trkpt><trkpt lat="44.33313525193586" lon="7.623814313907179"><ele>569.0</ele><time>2026-04-23T17:26:49.999Z</time></trkpt><trkpt lat="44.333205646028645" lon="7.623720314676298"><ele>567.6</ele><time>2026-04-23T17:26:50.999Z</time></trkpt><trkpt lat="44.33327324654445" lon="7.6236213934450365"><ele>566.2</ele><time>2026-04-23T17:26:51.999Z</time></trkpt><trkpt lat="44.33334726270983" lon="7.623527395310201"><ele>564.8000000000001</ele><time>2026-04-23T17:26:52.999Z</time></trkpt><trkpt lat="44.33341108274711" lon="7.623435059924911"><ele>563.4</ele><time>2026-04-23T17:26:53.999Z</time></trkpt><trkpt lat="44.33347190737413" lon="7.623338658115339"><ele>562.0</ele><time>2026-04-23T17:26:54.999Z</time></trkpt><trkpt lat="44.333530022087764" lon="7.623249287546015"><ele>562.0</ele><time>2026-04-23T17:26:55.999Z</time></trkpt><trkpt lat="44.333597952728034" lon="7.623172763077906"><ele>562.0</ele><time>2026-04-23T17:26:56.999Z</time></trkpt><trkpt lat="44.333676101318595" lon="7.623102638563948"><ele>562.0</ele><time>2026-04-23T17:26:57.999Z</time></trkpt><trkpt lat="44.33377141271929" lon="7.623039733015421"><ele>562.0</ele><time>2026-04-23T17:26:58.999Z</time></trkpt><trkpt lat="44.33386016059221" lon="7.62298190338782"><ele>562.0</ele><time>2026-04-23T17:26:59.999Z</time></trkpt><trkpt lat="44.33395095945294" lon="7.6229373655716115"><ele>561.4</ele><time>2026-04-23T17:27:00.999Z</time></trkpt><trkpt lat="44.334047248697765" lon="7.622899251269063"><ele>560.8000000000001</ele><time>2026-04-23T17:27:01.999Z</time></trkpt><trkpt lat="44.334146556398686" lon="7.622857435937116"><ele>560.2</ele><time>2026-04-23T17:27:02.999Z</time></trkpt><trkpt lat="44.33424981882293" lon="7.622824559901808"><ele>559.6</ele><time>2026-04-23T17:27:03.999Z</time></trkpt><trkpt lat="44.3343629728906" lon="7.622804849784572"><ele>559.0</ele><time>2026-04-23T17:27:04.999Z</time></trkpt><trkpt lat="44.334469389841175" lon="7.6227994857751895"><ele>559.0</ele><time>2026-04-23T17:27:05.999Z</time></trkpt><trkpt lat="44.33457108026923" lon="7.6228011883816"><ele>559.0</ele><time>2026-04-23T17:27:06.999Z</time></trkpt><trkpt lat="44.33467303731562" lon="7.622816947699199"><ele>559.0</ele><time>2026-04-23T17:27:07.999Z</time></trkpt><trkpt lat="44.334778196940576" lon="7.6228446103705885"><ele>559.0</ele><time>2026-04-23T17:27:08.999Z</time></trkpt><trkpt lat="44.334886660004464" lon="7.6228910197877955"><ele>559.0</ele><time>2026-04-23T17:27:09.999Z</time></trkpt><trkpt lat="44.33498875300106" lon="7.622957971933075"><ele>557.75</ele><time>2026-04-23T17:27:10.999Z</time></trkpt><trkpt lat="44.33508368735431" lon="7.62304119380817"><ele>556.5</ele><time>2026-04-23T17:27:11.999Z</time></trkpt><trkpt lat="44.335166512402544" lon="7.623143580001142"><ele>555.25</ele><time>2026-04-23T17:27:12.999Z</time></trkpt><trkpt lat="44.335264035598634" lon="7.62325911619169"><ele>554.0</ele><time>2026-04-23T17:27:13.999Z</time></trkpt><trkpt lat="44.3353287740221" lon="7.623401204784022"><ele>554.0</ele><time>2026-04-23T17:27:14.999Z</time></trkpt><trkpt lat="44.335416468277955" lon="7.623522249292414"><ele>554.0</ele><time>2026-04-23T17:27:15.999Z</time></trkpt><trkpt lat="44.33552658748851" lon="7.623648874257476"><ele>554.0</ele><time>2026-04-23T17:27:16.999Z</time></trkpt><trkpt lat="44.33565454561432" lon="7.623764308293059"><ele>554.0</ele><time>2026-04-23T17:27:17.999Z</time></trkpt><trkpt lat="44.3357839496455" lon="7.623869988028811"><ele>553.5</ele><time>2026-04-23T17:27:18.999Z</time></trkpt><trkpt lat="44.33591166942611" lon="7.623959093212143"><ele>553.0</ele><time>2026-04-23T17:27:19.999Z</time></trkpt><trkpt lat="44.33604402137966" lon="7.624043539229643"><ele>552.5</ele><time>2026-04-23T17:27:20.999Z</time></trkpt><trkpt lat="44.336172281031935" lon="7.6241145906868155"><ele>552.0</ele><time>2026-04-23T17:27:21.999Z</time></trkpt><trkpt lat="44.336301214054934" lon="7.624179736937984"><ele>553.25</ele><time>2026-04-23T17:27:22.999Z</time></trkpt><trkpt lat="44.33643113324119" lon="7.624232453950497"><ele>554.5</ele><time>2026-04-23T17:27:23.999Z</time></trkpt><trkpt lat="44.33656669012935" lon="7.62428125226198"><ele>555.75</ele><time>2026-04-23T17:27:24.999Z</time></trkpt><trkpt lat="44.33669626333871" lon="7.624313458050909"><ele>557.0</ele><time>2026-04-23T17:27:25.999Z</time></trkpt><trkpt lat="44.33682846509309" lon="7.624327140799133"><ele>557.0</ele><time>2026-04-23T17:27:26.999Z</time></trkpt><trkpt lat="44.336950063330704" lon="7.624341470601852"><ele>557.0</ele><time>2026-04-23T17:27:27.999Z</time></trkpt><trkpt lat="44.337081557837706" lon="7.624345158048953"><ele>557.0</ele><time>2026-04-23T17:27:28.999Z</time></trkpt><trkpt lat="44.33721090611574" lon="7.624332100540156"><ele>557.0</ele><time>2026-04-23T17:27:29.999Z</time></trkpt><trkpt lat="44.33733329829919" lon="7.624305297996744"><ele>555.75</ele><time>2026-04-23T17:27:30.999Z</time></trkpt><trkpt lat="44.33745401810112" lon="7.6242764391907025"><ele>554.5</ele><time>2026-04-23T17:27:31.999Z</time></trkpt><trkpt lat="44.337560903810605" lon="7.624250342600847"><ele>553.25</ele><time>2026-04-23T17:27:32.999Z</time></trkpt><trkpt lat="44.33766667711589" lon="7.624214860294907"><ele>552.0</ele><time>2026-04-23T17:27:33.999Z</time></trkpt><trkpt lat="44.337779086684435" lon="7.6241819640564525"><ele>552.0</ele><time>2026-04-23T17:27:34.999Z</time></trkpt><trkpt lat="44.337901059097696" lon="7.624155397719433"><ele>552.0</ele><time>2026-04-23T17:27:35.999Z</time></trkpt><trkpt lat="44.33800700856225" lon="7.624116522406707"><ele>552.0</ele><time>2026-04-23T17:27:36.999Z</time></trkpt><trkpt lat="44.338115295943425" lon="7.624075009101166"><ele>552.0</ele><time>2026-04-23T17:27:37.999Z</time></trkpt><trkpt lat="44.33821978524457" lon="7.6240370781841875"><ele>550.25</ele><time>2026-04-23T17:27:38.998Z</time></trkpt><trkpt lat="44.33832869208525" lon="7.624000040086154"><ele>548.5</ele><time>2026-04-23T17:27:39.998Z</time></trkpt><trkpt lat="44.33843820382074" lon="7.623970044062455"><ele>546.75</ele><time>2026-04-23T17:27:40.998Z</time></trkpt><trkpt lat="44.33854909271891" lon="7.623933600023105"><ele>545.0</ele><time>2026-04-23T17:27:41.998Z</time></trkpt><trkpt lat="44.338659888049506" lon="7.623896189440844"><ele>545.0</ele><time>2026-04-23T17:27:42.998Z</time></trkpt><trkpt lat="44.338774316152126" lon="7.623863825319405"><ele>545.0</ele><time>2026-04-23T17:27:43.998Z</time></trkpt><trkpt lat="44.33888041381692" lon="7.623831493134394"><ele>545.0</ele><time>2026-04-23T17:27:44.998Z</time></trkpt><trkpt lat="44.33899241868171" lon="7.623802515411609"><ele>545.0</ele><time>2026-04-23T17:27:45.998Z</time></trkpt><trkpt lat="44.339110329350326" lon="7.62376416202445"><ele>544.5</ele><time>2026-04-23T17:27:46.998Z</time></trkpt><trkpt lat="44.339243907812325" lon="7.623720681858206"><ele>544.0</ele><time>2026-04-23T17:27:47.998Z</time></trkpt><trkpt lat="44.33938497874778" lon="7.623671091757235"><ele>543.5</ele><time>2026-04-23T17:27:48.998Z</time></trkpt><trkpt lat="44.33953911964922" lon="7.6236246890213994"><ele>543.0</ele><time>2026-04-23T17:27:49.998Z</time></trkpt><trkpt lat="44.33970238333926" lon="7.623579823270642"><ele>541.6666666666666</ele><time>2026-04-23T17:27:50.998Z</time></trkpt><trkpt lat="44.33987531370882" lon="7.623537479237015"><ele>540.3333333333333</ele><time>2026-04-23T17:27:51.998Z</time></trkpt><trkpt lat="44.340039429287074" lon="7.623494132994392"><ele>539.0</ele><time>2026-04-23T17:27:52.998Z</time></trkpt><trkpt lat="44.34022765544017" lon="7.623453971759667"><ele>539.0</ele><time>2026-04-23T17:27:53.998Z</time></trkpt><trkpt lat="44.340416797386794" lon="7.623412458194029"><ele>539.0</ele><time>2026-04-23T17:27:54.998Z</time></trkpt><trkpt lat="44.34061206986091" lon="7.623375183076158"><ele>539.0</ele><time>2026-04-23T17:27:55.998Z</time></trkpt><trkpt lat="44.340823705858135" lon="7.623338210416561"><ele>538.0</ele><time>2026-04-23T17:27:56.998Z</time></trkpt><trkpt lat="44.34103595402996" lon="7.623307831571413"><ele>537.0</ele><time>2026-04-23T17:27:57.998Z</time></trkpt><trkpt lat="44.34124784111198" lon="7.623277122171124"><ele>536.0</ele><time>2026-04-23T17:27:58.998Z</time></trkpt><trkpt lat="44.34145771148433" lon="7.62325074151938"><ele>534.6666666666666</ele><time>2026-04-23T17:27:59.998Z</time></trkpt><trkpt lat="44.34167374175367" lon="7.623228460700834"><ele>533.3333333333334</ele><time>2026-04-23T17:28:00.998Z</time></trkpt><trkpt lat="44.341878786636016" lon="7.623203202711903"><ele>532.0</ele><time>2026-04-23T17:28:02Z</time></trkpt><trkpt lat="44.34209503283951" lon="7.623176559595173"><ele>531.6666666666667</ele><time>2026-04-23T17:28:03Z</time></trkpt><trkpt lat="44.34231046087816" lon="7.6231501271917494"><ele>531.3333333333334</ele><time>2026-04-23T17:28:04Z</time></trkpt><trkpt lat="44.3425264080316" lon="7.623125586887105"><ele>531.0</ele><time>2026-04-23T17:28:05Z</time></trkpt><trkpt lat="44.34274646553489" lon="7.62309834069189"><ele>531.0</ele><time>2026-04-23T17:28:06Z</time></trkpt><trkpt lat="44.34295640747081" lon="7.6230697880587135"><ele>531.0</ele><time>2026-04-23T17:28:07Z</time></trkpt><trkpt lat="44.34317206072314" lon="7.6230439097168645"><ele>531.0</ele><time>2026-04-23T17:28:08Z</time></trkpt><trkpt lat="44.343382388452795" lon="7.623015626666462"><ele>530.0</ele><time>2026-04-23T17:28:09Z</time></trkpt><trkpt lat="44.343599445953956" lon="7.622990709363061"><ele>529.0</ele><time>2026-04-23T17:28:10Z</time></trkpt><trkpt lat="44.34383294509118" lon="7.622963440921826"><ele>527.5</ele><time>2026-04-23T17:28:11Z</time></trkpt><trkpt lat="44.34406912978019" lon="7.622933775465445"><ele>526.0</ele><time>2026-04-23T17:28:12Z</time></trkpt><trkpt lat="44.34431100237242" lon="7.622904115872634"><ele>526.0</ele><time>2026-04-23T17:28:13Z</time></trkpt><trkpt lat="44.34455956008528" lon="7.6228734287619275"><ele>526.0</ele><time>2026-04-23T17:28:14Z</time></trkpt><trkpt lat="44.34481311429193" lon="7.622846428164309"><ele>524.5</ele><time>2026-04-23T17:28:15Z</time></trkpt><trkpt lat="44.34506194786264" lon="7.6228176212947965"><ele>523.0</ele><time>2026-04-23T17:28:16Z</time></trkpt><trkpt lat="44.34529773677801" lon="7.622792233120772"><ele>523.0</ele><time>2026-04-23T17:28:17Z</time></trkpt><trkpt lat="44.34551982331907" lon="7.622765390324013"><ele>523.0</ele><time>2026-04-23T17:28:18Z</time></trkpt><trkpt lat="44.34573309178078" lon="7.622740131312787"><ele>523.0</ele><time>2026-04-23T17:28:19Z</time></trkpt><trkpt lat="44.345940974363224" lon="7.622720510192135"><ele>522.0</ele><time>2026-04-23T17:28:20Z</time></trkpt><trkpt lat="44.346137674295015" lon="7.622695798574302"><ele>521.0</ele><time>2026-04-23T17:28:21Z</time></trkpt><trkpt lat="44.34632430359594" lon="7.622677564103254"><ele>520.0</ele><time>2026-04-23T17:28:22Z</time></trkpt><trkpt lat="44.34650220197066" lon="7.622665511211959"><ele>519.3333333333334</ele><time>2026-04-23T17:28:23Z</time></trkpt><trkpt lat="44.34667812757145" lon="7.62266167484852"><ele>518.6666666666666</ele><time>2026-04-23T17:28:24Z</time></trkpt><trkpt lat="44.346850030458555" lon="7.62267102418183"><ele>518.0</ele><time>2026-04-23T17:28:25Z</time></trkpt><trkpt lat="44.34704144216716" lon="7.622702812963027"><ele>517.6666666666666</ele><time>2026-04-23T17:28:26Z</time></trkpt><trkpt lat="44.347229239634096" lon="7.622744637171397"><ele>517.3333333333334</ele><time>2026-04-23T17:28:27Z</time></trkpt><trkpt lat="44.347421395453196" lon="7.622805808153594"><ele>517.0</ele><time>2026-04-23T17:28:28Z</time></trkpt><trkpt lat="44.34761095166935" lon="7.622875401397541"><ele>517.0</ele><time>2026-04-23T17:28:29Z</time></trkpt><trkpt lat="44.34779726027607" lon="7.6229555601601815"><ele>517.0</ele><time>2026-04-23T17:28:30Z</time></trkpt><trkpt lat="44.34798810307501" lon="7.623053966052053"><ele>517.0</ele><time>2026-04-23T17:28:31Z</time></trkpt><trkpt lat="44.34817705499703" lon="7.623170035233496"><ele>516.3333333333334</ele><time>2026-04-23T17:28:32Z</time></trkpt><trkpt lat="44.34836902932201" lon="7.623304234949208"><ele>515.6666666666666</ele><time>2026-04-23T17:28:33Z</time></trkpt><trkpt lat="44.34855719329139" lon="7.623459373607517"><ele>515.0</ele><time>2026-04-23T17:28:34Z</time></trkpt><trkpt lat="44.34874601512489" lon="7.6236351786167385"><ele>514.0</ele><time>2026-04-23T17:28:35Z</time></trkpt><trkpt lat="44.348938640675705" lon="7.623819556849386"><ele>513.0</ele><time>2026-04-23T17:28:36Z</time></trkpt><trkpt lat="44.34913229502821" lon="7.624015184296468"><ele>513.0</ele><time>2026-04-23T17:28:37Z</time></trkpt><trkpt lat="44.34933616321523" lon="7.62421281085027"><ele>513.0</ele><time>2026-04-23T17:28:38Z</time></trkpt><trkpt lat="44.349542682816676" lon="7.624414585986809"><ele>512.0</ele><time>2026-04-23T17:28:39Z</time></trkpt><trkpt lat="44.34975263336642" lon="7.624614998624437"><ele>511.0</ele><time>2026-04-23T17:28:40Z</time></trkpt><trkpt lat="44.34996675102983" lon="7.624822772496251"><ele>511.0</ele><time>2026-04-23T17:28:41Z</time></trkpt><trkpt lat="44.3501779342105" lon="7.6250298110723795"><ele>511.0</ele><time>2026-04-23T17:28:42Z</time></trkpt><trkpt lat="44.350392925746455" lon="7.625237221453663"><ele>510.0</ele><time>2026-04-23T17:28:43Z</time></trkpt><trkpt lat="44.35060854963939" lon="7.625451027877855"><ele>509.0</ele><time>2026-04-23T17:28:44Z</time></trkpt><trkpt lat="44.3508026501588" lon="7.625640340636945"><ele>509.0</ele><time>2026-04-23T17:28:44.999Z</time></trkpt><trkpt lat="44.35099298240782" lon="7.625821932082204"><ele>509.0</ele><time>2026-04-23T17:28:45.999Z</time></trkpt><trkpt lat="44.35117891512939" lon="7.626008693450948"><ele>509.0</ele><time>2026-04-23T17:28:46.999Z</time></trkpt><trkpt lat="44.35137012316715" lon="7.626199817106639"><ele>509.0</ele><time>2026-04-23T17:28:47.999Z</time></trkpt><trkpt lat="44.35156179813223" lon="7.626382441396723"><ele>509.0</ele><time>2026-04-23T17:28:48.999Z</time></trkpt><trkpt lat="44.351759069883876" lon="7.626564760542275"><ele>509.0</ele><time>2026-04-23T17:28:49.999Z</time></trkpt><trkpt lat="44.35194256807264" lon="7.626749153163875"><ele>509.0</ele><time>2026-04-23T17:28:50.999Z</time></trkpt><trkpt lat="44.352118693001046" lon="7.6269216076358886"><ele>509.0</ele><time>2026-04-23T17:28:51.999Z</time></trkpt><trkpt lat="44.352290899811635" lon="7.62708487923007"><ele>509.0</ele><time>2026-04-23T17:28:52.999Z</time></trkpt><trkpt lat="44.352464281672844" lon="7.6272576612124965"><ele>508.66666666666663</ele><time>2026-04-23T17:28:53.999Z</time></trkpt><trkpt lat="44.352637292569554" lon="7.627430515365279"><ele>508.33333333333337</ele><time>2026-04-23T17:28:54.999Z</time></trkpt><trkpt lat="44.35281190707388" lon="7.627597801562103"><ele>508.0</ele><time>2026-04-23T17:28:55.999Z</time></trkpt><trkpt lat="44.352984361314476" lon="7.627763449701428"><ele>507.0</ele><time>2026-04-23T17:28:56.999Z</time></trkpt><trkpt lat="44.353155700897915" lon="7.627926540339624"><ele>506.0</ele><time>2026-04-23T17:28:57.999Z</time></trkpt><trkpt lat="44.35333026674962" lon="7.6280875212899435"><ele>505.0</ele><time>2026-04-23T17:28:58.999Z</time></trkpt><trkpt lat="44.35350264005748" lon="7.6282456163538175"><ele>505.0</ele><time>2026-04-23T17:28:59.999Z</time></trkpt><trkpt lat="44.3536720450901" lon="7.628414199118764"><ele>505.0</ele><time>2026-04-23T17:29:00.999Z</time></trkpt><trkpt lat="44.35384924754589" lon="7.628576454014871"><ele>505.0</ele><time>2026-04-23T17:29:01.999Z</time></trkpt><trkpt lat="44.35401628095319" lon="7.628737280112053"><ele>505.33333333333337</ele><time>2026-04-23T17:29:02.999Z</time></trkpt><trkpt lat="44.35418031807734" lon="7.628899128867153"><ele>505.66666666666663</ele><time>2026-04-23T17:29:03.999Z</time></trkpt><trkpt lat="44.354341633975494" lon="7.629057674806347"><ele>506.0</ele><time>2026-04-23T17:29:04.999Z</time></trkpt><trkpt lat="44.35450314502464" lon="7.629220626080749"><ele>506.0</ele><time>2026-04-23T17:29:05.999Z</time></trkpt><trkpt lat="44.354669679256745" lon="7.629381916431565"><ele>506.0</ele><time>2026-04-23T17:29:06.999Z</time></trkpt><trkpt lat="44.35483697313326" lon="7.629540687243979"><ele>506.0</ele><time>2026-04-23T17:29:07.999Z</time></trkpt><trkpt lat="44.35499530478976" lon="7.629693619528915"><ele>505.3333333333333</ele><time>2026-04-23T17:29:08.999Z</time></trkpt><trkpt lat="44.3551550418179" lon="7.629855830458436"><ele>504.66666666666663</ele><time>2026-04-23T17:29:09.999Z</time></trkpt><trkpt lat="44.35531117886335" lon="7.630014127207757"><ele>504.0</ele><time>2026-04-23T17:29:10.999Z</time></trkpt><trkpt lat="44.35547613107181" lon="7.630186862588562"><ele>503.66666666666663</ele><time>2026-04-23T17:29:11.999Z</time></trkpt><trkpt lat="44.35562445089973" lon="7.630354400510287"><ele>503.3333333333333</ele><time>2026-04-23T17:29:12.999Z</time></trkpt><trkpt lat="44.35577322919696" lon="7.630540718937317"><ele>503.0</ele><time>2026-04-23T17:29:13.999Z</time></trkpt><trkpt lat="44.35592749782806" lon="7.630734647722578"><ele>503.0</ele><time>2026-04-23T17:29:14.999Z</time></trkpt><trkpt lat="44.356074145079944" lon="7.630947064190465"><ele>503.0</ele><time>2026-04-23T17:29:15.999Z</time></trkpt><trkpt lat="44.35621597036636" lon="7.631163922243395"><ele>503.0</ele><time>2026-04-23T17:29:16.999Z</time></trkpt><trkpt lat="44.356359321894274" lon="7.631389927148245"><ele>502.0</ele><time>2026-04-23T17:29:17.999Z</time></trkpt><trkpt lat="44.35649777426473" lon="7.631627116390597"><ele>501.0</ele><time>2026-04-23T17:29:18.999Z</time></trkpt><trkpt lat="44.356633317101505" lon="7.631874246549429"><ele>500.0</ele><time>2026-04-23T17:29:19.999Z</time></trkpt><trkpt lat="44.35677505198699" lon="7.632129922362526"><ele>499.5</ele><time>2026-04-23T17:29:20.999Z</time></trkpt><trkpt lat="44.35691794840888" lon="7.632382484759323"><ele>499.0</ele><time>2026-04-23T17:29:21.999Z</time></trkpt><trkpt lat="44.35706244474973" lon="7.632640413712944"><ele>499.5</ele><time>2026-04-23T17:29:22.999Z</time></trkpt><trkpt lat="44.357206678737896" lon="7.632899521588003"><ele>500.0</ele><time>2026-04-23T17:29:23.999Z</time></trkpt><trkpt lat="44.357355686093605" lon="7.633165921097751"><ele>500.0</ele><time>2026-04-23T17:29:24.999Z</time></trkpt><trkpt lat="44.35750513695306" lon="7.633431390546224"><ele>500.0</ele><time>2026-04-23T17:29:25.999Z</time></trkpt><trkpt lat="44.357652556766546" lon="7.633697666775497"><ele>500.0</ele><time>2026-04-23T17:29:26.999Z</time></trkpt><trkpt lat="44.35779122595152" lon="7.633941123097476"><ele>500.0</ele><time>2026-04-23T17:29:27.999Z</time></trkpt><trkpt lat="44.35792115292038" lon="7.6341739335750916"><ele>500.0</ele><time>2026-04-23T17:29:28.999Z</time></trkpt><trkpt lat="44.358050600519256" lon="7.634404596888351"><ele>499.3333333333333</ele><time>2026-04-23T17:29:29.999Z</time></trkpt><trkpt lat="44.35817325138775" lon="7.634620970570972"><ele>498.66666666666663</ele><time>2026-04-23T17:29:30.999Z</time></trkpt><trkpt lat="44.358294970791746" lon="7.634840078658269"><ele>498.0</ele><time>2026-04-23T17:29:31.999Z</time></trkpt><trkpt lat="44.35841074802162" lon="7.635047423191607"><ele>498.0</ele><time>2026-04-23T17:29:32.999Z</time></trkpt><trkpt lat="44.358519611311635" lon="7.635250837270031"><ele>498.0</ele><time>2026-04-23T17:29:33.999Z</time></trkpt><trkpt lat="44.3586287647397" lon="7.635452228116051"><ele>498.0</ele><time>2026-04-23T17:29:34.999Z</time></trkpt><trkpt lat="44.3587357247552" lon="7.635650820546838"><ele>498.0</ele><time>2026-04-23T17:29:35.999Z</time></trkpt><trkpt lat="44.35884675245499" lon="7.63583736914049"><ele>498.0</ele><time>2026-04-23T17:29:36.999Z</time></trkpt><trkpt lat="44.358946965775814" lon="7.6360224445312594"><ele>498.0</ele><time>2026-04-23T17:29:37.999Z</time></trkpt><trkpt lat="44.35905133087448" lon="7.636210223481903"><ele>497.66666666666663</ele><time>2026-04-23T17:29:38.999Z</time></trkpt><trkpt lat="44.35915415153892" lon="7.6364011819452315"><ele>497.3333333333333</ele><time>2026-04-23T17:29:39.999Z</time></trkpt><trkpt lat="44.359263881742685" lon="7.6365909255471465"><ele>497.0</ele><time>2026-04-23T17:29:40.999Z</time></trkpt><trkpt lat="44.35936111800874" lon="7.636777756929742"><ele>497.0</ele><time>2026-04-23T17:29:41.999Z</time></trkpt><trkpt lat="44.3594562156521" lon="7.6369543445428905"><ele>497.0</ele><time>2026-04-23T17:29:42.999Z</time></trkpt><trkpt lat="44.35954788595063" lon="7.6371219984678955"><ele>497.0</ele><time>2026-04-23T17:29:43.998Z</time></trkpt><trkpt lat="44.3596330682598" lon="7.637272150788068"><ele>497.0</ele><time>2026-04-23T17:29:44.998Z</time></trkpt><trkpt lat="44.35971182855563" lon="7.637418000075537"><ele>496.5</ele><time>2026-04-23T17:29:45.998Z</time></trkpt><trkpt lat="44.35978619891605" lon="7.637554862760782"><ele>496.0</ele><time>2026-04-23T17:29:46.998Z</time></trkpt><trkpt lat="44.35986432246604" lon="7.637694070543204"><ele>495.5</ele><time>2026-04-23T17:29:47.998Z</time></trkpt><trkpt lat="44.35993357615962" lon="7.637825999479742"><ele>495.0</ele><time>2026-04-23T17:29:48.998Z</time></trkpt><trkpt lat="44.360005704346456" lon="7.637958324617783"><ele>494.75</ele><time>2026-04-23T17:29:49.998Z</time></trkpt><trkpt lat="44.36007703696895" lon="7.63807883204471"><ele>494.5</ele><time>2026-04-23T17:29:50.998Z</time></trkpt><trkpt lat="44.36014997702381" lon="7.638208654634403"><ele>494.25</ele><time>2026-04-23T17:29:51.998Z</time></trkpt><trkpt lat="44.3602222429906" lon="7.638334535562983"><ele>494.0</ele><time>2026-04-23T17:29:52.998Z</time></trkpt><trkpt lat="44.36029643607805" lon="7.638450575065641"><ele>494.0</ele><time>2026-04-23T17:29:53.998Z</time></trkpt><trkpt lat="44.36036610634565" lon="7.638573978916263"><ele>494.0</ele><time>2026-04-23T17:29:54.998Z</time></trkpt><trkpt lat="44.36043363648465" lon="7.638704563673972"><ele>494.0</ele><time>2026-04-23T17:29:55.998Z</time></trkpt><trkpt lat="44.36050772216233" lon="7.638831433206237"><ele>494.0</ele><time>2026-04-23T17:29:56.998Z</time></trkpt><trkpt lat="44.36057330831842" lon="7.638946262617362"><ele>494.2</ele><time>2026-04-23T17:29:57.998Z</time></trkpt><trkpt lat="44.36063633686366" lon="7.639069529749589"><ele>494.4</ele><time>2026-04-23T17:29:58.998Z</time></trkpt><trkpt lat="44.36069901129627" lon="7.639190019159798"><ele>494.6</ele><time>2026-04-23T17:29:59.998Z</time></trkpt><trkpt lat="44.360763164469724" lon="7.639307213510965"><ele>494.8</ele><time>2026-04-23T17:30:00.998Z</time></trkpt><trkpt lat="44.36082614511931" lon="7.639419293675581"><ele>495.0</ele><time>2026-04-23T17:30:01.998Z</time></trkpt><trkpt lat="44.36089057541613" lon="7.639540632055819"><ele>495.0</ele><time>2026-04-23T17:30:02.998Z</time></trkpt><trkpt lat="44.360956530760376" lon="7.639657610697993"><ele>495.0</ele><time>2026-04-23T17:30:03.998Z</time></trkpt><trkpt lat="44.36102537205487" lon="7.6397757306447405"><ele>495.0</ele><time>2026-04-23T17:30:04.998Z</time></trkpt><trkpt lat="44.36108883138802" lon="7.639897790174156"><ele>495.0</ele><time>2026-04-23T17:30:05.998Z</time></trkpt><trkpt lat="44.36115842416631" lon="7.640018793104121"><ele>495.0</ele><time>2026-04-23T17:30:06.998Z</time></trkpt><trkpt lat="44.361222499819014" lon="7.64013881895869"><ele>495.0</ele><time>2026-04-23T17:30:08Z</time></trkpt><trkpt lat="44.36128902790445" lon="7.640262805276471"><ele>495.0</ele><time>2026-04-23T17:30:09Z</time></trkpt><trkpt lat="44.36135749112417" lon="7.640385421607084"><ele>495.0</ele><time>2026-04-23T17:30:10Z</time></trkpt><trkpt lat="44.36142582905705" lon="7.640501242604933"><ele>495.0</ele><time>2026-04-23T17:30:11Z</time></trkpt><trkpt lat="44.3614873989782" lon="7.64062486457338"><ele>495.0</ele><time>2026-04-23T17:30:12Z</time></trkpt><trkpt lat="44.361553878018945" lon="7.640744995658784"><ele>494.8</ele><time>2026-04-23T17:30:13Z</time></trkpt><trkpt lat="44.3616111870713" lon="7.640852472021854"><ele>494.6</ele><time>2026-04-23T17:30:14Z</time></trkpt><trkpt lat="44.36167429358974" lon="7.64096363012859"><ele>494.4</ele><time>2026-04-23T17:30:15Z</time></trkpt><trkpt lat="44.361736561233194" lon="7.641079306932254"><ele>494.2</ele><time>2026-04-23T17:30:16Z</time></trkpt><trkpt lat="44.36180650388971" lon="7.6411988034781"><ele>494.0</ele><time>2026-04-23T17:30:17Z</time></trkpt><trkpt lat="44.361878306724094" lon="7.641320616220412"><ele>493.79999999999995</ele><time>2026-04-23T17:30:18Z</time></trkpt><trkpt lat="44.36194122489238" lon="7.641436692779187"><ele>493.59999999999997</ele><time>2026-04-23T17:30:19Z</time></trkpt><trkpt lat="44.362011904033075" lon="7.64154965733666"><ele>493.4</ele><time>2026-04-23T17:30:20Z</time></trkpt><trkpt lat="44.36208640577242" lon="7.641662045073925"><ele>493.2</ele><time>2026-04-23T17:30:21Z</time></trkpt><trkpt lat="44.36214995469299" lon="7.641777363272071"><ele>493.0</ele><time>2026-04-23T17:30:22Z</time></trkpt><trkpt lat="44.36221514826095" lon="7.641888276305279"><ele>492.79999999999995</ele><time>2026-04-23T17:30:23Z</time></trkpt><trkpt lat="44.36228269014073" lon="7.642001520565949"><ele>492.59999999999997</ele><time>2026-04-23T17:30:24Z</time></trkpt><trkpt lat="44.36234449565455" lon="7.642117071668067"><ele>492.40000000000003</ele><time>2026-04-23T17:30:25Z</time></trkpt><trkpt lat="44.36240207491302" lon="7.642231237780973"><ele>492.20000000000005</ele><time>2026-04-23T17:30:26Z</time></trkpt><trkpt lat="44.36245870818618" lon="7.642338382165281"><ele>492.0</ele><time>2026-04-23T17:30:27Z</time></trkpt><trkpt lat="44.36251021338821" lon="7.642443938616441"><ele>492.0</ele><time>2026-04-23T17:30:28Z</time></trkpt><trkpt lat="44.36256954074691" lon="7.6425549568729885"><ele>492.0</ele><time>2026-04-23T17:30:29Z</time></trkpt><trkpt lat="44.362623466176395" lon="7.642655619964815"><ele>492.0</ele><time>2026-04-23T17:30:30Z</time></trkpt><trkpt lat="44.36267021777703" lon="7.6427417012650976"><ele>492.0</ele><time>2026-04-23T17:30:31Z</time></trkpt><trkpt lat="44.36272224900508" lon="7.642823667614194"><ele>492.0</ele><time>2026-04-23T17:30:32Z</time></trkpt><trkpt lat="44.362758830668106" lon="7.6428979239642425"><ele>492.0</ele><time>2026-04-23T17:30:33Z</time></trkpt><trkpt lat="44.3628317792522" lon="7.643039381324784"><ele>491.8</ele><time>2026-04-23T17:30:35Z</time></trkpt><trkpt lat="44.36288405490874" lon="7.643134434603419"><ele>491.6</ele><time>2026-04-23T17:30:36Z</time></trkpt><trkpt lat="44.36294500045603" lon="7.643250631778575"><ele>491.40000000000003</ele><time>2026-04-23T17:30:37Z</time></trkpt><trkpt lat="44.363016821058196" lon="7.6433850364933384"><ele>491.20000000000005</ele><time>2026-04-23T17:30:38Z</time></trkpt><trkpt lat="44.36307885315079" lon="7.643504767833686"><ele>491.0</ele><time>2026-04-23T17:30:39Z</time></trkpt><trkpt lat="44.36313938698475" lon="7.643618852007195"><ele>490.8333333333333</ele><time>2026-04-23T17:30:40Z</time></trkpt><trkpt lat="44.363192419640534" lon="7.643725863747774"><ele>490.66666666666663</ele><time>2026-04-23T17:30:41Z</time></trkpt><trkpt lat="44.36324776621628" lon="7.64382836176959"><ele>490.5</ele><time>2026-04-23T17:30:42Z</time></trkpt><trkpt lat="44.3632951736684" lon="7.643921727587648"><ele>490.33333333333337</ele><time>2026-04-23T17:30:43Z</time></trkpt><trkpt lat="44.36334359708994" lon="7.644014913470618"><ele>490.1666666666667</ele><time>2026-04-23T17:30:44Z</time></trkpt><trkpt lat="44.36338179589747" lon="7.644103140939421"><ele>490.0</ele><time>2026-04-23T17:30:45Z</time></trkpt><trkpt lat="44.3634579131644" lon="7.6442390805253755"><ele>490.0</ele><time>2026-04-23T17:30:47Z</time></trkpt><trkpt lat="44.36349496918942" lon="7.644337803474026"><ele>490.0</ele><time>2026-04-23T17:30:48Z</time></trkpt><trkpt lat="44.36354843507794" lon="7.644439650169163"><ele>490.0</ele><time>2026-04-23T17:30:49Z</time></trkpt><trkpt lat="44.36362187583056" lon="7.644568003000845"><ele>490.0</ele><time>2026-04-23T17:30:50Z</time></trkpt><trkpt lat="44.36370394352789" lon="7.644692577663502"><ele>490.0</ele><time>2026-04-23T17:30:50.999Z</time></trkpt><trkpt lat="44.36381071831102" lon="7.644802871523044"><ele>489.6</ele><time>2026-04-23T17:30:51.999Z</time></trkpt><trkpt lat="44.3638918110863" lon="7.644922893314255"><ele>489.2</ele><time>2026-04-23T17:30:52.999Z</time></trkpt><trkpt lat="44.36396184092249" lon="7.645027851631521"><ele>488.79999999999995</ele><time>2026-04-23T17:30:53.999Z</time></trkpt><trkpt lat="44.36401690785856" lon="7.645115123585305"><ele>488.4</ele><time>2026-04-23T17:30:54.999Z</time></trkpt><trkpt lat="44.36408012564691" lon="7.645196347907047"><ele>488.0</ele><time>2026-04-23T17:30:55.999Z</time></trkpt><trkpt lat="44.3641313425622" lon="7.6452743328764745"><ele>488.16666666666663</ele><time>2026-04-23T17:30:56.999Z</time></trkpt><trkpt lat="44.3641843935043" lon="7.6453458154734975"><ele>488.3333333333333</ele><time>2026-04-23T17:30:57.999Z</time></trkpt><trkpt lat="44.36424107194442" lon="7.645410038080925"><ele>488.5</ele><time>2026-04-23T17:30:58.999Z</time></trkpt><trkpt lat="44.364303504151174" lon="7.645500534685244"><ele>488.66666666666663</ele><time>2026-04-23T17:30:59.999Z</time></trkpt><trkpt lat="44.364357274992535" lon="7.645584435754391"><ele>488.8333333333333</ele><time>2026-04-23T17:31:00.999Z</time></trkpt><trkpt lat="44.36441803424801" lon="7.645670716722699"><ele>489.0</ele><time>2026-04-23T17:31:01.999Z</time></trkpt><trkpt lat="44.36448005185275" lon="7.645731747470343"><ele>489.0</ele><time>2026-04-23T17:31:02.999Z</time></trkpt><trkpt lat="44.36455050759171" lon="7.6458056767406495"><ele>489.0</ele><time>2026-04-23T17:31:03.999Z</time></trkpt><trkpt lat="44.36460643489165" lon="7.6458588128347476"><ele>489.0</ele><time>2026-04-23T17:31:04.999Z</time></trkpt><trkpt lat="44.364673177663505" lon="7.645948805115125"><ele>489.0</ele><time>2026-04-23T17:31:06.999Z</time></trkpt><trkpt lat="44.364760431570694" lon="7.646064182389113"><ele>489.0</ele><time>2026-04-23T17:31:10.999Z</time></trkpt><trkpt lat="44.36483705142914" lon="7.646102735679013"><ele>489.0</ele><time>2026-04-23T17:31:11.999Z</time></trkpt><trkpt lat="44.36492345088397" lon="7.646149069469718"><ele>489.0</ele><time>2026-04-23T17:31:12.999Z</time></trkpt><trkpt lat="44.36501250224155" lon="7.6461939883571866"><ele>489.0</ele><time>2026-04-23T17:31:13.999Z</time></trkpt><trkpt lat="44.36509335688192" lon="7.646245914265364"><ele>489.0</ele><time>2026-04-23T17:31:14.999Z</time></trkpt><trkpt lat="44.36515978104769" lon="7.646285085924556"><ele>489.0</ele><time>2026-04-23T17:31:15.999Z</time></trkpt><trkpt lat="44.365225284237276" lon="7.646331433160791"><ele>489.0</ele><time>2026-04-23T17:31:16.999Z</time></trkpt><trkpt lat="44.365337103351926" lon="7.646428263638028"><ele>489.0</ele><time>2026-04-23T17:31:18.999Z</time></trkpt><trkpt lat="44.3654257016941" lon="7.646508459313591"><ele>489.0</ele><time>2026-04-23T17:31:19.999Z</time></trkpt><trkpt lat="44.36551500318354" lon="7.64658408959923"><ele>489.0</ele><time>2026-04-23T17:31:20.999Z</time></trkpt><trkpt lat="44.36560770499184" lon="7.646665132182578"><ele>489.0</ele><time>2026-04-23T17:31:21.999Z</time></trkpt><trkpt lat="44.36569741050704" lon="7.646766937938075"><ele>489.0</ele><time>2026-04-23T17:31:22.999Z</time></trkpt><trkpt lat="44.36576776537957" lon="7.646834230235172"><ele>489.1666666666667</ele><time>2026-04-23T17:31:23.999Z</time></trkpt><trkpt lat="44.365847794268674" lon="7.646899896354358"><ele>489.33333333333337</ele><time>2026-04-23T17:31:24.999Z</time></trkpt><trkpt lat="44.3659247454465" lon="7.6469588632736345"><ele>489.5</ele><time>2026-04-23T17:31:25.999Z</time></trkpt><trkpt lat="44.36598972182918" lon="7.647003581727881"><ele>489.6666666666667</ele><time>2026-04-23T17:31:26.999Z</time></trkpt><trkpt lat="44.36605402426762" lon="7.647044877001239"><ele>489.83333333333337</ele><time>2026-04-23T17:31:27.999Z</time></trkpt><trkpt lat="44.366115844575106" lon="7.647085634247247"><ele>490.0</ele><time>2026-04-23T17:31:28.999Z</time></trkpt><trkpt lat="44.366215705569395" lon="7.647155292519167"><ele>490.0</ele><time>2026-04-23T17:31:30.999Z</time></trkpt><trkpt lat="44.36629169171173" lon="7.647195921301902"><ele>490.0</ele><time>2026-04-23T17:31:32.999Z</time></trkpt><trkpt lat="44.36638589247369" lon="7.647224719720771"><ele>490.0</ele><time>2026-04-23T17:31:40.999Z</time></trkpt><trkpt lat="44.36645272190822" lon="7.647241351276042"><ele>490.0</ele><time>2026-04-23T17:31:41.999Z</time></trkpt><trkpt lat="44.366586997161995" lon="7.647280223762933"><ele>490.0</ele><time>2026-04-23T17:31:43.999Z</time></trkpt><trkpt lat="44.36668245560445" lon="7.647295471452806"><ele>490.0</ele><time>2026-04-23T17:31:44.999Z</time></trkpt><trkpt lat="44.36678144910759" lon="7.6473174412039135"><ele>490.0</ele><time>2026-04-23T17:31:45.999Z</time></trkpt><trkpt lat="44.36689617791596" lon="7.647347312409612"><ele>490.0</ele><time>2026-04-23T17:31:46.999Z</time></trkpt><trkpt lat="44.367010760244504" lon="7.647374964626199"><ele>490.0</ele><time>2026-04-23T17:31:47.999Z</time></trkpt><trkpt lat="44.3671047725256" lon="7.647391690817197"><ele>490.0</ele><time>2026-04-23T17:31:48.999Z</time></trkpt><trkpt lat="44.36718855787347" lon="7.647403979347347"><ele>489.6</ele><time>2026-04-23T17:31:49.998Z</time></trkpt><trkpt lat="44.367262851273466" lon="7.647415457769565"><ele>489.2</ele><time>2026-04-23T17:31:50.998Z</time></trkpt><trkpt lat="44.36734727067151" lon="7.6474257932934435"><ele>488.79999999999995</ele><time>2026-04-23T17:31:51.998Z</time></trkpt><trkpt lat="44.36744120723416" lon="7.647424924821069"><ele>488.4</ele><time>2026-04-23T17:31:52.998Z</time></trkpt><trkpt lat="44.36753930355613" lon="7.6474168004566705"><ele>488.0</ele><time>2026-04-23T17:31:53.998Z</time></trkpt><trkpt lat="44.367649962203984" lon="7.64738966410157"><ele>488.0</ele><time>2026-04-23T17:31:54.998Z</time></trkpt><trkpt lat="44.36777596491543" lon="7.647363969332112"><ele>488.0</ele><time>2026-04-23T17:31:55.998Z</time></trkpt><trkpt lat="44.367892746657134" lon="7.647338029996473"><ele>488.0</ele><time>2026-04-23T17:31:56.998Z</time></trkpt><trkpt lat="44.3680075363633" lon="7.64730215222227"><ele>488.0</ele><time>2026-04-23T17:31:57.998Z</time></trkpt><trkpt lat="44.3681348013245" lon="7.647260076601545"><ele>487.75</ele><time>2026-04-23T17:31:58.998Z</time></trkpt><trkpt lat="44.36825327005768" lon="7.647209987556827"><ele>487.5</ele><time>2026-04-23T17:31:59.998Z</time></trkpt><trkpt lat="44.36839208096652" lon="7.6471611419364045"><ele>487.25</ele><time>2026-04-23T17:32:00.998Z</time></trkpt><trkpt lat="44.36853697341841" lon="7.64709661556963"><ele>487.0</ele><time>2026-04-23T17:32:01.998Z</time></trkpt><trkpt lat="44.3686757359539" lon="7.647015594650394"><ele>486.6666666666667</ele><time>2026-04-23T17:32:02.998Z</time></trkpt><trkpt lat="44.368820263150425" lon="7.646927199485756"><ele>486.33333333333337</ele><time>2026-04-23T17:32:03.998Z</time></trkpt><trkpt lat="44.36897400324046" lon="7.646835079534489"><ele>486.0</ele><time>2026-04-23T17:32:04.998Z</time></trkpt><trkpt lat="44.36911930669544" lon="7.6467594269660975"><ele>486.0</ele><time>2026-04-23T17:32:05.998Z</time></trkpt><trkpt lat="44.369261570138875" lon="7.64669999689367"><ele>486.0</ele><time>2026-04-23T17:32:06.998Z</time></trkpt><trkpt lat="44.36941411300137" lon="7.646658104971459"><ele>486.0</ele><time>2026-04-23T17:32:07.998Z</time></trkpt><trkpt lat="44.36956455534575" lon="7.6466320413721665"><ele>485.75</ele><time>2026-04-23T17:32:08.998Z</time></trkpt><trkpt lat="44.36970549470301" lon="7.646622124085924"><ele>485.5</ele><time>2026-04-23T17:32:09.998Z</time></trkpt><trkpt lat="44.36984578805372" lon="7.646623764792258"><ele>485.25</ele><time>2026-04-23T17:32:10.998Z</time></trkpt><trkpt lat="44.36999117593507" lon="7.6466423081818995"><ele>485.0</ele><time>2026-04-23T17:32:11.998Z</time></trkpt><trkpt lat="44.37013115752682" lon="7.646676821431505"><ele>485.0</ele><time>2026-04-23T17:32:12.998Z</time></trkpt><trkpt lat="44.37025402361798" lon="7.646703484991378"><ele>485.0</ele><time>2026-04-23T17:32:14Z</time></trkpt><trkpt lat="44.37036543981048" lon="7.646734023386808"><ele>485.0</ele><time>2026-04-23T17:32:15Z</time></trkpt><trkpt lat="44.37046595927161" lon="7.646774595883818"><ele>485.0</ele><time>2026-04-23T17:32:16Z</time></trkpt><trkpt lat="44.37054797528746" lon="7.646825457906109"><ele>485.0</ele><time>2026-04-23T17:32:17Z</time></trkpt><trkpt lat="44.370615872788136" lon="7.6468725224282466"><ele>485.16666666666663</ele><time>2026-04-23T17:32:18Z</time></trkpt><trkpt lat="44.37067713746168" lon="7.6469302794663285"><ele>485.3333333333333</ele><time>2026-04-23T17:32:19Z</time></trkpt><trkpt lat="44.370724717096685" lon="7.646998976329979"><ele>485.5</ele><time>2026-04-23T17:32:20Z</time></trkpt><trkpt lat="44.37077174957706" lon="7.647091536590178"><ele>485.66666666666663</ele><time>2026-04-23T17:32:21Z</time></trkpt><trkpt lat="44.37081375842055" lon="7.647163232542286"><ele>485.8333333333333</ele><time>2026-04-23T17:32:22Z</time></trkpt><trkpt lat="44.37085636187124" lon="7.6472306562399295"><ele>486.0</ele><time>2026-04-23T17:32:23Z</time></trkpt><trkpt lat="44.370971827487594" lon="7.64729481696533"><ele>485.6</ele><time>2026-04-23T17:32:25Z</time></trkpt><trkpt lat="44.37110239469633" lon="7.647235351810302"><ele>485.20000000000005</ele><time>2026-04-23T17:32:27Z</time></trkpt><trkpt lat="44.37116899821859" lon="7.647166551623479"><ele>484.79999999999995</ele><time>2026-04-23T17:32:28Z</time></trkpt><trkpt lat="44.371248437955046" lon="7.647115205025192"><ele>484.4</ele><time>2026-04-23T17:32:29Z</time></trkpt><trkpt lat="44.37134325668789" lon="7.647093393006558"><ele>484.0</ele><time>2026-04-23T17:32:30Z</time></trkpt><trkpt lat="44.37145214512797" lon="7.647091035638592"><ele>484.0</ele><time>2026-04-23T17:32:31Z</time></trkpt><trkpt lat="44.37158541680166" lon="7.6471073474288"><ele>484.0</ele><time>2026-04-23T17:32:32Z</time></trkpt><trkpt lat="44.371733240771704" lon="7.647124048402915"><ele>484.0</ele><time>2026-04-23T17:32:33Z</time></trkpt><trkpt lat="44.37187997201475" lon="7.6471546636575685"><ele>484.0</ele><time>2026-04-23T17:32:34Z</time></trkpt><trkpt lat="44.372039598836054" lon="7.647197859784903"><ele>484.0</ele><time>2026-04-23T17:32:35Z</time></trkpt><trkpt lat="44.37221130892783" lon="7.647244528159268"><ele>484.0</ele><time>2026-04-23T17:32:36Z</time></trkpt><trkpt lat="44.37238461124768" lon="7.647297016317017"><ele>484.0</ele><time>2026-04-23T17:32:37Z</time></trkpt><trkpt lat="44.37256745284248" lon="7.647352824633287"><ele>484.0</ele><time>2026-04-23T17:32:38Z</time></trkpt><trkpt lat="44.3727576770999" lon="7.64740640290241"><ele>484.0</ele><time>2026-04-23T17:32:39Z</time></trkpt><trkpt lat="44.37295647311125" lon="7.647460103877573"><ele>484.0</ele><time>2026-04-23T17:32:40Z</time></trkpt><trkpt lat="44.373154952698584" lon="7.647515977543095"><ele>484.33333333333337</ele><time>2026-04-23T17:32:41Z</time></trkpt><trkpt lat="44.37335457998193" lon="7.64757176178759"><ele>484.66666666666663</ele><time>2026-04-23T17:32:42Z</time></trkpt><trkpt lat="44.37355795777559" lon="7.647631782203437"><ele>485.0</ele><time>2026-04-23T17:32:43Z</time></trkpt><trkpt lat="44.3737680239836" lon="7.647695129093531"><ele>484.3333333333333</ele><time>2026-04-23T17:32:44Z</time></trkpt><trkpt lat="44.37398103619448" lon="7.647755331161643"><ele>483.66666666666663</ele><time>2026-04-23T17:32:45Z</time></trkpt><trkpt lat="44.37420977226444" lon="7.647809828348722"><ele>483.0</ele><time>2026-04-23T17:32:46Z</time></trkpt><trkpt lat="44.37443374197" lon="7.647873230103327"><ele>483.0</ele><time>2026-04-23T17:32:47Z</time></trkpt><trkpt lat="44.37466528767848" lon="7.64793709674426"><ele>483.0</ele><time>2026-04-23T17:32:48Z</time></trkpt><trkpt lat="44.37489106328283" lon="7.6480053110507455"><ele>483.0</ele><time>2026-04-23T17:32:49Z</time></trkpt><trkpt lat="44.375124910112895" lon="7.648070655033717"><ele>483.0</ele><time>2026-04-23T17:32:50Z</time></trkpt><trkpt lat="44.37535785056506" lon="7.648136440339354"><ele>482.5</ele><time>2026-04-23T17:32:51Z</time></trkpt><trkpt lat="44.37559411621405" lon="7.648197064029976"><ele>482.0</ele><time>2026-04-23T17:32:52Z</time></trkpt><trkpt lat="44.375840888670595" lon="7.648267538101724"><ele>482.0</ele><time>2026-04-23T17:32:53Z</time></trkpt><trkpt lat="44.37609132301298" lon="7.648340342745102"><ele>482.0</ele><time>2026-04-23T17:32:54Z</time></trkpt><trkpt lat="44.376340081033746" lon="7.648411350338465"><ele>482.0</ele><time>2026-04-23T17:32:55Z</time></trkpt><trkpt lat="44.37657573173081" lon="7.6484825302479775"><ele>482.0</ele><time>2026-04-23T17:32:56Z</time></trkpt><trkpt lat="44.376829053756765" lon="7.648555839670089"><ele>481.5</ele><time>2026-04-23T17:32:57Z</time></trkpt><trkpt lat="44.377079279840885" lon="7.64862765117322"><ele>481.0</ele><time>2026-04-23T17:32:57.999Z</time></trkpt><trkpt lat="44.37733727900509" lon="7.64869717630882"><ele>481.0</ele><time>2026-04-23T17:32:58.999Z</time></trkpt><trkpt lat="44.37759290798511" lon="7.648769409311394"><ele>481.0</ele><time>2026-04-23T17:32:59.999Z</time></trkpt><trkpt lat="44.37784866964039" lon="7.6488417474807795"><ele>480.5</ele><time>2026-04-23T17:33:00.999Z</time></trkpt><trkpt lat="44.37810442537815" lon="7.6489195404736625"><ele>480.0</ele><time>2026-04-23T17:33:01.999Z</time></trkpt><trkpt lat="44.37836479174247" lon="7.6489930458355255"><ele>480.0</ele><time>2026-04-23T17:33:02.999Z</time></trkpt><trkpt lat="44.37861975544507" lon="7.649062243913678"><ele>480.0</ele><time>2026-04-23T17:33:03.999Z</time></trkpt><trkpt lat="44.378881200706175" lon="7.649136478569045"><ele>479.5</ele><time>2026-04-23T17:33:04.999Z</time></trkpt><trkpt lat="44.3791410838499" lon="7.649207656850602"><ele>479.0</ele><time>2026-04-23T17:33:05.999Z</time></trkpt><trkpt lat="44.37939944743248" lon="7.649278507885878"><ele>479.0</ele><time>2026-04-23T17:33:06.999Z</time></trkpt><trkpt lat="44.3796581467562" lon="7.649349200638861"><ele>479.0</ele><time>2026-04-23T17:33:07.999Z</time></trkpt><trkpt lat="44.3799116983892" lon="7.649417836890334"><ele>479.0</ele><time>2026-04-23T17:33:08.999Z</time></trkpt><trkpt lat="44.38016852783646" lon="7.649491617337186"><ele>479.0</ele><time>2026-04-23T17:33:09.999Z</time></trkpt><trkpt lat="44.38042502590058" lon="7.6495634569528885"><ele>479.0</ele><time>2026-04-23T17:33:10.999Z</time></trkpt><trkpt lat="44.3806775451534" lon="7.649637786574124"><ele>479.0</ele><time>2026-04-23T17:33:11.999Z</time></trkpt><trkpt lat="44.38093929090829" lon="7.6497116457506475"><ele>479.0</ele><time>2026-04-23T17:33:12.999Z</time></trkpt><trkpt lat="44.381194149441875" lon="7.649781653404394"><ele>479.0</ele><time>2026-04-23T17:33:13.999Z</time></trkpt><trkpt lat="44.38145688118378" lon="7.649855069896496"><ele>479.0</ele><time>2026-04-23T17:33:14.999Z</time></trkpt><trkpt lat="44.38169399143589" lon="7.649923387211368"><ele>479.0</ele><time>2026-04-23T17:33:15.999Z</time></trkpt><trkpt lat="44.38193263182415" lon="7.649992365524144"><ele>479.0</ele><time>2026-04-23T17:33:16.999Z</time></trkpt><trkpt lat="44.382175143857445" lon="7.650063009214535"><ele>479.0</ele><time>2026-04-23T17:33:17.999Z</time></trkpt><trkpt lat="44.38240326152616" lon="7.650128268970982"><ele>479.3333333333333</ele><time>2026-04-23T17:33:18.999Z</time></trkpt><trkpt lat="44.38261673463768" lon="7.650194041907826"><ele>479.66666666666663</ele><time>2026-04-23T17:33:19.999Z</time></trkpt><trkpt lat="44.38281608620627" lon="7.650247614258684"><ele>480.0</ele><time>2026-04-23T17:33:20.999Z</time></trkpt><trkpt lat="44.38299776291604" lon="7.65029711281738"><ele>480.0</ele><time>2026-04-23T17:33:21.999Z</time></trkpt><trkpt lat="44.383175438075" lon="7.65035291605943"><ele>480.0</ele><time>2026-04-23T17:33:22.999Z</time></trkpt><trkpt lat="44.38335005907579" lon="7.65041674348028"><ele>480.0</ele><time>2026-04-23T17:33:23.999Z</time></trkpt><trkpt lat="44.38352287590954" lon="7.650500952463864"><ele>480.0</ele><time>2026-04-23T17:33:24.999Z</time></trkpt><trkpt lat="44.38369704606833" lon="7.650606169321312"><ele>480.0</ele><time>2026-04-23T17:33:25.999Z</time></trkpt><trkpt lat="44.38387616873131" lon="7.650731133553716"><ele>480.0</ele><time>2026-04-23T17:33:26.999Z</time></trkpt><trkpt lat="44.38404891424043" lon="7.650878189382174"><ele>479.33333333333337</ele><time>2026-04-23T17:33:27.999Z</time></trkpt><trkpt lat="44.38422700487043" lon="7.651044442556094"><ele>478.6666666666667</ele><time>2026-04-23T17:33:28.999Z</time></trkpt><trkpt lat="44.38439766799136" lon="7.651220380172402"><ele>478.0</ele><time>2026-04-23T17:33:29.999Z</time></trkpt><trkpt lat="44.38458143706226" lon="7.651401145970612"><ele>477.5</ele><time>2026-04-23T17:33:30.999Z</time></trkpt><trkpt lat="44.38476596811388" lon="7.651591624116647"><ele>477.0</ele><time>2026-04-23T17:33:31.999Z</time></trkpt><trkpt lat="44.38495201639372" lon="7.651789235385847"><ele>477.0</ele><time>2026-04-23T17:33:32.999Z</time></trkpt><trkpt lat="44.38514385090276" lon="7.65198807433469"><ele>477.0</ele><time>2026-04-23T17:33:33.999Z</time></trkpt><trkpt lat="44.38534311102376" lon="7.652187406700328"><ele>475.5</ele><time>2026-04-23T17:33:34.999Z</time></trkpt><trkpt lat="44.38554692313945" lon="7.652395358459008"><ele>474.0</ele><time>2026-04-23T17:33:35.999Z</time></trkpt><trkpt lat="44.38574196425028" lon="7.652623894070446"><ele>474.0</ele><time>2026-04-23T17:33:36.999Z</time></trkpt><trkpt lat="44.38594837607696" lon="7.652839122141946"><ele>474.0</ele><time>2026-04-23T17:33:37.999Z</time></trkpt><trkpt lat="44.38615420236358" lon="7.6530537398475005"><ele>474.5</ele><time>2026-04-23T17:33:38.999Z</time></trkpt><trkpt lat="44.386367530702344" lon="7.653276179832693"><ele>475.0</ele><time>2026-04-23T17:33:39.999Z</time></trkpt><trkpt lat="44.38658027610515" lon="7.653498012444571"><ele>475.0</ele><time>2026-04-23T17:33:40.999Z</time></trkpt><trkpt lat="44.38679150396153" lon="7.653718267525971"><ele>475.0</ele><time>2026-04-23T17:33:41.999Z</time></trkpt><trkpt lat="44.387004504714234" lon="7.653940376451445"><ele>475.0</ele><time>2026-04-23T17:33:42.999Z</time></trkpt><trkpt lat="44.387215054473764" lon="7.654158121936221"><ele>475.0</ele><time>2026-04-23T17:33:43.999Z</time></trkpt><trkpt lat="44.387411097522374" lon="7.654330361082446"><ele>474.0</ele><time>2026-04-23T17:33:44.999Z</time></trkpt><trkpt lat="44.38760753779553" lon="7.65454825561312"><ele>473.0</ele><time>2026-04-23T17:33:45.999Z</time></trkpt><trkpt lat="44.387800109756384" lon="7.654758995161079"><ele>473.0</ele><time>2026-04-23T17:33:46.999Z</time></trkpt><trkpt lat="44.38797431337668" lon="7.654972646204118"><ele>473.0</ele><time>2026-04-23T17:33:47.999Z</time></trkpt><trkpt lat="44.38816599980265" lon="7.655162346412236"><ele>473.0</ele><time>2026-04-23T17:33:48.999Z</time></trkpt><trkpt lat="44.38834386654338" lon="7.655348079714308"><ele>473.0</ele><time>2026-04-23T17:33:49.999Z</time></trkpt><trkpt lat="44.38851464666438" lon="7.655519664524131"><ele>473.0</ele><time>2026-04-23T17:33:50.999Z</time></trkpt><trkpt lat="44.38866602394196" lon="7.655676941026102"><ele>473.0</ele><time>2026-04-23T17:33:51.999Z</time></trkpt><trkpt lat="44.38881052388163" lon="7.655830355789372"><ele>473.0</ele><time>2026-04-23T17:33:52.999Z</time></trkpt><trkpt lat="44.38894553978667" lon="7.655965220419662"><ele>473.0</ele><time>2026-04-23T17:33:53.999Z</time></trkpt><trkpt lat="44.389077813212346" lon="7.65610542213031"><ele>472.66666666666663</ele><time>2026-04-23T17:33:54.999Z</time></trkpt><trkpt lat="44.38920318785199" lon="7.656235211651608"><ele>472.33333333333337</ele><time>2026-04-23T17:33:55.998Z</time></trkpt><trkpt lat="44.389339677685484" lon="7.65636326072554"><ele>472.0</ele><time>2026-04-23T17:33:56.998Z</time></trkpt><trkpt lat="44.3894527026141" lon="7.65649533231322"><ele>472.0</ele><time>2026-04-23T17:33:57.998Z</time></trkpt><trkpt lat="44.38955889282982" lon="7.656608423115977"><ele>472.0</ele><time>2026-04-23T17:33:58.998Z</time></trkpt><trkpt lat="44.3896651050219" lon="7.656729071947542"><ele>472.0</ele><time>2026-04-23T17:33:59.998Z</time></trkpt><trkpt lat="44.38976849892567" lon="7.656859147769313"><ele>472.0</ele><time>2026-04-23T17:34:00.998Z</time></trkpt><trkpt lat="44.389876337508404" lon="7.6569988426015305"><ele>471.6666666666667</ele><time>2026-04-23T17:34:01.998Z</time></trkpt><trkpt lat="44.389988649905405" lon="7.6571455044049905"><ele>471.33333333333337</ele><time>2026-04-23T17:34:02.998Z</time></trkpt><trkpt lat="44.39010329200543" lon="7.657302154942119"><ele>471.0</ele><time>2026-04-23T17:34:03.998Z</time></trkpt><trkpt lat="44.39022501667951" lon="7.657463024649424"><ele>471.0</ele><time>2026-04-23T17:34:04.998Z</time></trkpt><trkpt lat="44.390350146450416" lon="7.657625614999076"><ele>471.0</ele><time>2026-04-23T17:34:05.998Z</time></trkpt><trkpt lat="44.390482501832" lon="7.657792697492683"><ele>471.0</ele><time>2026-04-23T17:34:06.998Z</time></trkpt><trkpt lat="44.39061489124702" lon="7.657957379167391"><ele>470.66666666666663</ele><time>2026-04-23T17:34:07.998Z</time></trkpt><trkpt lat="44.390740587513996" lon="7.658124212462695"><ele>470.3333333333333</ele><time>2026-04-23T17:34:08.998Z</time></trkpt><trkpt lat="44.390859365893796" lon="7.658280305232806"><ele>470.0</ele><time>2026-04-23T17:34:09.998Z</time></trkpt><trkpt lat="44.3909795958665" lon="7.65843438196145"><ele>470.0</ele><time>2026-04-23T17:34:10.998Z</time></trkpt><trkpt lat="44.391101010653315" lon="7.658592727496724"><ele>470.0</ele><time>2026-04-23T17:34:11.998Z</time></trkpt><trkpt lat="44.39122486426878" lon="7.658755066558477"><ele>470.0</ele><time>2026-04-23T17:34:12.998Z</time></trkpt><trkpt lat="44.39133986939023" lon="7.658906729636661"><ele>469.75</ele><time>2026-04-23T17:34:13.998Z</time></trkpt><trkpt lat="44.39144561409222" lon="7.6590496857921035"><ele>469.5</ele><time>2026-04-23T17:34:14.998Z</time></trkpt><trkpt lat="44.39155235335027" lon="7.659186104862145"><ele>469.25</ele><time>2026-04-23T17:34:15.998Z</time></trkpt><trkpt lat="44.39165246149319" lon="7.659316596309331"><ele>469.0</ele><time>2026-04-23T17:34:16.998Z</time></trkpt><trkpt lat="44.391746045759355" lon="7.659441192868909"><ele>468.75</ele><time>2026-04-23T17:34:17.998Z</time></trkpt><trkpt lat="44.39183351346423" lon="7.659557079452348"><ele>468.5</ele><time>2026-04-23T17:34:18.998Z</time></trkpt><trkpt lat="44.391922537947764" lon="7.659668421833925"><ele>468.25</ele><time>2026-04-23T17:34:20Z</time></trkpt><trkpt lat="44.39200571267846" lon="7.659773851960826"><ele>468.0</ele><time>2026-04-23T17:34:21Z</time></trkpt><trkpt lat="44.39208093214894" lon="7.659874868393615"><ele>468.0</ele><time>2026-04-23T17:34:22Z</time></trkpt><trkpt lat="44.39214900128488" lon="7.65996637319004"><ele>468.0</ele><time>2026-04-23T17:34:23Z</time></trkpt><trkpt lat="44.39220849443012" lon="7.660043949613967"><ele>468.0</ele><time>2026-04-23T17:34:24Z</time></trkpt><trkpt lat="44.39226652914322" lon="7.660120302226857"><ele>468.0</ele><time>2026-04-23T17:34:25Z</time></trkpt><trkpt lat="44.39235368915935" lon="7.660231868922163"><ele>468.0</ele><time>2026-04-23T17:34:27Z</time></trkpt><trkpt lat="44.39240478158932" lon="7.660290350986087"><ele>468.0</ele><time>2026-04-23T17:34:29Z</time></trkpt><trkpt lat="44.39246180989802" lon="7.660374959684888"><ele>468.0</ele><time>2026-04-23T17:34:42Z</time></trkpt><trkpt lat="44.392544574853865" lon="7.6604921897298235"><ele>467.99999999999994</ele><time>2026-04-23T17:34:45Z</time></trkpt><trkpt lat="44.39257608616189" lon="7.660570692035317"><ele>467.99999999999994</ele><time>2026-04-23T17:34:46Z</time></trkpt><trkpt lat="44.39262160237029" lon="7.660674893005192"><ele>468.0</ele><time>2026-04-23T17:34:47Z</time></trkpt><trkpt lat="44.39267785499037" lon="7.660798513759027"><ele>468.0</ele><time>2026-04-23T17:34:48Z</time></trkpt><trkpt lat="44.392736175733255" lon="7.660929158108125"><ele>468.0</ele><time>2026-04-23T17:34:49Z</time></trkpt><trkpt lat="44.39280592297819" lon="7.661087161299412"><ele>468.0</ele><time>2026-04-23T17:34:50Z</time></trkpt><trkpt lat="44.39287443043819" lon="7.661243577854818"><ele>468.0</ele><time>2026-04-23T17:34:51Z</time></trkpt><trkpt lat="44.39294989371546" lon="7.661416026702039"><ele>468.0</ele><time>2026-04-23T17:34:52Z</time></trkpt><trkpt lat="44.393037030429696" lon="7.661607812055843"><ele>467.66666666666663</ele><time>2026-04-23T17:34:53Z</time></trkpt><trkpt lat="44.3931210593306" lon="7.661805988784115"><ele>467.3333333333333</ele><time>2026-04-23T17:34:54Z</time></trkpt><trkpt lat="44.39322229360878" lon="7.662016337944448"><ele>467.0</ele><time>2026-04-23T17:34:55Z</time></trkpt><trkpt lat="44.39332028376973" lon="7.66223588151534"><ele>467.0</ele><time>2026-04-23T17:34:56Z</time></trkpt><trkpt lat="44.39342301886384" lon="7.662450554338912"><ele>467.0</ele><time>2026-04-23T17:34:57Z</time></trkpt><trkpt lat="44.393531476894445" lon="7.662677094402133"><ele>467.0</ele><time>2026-04-23T17:34:58Z</time></trkpt><trkpt lat="44.393636093111816" lon="7.662905562680712"><ele>466.3333333333333</ele><time>2026-04-23T17:34:59Z</time></trkpt><trkpt lat="44.3937310723531" lon="7.663128272457517"><ele>465.66666666666663</ele><time>2026-04-23T17:35:00Z</time></trkpt><trkpt lat="44.39384176172084" lon="7.6633846889096695"><ele>465.0</ele><time>2026-04-23T17:35:01Z</time></trkpt><trkpt lat="44.39394655203315" lon="7.663603120860583"><ele>464.66666666666663</ele><time>2026-04-23T17:35:01.999Z</time></trkpt><trkpt lat="44.39405811431044" lon="7.6638284607459335"><ele>464.3333333333333</ele><time>2026-04-23T17:35:02.999Z</time></trkpt><trkpt lat="44.39416919384343" lon="7.664060851597931"><ele>464.0</ele><time>2026-04-23T17:35:03.999Z</time></trkpt><trkpt lat="44.39427989181355" lon="7.664303260155004"><ele>464.3333333333333</ele><time>2026-04-23T17:35:04.999Z</time></trkpt><trkpt lat="44.39438950824465" lon="7.664553456065006"><ele>464.66666666666663</ele><time>2026-04-23T17:35:05.999Z</time></trkpt><trkpt lat="44.394502139349406" lon="7.664807033451648"><ele>465.0</ele><time>2026-04-23T17:35:06.999Z</time></trkpt><trkpt lat="44.39462131077492" lon="7.665066009055925"><ele>464.5</ele><time>2026-04-23T17:35:07.999Z</time></trkpt><trkpt lat="44.3947420461782" lon="7.665329837108846"><ele>464.0</ele><time>2026-04-23T17:35:08.999Z</time></trkpt><trkpt lat="44.3948668495829" lon="7.665602901343189"><ele>464.0</ele><time>2026-04-23T17:35:09.999Z</time></trkpt><trkpt lat="44.39499240907772" lon="7.6658819645569265"><ele>464.0</ele><time>2026-04-23T17:35:10.999Z</time></trkpt><trkpt lat="44.3951108720094" lon="7.666153372491808"><ele>462.66666666666663</ele><time>2026-04-23T17:35:11.999Z</time></trkpt><trkpt lat="44.395225135654734" lon="7.666399437720779"><ele>461.33333333333337</ele><time>2026-04-23T17:35:12.999Z</time></trkpt><trkpt lat="44.39533352756403" lon="7.666636193083806"><ele>460.0</ele><time>2026-04-23T17:35:13.999Z</time></trkpt><trkpt lat="44.39543402426406" lon="7.666859766674305"><ele>460.0</ele><time>2026-04-23T17:35:14.999Z</time></trkpt><trkpt lat="44.39552736277149" lon="7.667062326646844"><ele>460.0</ele><time>2026-04-23T17:35:15.999Z</time></trkpt><trkpt lat="44.39561626383543" lon="7.6672569229579866"><ele>460.0</ele><time>2026-04-23T17:35:16.999Z</time></trkpt><trkpt lat="44.39570722983888" lon="7.667479293041388"><ele>460.0</ele><time>2026-04-23T17:35:17.999Z</time></trkpt><trkpt lat="44.3957880217338" lon="7.667723088184132"><ele>460.0</ele><time>2026-04-23T17:35:18.999Z</time></trkpt><trkpt lat="44.395853339525395" lon="7.667989512903081"><ele>460.0</ele><time>2026-04-23T17:35:19.999Z</time></trkpt><trkpt lat="44.395907031633286" lon="7.668258635392137"><ele>460.0</ele><time>2026-04-23T17:35:20.999Z</time></trkpt><trkpt lat="44.395941562185435" lon="7.668547983893367"><ele>460.0</ele><time>2026-04-23T17:35:21.999Z</time></trkpt><trkpt lat="44.39599391069361" lon="7.668838385171309"><ele>460.0</ele><time>2026-04-23T17:35:22.999Z</time></trkpt><trkpt lat="44.39604544046302" lon="7.669138347672708"><ele>460.0</ele><time>2026-04-23T17:35:23.999Z</time></trkpt><trkpt lat="44.396097584482646" lon="7.669441885792474"><ele>460.0</ele><time>2026-04-23T17:35:24.999Z</time></trkpt><trkpt lat="44.396160816358545" lon="7.669713973401868"><ele>460.0</ele><time>2026-04-23T17:35:25.999Z</time></trkpt><trkpt lat="44.39618944645981" lon="7.669976628104182"><ele>460.0</ele><time>2026-04-23T17:35:26.999Z</time></trkpt><trkpt lat="44.39623329475602" lon="7.670237684084392"><ele>460.0</ele><time>2026-04-23T17:35:27.999Z</time></trkpt><trkpt lat="44.39627543739987" lon="7.670490629053687"><ele>460.0</ele><time>2026-04-23T17:35:28.999Z</time></trkpt><trkpt lat="44.39633124622675" lon="7.670727008860253"><ele>459.6666666666667</ele><time>2026-04-23T17:35:29.999Z</time></trkpt><trkpt lat="44.39637173686591" lon="7.67096650674574"><ele>459.33333333333337</ele><time>2026-04-23T17:35:30.999Z</time></trkpt><trkpt lat="44.396423429568344" lon="7.671226850327363"><ele>459.0</ele><time>2026-04-23T17:35:31.999Z</time></trkpt><trkpt lat="44.39648846704822" lon="7.67148495764878"><ele>458.66666666666663</ele><time>2026-04-23T17:35:32.999Z</time></trkpt><trkpt lat="44.39657679161985" lon="7.671732769093802"><ele>458.3333333333333</ele><time>2026-04-23T17:35:33.999Z</time></trkpt><trkpt lat="44.39668628001191" lon="7.671977135389945"><ele>458.0</ele><time>2026-04-23T17:35:34.999Z</time></trkpt><trkpt lat="44.396791484613345" lon="7.67222326522645"><ele>458.0</ele><time>2026-04-23T17:35:35.999Z</time></trkpt><trkpt lat="44.396889150695436" lon="7.672487234945566"><ele>458.0</ele><time>2026-04-23T17:35:36.999Z</time></trkpt><trkpt lat="44.39699989566587" lon="7.67275571355077"><ele>458.0</ele><time>2026-04-23T17:35:37.999Z</time></trkpt><trkpt lat="44.39711081461712" lon="7.673024613945617"><ele>458.0</ele><time>2026-04-23T17:35:38.999Z</time></trkpt><trkpt lat="44.397219428262616" lon="7.673287766360605"><ele>458.0</ele><time>2026-04-23T17:35:39.999Z</time></trkpt><trkpt lat="44.39733038584344" lon="7.6735176804047995"><ele>458.0</ele><time>2026-04-23T17:35:40.999Z</time></trkpt><trkpt lat="44.39742140352118" lon="7.673762761608141"><ele>458.0</ele><time>2026-04-23T17:35:41.999Z</time></trkpt><trkpt lat="44.39751927828485" lon="7.673994733510676"><ele>458.0</ele><time>2026-04-23T17:35:42.999Z</time></trkpt><trkpt lat="44.39761084867018" lon="7.67422691639564"><ele>458.0</ele><time>2026-04-23T17:35:43.999Z</time></trkpt><trkpt lat="44.397701652907344" lon="7.674449352178988"><ele>458.3333333333333</ele><time>2026-04-23T17:35:44.999Z</time></trkpt><trkpt lat="44.397791952003125" lon="7.674669713736029"><ele>458.66666666666663</ele><time>2026-04-23T17:35:45.999Z</time></trkpt><trkpt lat="44.39787863053811" lon="7.674893433632092"><ele>459.0</ele><time>2026-04-23T17:35:46.999Z</time></trkpt><trkpt lat="44.39796637608432" lon="7.675101912752349"><ele>458.33333333333337</ele><time>2026-04-23T17:35:47.999Z</time></trkpt><trkpt lat="44.39805355564922" lon="7.675302323206397"><ele>457.6666666666667</ele><time>2026-04-23T17:35:48.999Z</time></trkpt><trkpt lat="44.39813231704784" lon="7.67548366626082"><ele>457.0</ele><time>2026-04-23T17:35:49.999Z</time></trkpt><trkpt lat="44.39820691247225" lon="7.675664206622325"><ele>457.0</ele><time>2026-04-23T17:35:50.999Z</time></trkpt><trkpt lat="44.39827555634383" lon="7.675826597486908"><ele>457.0</ele><time>2026-04-23T17:35:51.999Z</time></trkpt><trkpt lat="44.398340445849755" lon="7.675976493099525"><ele>457.0</ele><time>2026-04-23T17:35:52.999Z</time></trkpt><trkpt lat="44.39840413952017" lon="7.676125583736179"><ele>457.0</ele><time>2026-04-23T17:35:53.999Z</time></trkpt><trkpt lat="44.39845460404889" lon="7.676262006334483"><ele>456.75</ele><time>2026-04-23T17:35:54.999Z</time></trkpt><trkpt lat="44.39850849336267" lon="7.676410804801489"><ele>456.5</ele><time>2026-04-23T17:35:55.999Z</time></trkpt><trkpt lat="44.398563788685514" lon="7.6765534998413765"><ele>456.25</ele><time>2026-04-23T17:35:56.999Z</time></trkpt><trkpt lat="44.39862030454865" lon="7.6766875083142985"><ele>456.0</ele><time>2026-04-23T17:35:57.999Z</time></trkpt><trkpt lat="44.39868086792786" lon="7.676833279885082"><ele>456.0</ele><time>2026-04-23T17:35:58.999Z</time></trkpt><trkpt lat="44.39873525795312" lon="7.676963218917148"><ele>456.0</ele><time>2026-04-23T17:35:59.999Z</time></trkpt><trkpt lat="44.398783806304145" lon="7.677091272302668"><ele>456.0</ele><time>2026-04-23T17:36:00.998Z</time></trkpt><trkpt lat="44.39883944267403" lon="7.677221137871341"><ele>456.0</ele><time>2026-04-23T17:36:01.998Z</time></trkpt><trkpt lat="44.39889293987989" lon="7.677342508730653"><ele>456.0</ele><time>2026-04-23T17:36:02.998Z</time></trkpt><trkpt lat="44.39894526458891" lon="7.677468824625035"><ele>456.0</ele><time>2026-04-23T17:36:03.998Z</time></trkpt><trkpt lat="44.398999277404826" lon="7.677596152831523"><ele>456.0</ele><time>2026-04-23T17:36:04.998Z</time></trkpt><trkpt lat="44.39904940437074" lon="7.677727720763913"><ele>456.0</ele><time>2026-04-23T17:36:05.998Z</time></trkpt><trkpt lat="44.399101424315646" lon="7.677868410356317"><ele>456.0</ele><time>2026-04-23T17:36:06.998Z</time></trkpt><trkpt lat="44.39915444692365" lon="7.677999484165133"><ele>456.0</ele><time>2026-04-23T17:36:07.998Z</time></trkpt><trkpt lat="44.39920501906509" lon="7.678118435751255"><ele>456.0</ele><time>2026-04-23T17:36:08.998Z</time></trkpt><trkpt lat="44.39925021827893" lon="7.678242717601576"><ele>456.0</ele><time>2026-04-23T17:36:09.998Z</time></trkpt><trkpt lat="44.399302095553075" lon="7.678371158290531"><ele>456.0</ele><time>2026-04-23T17:36:10.998Z</time></trkpt><trkpt lat="44.399356138036595" lon="7.678509433155605"><ele>456.0</ele><time>2026-04-23T17:36:11.998Z</time></trkpt><trkpt lat="44.39941245445834" lon="7.678648188201275"><ele>456.0</ele><time>2026-04-23T17:36:12.998Z</time></trkpt><trkpt lat="44.39946012658664" lon="7.678776555669909"><ele>456.0</ele><time>2026-04-23T17:36:13.998Z</time></trkpt><trkpt lat="44.39951376358009" lon="7.678906274447868"><ele>456.0</ele><time>2026-04-23T17:36:14.998Z</time></trkpt><trkpt lat="44.399581269846024" lon="7.6790301152526865"><ele>456.0</ele><time>2026-04-23T17:36:15.998Z</time></trkpt><trkpt lat="44.39964179426338" lon="7.679162711063684"><ele>456.0</ele><time>2026-04-23T17:36:16.998Z</time></trkpt><trkpt lat="44.399698414798245" lon="7.6792833001587075"><ele>456.0</ele><time>2026-04-23T17:36:17.998Z</time></trkpt><trkpt lat="44.399758376112764" lon="7.679402876720058"><ele>455.5</ele><time>2026-04-23T17:36:18.998Z</time></trkpt><trkpt lat="44.39982882076455" lon="7.6795192030907895"><ele>455.0</ele><time>2026-04-23T17:36:19.998Z</time></trkpt><trkpt lat="44.39990065346461" lon="7.679645401260212"><ele>454.5</ele><time>2026-04-23T17:36:20.998Z</time></trkpt><trkpt lat="44.39997576163535" lon="7.679768047812518"><ele>454.0</ele><time>2026-04-23T17:36:21.998Z</time></trkpt><trkpt lat="44.40005431528472" lon="7.679890499173889"><ele>454.0</ele><time>2026-04-23T17:36:22.998Z</time></trkpt><trkpt lat="44.40012178133407" lon="7.680007183263983"><ele>454.0</ele><time>2026-04-23T17:36:23.998Z</time></trkpt><trkpt lat="44.40018785626712" lon="7.680112435336525"><ele>454.0</ele><time>2026-04-23T17:36:24.998Z</time></trkpt><trkpt lat="44.400257829929885" lon="7.680224364295392"><ele>454.0</ele><time>2026-04-23T17:36:26Z</time></trkpt><trkpt lat="44.400331692686265" lon="7.680336218606061"><ele>454.0</ele><time>2026-04-23T17:36:27Z</time></trkpt><trkpt lat="44.40040356890435" lon="7.680455553667527"><ele>453.79999999999995</ele><time>2026-04-23T17:36:28Z</time></trkpt><trkpt lat="44.40048031401177" lon="7.680573225109453"><ele>453.59999999999997</ele><time>2026-04-23T17:36:29Z</time></trkpt><trkpt lat="44.4005338456636" lon="7.680713622097952"><ele>453.4</ele><time>2026-04-23T17:36:30Z</time></trkpt><trkpt lat="44.400598699281396" lon="7.680822313355595"><ele>453.2</ele><time>2026-04-23T17:36:31Z</time></trkpt><trkpt lat="44.40066252244613" lon="7.68093946939105"><ele>453.0</ele><time>2026-04-23T17:36:32Z</time></trkpt><trkpt lat="44.40073138997429" lon="7.681061063315775"><ele>452.59999999999997</ele><time>2026-04-23T17:36:33Z</time></trkpt><trkpt lat="44.40079889174063" lon="7.681189526790374"><ele>452.19999999999993</ele><time>2026-04-23T17:36:34Z</time></trkpt><trkpt lat="44.400864228445414" lon="7.681310568495758"><ele>451.8</ele><time>2026-04-23T17:36:35Z</time></trkpt><trkpt lat="44.40093153538492" lon="7.681433452718156"><ele>451.4</ele><time>2026-04-23T17:36:36Z</time></trkpt><trkpt lat="44.40100332866713" lon="7.6815619687063466"><ele>451.0</ele><time>2026-04-23T17:36:37Z</time></trkpt><trkpt lat="44.40106854745689" lon="7.6816825535060405"><ele>451.0</ele><time>2026-04-23T17:36:38Z</time></trkpt><trkpt lat="44.40114495373739" lon="7.681793691070755"><ele>451.0</ele><time>2026-04-23T17:36:39Z</time></trkpt><trkpt lat="44.401221785981186" lon="7.6819032822670685"><ele>451.0</ele><time>2026-04-23T17:36:40Z</time></trkpt><trkpt lat="44.40129962011183" lon="7.682011559515798"><ele>451.0</ele><time>2026-04-23T17:36:41Z</time></trkpt><trkpt lat="44.401374775246516" lon="7.682115766744501"><ele>451.0</ele><time>2026-04-23T17:36:42Z</time></trkpt><trkpt lat="44.401455689713224" lon="7.68221659012788"><ele>451.0</ele><time>2026-04-23T17:36:43Z</time></trkpt><trkpt lat="44.40152887240285" lon="7.682311057047897"><ele>451.0</ele><time>2026-04-23T17:36:44Z</time></trkpt><trkpt lat="44.40159923016236" lon="7.682403170044492"><ele>451.0</ele><time>2026-04-23T17:36:45Z</time></trkpt><trkpt lat="44.40167345364934" lon="7.682495521545641"><ele>451.0</ele><time>2026-04-23T17:36:46Z</time></trkpt><trkpt lat="44.401741024858524" lon="7.682584163888952"><ele>451.0</ele><time>2026-04-23T17:36:47Z</time></trkpt><trkpt lat="44.40180729568183" lon="7.682674551643777"><ele>451.0</ele><time>2026-04-23T17:36:48Z</time></trkpt><trkpt lat="44.40187804717142" lon="7.682774098848587"><ele>451.0</ele><time>2026-04-23T17:36:49Z</time></trkpt><trkpt lat="44.40193845834628" lon="7.682871331218262"><ele>451.0</ele><time>2026-04-23T17:36:50Z</time></trkpt><trkpt lat="44.40199253169976" lon="7.682980250970735"><ele>451.0</ele><time>2026-04-23T17:36:51Z</time></trkpt><trkpt lat="44.40203798994862" lon="7.683084497558807"><ele>451.0</ele><time>2026-04-23T17:36:52Z</time></trkpt><trkpt lat="44.402090066196656" lon="7.683195759457501"><ele>451.00000000000006</ele><time>2026-04-23T17:36:53Z</time></trkpt><trkpt lat="44.40213884199842" lon="7.683310347140082"><ele>451.0</ele><time>2026-04-23T17:36:54Z</time></trkpt><trkpt lat="44.40217811538188" lon="7.683419481305103"><ele>451.0</ele><time>2026-04-23T17:36:55Z</time></trkpt><trkpt lat="44.4022137915961" lon="7.68352847019061"><ele>451.0</ele><time>2026-04-23T17:36:56Z</time></trkpt><trkpt lat="44.40224842649891" lon="7.683633390708134"><ele>451.00000000000006</ele><time>2026-04-23T17:36:57Z</time></trkpt><trkpt lat="44.402291617329546" lon="7.68373962194558"><ele>451.0</ele><time>2026-04-23T17:36:58Z</time></trkpt><trkpt lat="44.40233621211642" lon="7.683846624683735"><ele>451.20000000000005</ele><time>2026-04-23T17:36:59Z</time></trkpt><trkpt lat="44.402374483062346" lon="7.683949002561411"><ele>451.40000000000003</ele><time>2026-04-23T17:37:00Z</time></trkpt><trkpt lat="44.40241112306829" lon="7.684061370550446"><ele>451.6</ele><time>2026-04-23T17:37:01Z</time></trkpt><trkpt lat="44.40245083521546" lon="7.684198188591258"><ele>451.8</ele><time>2026-04-23T17:37:02Z</time></trkpt><trkpt lat="44.40249506196811" lon="7.684350722618282"><ele>452.0</ele><time>2026-04-23T17:37:03Z</time></trkpt><trkpt lat="44.40253003803032" lon="7.684486318079897"><ele>452.16666666666663</ele><time>2026-04-23T17:37:04Z</time></trkpt><trkpt lat="44.402559092672554" lon="7.684621845603495"><ele>452.3333333333333</ele><time>2026-04-23T17:37:05Z</time></trkpt><trkpt lat="44.40258006791608" lon="7.684742705025166"><ele>452.5</ele><time>2026-04-23T17:37:06Z</time></trkpt><trkpt lat="44.40260400512699" lon="7.684852662456095"><ele>452.66666666666663</ele><time>2026-04-23T17:37:07Z</time></trkpt><trkpt lat="44.40262770045129" lon="7.684958337941813"><ele>452.8333333333333</ele><time>2026-04-23T17:37:07.999Z</time></trkpt><trkpt lat="44.4026375944047" lon="7.685051639626138"><ele>453.0</ele><time>2026-04-23T17:37:08.999Z</time></trkpt><trkpt lat="44.40266498942124" lon="7.6851352782505575"><ele>453.0</ele><time>2026-04-23T17:37:09.999Z</time></trkpt><trkpt lat="44.40275066456226" lon="7.685249990094482"><ele>453.0</ele><time>2026-04-23T17:37:11.999Z</time></trkpt><trkpt lat="44.402882467304515" lon="7.685280682340909"><ele>453.0</ele><time>2026-04-23T17:37:13.999Z</time></trkpt><trkpt lat="44.40297209455655" lon="7.685256888310422"><ele>453.0</ele><time>2026-04-23T17:37:14.999Z</time></trkpt><trkpt lat="44.40308295657455" lon="7.685217197350522"><ele>452.0</ele><time>2026-04-23T17:37:15.999Z</time></trkpt><trkpt lat="44.40320372918922" lon="7.685177636832271"><ele>451.0</ele><time>2026-04-23T17:37:16.999Z</time></trkpt><trkpt lat="44.40333290524163" lon="7.685165733243644"><ele>450.0</ele><time>2026-04-23T17:37:17.999Z</time></trkpt><trkpt lat="44.403452751789594" lon="7.685132325288483"><ele>449.0</ele><time>2026-04-23T17:37:18.999Z</time></trkpt><trkpt lat="44.40355452770252" lon="7.6851055413293805"><ele>449.0</ele><time>2026-04-23T17:37:19.999Z</time></trkpt><trkpt lat="44.40366409094508" lon="7.68508405257816"><ele>449.0</ele><time>2026-04-23T17:37:20.999Z</time></trkpt><trkpt lat="44.403786183363906" lon="7.685047683574807"><ele>449.0</ele><time>2026-04-23T17:37:21.999Z</time></trkpt><trkpt lat="44.40389676465327" lon="7.68502256971226"><ele>449.0</ele><time>2026-04-23T17:37:22.999Z</time></trkpt><trkpt lat="44.40400310780071" lon="7.6849951810619395"><ele>448.5</ele><time>2026-04-23T17:37:23.999Z</time></trkpt><trkpt lat="44.40411689563574" lon="7.684999012181036"><ele>448.0</ele><time>2026-04-23T17:37:24.999Z</time></trkpt><trkpt lat="44.40424971214125" lon="7.685034920546596"><ele>447.5</ele><time>2026-04-23T17:37:25.999Z</time></trkpt><trkpt lat="44.40436307347073" lon="7.6850806601291275"><ele>447.0</ele><time>2026-04-23T17:37:26.999Z</time></trkpt><trkpt lat="44.40446956274263" lon="7.685134546143311"><ele>447.0</ele><time>2026-04-23T17:37:27.999Z</time></trkpt><trkpt lat="44.40456778087891" lon="7.6852151422779285"><ele>447.00000000000006</ele><time>2026-04-23T17:37:28.999Z</time></trkpt><trkpt lat="44.40466443539442" lon="7.685299899833105"><ele>447.00000000000006</ele><time>2026-04-23T17:37:29.999Z</time></trkpt><trkpt lat="44.404755532889496" lon="7.685389718069164"><ele>447.0</ele><time>2026-04-23T17:37:30.999Z</time></trkpt><trkpt lat="44.404842174398205" lon="7.685460143775419"><ele>447.0</ele><time>2026-04-23T17:37:31.999Z</time></trkpt><trkpt lat="44.404930112076165" lon="7.685539584333688"><ele>447.20000000000005</ele><time>2026-04-23T17:37:32.999Z</time></trkpt><trkpt lat="44.40501530486513" lon="7.685622830719933"><ele>447.40000000000003</ele><time>2026-04-23T17:37:33.999Z</time></trkpt><trkpt lat="44.405095310195904" lon="7.685708869786807"><ele>447.59999999999997</ele><time>2026-04-23T17:37:34.999Z</time></trkpt><trkpt lat="44.405174720493605" lon="7.685812735336513"><ele>447.79999999999995</ele><time>2026-04-23T17:37:35.999Z</time></trkpt><trkpt lat="44.40524971233681" lon="7.685932942266147"><ele>448.0</ele><time>2026-04-23T17:37:36.999Z</time></trkpt><trkpt lat="44.40531123116665" lon="7.686045476811803"><ele>447.79999999999995</ele><time>2026-04-23T17:37:37.999Z</time></trkpt><trkpt lat="44.405387669823796" lon="7.686158164982759"><ele>447.59999999999997</ele><time>2026-04-23T17:37:38.999Z</time></trkpt><trkpt lat="44.40546288048482" lon="7.686270147915514"><ele>447.40000000000003</ele><time>2026-04-23T17:37:39.999Z</time></trkpt><trkpt lat="44.40552951963884" lon="7.686381829527693"><ele>447.20000000000005</ele><time>2026-04-23T17:37:40.999Z</time></trkpt><trkpt lat="44.405599180058076" lon="7.6864920845522215"><ele>447.0</ele><time>2026-04-23T17:37:41.999Z</time></trkpt><trkpt lat="44.40567942193732" lon="7.686599724396654"><ele>447.20000000000005</ele><time>2026-04-23T17:37:42.999Z</time></trkpt><trkpt lat="44.40576155935676" lon="7.686709447830281"><ele>447.40000000000003</ele><time>2026-04-23T17:37:43.999Z</time></trkpt><trkpt lat="44.40584250910503" lon="7.686822894909841"><ele>447.59999999999997</ele><time>2026-04-23T17:37:44.999Z</time></trkpt><trkpt lat="44.40591882829068" lon="7.68692185317025"><ele>447.79999999999995</ele><time>2026-04-23T17:37:45.999Z</time></trkpt><trkpt lat="44.40599054233066" lon="7.687011764413059"><ele>448.0</ele><time>2026-04-23T17:37:46.999Z</time></trkpt><trkpt lat="44.40606721220774" lon="7.687110625732988"><ele>448.0</ele><time>2026-04-23T17:37:47.999Z</time></trkpt><trkpt lat="44.40613925649391" lon="7.6872021133007715"><ele>447.99999999999994</ele><time>2026-04-23T17:37:48.999Z</time></trkpt><trkpt lat="44.40621721383429" lon="7.68729781490399"><ele>447.99999999999994</ele><time>2026-04-23T17:37:49.999Z</time></trkpt><trkpt lat="44.40629092362614" lon="7.687396684250272"><ele>448.0</ele><time>2026-04-23T17:37:50.999Z</time></trkpt><trkpt lat="44.40637318567912" lon="7.687495235829882"><ele>448.0</ele><time>2026-04-23T17:37:51.999Z</time></trkpt><trkpt lat="44.40645156936954" lon="7.6875907402107835"><ele>447.59999999999997</ele><time>2026-04-23T17:37:52.999Z</time></trkpt><trkpt lat="44.406531432441476" lon="7.687688441240796"><ele>447.19999999999993</ele><time>2026-04-23T17:37:53.999Z</time></trkpt><trkpt lat="44.40661566520838" lon="7.687796982244445"><ele>446.8</ele><time>2026-04-23T17:37:54.999Z</time></trkpt><trkpt lat="44.40669714749726" lon="7.687903504485636"><ele>446.4</ele><time>2026-04-23T17:37:55.999Z</time></trkpt><trkpt lat="44.40678288440399" lon="7.688010713167525"><ele>446.0</ele><time>2026-04-23T17:37:56.999Z</time></trkpt><trkpt lat="44.40686349736889" lon="7.688127334359583"><ele>446.0</ele><time>2026-04-23T17:37:57.999Z</time></trkpt><trkpt lat="44.406934821743874" lon="7.688236294695597"><ele>446.0</ele><time>2026-04-23T17:37:58.999Z</time></trkpt><trkpt lat="44.40701333775898" lon="7.688361014309352"><ele>446.0</ele><time>2026-04-23T17:37:59.999Z</time></trkpt><trkpt lat="44.407091598808" lon="7.688488301510917"><ele>446.0</ele><time>2026-04-23T17:38:00.999Z</time></trkpt><trkpt lat="44.40715753746777" lon="7.6886058917663735"><ele>446.0</ele><time>2026-04-23T17:38:01.999Z</time></trkpt><trkpt lat="44.40722470031106" lon="7.688717104161504"><ele>446.0</ele><time>2026-04-23T17:38:02.999Z</time></trkpt><trkpt lat="44.40729322331891" lon="7.688833722294391"><ele>446.0</ele><time>2026-04-23T17:38:03.999Z</time></trkpt><trkpt lat="44.40736325894475" lon="7.688945161297749"><ele>446.0</ele><time>2026-04-23T17:38:04.999Z</time></trkpt><trkpt lat="44.40743100834124" lon="7.689059768334984"><ele>446.0</ele><time>2026-04-23T17:38:05.999Z</time></trkpt><trkpt lat="44.407499993718396" lon="7.6891717506276915"><ele>446.0</ele><time>2026-04-23T17:38:06.998Z</time></trkpt><trkpt lat="44.40757602734622" lon="7.689292181316468"><ele>446.0</ele><time>2026-04-23T17:38:07.998Z</time></trkpt><trkpt lat="44.40765706011421" lon="7.689427443199154"><ele>446.0</ele><time>2026-04-23T17:38:08.998Z</time></trkpt><trkpt lat="44.40774207438455" lon="7.689601781862735"><ele>446.0</ele><time>2026-04-23T17:38:09.998Z</time></trkpt><trkpt lat="44.40783745872395" lon="7.689765121605124"><ele>445.3333333333333</ele><time>2026-04-23T17:38:10.998Z</time></trkpt><trkpt lat="44.40793968206479" lon="7.689942444532244"><ele>444.66666666666663</ele><time>2026-04-23T17:38:11.998Z</time></trkpt><trkpt lat="44.40806044918069" lon="7.690126554605866"><ele>444.0</ele><time>2026-04-23T17:38:12.998Z</time></trkpt><trkpt lat="44.408176945167796" lon="7.690328989946143"><ele>443.66666666666663</ele><time>2026-04-23T17:38:13.998Z</time></trkpt><trkpt lat="44.40830164873608" lon="7.690536331896482"><ele>443.3333333333333</ele><time>2026-04-23T17:38:14.998Z</time></trkpt><trkpt lat="44.40842465903197" lon="7.690756089994721"><ele>443.0</ele><time>2026-04-23T17:38:15.998Z</time></trkpt><trkpt lat="44.408556092285444" lon="7.6909866872656005"><ele>443.0</ele><time>2026-04-23T17:38:16.998Z</time></trkpt><trkpt lat="44.408683878075664" lon="7.691216544075862"><ele>443.0</ele><time>2026-04-23T17:38:17.998Z</time></trkpt><trkpt lat="44.40879959866384" lon="7.691426159987182"><ele>443.0</ele><time>2026-04-23T17:38:18.998Z</time></trkpt><trkpt lat="44.408916534037765" lon="7.691634189678101"><ele>443.0</ele><time>2026-04-23T17:38:19.998Z</time></trkpt><trkpt lat="44.40903938302327" lon="7.691854424347705"><ele>443.0</ele><time>2026-04-23T17:38:20.998Z</time></trkpt><trkpt lat="44.409156779509836" lon="7.6920688958688554"><ele>443.0</ele><time>2026-04-23T17:38:21.998Z</time></trkpt><trkpt lat="44.40927358422378" lon="7.692290789794397"><ele>442.3333333333333</ele><time>2026-04-23T17:38:22.998Z</time></trkpt><trkpt lat="44.40938526840822" lon="7.692507169265676"><ele>441.66666666666663</ele><time>2026-04-23T17:38:23.998Z</time></trkpt><trkpt lat="44.40949294629309" lon="7.692727914718989"><ele>441.0</ele><time>2026-04-23T17:38:24.998Z</time></trkpt><trkpt lat="44.409581631352204" lon="7.692981294694592"><ele>441.0</ele><time>2026-04-23T17:38:25.998Z</time></trkpt><trkpt lat="44.409677988283896" lon="7.693221236173182"><ele>441.0</ele><time>2026-04-23T17:38:26.998Z</time></trkpt><trkpt lat="44.40976778414471" lon="7.693447771726211"><ele>441.0</ele><time>2026-04-23T17:38:27.998Z</time></trkpt><trkpt lat="44.409857613892356" lon="7.693666991987179"><ele>440.66666666666663</ele><time>2026-04-23T17:38:28.998Z</time></trkpt><trkpt lat="44.40995179592508" lon="7.6938795613224364"><ele>440.3333333333333</ele><time>2026-04-23T17:38:29.998Z</time></trkpt><trkpt lat="44.410058388541856" lon="7.694095274609423"><ele>440.0</ele><time>2026-04-23T17:38:30.998Z</time></trkpt><trkpt lat="44.41017773776472" lon="7.69431442376342"><ele>440.0</ele><time>2026-04-23T17:38:32Z</time></trkpt><trkpt lat="44.41029296180863" lon="7.69452015942427"><ele>440.0</ele><time>2026-04-23T17:38:33Z</time></trkpt><trkpt lat="44.410411210308254" lon="7.6947216933777725"><ele>440.0</ele><time>2026-04-23T17:38:34Z</time></trkpt><trkpt lat="44.41053154490853" lon="7.694917377638904"><ele>440.0</ele><time>2026-04-23T17:38:35Z</time></trkpt><trkpt lat="44.41065475225611" lon="7.6950993769616"><ele>440.0</ele><time>2026-04-23T17:38:36Z</time></trkpt><trkpt lat="44.410791323055534" lon="7.695283721102361"><ele>440.0</ele><time>2026-04-23T17:38:37Z</time></trkpt><trkpt lat="44.410944877645946" lon="7.69543963199889"><ele>440.0</ele><time>2026-04-23T17:38:38Z</time></trkpt><trkpt lat="44.41110202016543" lon="7.695596365155199"><ele>440.0</ele><time>2026-04-23T17:38:39Z</time></trkpt><trkpt lat="44.41127199573483" lon="7.695755612499226"><ele>440.0</ele><time>2026-04-23T17:38:40Z</time></trkpt><trkpt lat="44.41144356629933" lon="7.695904165224367"><ele>440.0</ele><time>2026-04-23T17:38:41Z</time></trkpt><trkpt lat="44.411621063791024" lon="7.696055178071167"><ele>440.0</ele><time>2026-04-23T17:38:42Z</time></trkpt><trkpt lat="44.411788615281466" lon="7.696196162731038"><ele>440.0</ele><time>2026-04-23T17:38:43Z</time></trkpt><trkpt lat="44.41194544199275" lon="7.696333582764645"><ele>440.0</ele><time>2026-04-23T17:38:44Z</time></trkpt><trkpt lat="44.41209005550269" lon="7.696459713689961"><ele>440.0</ele><time>2026-04-23T17:38:45Z</time></trkpt><trkpt lat="44.41222742947159" lon="7.696584619928522"><ele>440.0</ele><time>2026-04-23T17:38:46Z</time></trkpt><trkpt lat="44.41236527140816" lon="7.696728429131496"><ele>440.0</ele><time>2026-04-23T17:38:47Z</time></trkpt><trkpt lat="44.41248686572257" lon="7.696908443206189"><ele>440.0</ele><time>2026-04-23T17:38:48Z</time></trkpt><trkpt lat="44.412609704972" lon="7.697099994448642"><ele>440.0</ele><time>2026-04-23T17:38:49Z</time></trkpt><trkpt lat="44.412731418015206" lon="7.6973053290058475"><ele>439.3333333333333</ele><time>2026-04-23T17:38:50Z</time></trkpt><trkpt lat="44.41285672850305" lon="7.697517777051588"><ele>438.66666666666663</ele><time>2026-04-23T17:38:51Z</time></trkpt><trkpt lat="44.412986295072855" lon="7.697737440772347"><ele>438.0</ele><time>2026-04-23T17:38:52Z</time></trkpt><trkpt lat="44.41311936888772" lon="7.697963050610882"><ele>437.66666666666663</ele><time>2026-04-23T17:38:53Z</time></trkpt><trkpt lat="44.413256617102085" lon="7.6981957376135535"><ele>437.3333333333333</ele><time>2026-04-23T17:38:54Z</time></trkpt><trkpt lat="44.413395711730715" lon="7.698430684219596"><ele>437.0</ele><time>2026-04-23T17:38:55Z</time></trkpt><trkpt lat="44.413528706740465" lon="7.698654064184631"><ele>437.0</ele><time>2026-04-23T17:38:56Z</time></trkpt><trkpt lat="44.41365320496478" lon="7.698863172865087"><ele>437.0</ele><time>2026-04-23T17:38:57Z</time></trkpt><trkpt lat="44.41377534542855" lon="7.699067497271172"><ele>437.0</ele><time>2026-04-23T17:38:58Z</time></trkpt><trkpt lat="44.413906301665556" lon="7.699278830233487"><ele>437.0</ele><time>2026-04-23T17:38:59Z</time></trkpt><trkpt lat="44.41404730475303" lon="7.699486928098189"><ele>437.0</ele><time>2026-04-23T17:39:00Z</time></trkpt><trkpt lat="44.414188293693016" lon="7.699670382682183"><ele>437.0</ele><time>2026-04-23T17:39:01Z</time></trkpt><trkpt lat="44.41433295223158" lon="7.699822250030475"><ele>437.0</ele><time>2026-04-23T17:39:02Z</time></trkpt><trkpt lat="44.414464890140195" lon="7.699979293565169"><ele>437.0</ele><time>2026-04-23T17:39:03Z</time></trkpt><trkpt lat="44.41459491429473" lon="7.700136227259916"><ele>437.0</ele><time>2026-04-23T17:39:04Z</time></trkpt><trkpt lat="44.41472515167746" lon="7.700285848424415"><ele>436.3333333333333</ele><time>2026-04-23T17:39:05Z</time></trkpt><trkpt lat="44.41485078728979" lon="7.700434293189002"><ele>435.66666666666663</ele><time>2026-04-23T17:39:06Z</time></trkpt><trkpt lat="44.41497804086097" lon="7.700592711606101"><ele>435.0</ele><time>2026-04-23T17:39:07Z</time></trkpt><trkpt lat="44.41510731387336" lon="7.700745619028767"><ele>435.0</ele><time>2026-04-23T17:39:08Z</time></trkpt><trkpt lat="44.415230061356695" lon="7.700892335485257"><ele>435.0</ele><time>2026-04-23T17:39:09Z</time></trkpt><trkpt lat="44.41535316577034" lon="7.701037633183035"><ele>435.0</ele><time>2026-04-23T17:39:10Z</time></trkpt><trkpt lat="44.41547851917419" lon="7.701185332727397"><ele>435.0</ele><time>2026-04-23T17:39:11Z</time></trkpt><trkpt lat="44.415607066983604" lon="7.701326840824283"><ele>435.0</ele><time>2026-04-23T17:39:12Z</time></trkpt><trkpt lat="44.415724980989076" lon="7.7014646814287895"><ele>435.0</ele><time>2026-04-23T17:39:13Z</time></trkpt><trkpt lat="44.415835009356044" lon="7.7015951511352565"><ele>435.0</ele><time>2026-04-23T17:39:14Z</time></trkpt><trkpt lat="44.41594604545504" lon="7.701723105217119"><ele>435.0</ele><time>2026-04-23T17:39:15Z</time></trkpt><trkpt lat="44.41606599428659" lon="7.701839854246412"><ele>435.0</ele><time>2026-04-23T17:39:15.999Z</time></trkpt><trkpt lat="44.416162697306326" lon="7.7019582052058135"><ele>435.0</ele><time>2026-04-23T17:39:16.999Z</time></trkpt><trkpt lat="44.416277194875505" lon="7.702075910074147"><ele>435.0</ele><time>2026-04-23T17:39:17.999Z</time></trkpt><trkpt lat="44.416399167731974" lon="7.702181240745329"><ele>435.0</ele><time>2026-04-23T17:39:18.999Z</time></trkpt><trkpt lat="44.416508203983476" lon="7.702294308429083"><ele>435.0</ele><time>2026-04-23T17:39:19.999Z</time></trkpt><trkpt lat="44.41662656488013" lon="7.70238550321323"><ele>435.0</ele><time>2026-04-23T17:39:20.999Z</time></trkpt><trkpt lat="44.41674502778894" lon="7.702475838651307"><ele>435.0</ele><time>2026-04-23T17:39:21.999Z</time></trkpt><trkpt lat="44.4168693059485" lon="7.702561967902205"><ele>435.0</ele><time>2026-04-23T17:39:22.999Z</time></trkpt><trkpt lat="44.4169889824635" lon="7.702644415199487"><ele>435.0</ele><time>2026-04-23T17:39:23.999Z</time></trkpt><trkpt lat="44.417102028480585" lon="7.702722431738441"><ele>435.0</ele><time>2026-04-23T17:39:24.999Z</time></trkpt><trkpt lat="44.41720756748511" lon="7.702798387362219"><ele>435.0</ele><time>2026-04-23T17:39:25.999Z</time></trkpt><trkpt lat="44.417324525337314" lon="7.702871581047537"><ele>435.0</ele><time>2026-04-23T17:39:26.999Z</time></trkpt><trkpt lat="44.41743447344993" lon="7.702936541039573"><ele>435.0</ele><time>2026-04-23T17:39:27.999Z</time></trkpt><trkpt lat="44.41753396506004" lon="7.703004547696908"><ele>435.0</ele><time>2026-04-23T17:39:28.999Z</time></trkpt><trkpt lat="44.41762512841869" lon="7.703071450320909"><ele>435.0</ele><time>2026-04-23T17:39:29.999Z</time></trkpt><trkpt lat="44.41772887066934" lon="7.70314193416547"><ele>435.0</ele><time>2026-04-23T17:39:30.999Z</time></trkpt><trkpt lat="44.41783395597326" lon="7.703209240644892"><ele>435.0</ele><time>2026-04-23T17:39:31.999Z</time></trkpt><trkpt lat="44.41794292012295" lon="7.703275590792214"><ele>435.0</ele><time>2026-04-23T17:39:32.999Z</time></trkpt><trkpt lat="44.41805000361982" lon="7.70333797240103"><ele>435.0</ele><time>2026-04-23T17:39:33.999Z</time></trkpt><trkpt lat="44.4181530609513" lon="7.703401113476431"><ele>435.0</ele><time>2026-04-23T17:39:34.999Z</time></trkpt><trkpt lat="44.4182622853091" lon="7.703468544344267"><ele>435.0</ele><time>2026-04-23T17:39:35.999Z</time></trkpt><trkpt lat="44.418368014529065" lon="7.7035336057813115"><ele>435.0</ele><time>2026-04-23T17:39:36.999Z</time></trkpt><trkpt lat="44.418475447147664" lon="7.703599717336687"><ele>435.0</ele><time>2026-04-23T17:39:37.999Z</time></trkpt><trkpt lat="44.41858008436938" lon="7.703666498368482"><ele>435.0</ele><time>2026-04-23T17:39:38.999Z</time></trkpt><trkpt lat="44.41868577613528" lon="7.703733249187917"><ele>435.0</ele><time>2026-04-23T17:39:39.999Z</time></trkpt><trkpt lat="44.41878207945695" lon="7.703794371283191"><ele>435.0</ele><time>2026-04-23T17:39:40.999Z</time></trkpt><trkpt lat="44.41887478861939" lon="7.703858310227327"><ele>435.0</ele><time>2026-04-23T17:39:41.999Z</time></trkpt><trkpt lat="44.41897221351436" lon="7.703922581604789"><ele>434.8</ele><time>2026-04-23T17:39:42.999Z</time></trkpt><trkpt lat="44.419073411192954" lon="7.703984079988951"><ele>434.6</ele><time>2026-04-23T17:39:43.999Z</time></trkpt><trkpt lat="44.41916847364277" lon="7.704044252563911"><ele>434.4</ele><time>2026-04-23T17:39:44.999Z</time></trkpt><trkpt lat="44.41926327336686" lon="7.7041070328681185"><ele>434.2</ele><time>2026-04-23T17:39:45.999Z</time></trkpt><trkpt lat="44.41936324107431" lon="7.704164539315653"><ele>434.0</ele><time>2026-04-23T17:39:46.999Z</time></trkpt><trkpt lat="44.41946478274377" lon="7.704222799668148"><ele>434.0</ele><time>2026-04-23T17:39:47.999Z</time></trkpt><trkpt lat="44.41956835700741" lon="7.704284708479875"><ele>434.0</ele><time>2026-04-23T17:39:48.999Z</time></trkpt><trkpt lat="44.4196785278787" lon="7.704344441608147"><ele>434.0</ele><time>2026-04-23T17:39:49.999Z</time></trkpt><trkpt lat="44.41978441309488" lon="7.704408467077843"><ele>434.0</ele><time>2026-04-23T17:39:50.999Z</time></trkpt><trkpt lat="44.41988956590548" lon="7.704469486086719"><ele>434.0</ele><time>2026-04-23T17:39:51.999Z</time></trkpt><trkpt lat="44.41998569960686" lon="7.704525999887132"><ele>434.0</ele><time>2026-04-23T17:39:52.999Z</time></trkpt><trkpt lat="44.42007573465795" lon="7.704585139318969"><ele>434.0</ele><time>2026-04-23T17:39:53.999Z</time></trkpt><trkpt lat="44.420166326534805" lon="7.704645166748605"><ele>434.0</ele><time>2026-04-23T17:39:54.999Z</time></trkpt><trkpt lat="44.42026544732482" lon="7.704705436013665"><ele>434.0</ele><time>2026-04-23T17:39:55.999Z</time></trkpt><trkpt lat="44.42036405305334" lon="7.704770005391097"><ele>434.0</ele><time>2026-04-23T17:39:56.999Z</time></trkpt><trkpt lat="44.42046040654354" lon="7.704845849122888"><ele>434.0</ele><time>2026-04-23T17:39:57.999Z</time></trkpt><trkpt lat="44.42056064101807" lon="7.70492617303311"><ele>434.0</ele><time>2026-04-23T17:39:58.999Z</time></trkpt><trkpt lat="44.420654135718344" lon="7.705011208969709"><ele>434.0</ele><time>2026-04-23T17:39:59.999Z</time></trkpt><trkpt lat="44.420750408092424" lon="7.705107989958521"><ele>434.0</ele><time>2026-04-23T17:40:00.999Z</time></trkpt><trkpt lat="44.420824884192434" lon="7.705211389976019"><ele>434.0</ele><time>2026-04-23T17:40:01.999Z</time></trkpt><trkpt lat="44.42090785530954" lon="7.705320794220147"><ele>434.0</ele><time>2026-04-23T17:40:02.999Z</time></trkpt><trkpt lat="44.42098120022272" lon="7.705426586231241"><ele>434.0</ele><time>2026-04-23T17:40:03.999Z</time></trkpt><trkpt lat="44.42106437051869" lon="7.705539479829013"><ele>434.0</ele><time>2026-04-23T17:40:04.999Z</time></trkpt><trkpt lat="44.42113733994051" lon="7.705645940375366"><ele>433.79999999999995</ele><time>2026-04-23T17:40:05.999Z</time></trkpt><trkpt lat="44.42121227009463" lon="7.705756408000928"><ele>433.59999999999997</ele><time>2026-04-23T17:40:06.999Z</time></trkpt><trkpt lat="44.42128870588184" lon="7.705863259195963"><ele>433.4</ele><time>2026-04-23T17:40:07.999Z</time></trkpt><trkpt lat="44.42136088757714" lon="7.70596638294484"><ele>433.2</ele><time>2026-04-23T17:40:08.999Z</time></trkpt><trkpt lat="44.42143630690467" lon="7.706068099043575"><ele>433.0</ele><time>2026-04-23T17:40:09.999Z</time></trkpt><trkpt lat="44.42151354481807" lon="7.706187756000951"><ele>432.75</ele><time>2026-04-23T17:40:10.999Z</time></trkpt><trkpt lat="44.42158884320505" lon="7.706296136012283"><ele>432.5</ele><time>2026-04-23T17:40:11.999Z</time></trkpt><trkpt lat="44.421665725903736" lon="7.706407572563312"><ele>432.25</ele><time>2026-04-23T17:40:12.999Z</time></trkpt><trkpt lat="44.42174207074112" lon="7.706520688474119"><ele>432.0</ele><time>2026-04-23T17:40:13.998Z</time></trkpt><trkpt lat="44.42184106290591" lon="7.706631796704947"><ele>432.0</ele><time>2026-04-23T17:40:14.998Z</time></trkpt><trkpt lat="44.421925509241944" lon="7.706745351058459"><ele>432.00000000000006</ele><time>2026-04-23T17:40:15.998Z</time></trkpt><trkpt lat="44.42200132099068" lon="7.706849703004578"><ele>432.00000000000006</ele><time>2026-04-23T17:40:16.998Z</time></trkpt><trkpt lat="44.42207455073403" lon="7.706955284299624"><ele>432.0</ele><time>2026-04-23T17:40:17.998Z</time></trkpt><trkpt lat="44.422149757269054" lon="7.707061574552934"><ele>432.0</ele><time>2026-04-23T17:40:18.998Z</time></trkpt><trkpt lat="44.422219306702914" lon="7.707158867011217"><ele>431.8</ele><time>2026-04-23T17:40:19.998Z</time></trkpt><trkpt lat="44.42228861048027" lon="7.707270231529578"><ele>431.6</ele><time>2026-04-23T17:40:20.998Z</time></trkpt><trkpt lat="44.42235478906249" lon="7.707391086377778"><ele>431.40000000000003</ele><time>2026-04-23T17:40:21.998Z</time></trkpt><trkpt lat="44.42241891790237" lon="7.707511080740702"><ele>431.20000000000005</ele><time>2026-04-23T17:40:22.998Z</time></trkpt><trkpt lat="44.42247556563206" lon="7.707639721190164"><ele>431.0</ele><time>2026-04-23T17:40:23.998Z</time></trkpt><trkpt lat="44.42252290507856" lon="7.707779134824165"><ele>431.4</ele><time>2026-04-23T17:40:24.998Z</time></trkpt><trkpt lat="44.422569950312635" lon="7.707920053642143"><ele>431.8</ele><time>2026-04-23T17:40:25.998Z</time></trkpt><trkpt lat="44.422613163308355" lon="7.708062140642714"><ele>432.19999999999993</ele><time>2026-04-23T17:40:26.998Z</time></trkpt><trkpt lat="44.42265772527564" lon="7.708202552317942"><ele>432.59999999999997</ele><time>2026-04-23T17:40:27.998Z</time></trkpt><trkpt lat="44.42269855240175" lon="7.708343169593495"><ele>433.0</ele><time>2026-04-23T17:40:28.998Z</time></trkpt><trkpt lat="44.422743731833954" lon="7.708486051703792"><ele>432.79999999999995</ele><time>2026-04-23T17:40:29.998Z</time></trkpt><trkpt lat="44.42278412600907" lon="7.708620253064179"><ele>432.59999999999997</ele><time>2026-04-23T17:40:30.998Z</time></trkpt><trkpt lat="44.42282107973277" lon="7.708749042170956"><ele>432.40000000000003</ele><time>2026-04-23T17:40:31.998Z</time></trkpt><trkpt lat="44.422862200670714" lon="7.708871930282771"><ele>432.20000000000005</ele><time>2026-04-23T17:40:32.998Z</time></trkpt><trkpt lat="44.42290326625482" lon="7.709000987803771"><ele>432.0</ele><time>2026-04-23T17:40:33.998Z</time></trkpt><trkpt lat="44.42293888635063" lon="7.709131822021108"><ele>432.0</ele><time>2026-04-23T17:40:34.998Z</time></trkpt><trkpt lat="44.42297889943899" lon="7.709269804282153"><ele>432.00000000000006</ele><time>2026-04-23T17:40:35.998Z</time></trkpt><trkpt lat="44.423023771601336" lon="7.709418833978728"><ele>432.00000000000006</ele><time>2026-04-23T17:40:36.998Z</time></trkpt><trkpt lat="44.423054345064855" lon="7.709555026632004"><ele>432.0</ele><time>2026-04-23T17:40:38Z</time></trkpt><trkpt lat="44.42308926839812" lon="7.709696220351273"><ele>432.0</ele><time>2026-04-23T17:40:39Z</time></trkpt><trkpt lat="44.423119007200896" lon="7.7098268722922105"><ele>431.6</ele><time>2026-04-23T17:40:40Z</time></trkpt><trkpt lat="44.42317327125378" lon="7.709938854165825"><ele>431.20000000000005</ele><time>2026-04-23T17:40:41Z</time></trkpt><trkpt lat="44.42319603042186" lon="7.710080047178223"><ele>430.8</ele><time>2026-04-23T17:40:42Z</time></trkpt><trkpt lat="44.42320175390785" lon="7.7102360420223155"><ele>430.4</ele><time>2026-04-23T17:40:43Z</time></trkpt><trkpt lat="44.423202749812354" lon="7.7103913586217985"><ele>430.0</ele><time>2026-04-23T17:40:44Z</time></trkpt><trkpt lat="44.423193812837376" lon="7.710537514949661"><ele>430.0</ele><time>2026-04-23T17:40:45Z</time></trkpt><trkpt lat="44.42321261578365" lon="7.710713080211502"><ele>430.0</ele><time>2026-04-23T17:40:46Z</time></trkpt><trkpt lat="44.42322313956779" lon="7.7108790360669035"><ele>430.0</ele><time>2026-04-23T17:40:47Z</time></trkpt><trkpt lat="44.423242398763264" lon="7.711023984639577"><ele>430.0</ele><time>2026-04-23T17:40:48Z</time></trkpt><trkpt lat="44.42326203399669" lon="7.711176726761521"><ele>429.0</ele><time>2026-04-23T17:40:49Z</time></trkpt><trkpt lat="44.423294801862845" lon="7.711331123008513"><ele>428.0</ele><time>2026-04-23T17:40:50Z</time></trkpt><trkpt lat="44.42333329792647" lon="7.711488288337927"><ele>427.0</ele><time>2026-04-23T17:40:51Z</time></trkpt><trkpt lat="44.423371330600006" lon="7.71163432702086"><ele>426.0</ele><time>2026-04-23T17:40:52Z</time></trkpt><trkpt lat="44.423406451794385" lon="7.711778180249398"><ele>425.75</ele><time>2026-04-23T17:40:53Z</time></trkpt><trkpt lat="44.42344356769008" lon="7.71193204653995"><ele>425.5</ele><time>2026-04-23T17:40:54Z</time></trkpt><trkpt lat="44.42348324089449" lon="7.71208963742662"><ele>425.25</ele><time>2026-04-23T17:40:55Z</time></trkpt><trkpt lat="44.42352397216246" lon="7.7122390211902525"><ele>425.0</ele><time>2026-04-23T17:40:56Z</time></trkpt><trkpt lat="44.423560459753745" lon="7.712383593107726"><ele>425.0</ele><time>2026-04-23T17:40:57Z</time></trkpt><trkpt lat="44.42358556332117" lon="7.712539922767893"><ele>425.0</ele><time>2026-04-23T17:40:58Z</time></trkpt><trkpt lat="44.42360147363298" lon="7.71270208099825"><ele>425.0</ele><time>2026-04-23T17:40:59Z</time></trkpt><trkpt lat="44.423602600747415" lon="7.712865818459258"><ele>425.0</ele><time>2026-04-23T17:41:00Z</time></trkpt><trkpt lat="44.42359110586791" lon="7.713031769009222"><ele>425.6</ele><time>2026-04-23T17:41:01Z</time></trkpt><trkpt lat="44.42357509607871" lon="7.713185516946483"><ele>426.2</ele><time>2026-04-23T17:41:02Z</time></trkpt><trkpt lat="44.42355662906989" lon="7.7133330237091675"><ele>426.79999999999995</ele><time>2026-04-23T17:41:03Z</time></trkpt><trkpt lat="44.423531928141315" lon="7.713480484807511"><ele>427.4</ele><time>2026-04-23T17:41:04Z</time></trkpt><trkpt lat="44.42350612819796" lon="7.713633226661775"><ele>428.0</ele><time>2026-04-23T17:41:05Z</time></trkpt><trkpt lat="44.42347404569891" lon="7.7138006854472305"><ele>428.25</ele><time>2026-04-23T17:41:06Z</time></trkpt><trkpt lat="44.42345168744901" lon="7.713948969897038"><ele>428.5</ele><time>2026-04-23T17:41:07Z</time></trkpt><trkpt lat="44.42342318282391" lon="7.714106160976861"><ele>428.75</ele><time>2026-04-23T17:41:08Z</time></trkpt><trkpt lat="44.42337627445625" lon="7.714261943843485"><ele>429.0</ele><time>2026-04-23T17:41:09Z</time></trkpt><trkpt lat="44.42335158867822" lon="7.71440809618064"><ele>429.0</ele><time>2026-04-23T17:41:10Z</time></trkpt><trkpt lat="44.42332848250517" lon="7.714564197451952"><ele>429.0</ele><time>2026-04-23T17:41:11Z</time></trkpt><trkpt lat="44.42330988543612" lon="7.714723298637425"><ele>429.0</ele><time>2026-04-23T17:41:12Z</time></trkpt><trkpt lat="44.42329161589161" lon="7.714879592282564"><ele>429.0</ele><time>2026-04-23T17:41:13Z</time></trkpt><trkpt lat="44.42327618245486" lon="7.715051595022899"><ele>429.0</ele><time>2026-04-23T17:41:14Z</time></trkpt><trkpt lat="44.42326870437002" lon="7.715210598051944"><ele>429.0</ele><time>2026-04-23T17:41:15Z</time></trkpt><trkpt lat="44.42326554641103" lon="7.715379191901781"><ele>429.0</ele><time>2026-04-23T17:41:16Z</time></trkpt><trkpt lat="44.4232682785747" lon="7.715540737626931"><ele>429.0</ele><time>2026-04-23T17:41:17Z</time></trkpt><trkpt lat="44.42327120219233" lon="7.715697668735583"><ele>429.25</ele><time>2026-04-23T17:41:18Z</time></trkpt><trkpt lat="44.423283803052115" lon="7.715858516207531"><ele>429.5</ele><time>2026-04-23T17:41:19Z</time></trkpt><trkpt lat="44.42330387117754" lon="7.716025248798422"><ele>429.75</ele><time>2026-04-23T17:41:20Z</time></trkpt><trkpt lat="44.4233286444003" lon="7.716174039815289"><ele>430.0</ele><time>2026-04-23T17:41:20.999Z</time></trkpt><trkpt lat="44.423354906696005" lon="7.716340582817966"><ele>430.0</ele><time>2026-04-23T17:41:21.999Z</time></trkpt><trkpt lat="44.423391681859705" lon="7.716492405636806"><ele>430.0</ele><time>2026-04-23T17:41:22.999Z</time></trkpt><trkpt lat="44.423419798717255" lon="7.716636083766224"><ele>430.0</ele><time>2026-04-23T17:41:23.999Z</time></trkpt><trkpt lat="44.42345490073192" lon="7.716768662879959"><ele>430.0</ele><time>2026-04-23T17:41:24.999Z</time></trkpt><trkpt lat="44.42349279862603" lon="7.716930155722304"><ele>430.0</ele><time>2026-04-23T17:41:25.999Z</time></trkpt><trkpt lat="44.42352196493708" lon="7.71707098767844"><ele>429.50000000000006</ele><time>2026-04-23T17:41:26.999Z</time></trkpt><trkpt lat="44.42355153155701" lon="7.7171907480134685"><ele>429.0</ele><time>2026-04-23T17:41:27.999Z</time></trkpt><trkpt lat="44.423563326015945" lon="7.717311339624107"><ele>428.5</ele><time>2026-04-23T17:41:28.999Z</time></trkpt><trkpt lat="44.4235737815735" lon="7.717425149499807"><ele>428.0</ele><time>2026-04-23T17:41:29.999Z</time></trkpt><trkpt lat="44.42358707187882" lon="7.717542613322746"><ele>427.50000000000006</ele><time>2026-04-23T17:41:30.999Z</time></trkpt><trkpt lat="44.4236123453501" lon="7.71766215350395"><ele>427.0</ele><time>2026-04-23T17:41:31.999Z</time></trkpt><trkpt lat="44.423653884948" lon="7.71778873719704"><ele>426.75</ele><time>2026-04-23T17:41:32.999Z</time></trkpt><trkpt lat="44.42372043944933" lon="7.717917499962638"><ele>426.5</ele><time>2026-04-23T17:41:33.999Z</time></trkpt><trkpt lat="44.42378440428881" lon="7.718067011230624"><ele>426.25</ele><time>2026-04-23T17:41:34.999Z</time></trkpt><trkpt lat="44.42383595372624" lon="7.718237051954125"><ele>426.0</ele><time>2026-04-23T17:41:35.999Z</time></trkpt><trkpt lat="44.42387530197519" lon="7.718386959225679"><ele>426.0</ele><time>2026-04-23T17:41:36.999Z</time></trkpt><trkpt lat="44.423916387535634" lon="7.718524829148661"><ele>426.0</ele><time>2026-04-23T17:41:37.999Z</time></trkpt><trkpt lat="44.423954629531494" lon="7.718675453643297"><ele>426.0</ele><time>2026-04-23T17:41:38.999Z</time></trkpt><trkpt lat="44.42399279597936" lon="7.718828967265767"><ele>426.0</ele><time>2026-04-23T17:41:39.999Z</time></trkpt><trkpt lat="44.42403331399361" lon="7.718987640521199"><ele>425.75</ele><time>2026-04-23T17:41:40.999Z</time></trkpt><trkpt lat="44.42407460556185" lon="7.719138171441321"><ele>425.5</ele><time>2026-04-23T17:41:41.999Z</time></trkpt><trkpt lat="44.42411012594252" lon="7.719287799984947"><ele>425.25</ele><time>2026-04-23T17:41:42.999Z</time></trkpt><trkpt lat="44.424159047809574" lon="7.719435751552642"><ele>425.0</ele><time>2026-04-23T17:41:43.999Z</time></trkpt><trkpt lat="44.424199222912236" lon="7.719597747587345"><ele>425.0</ele><time>2026-04-23T17:41:44.999Z</time></trkpt><trkpt lat="44.42423775862398" lon="7.71973378277366"><ele>425.0</ele><time>2026-04-23T17:41:45.999Z</time></trkpt><trkpt lat="44.42427808672783" lon="7.719887522289487"><ele>425.0</ele><time>2026-04-23T17:41:46.999Z</time></trkpt><trkpt lat="44.42432063558747" lon="7.7200449538419935"><ele>425.0</ele><time>2026-04-23T17:41:47.999Z</time></trkpt><trkpt lat="44.424368174579854" lon="7.720190964040478"><ele>424.6</ele><time>2026-04-23T17:41:48.999Z</time></trkpt><trkpt lat="44.42440864857609" lon="7.720312647094373"><ele>424.2</ele><time>2026-04-23T17:41:49.999Z</time></trkpt><trkpt lat="44.42444970393747" lon="7.720456242085874"><ele>423.79999999999995</ele><time>2026-04-23T17:41:50.999Z</time></trkpt><trkpt lat="44.42448849530288" lon="7.720612014693666"><ele>423.4</ele><time>2026-04-23T17:41:51.999Z</time></trkpt><trkpt lat="44.424529532675884" lon="7.720771641773675"><ele>423.0</ele><time>2026-04-23T17:41:52.999Z</time></trkpt><trkpt lat="44.42456549988782" lon="7.720915454780733"><ele>423.0</ele><time>2026-04-23T17:41:53.999Z</time></trkpt><trkpt lat="44.42460638113036" lon="7.7210460466832735"><ele>423.0</ele><time>2026-04-23T17:41:54.999Z</time></trkpt><trkpt lat="44.42463777154757" lon="7.721179894428898"><ele>423.0</ele><time>2026-04-23T17:41:55.999Z</time></trkpt><trkpt lat="44.42467133274002" lon="7.721323910611123"><ele>423.0</ele><time>2026-04-23T17:41:56.999Z</time></trkpt><trkpt lat="44.42470315010633" lon="7.721471670778192"><ele>423.0</ele><time>2026-04-23T17:41:57.999Z</time></trkpt><trkpt lat="44.42474549433315" lon="7.721590986260043"><ele>423.0</ele><time>2026-04-23T17:41:58.999Z</time></trkpt><trkpt lat="44.42478086869996" lon="7.7217149748340566"><ele>423.0</ele><time>2026-04-23T17:41:59.999Z</time></trkpt><trkpt lat="44.42480777878811" lon="7.721823556679735"><ele>423.0</ele><time>2026-04-23T17:42:00.999Z</time></trkpt><trkpt lat="44.42482703120165" lon="7.721909828559316"><ele>423.0</ele><time>2026-04-23T17:42:01.999Z</time></trkpt><trkpt lat="44.42485095605038" lon="7.7220400032609415"><ele>423.0</ele><time>2026-04-23T17:42:03.999Z</time></trkpt><trkpt lat="44.42482867679083" lon="7.722138965995136"><ele>423.0</ele><time>2026-04-23T17:42:05.999Z</time></trkpt><trkpt lat="44.42474638862656" lon="7.722150106131107"><ele>423.0</ele><time>2026-04-23T17:42:06.999Z</time></trkpt><trkpt lat="44.424657971693925" lon="7.722227591625932"><ele>423.0</ele><time>2026-04-23T17:42:08.999Z</time></trkpt><trkpt lat="44.424739187302386" lon="7.722484644205047"><ele>423.0</ele><time>2026-04-23T17:42:10.999Z</time></trkpt><trkpt lat="44.42479400146651" lon="7.72256659553659"><ele>423.0</ele><time>2026-04-23T17:42:12.999Z</time></trkpt><trkpt lat="44.4247812165539" lon="7.7226677825837315"><ele>423.0</ele><time>2026-04-23T17:43:56.999Z</time></trkpt><trkpt lat="44.42487471938935" lon="7.722678017200227"><ele>423.0</ele><time>2026-04-23T17:44:05.999Z</time></trkpt><trkpt lat="44.42473935973287" lon="7.722598513866002"><ele>423.0</ele><time>2026-04-23T17:45:02Z</time></trkpt><trkpt lat="44.42480875210579" lon="7.72253668458412"><ele>423.0</ele><time>2026-04-23T17:47:27Z</time></trkpt><trkpt lat="44.42481000652485" lon="7.722631242596618"><ele>423.0</ele><time>2026-04-23T17:51:43Z</time></trkpt><trkpt lat="44.42489122899761" lon="7.722651397636431"><ele>423.0</ele><time>2026-04-23T17:58:13.999Z</time></trkpt><trkpt lat="44.42480788166208" lon="7.722647355959039"><ele>423.0</ele><time>2026-04-23T17:58:36.999Z</time></trkpt><trkpt lat="44.424729490254094" lon="7.722694104418726"><ele>423.0</ele><time>2026-04-23T17:58:46.999Z</time></trkpt><trkpt lat="44.42473952683723" lon="7.72283778966175"><ele>423.0</ele><time>2026-04-23T18:03:23.998Z</time></trkpt><trkpt lat="44.42485387108434" lon="7.722400675386915"><ele>423.0</ele><time>2026-04-23T18:03:45.447Z</time></trkpt><trkpt lat="44.424923003295426" lon="7.722599439068849"><ele>423.0</ele><time>2026-04-23T18:04:21.441Z</time></trkpt><trkpt lat="44.42481852927883" lon="7.722622041997336"><ele>423.0</ele><time>2026-04-23T18:04:21.997Z</time></trkpt><trkpt lat="44.424699764269995" lon="7.722738705493833"><ele>423.0</ele><time>2026-04-23T18:04:22.997Z</time></trkpt><trkpt lat="44.4247144597992" lon="7.722880415117175"><ele>423.0</ele><time>2026-04-23T18:04:24.997Z</time></trkpt><trkpt lat="44.42478108197589" lon="7.722787217277102"><ele>423.0</ele><time>2026-04-23T18:05:03Z</time></trkpt><trkpt lat="44.4247757728661" lon="7.722691169525003"><ele>423.0</ele><time>2026-04-23T18:05:15.999Z</time></trkpt><trkpt lat="44.42477928189049" lon="7.722592701703333"><ele>423.0</ele><time>2026-04-23T18:05:17.999Z</time></trkpt><trkpt lat="44.424789932217664" lon="7.722688219427832"><ele>423.0</ele><time>2026-04-23T18:09:58.999Z</time></trkpt><trkpt lat="44.42473959136612" lon="7.722608281196342"><ele>423.0</ele><time>2026-04-23T18:13:18Z</time></trkpt><trkpt lat="44.424805209418786" lon="7.72243439746042"><ele>423.0</ele><time>2026-04-23T18:14:00.999Z</time></trkpt><trkpt lat="44.424913962708374" lon="7.722469123801163"><ele>423.0</ele><time>2026-04-23T18:15:53Z</time></trkpt><trkpt lat="44.42508437113142" lon="7.722613743363058"><ele>423.0</ele><time>2026-04-23T18:15:54Z</time></trkpt><trkpt lat="44.4252035445843" lon="7.722710772049065"><ele>423.0</ele><time>2026-04-23T18:15:55Z</time></trkpt><trkpt lat="44.42525916006334" lon="7.722759359430143"><ele>423.0</ele><time>2026-04-23T18:15:55.999Z</time></trkpt><trkpt lat="44.42531838331696" lon="7.722811098673276"><ele>423.0</ele><time>2026-04-23T18:15:57.999Z</time></trkpt><trkpt lat="44.425006267080924" lon="7.7224794601437905"><ele>423.0</ele><time>2026-04-23T18:15:58.999Z</time></trkpt><trkpt lat="44.42478767344732" lon="7.722627101130454"><ele>423.0</ele><time>2026-04-23T18:16:10.999Z</time></trkpt><trkpt lat="44.42484917887458" lon="7.7224652046676"><ele>423.0</ele><time>2026-04-23T18:16:40.999Z</time></trkpt><trkpt lat="44.424832078485316" lon="7.722369603229791"><ele>423.0</ele><time>2026-04-23T18:16:48.999Z</time></trkpt><trkpt lat="44.424787660480426" lon="7.722632272145879"><ele>423.0</ele><time>2026-04-23T18:17:15.998Z</time></trkpt><trkpt lat="44.424794065617434" lon="7.722734656789762"><ele>423.0</ele><time>2026-04-23T18:22:52.999Z</time></trkpt><trkpt lat="44.42479138020703" lon="7.722569006872917"><ele>423.0</ele><time>2026-04-23T18:28:17Z</time></trkpt><trkpt lat="44.42472822811106" lon="7.722615341715974"><ele>423.0</ele><time>2026-04-23T18:30:31Z</time></trkpt><trkpt lat="44.42478940453967" lon="7.722574284594546"><ele>423.0</ele><time>2026-04-23T18:30:34Z</time></trkpt><trkpt lat="44.42486048939374" lon="7.722642370593728"><ele>423.0</ele><time>2026-04-23T18:31:20.999Z</time></trkpt><trkpt lat="44.42492978720557" lon="7.722661282195974"><ele>423.0</ele><time>2026-04-23T18:31:21.999Z</time></trkpt><trkpt lat="44.425021767236224" lon="7.722676399975877"><ele>423.0</ele><time>2026-04-23T18:31:23.999Z</time></trkpt><trkpt lat="44.42509447119912" lon="7.722777078376091"><ele>423.0</ele><time>2026-04-23T18:31:25.999Z</time></trkpt><trkpt lat="44.42512552401392" lon="7.722874985321121"><ele>423.0</ele><time>2026-04-23T18:31:26.999Z</time></trkpt><trkpt lat="44.4251172757743" lon="7.723002282853169"><ele>423.0</ele><time>2026-04-23T18:31:27.999Z</time></trkpt><trkpt lat="44.42514522516009" lon="7.7231452454701355"><ele>423.0</ele><time>2026-04-23T18:31:28.999Z</time></trkpt><trkpt lat="44.42515538032943" lon="7.723329919226232"><ele>423.0</ele><time>2026-04-23T18:31:29.999Z</time></trkpt><trkpt lat="44.425209766575506" lon="7.723503220426337"><ele>423.0</ele><time>2026-04-23T18:31:30.999Z</time></trkpt><trkpt lat="44.42525644114302" lon="7.7236752508151065"><ele>423.0</ele><time>2026-04-23T18:31:31.999Z</time></trkpt><trkpt lat="44.425314357942554" lon="7.723850137719488"><ele>423.0</ele><time>2026-04-23T18:31:32.999Z</time></trkpt><trkpt lat="44.42538581411246" lon="7.724032220814131"><ele>423.0</ele><time>2026-04-23T18:31:33.999Z</time></trkpt><trkpt lat="44.42544543199332" lon="7.724216848221781"><ele>423.0</ele><time>2026-04-23T18:31:34.999Z</time></trkpt><trkpt lat="44.42550893926162" lon="7.724432591087667"><ele>423.0</ele><time>2026-04-23T18:31:35.999Z</time></trkpt><trkpt lat="44.4255708159841" lon="7.7246555497097"><ele>423.0</ele><time>2026-04-23T18:31:36.999Z</time></trkpt><trkpt lat="44.42562724356661" lon="7.724883372716043"><ele>423.0</ele><time>2026-04-23T18:31:37.999Z</time></trkpt><trkpt lat="44.42568621719308" lon="7.725118344454875"><ele>422.33333333333337</ele><time>2026-04-23T18:31:38.999Z</time></trkpt><trkpt lat="44.425739618486055" lon="7.7253672597522005"><ele>421.6666666666667</ele><time>2026-04-23T18:31:39.999Z</time></trkpt><trkpt lat="44.42580152100335" lon="7.725577154997185"><ele>421.0</ele><time>2026-04-23T18:31:40.999Z</time></trkpt><trkpt lat="44.425863098463914" lon="7.725801244567948"><ele>421.0</ele><time>2026-04-23T18:31:41.999Z</time></trkpt><trkpt lat="44.425925163937904" lon="7.726030848441703"><ele>421.0</ele><time>2026-04-23T18:31:42.999Z</time></trkpt><trkpt lat="44.42599063735564" lon="7.726258598346437"><ele>421.0</ele><time>2026-04-23T18:31:43.999Z</time></trkpt><trkpt lat="44.426048525587504" lon="7.726470232999376"><ele>420.6666666666667</ele><time>2026-04-23T18:31:44.999Z</time></trkpt><trkpt lat="44.42610147830853" lon="7.7266955778309026"><ele>420.33333333333337</ele><time>2026-04-23T18:31:45.999Z</time></trkpt><trkpt lat="44.42615277901451" lon="7.726919277539484"><ele>420.0</ele><time>2026-04-23T18:31:46.999Z</time></trkpt><trkpt lat="44.42620960925008" lon="7.727128350550093"><ele>420.0</ele><time>2026-04-23T18:31:47.998Z</time></trkpt><trkpt lat="44.42627167183659" lon="7.727336843782148"><ele>420.0</ele><time>2026-04-23T18:31:48.998Z</time></trkpt><trkpt lat="44.42632605325284" lon="7.7275500016020615"><ele>420.0</ele><time>2026-04-23T18:31:49.998Z</time></trkpt><trkpt lat="44.426386335385736" lon="7.727762610535147"><ele>419.66666666666663</ele><time>2026-04-23T18:31:50.998Z</time></trkpt><trkpt lat="44.42645447663836" lon="7.727991772743042"><ele>419.3333333333333</ele><time>2026-04-23T18:31:51.998Z</time></trkpt><trkpt lat="44.42651327884575" lon="7.7282108233742335"><ele>419.0</ele><time>2026-04-23T18:31:52.998Z</time></trkpt><trkpt lat="44.42656608561742" lon="7.728436889638657"><ele>419.0</ele><time>2026-04-23T18:31:53.998Z</time></trkpt><trkpt lat="44.426627342310006" lon="7.728610244040956"><ele>419.0</ele><time>2026-04-23T18:31:54.998Z</time></trkpt><trkpt lat="44.42666201780537" lon="7.728770164262801"><ele>419.0</ele><time>2026-04-23T18:31:55.998Z</time></trkpt><trkpt lat="44.42670050186704" lon="7.728922994233126"><ele>419.0</ele><time>2026-04-23T18:31:56.998Z</time></trkpt><trkpt lat="44.42674410089378" lon="7.729075695123748"><ele>419.0</ele><time>2026-04-23T18:31:57.998Z</time></trkpt><trkpt lat="44.42679267891459" lon="7.729218836605541"><ele>419.0</ele><time>2026-04-23T18:31:58.998Z</time></trkpt><trkpt lat="44.42683535938935" lon="7.729377036467487"><ele>419.0</ele><time>2026-04-23T18:32:00Z</time></trkpt><trkpt lat="44.426891012342516" lon="7.72957492263089"><ele>419.0</ele><time>2026-04-23T18:32:01Z</time></trkpt><trkpt lat="44.42695587763142" lon="7.729759000561473"><ele>419.0</ele><time>2026-04-23T18:32:02Z</time></trkpt><trkpt lat="44.42699635740941" lon="7.729951978034524"><ele>419.0</ele><time>2026-04-23T18:32:03Z</time></trkpt><trkpt lat="44.42704950915633" lon="7.730140328010324"><ele>419.0</ele><time>2026-04-23T18:32:04Z</time></trkpt><trkpt lat="44.42709829260113" lon="7.7303131983327535"><ele>419.0</ele><time>2026-04-23T18:32:05Z</time></trkpt><trkpt lat="44.42716541434759" lon="7.730496065940831"><ele>419.3333333333333</ele><time>2026-04-23T18:32:06Z</time></trkpt><trkpt lat="44.42721568714293" lon="7.730705416773504"><ele>419.66666666666663</ele><time>2026-04-23T18:32:07Z</time></trkpt><trkpt lat="44.4272809320298" lon="7.730896351351567"><ele>420.0</ele><time>2026-04-23T18:32:08Z</time></trkpt><trkpt lat="44.42734515202864" lon="7.731110439966531"><ele>420.0</ele><time>2026-04-23T18:32:09Z</time></trkpt><trkpt lat="44.42740482898949" lon="7.731330524674485"><ele>420.0</ele><time>2026-04-23T18:32:10Z</time></trkpt><trkpt lat="44.42748291374648" lon="7.731542405601619"><ele>420.0</ele><time>2026-04-23T18:32:11Z</time></trkpt><trkpt lat="44.427541763690535" lon="7.731779011519521"><ele>419.33333333333337</ele><time>2026-04-23T18:32:12Z</time></trkpt><trkpt lat="44.42761161107281" lon="7.731993488341143"><ele>418.6666666666667</ele><time>2026-04-23T18:32:13Z</time></trkpt><trkpt lat="44.42769448008433" lon="7.7322284453648535"><ele>418.0</ele><time>2026-04-23T18:32:14Z</time></trkpt><trkpt lat="44.427769557876736" lon="7.732454380221415"><ele>418.0</ele><time>2026-04-23T18:32:15Z</time></trkpt><trkpt lat="44.42783309857313" lon="7.7327265057272845"><ele>418.0</ele><time>2026-04-23T18:32:16Z</time></trkpt><trkpt lat="44.42789805431621" lon="7.73298223906697"><ele>418.0</ele><time>2026-04-23T18:32:17Z</time></trkpt><trkpt lat="44.4279700331676" lon="7.733240755199667"><ele>418.0</ele><time>2026-04-23T18:32:18Z</time></trkpt><trkpt lat="44.42803370695076" lon="7.733491894493365"><ele>418.0</ele><time>2026-04-23T18:32:19Z</time></trkpt><trkpt lat="44.42809795714665" lon="7.733713193989751"><ele>418.0</ele><time>2026-04-23T18:32:20Z</time></trkpt><trkpt lat="44.42816486706913" lon="7.733950034762279"><ele>418.0</ele><time>2026-04-23T18:32:21Z</time></trkpt><trkpt lat="44.42822131273582" lon="7.734201857233609"><ele>418.0</ele><time>2026-04-23T18:32:22Z</time></trkpt><trkpt lat="44.42828149634129" lon="7.7344533730784555"><ele>418.0</ele><time>2026-04-23T18:32:23Z</time></trkpt><trkpt lat="44.42834255061825" lon="7.73468877348321"><ele>418.33333333333337</ele><time>2026-04-23T18:32:24Z</time></trkpt><trkpt lat="44.42840171395101" lon="7.734937255355288"><ele>418.66666666666663</ele><time>2026-04-23T18:32:25Z</time></trkpt><trkpt lat="44.428462281896834" lon="7.735177886153731"><ele>419.0</ele><time>2026-04-23T18:32:26Z</time></trkpt><trkpt lat="44.42851785591191" lon="7.735413243888205"><ele>418.3333333333333</ele><time>2026-04-23T18:32:27Z</time></trkpt><trkpt lat="44.428578192604895" lon="7.735625695374624"><ele>417.66666666666663</ele><time>2026-04-23T18:32:28Z</time></trkpt><trkpt lat="44.42863893394662" lon="7.735855266841281"><ele>417.0</ele><time>2026-04-23T18:32:29Z</time></trkpt><trkpt lat="44.4286801286586" lon="7.736109398769993"><ele>417.33333333333337</ele><time>2026-04-23T18:32:30Z</time></trkpt><trkpt lat="44.428736149915984" lon="7.736355298966696"><ele>417.6666666666667</ele><time>2026-04-23T18:32:31Z</time></trkpt><trkpt lat="44.42880666466421" lon="7.736599992072682"><ele>418.0</ele><time>2026-04-23T18:32:32Z</time></trkpt><trkpt lat="44.42885999932663" lon="7.736820634781214"><ele>418.0</ele><time>2026-04-23T18:32:33Z</time></trkpt><trkpt lat="44.42891196690956" lon="7.737039427415938"><ele>418.0</ele><time>2026-04-23T18:32:34Z</time></trkpt><trkpt lat="44.428957641189584" lon="7.737256287803643"><ele>418.0</ele><time>2026-04-23T18:32:35Z</time></trkpt><trkpt lat="44.42899432358181" lon="7.737477449630559"><ele>418.0</ele><time>2026-04-23T18:32:36Z</time></trkpt><trkpt lat="44.42902751127404" lon="7.737684303619272"><ele>418.0</ele><time>2026-04-23T18:32:37Z</time></trkpt><trkpt lat="44.42907193249289" lon="7.737869655474697"><ele>418.0</ele><time>2026-04-23T18:32:38Z</time></trkpt><trkpt lat="44.4291074285423" lon="7.738040609568753"><ele>418.0</ele><time>2026-04-23T18:32:39Z</time></trkpt><trkpt lat="44.42914757650614" lon="7.7382177844973"><ele>417.75</ele><time>2026-04-23T18:32:39.999Z</time></trkpt><trkpt lat="44.429185649967266" lon="7.738381595673276"><ele>417.5</ele><time>2026-04-23T18:32:40.999Z</time></trkpt><trkpt lat="44.429219710678694" lon="7.738533324919812"><ele>417.25</ele><time>2026-04-23T18:32:41.999Z</time></trkpt><trkpt lat="44.429254821162075" lon="7.73867541299368"><ele>417.0</ele><time>2026-04-23T18:32:42.999Z</time></trkpt><trkpt lat="44.42927933261387" lon="7.738825093114012"><ele>416.6</ele><time>2026-04-23T18:32:43.999Z</time></trkpt><trkpt lat="44.42930308509562" lon="7.738965849944082"><ele>416.20000000000005</ele><time>2026-04-23T18:32:44.999Z</time></trkpt><trkpt lat="44.42932468189595" lon="7.739105799578201"><ele>415.8</ele><time>2026-04-23T18:32:45.999Z</time></trkpt><trkpt lat="44.42935962996535" lon="7.7392422372471845"><ele>415.4</ele><time>2026-04-23T18:32:46.999Z</time></trkpt><trkpt lat="44.429391232024074" lon="7.7393877419950226"><ele>415.0</ele><time>2026-04-23T18:32:47.999Z</time></trkpt><trkpt lat="44.42941665470846" lon="7.739529344616019"><ele>415.0</ele><time>2026-04-23T18:32:48.999Z</time></trkpt><trkpt lat="44.429453674914356" lon="7.739703943614636"><ele>415.0</ele><time>2026-04-23T18:32:49.999Z</time></trkpt><trkpt lat="44.42949372226177" lon="7.739884603063292"><ele>415.0</ele><time>2026-04-23T18:32:50.999Z</time></trkpt><trkpt lat="44.42952737086424" lon="7.740060949942134"><ele>415.0</ele><time>2026-04-23T18:32:51.999Z</time></trkpt><trkpt lat="44.42955974508634" lon="7.740243252406562"><ele>415.0</ele><time>2026-04-23T18:32:52.999Z</time></trkpt><trkpt lat="44.42959594079441" lon="7.740417192153998"><ele>415.0</ele><time>2026-04-23T18:32:53.999Z</time></trkpt><trkpt lat="44.42963510352633" lon="7.74059100508029"><ele>415.0</ele><time>2026-04-23T18:32:54.999Z</time></trkpt><trkpt lat="44.429664421005825" lon="7.74076576190182"><ele>415.0</ele><time>2026-04-23T18:32:55.999Z</time></trkpt><trkpt lat="44.42969338203335" lon="7.740946579388194"><ele>415.5</ele><time>2026-04-23T18:32:56.999Z</time></trkpt><trkpt lat="44.4297225747429" lon="7.741131548387632"><ele>416.0</ele><time>2026-04-23T18:32:57.999Z</time></trkpt><trkpt lat="44.429756907301865" lon="7.741297109645441"><ele>416.5</ele><time>2026-04-23T18:32:58.999Z</time></trkpt><trkpt lat="44.42980121649274" lon="7.741474542116802"><ele>417.0</ele><time>2026-04-23T18:32:59.999Z</time></trkpt><trkpt lat="44.429828017617275" lon="7.741635227409115"><ele>417.0</ele><time>2026-04-23T18:33:00.999Z</time></trkpt><trkpt lat="44.42986041831315" lon="7.741801311235313"><ele>417.0</ele><time>2026-04-23T18:33:01.999Z</time></trkpt><trkpt lat="44.42989364728404" lon="7.74197333869678"><ele>417.0</ele><time>2026-04-23T18:33:02.999Z</time></trkpt><trkpt lat="44.42992485921536" lon="7.74214411230402"><ele>417.0</ele><time>2026-04-23T18:33:03.999Z</time></trkpt><trkpt lat="44.42995154831804" lon="7.74228600401443"><ele>417.0</ele><time>2026-04-23T18:33:04.999Z</time></trkpt><trkpt lat="44.42994694770699" lon="7.742465720096865"><ele>417.0</ele><time>2026-04-23T18:33:05.999Z</time></trkpt><trkpt lat="44.42997558477789" lon="7.742610755327094"><ele>417.0</ele><time>2026-04-23T18:33:06.999Z</time></trkpt><trkpt lat="44.430002546276235" lon="7.742745539664321"><ele>417.0</ele><time>2026-04-23T18:33:07.999Z</time></trkpt><trkpt lat="44.43003118179436" lon="7.742893145958358"><ele>417.0</ele><time>2026-04-23T18:33:08.999Z</time></trkpt><trkpt lat="44.43006058713443" lon="7.743028335397605"><ele>416.6</ele><time>2026-04-23T18:33:09.999Z</time></trkpt><trkpt lat="44.43008362223255" lon="7.74318998088865"><ele>416.20000000000005</ele><time>2026-04-23T18:33:10.999Z</time></trkpt><trkpt lat="44.43011357021957" lon="7.743326530057293"><ele>415.8</ele><time>2026-04-23T18:33:11.999Z</time></trkpt><trkpt lat="44.43015591162272" lon="7.743490367645913"><ele>415.4</ele><time>2026-04-23T18:33:12.999Z</time></trkpt><trkpt lat="44.430185216463286" lon="7.743621006766168"><ele>415.0</ele><time>2026-04-23T18:33:13.999Z</time></trkpt><trkpt lat="44.43022587622311" lon="7.743750105208196"><ele>415.0</ele><time>2026-04-23T18:33:14.999Z</time></trkpt><trkpt lat="44.430263157530476" lon="7.743882264870127"><ele>415.0</ele><time>2026-04-23T18:33:15.999Z</time></trkpt><trkpt lat="44.43029479492449" lon="7.744014593179883"><ele>415.0</ele><time>2026-04-23T18:33:16.999Z</time></trkpt><trkpt lat="44.43032471563951" lon="7.744155891793806"><ele>415.0</ele><time>2026-04-23T18:33:17.999Z</time></trkpt><trkpt lat="44.43035495700113" lon="7.7442779004629125"><ele>415.0</ele><time>2026-04-23T18:33:18.999Z</time></trkpt><trkpt lat="44.43038139890889" lon="7.744402483279529"><ele>415.0</ele><time>2026-04-23T18:33:19.999Z</time></trkpt><trkpt lat="44.430402661495954" lon="7.744522844623255"><ele>415.0</ele><time>2026-04-23T18:33:20.999Z</time></trkpt><trkpt lat="44.43042119885116" lon="7.744648892636849"><ele>415.0</ele><time>2026-04-23T18:33:21.999Z</time></trkpt><trkpt lat="44.430461884049606" lon="7.744798393494965"><ele>415.0</ele><time>2026-04-23T18:33:22.999Z</time></trkpt><trkpt lat="44.43050435031855" lon="7.744968334107207"><ele>415.0</ele><time>2026-04-23T18:33:23.999Z</time></trkpt><trkpt lat="44.430545353731254" lon="7.745127378728852"><ele>415.0</ele><time>2026-04-23T18:33:24.999Z</time></trkpt><trkpt lat="44.430592185378465" lon="7.7452939559484335"><ele>415.0</ele><time>2026-04-23T18:33:25.999Z</time></trkpt><trkpt lat="44.430628353999474" lon="7.745442916569043"><ele>415.0</ele><time>2026-04-23T18:33:26.999Z</time></trkpt><trkpt lat="44.43066426776631" lon="7.745565852355319"><ele>415.0</ele><time>2026-04-23T18:33:27.999Z</time></trkpt><trkpt lat="44.43070496604395" lon="7.7456898035755515"><ele>415.0</ele><time>2026-04-23T18:33:28.999Z</time></trkpt><trkpt lat="44.430760644302744" lon="7.745809650997587"><ele>415.0</ele><time>2026-04-23T18:33:29.999Z</time></trkpt><trkpt lat="44.43079182194514" lon="7.745935150157256"><ele>415.0</ele><time>2026-04-23T18:33:30.999Z</time></trkpt><trkpt lat="44.43083909272957" lon="7.74608176793329"><ele>415.0</ele><time>2026-04-23T18:33:31.999Z</time></trkpt><trkpt lat="44.43087416079656" lon="7.746225843763935"><ele>415.0</ele><time>2026-04-23T18:33:32.999Z</time></trkpt><trkpt lat="44.43090517470713" lon="7.746387292703729"><ele>415.0</ele><time>2026-04-23T18:33:33.999Z</time></trkpt><trkpt lat="44.43095122209206" lon="7.746556437065711"><ele>414.0</ele><time>2026-04-23T18:33:34.999Z</time></trkpt><trkpt lat="44.4310194392844" lon="7.746716007781764"><ele>413.0</ele><time>2026-04-23T18:33:35.999Z</time></trkpt><trkpt lat="44.43107299025356" lon="7.746866452919033"><ele>412.0</ele><time>2026-04-23T18:33:36.999Z</time></trkpt><trkpt lat="44.43112397521876" lon="7.747001559447817"><ele>411.0</ele><time>2026-04-23T18:33:37.999Z</time></trkpt><trkpt lat="44.43117148330171" lon="7.747144119880214"><ele>411.0</ele><time>2026-04-23T18:33:38.999Z</time></trkpt><trkpt lat="44.43122085270557" lon="7.747287815371752"><ele>411.0</ele><time>2026-04-23T18:33:39.999Z</time></trkpt><trkpt lat="44.43126079326093" lon="7.747401545511204"><ele>411.0</ele><time>2026-04-23T18:33:40.999Z</time></trkpt><trkpt lat="44.431306696482125" lon="7.747536439516947"><ele>411.0</ele><time>2026-04-23T18:33:41.999Z</time></trkpt><trkpt lat="44.43135418631254" lon="7.747672097067527"><ele>411.0</ele><time>2026-04-23T18:33:42.999Z</time></trkpt><trkpt lat="44.43142109905816" lon="7.747840268998251"><ele>411.25</ele><time>2026-04-23T18:33:43.999Z</time></trkpt><trkpt lat="44.43148098430782" lon="7.748024215716867"><ele>411.5</ele><time>2026-04-23T18:33:44.999Z</time></trkpt><trkpt lat="44.43154564087136" lon="7.748209919111466"><ele>411.75</ele><time>2026-04-23T18:33:45.999Z</time></trkpt><trkpt lat="44.43160547619275" lon="7.748403467805432"><ele>412.0</ele><time>2026-04-23T18:33:46.999Z</time></trkpt><trkpt lat="44.43165306137142" lon="7.748638870458137"><ele>411.33333333333337</ele><time>2026-04-23T18:33:47.999Z</time></trkpt><trkpt lat="44.431726598003586" lon="7.74885258917233"><ele>410.66666666666663</ele><time>2026-04-23T18:33:48.999Z</time></trkpt><trkpt lat="44.431810049697965" lon="7.749080192690811"><ele>410.0</ele><time>2026-04-23T18:33:49.999Z</time></trkpt><trkpt lat="44.43187486765465" lon="7.749305627738837"><ele>410.3333333333333</ele><time>2026-04-23T18:33:50.998Z</time></trkpt><trkpt lat="44.431962318893994" lon="7.74954427833193"><ele>410.66666666666663</ele><time>2026-04-23T18:33:51.998Z</time></trkpt><trkpt lat="44.432027487712894" lon="7.74979651838565"><ele>411.0</ele><time>2026-04-23T18:33:52.998Z</time></trkpt><trkpt lat="44.4321246474774" lon="7.750050395298475"><ele>410.66666666666663</ele><time>2026-04-23T18:33:53.998Z</time></trkpt><trkpt lat="44.43220321507606" lon="7.7503168699624005"><ele>410.3333333333333</ele><time>2026-04-23T18:33:54.998Z</time></trkpt><trkpt lat="44.43229080100107" lon="7.750595545726729"><ele>410.0</ele><time>2026-04-23T18:33:55.998Z</time></trkpt><trkpt lat="44.43236722528773" lon="7.750872956182762"><ele>409.66666666666663</ele><time>2026-04-23T18:33:56.998Z</time></trkpt><trkpt lat="44.43245443808396" lon="7.751149509436181"><ele>409.33333333333337</ele><time>2026-04-23T18:33:57.998Z</time></trkpt><trkpt lat="44.43254429017146" lon="7.751434095178497"><ele>409.0</ele><time>2026-04-23T18:33:58.998Z</time></trkpt><trkpt lat="44.43263273327357" lon="7.7517080734315735"><ele>409.0</ele><time>2026-04-23T18:33:59.998Z</time></trkpt><trkpt lat="44.43272506285597" lon="7.751994418482163"><ele>409.0</ele><time>2026-04-23T18:34:00.998Z</time></trkpt><trkpt lat="44.43281646820099" lon="7.752284419670684"><ele>409.0</ele><time>2026-04-23T18:34:01.998Z</time></trkpt><trkpt lat="44.43291137973946" lon="7.752585544855751"><ele>409.0</ele><time>2026-04-23T18:34:02.998Z</time></trkpt><trkpt lat="44.43300694012001" lon="7.752888789855633"><ele>409.5</ele><time>2026-04-23T18:34:03.998Z</time></trkpt><trkpt lat="44.43310124694036" lon="7.753188374046897"><ele>410.0</ele><time>2026-04-23T18:34:04.998Z</time></trkpt><trkpt lat="44.43319625056344" lon="7.753488664949885"><ele>410.0</ele><time>2026-04-23T18:34:06Z</time></trkpt><trkpt lat="44.43328848243881" lon="7.753778785048108"><ele>410.0</ele><time>2026-04-23T18:34:07Z</time></trkpt><trkpt lat="44.43340118280739" lon="7.754080129947033"><ele>408.5</ele><time>2026-04-23T18:34:08Z</time></trkpt><trkpt lat="44.433484650737675" lon="7.75439893643579"><ele>407.0</ele><time>2026-04-23T18:34:09Z</time></trkpt><trkpt lat="44.433582534436546" lon="7.754700210181705"><ele>407.0</ele><time>2026-04-23T18:34:10Z</time></trkpt><trkpt lat="44.43368517421875" lon="7.754995213819466"><ele>407.0</ele><time>2026-04-23T18:34:11Z</time></trkpt><trkpt lat="44.43377803119943" lon="7.755306199783187"><ele>408.5</ele><time>2026-04-23T18:34:12Z</time></trkpt><trkpt lat="44.43387239239692" lon="7.755616926460539"><ele>410.0</ele><time>2026-04-23T18:34:13Z</time></trkpt><trkpt lat="44.43396443879698" lon="7.755911328977944"><ele>408.5</ele><time>2026-04-23T18:34:14Z</time></trkpt><trkpt lat="44.43405616791082" lon="7.756206655212742"><ele>407.0</ele><time>2026-04-23T18:34:15Z</time></trkpt><trkpt lat="44.43415275728088" lon="7.756519409388244"><ele>407.0</ele><time>2026-04-23T18:34:16Z</time></trkpt><trkpt lat="44.434248156944754" lon="7.756817913356837"><ele>407.0</ele><time>2026-04-23T18:34:17Z</time></trkpt><trkpt lat="44.434341745369515" lon="7.757111427779266"><ele>407.0</ele><time>2026-04-23T18:34:18Z</time></trkpt><trkpt lat="44.43444291778522" lon="7.757387141065869"><ele>407.0</ele><time>2026-04-23T18:34:19Z</time></trkpt><trkpt lat="44.43453454855725" lon="7.757668281101033"><ele>407.0</ele><time>2026-04-23T18:34:20Z</time></trkpt><trkpt lat="44.43462452475218" lon="7.7579825091140835"><ele>407.5</ele><time>2026-04-23T18:34:21Z</time></trkpt><trkpt lat="44.434713675100106" lon="7.758286654860462"><ele>408.0</ele><time>2026-04-23T18:34:22Z</time></trkpt><trkpt lat="44.4348077111242" lon="7.7585840274336295"><ele>407.0</ele><time>2026-04-23T18:34:23Z</time></trkpt><trkpt lat="44.43490993477299" lon="7.758869036732108"><ele>406.0</ele><time>2026-04-23T18:34:24Z</time></trkpt><trkpt lat="44.435000316549946" lon="7.759171909607592"><ele>406.0</ele><time>2026-04-23T18:34:25Z</time></trkpt><trkpt lat="44.435093658103604" lon="7.759471793307112"><ele>406.0</ele><time>2026-04-23T18:34:26Z</time></trkpt><trkpt lat="44.43519018367454" lon="7.759767233057759"><ele>406.0</ele><time>2026-04-23T18:34:27Z</time></trkpt><trkpt lat="44.4352826893661" lon="7.760051947389767"><ele>406.0</ele><time>2026-04-23T18:34:28Z</time></trkpt><trkpt lat="44.43537526289196" lon="7.760349541136027"><ele>406.0</ele><time>2026-04-23T18:34:29Z</time></trkpt><trkpt lat="44.435475235094124" lon="7.7606460307204665"><ele>406.0</ele><time>2026-04-23T18:34:30Z</time></trkpt><trkpt lat="44.435566114915346" lon="7.760944765948819"><ele>405.5</ele><time>2026-04-23T18:34:31Z</time></trkpt><trkpt lat="44.435660439677676" lon="7.761250625742604"><ele>405.0</ele><time>2026-04-23T18:34:32Z</time></trkpt><trkpt lat="44.43575629961095" lon="7.761556106562836"><ele>405.0</ele><time>2026-04-23T18:34:33Z</time></trkpt><trkpt lat="44.43585686640736" lon="7.761847080059837"><ele>405.0</ele><time>2026-04-23T18:34:34Z</time></trkpt><trkpt lat="44.43595212387586" lon="7.762145176402"><ele>404.5</ele><time>2026-04-23T18:34:35Z</time></trkpt><trkpt lat="44.4360392880065" lon="7.762443024287976"><ele>404.0</ele><time>2026-04-23T18:34:36Z</time></trkpt><trkpt lat="44.43613201402668" lon="7.762747419458323"><ele>404.0</ele><time>2026-04-23T18:34:37Z</time></trkpt><trkpt lat="44.43622625996776" lon="7.763049504302371"><ele>404.0</ele><time>2026-04-23T18:34:38Z</time></trkpt><trkpt lat="44.43631528878762" lon="7.763361445373"><ele>404.0</ele><time>2026-04-23T18:34:39Z</time></trkpt><trkpt lat="44.43640965308536" lon="7.763671366961623"><ele>404.0</ele><time>2026-04-23T18:34:40Z</time></trkpt><trkpt lat="44.43650575401169" lon="7.763966276469112"><ele>404.0</ele><time>2026-04-23T18:34:41Z</time></trkpt><trkpt lat="44.436594824481936" lon="7.764261428243234"><ele>404.0</ele><time>2026-04-23T18:34:42Z</time></trkpt><trkpt lat="44.43668219529363" lon="7.764558017216814"><ele>404.0</ele><time>2026-04-23T18:34:43Z</time></trkpt><trkpt lat="44.43677712739876" lon="7.764855095535013"><ele>404.0</ele><time>2026-04-23T18:34:44Z</time></trkpt><trkpt lat="44.43686621241049" lon="7.765156965914601"><ele>404.0</ele><time>2026-04-23T18:34:45Z</time></trkpt><trkpt lat="44.43696460375055" lon="7.765448443291334"><ele>404.0</ele><time>2026-04-23T18:34:46Z</time></trkpt><trkpt lat="44.43706102246656" lon="7.765740651177041"><ele>403.5</ele><time>2026-04-23T18:34:47Z</time></trkpt><trkpt lat="44.43715131300927" lon="7.766058307042071"><ele>403.0</ele><time>2026-04-23T18:34:48Z</time></trkpt><trkpt lat="44.43725125264745" lon="7.766352388669905"><ele>403.0</ele><time>2026-04-23T18:34:49Z</time></trkpt><trkpt lat="44.43734507798553" lon="7.7666557673456245"><ele>403.0</ele><time>2026-04-23T18:34:49.999Z</time></trkpt><trkpt lat="44.437445391698475" lon="7.766959128450963"><ele>403.0</ele><time>2026-04-23T18:34:50.999Z</time></trkpt><trkpt lat="44.43754521369594" lon="7.76727375690069"><ele>403.0</ele><time>2026-04-23T18:34:51.999Z</time></trkpt><trkpt lat="44.437636377546525" lon="7.767562386587738"><ele>403.0</ele><time>2026-04-23T18:34:52.999Z</time></trkpt><trkpt lat="44.437736113502595" lon="7.767867877010271"><ele>403.0</ele><time>2026-04-23T18:34:53.999Z</time></trkpt><trkpt lat="44.4378291421787" lon="7.768161464408782"><ele>403.0</ele><time>2026-04-23T18:34:54.999Z</time></trkpt><trkpt lat="44.43792353012847" lon="7.76845086034143"><ele>403.0</ele><time>2026-04-23T18:34:55.999Z</time></trkpt><trkpt lat="44.438017930762214" lon="7.768732978648314"><ele>403.0</ele><time>2026-04-23T18:34:56.999Z</time></trkpt><trkpt lat="44.43810625948071" lon="7.769027795576568"><ele>403.0</ele><time>2026-04-23T18:34:57.999Z</time></trkpt><trkpt lat="44.4381948984387" lon="7.769304541057368"><ele>403.0</ele><time>2026-04-23T18:34:58.999Z</time></trkpt><trkpt lat="44.43827944286151" lon="7.769553461358711"><ele>402.6666666666667</ele><time>2026-04-23T18:34:59.999Z</time></trkpt><trkpt lat="44.43834549431164" lon="7.769767269889948"><ele>402.33333333333337</ele><time>2026-04-23T18:35:00.999Z</time></trkpt><trkpt lat="44.43842613398684" lon="7.769983518654791"><ele>402.0</ele><time>2026-04-23T18:35:01.999Z</time></trkpt><trkpt lat="44.43849679818804" lon="7.770221726740296"><ele>401.66666666666663</ele><time>2026-04-23T18:35:02.999Z</time></trkpt><trkpt lat="44.43856939895058" lon="7.770441447725868"><ele>401.3333333333333</ele><time>2026-04-23T18:35:03.999Z</time></trkpt><trkpt lat="44.43862424108246" lon="7.770640636836564"><ele>401.0</ele><time>2026-04-23T18:35:04.999Z</time></trkpt><trkpt lat="44.43868968885092" lon="7.770808789543862"><ele>401.0</ele><time>2026-04-23T18:35:05.999Z</time></trkpt><trkpt lat="44.438747028441405" lon="7.770983137823753"><ele>401.0</ele><time>2026-04-23T18:35:06.999Z</time></trkpt><trkpt lat="44.438794186447545" lon="7.771138477781397"><ele>401.0</ele><time>2026-04-23T18:35:07.999Z</time></trkpt><trkpt lat="44.43884934483385" lon="7.771299903492193"><ele>401.0</ele><time>2026-04-23T18:35:08.999Z</time></trkpt><trkpt lat="44.43889259999041" lon="7.771429750510013"><ele>401.0</ele><time>2026-04-23T18:35:09.999Z</time></trkpt><trkpt lat="44.43893960905889" lon="7.771577943378022"><ele>401.0</ele><time>2026-04-23T18:35:10.999Z</time></trkpt><trkpt lat="44.43898539020438" lon="7.7717201619586955"><ele>401.0</ele><time>2026-04-23T18:35:11.999Z</time></trkpt><trkpt lat="44.43903505657263" lon="7.771856475444542"><ele>401.0</ele><time>2026-04-23T18:35:12.999Z</time></trkpt><trkpt lat="44.43906798240559" lon="7.771991916341972"><ele>401.0</ele><time>2026-04-23T18:35:13.999Z</time></trkpt><trkpt lat="44.43909989662043" lon="7.772112876866507"><ele>400.8</ele><time>2026-04-23T18:35:14.999Z</time></trkpt><trkpt lat="44.43913752909584" lon="7.772220479747225"><ele>400.6</ele><time>2026-04-23T18:35:15.999Z</time></trkpt><trkpt lat="44.439183649638125" lon="7.772353810316108"><ele>400.4</ele><time>2026-04-23T18:35:16.999Z</time></trkpt><trkpt lat="44.43923889809289" lon="7.772483183135844"><ele>400.2</ele><time>2026-04-23T18:35:17.999Z</time></trkpt><trkpt lat="44.439292457180976" lon="7.772623457251566"><ele>400.0</ele><time>2026-04-23T18:35:18.999Z</time></trkpt><trkpt lat="44.43932157590697" lon="7.7727450032906145"><ele>400.0</ele><time>2026-04-23T18:35:19.999Z</time></trkpt><trkpt lat="44.43935548197943" lon="7.772866998215164"><ele>400.0</ele><time>2026-04-23T18:35:20.999Z</time></trkpt><trkpt lat="44.439406039952665" lon="7.773001889969648"><ele>400.0</ele><time>2026-04-23T18:35:21.999Z</time></trkpt><trkpt lat="44.439465437148286" lon="7.773163514668287"><ele>400.0</ele><time>2026-04-23T18:35:22.999Z</time></trkpt><trkpt lat="44.43952390965864" lon="7.7733273001808"><ele>400.0</ele><time>2026-04-23T18:35:23.999Z</time></trkpt><trkpt lat="44.43957991215751" lon="7.773525732363413"><ele>400.0</ele><time>2026-04-23T18:35:24.999Z</time></trkpt><trkpt lat="44.439631351556216" lon="7.7737441998031365"><ele>400.0</ele><time>2026-04-23T18:35:25.999Z</time></trkpt><trkpt lat="44.43968351998658" lon="7.773957416125583"><ele>400.0</ele><time>2026-04-23T18:35:26.999Z</time></trkpt><trkpt lat="44.43974901815518" lon="7.774170456508247"><ele>400.0</ele><time>2026-04-23T18:35:27.999Z</time></trkpt><trkpt lat="44.43981989042203" lon="7.774370105177948"><ele>400.0</ele><time>2026-04-23T18:35:28.999Z</time></trkpt><trkpt lat="44.43988339039477" lon="7.774571975854168"><ele>399.6666666666667</ele><time>2026-04-23T18:35:29.999Z</time></trkpt><trkpt lat="44.43995174636217" lon="7.7747809755826705"><ele>399.33333333333337</ele><time>2026-04-23T18:35:30.999Z</time></trkpt><trkpt lat="44.4400184227251" lon="7.774989427068826"><ele>399.0</ele><time>2026-04-23T18:35:31.999Z</time></trkpt><trkpt lat="44.4400893304685" lon="7.775185705878349"><ele>399.33333333333337</ele><time>2026-04-23T18:35:32.999Z</time></trkpt><trkpt lat="44.4401607116641" lon="7.775392076429553"><ele>399.6666666666667</ele><time>2026-04-23T18:35:33.999Z</time></trkpt><trkpt lat="44.44021976310578" lon="7.775595961485833"><ele>400.0</ele><time>2026-04-23T18:35:34.999Z</time></trkpt><trkpt lat="44.44028333718416" lon="7.775795115228314"><ele>400.0</ele><time>2026-04-23T18:35:35.999Z</time></trkpt><trkpt lat="44.44035334730917" lon="7.775994123462087"><ele>400.0</ele><time>2026-04-23T18:35:36.999Z</time></trkpt><trkpt lat="44.44041033980294" lon="7.776193376605078"><ele>400.0</ele><time>2026-04-23T18:35:37.999Z</time></trkpt><trkpt lat="44.44047036148314" lon="7.776380418763448"><ele>399.75</ele><time>2026-04-23T18:35:38.999Z</time></trkpt><trkpt lat="44.44052926126208" lon="7.77657016877908"><ele>399.5</ele><time>2026-04-23T18:35:39.999Z</time></trkpt><trkpt lat="44.44059249781268" lon="7.776756531213792"><ele>399.25</ele><time>2026-04-23T18:35:40.999Z</time></trkpt><trkpt lat="44.440654754736094" lon="7.776944190872868"><ele>399.0</ele><time>2026-04-23T18:35:41.999Z</time></trkpt><trkpt lat="44.44071632710342" lon="7.777113540269731"><ele>398.66666666666663</ele><time>2026-04-23T18:35:42.999Z</time></trkpt><trkpt lat="44.44078039250591" lon="7.777303992776289"><ele>398.3333333333333</ele><time>2026-04-23T18:35:43.999Z</time></trkpt><trkpt lat="44.44085224013438" lon="7.777491613875398"><ele>398.0</ele><time>2026-04-23T18:35:44.999Z</time></trkpt><trkpt lat="44.44092979542481" lon="7.777686234100189"><ele>397.66666666666663</ele><time>2026-04-23T18:35:45.999Z</time></trkpt><trkpt lat="44.44100742048539" lon="7.777883324275983"><ele>397.33333333333337</ele><time>2026-04-23T18:35:46.999Z</time></trkpt><trkpt lat="44.441090117226935" lon="7.778073252067795"><ele>397.0</ele><time>2026-04-23T18:35:47.999Z</time></trkpt><trkpt lat="44.44117891781313" lon="7.778263387578934"><ele>397.0</ele><time>2026-04-23T18:35:48.999Z</time></trkpt><trkpt lat="44.44125958823183" lon="7.7784705637091704"><ele>397.0</ele><time>2026-04-23T18:35:49.999Z</time></trkpt><trkpt lat="44.44133841741304" lon="7.778700701226228"><ele>397.0</ele><time>2026-04-23T18:35:50.999Z</time></trkpt><trkpt lat="44.44142628268562" lon="7.778904917553611"><ele>397.0</ele><time>2026-04-23T18:35:51.999Z</time></trkpt><trkpt lat="44.44151511588942" lon="7.779133450027532"><ele>397.0</ele><time>2026-04-23T18:35:52.999Z</time></trkpt><trkpt lat="44.441597637199415" lon="7.779350423184515"><ele>397.0</ele><time>2026-04-23T18:35:53.999Z</time></trkpt><trkpt lat="44.44167420579478" lon="7.779583402030203"><ele>397.0</ele><time>2026-04-23T18:35:54.999Z</time></trkpt><trkpt lat="44.44174536588068" lon="7.77982028556945"><ele>397.0</ele><time>2026-04-23T18:35:55.999Z</time></trkpt><trkpt lat="44.441814209282136" lon="7.780081820532853"><ele>397.0</ele><time>2026-04-23T18:35:56.999Z</time></trkpt><trkpt lat="44.441890566258984" lon="7.780339006413494"><ele>397.0</ele><time>2026-04-23T18:35:57.999Z</time></trkpt><trkpt lat="44.44196096347422" lon="7.780605410958495"><ele>397.0</ele><time>2026-04-23T18:35:58.999Z</time></trkpt><trkpt lat="44.44204828799863" lon="7.780875886437618"><ele>397.0</ele><time>2026-04-23T18:35:59.999Z</time></trkpt><trkpt lat="44.442120107674846" lon="7.781142534242203"><ele>396.6666666666667</ele><time>2026-04-23T18:36:00.999Z</time></trkpt><trkpt lat="44.442201461906315" lon="7.781433926977195"><ele>396.33333333333337</ele><time>2026-04-23T18:36:01.998Z</time></trkpt><trkpt lat="44.442282239637244" lon="7.7817113453758155"><ele>396.0</ele><time>2026-04-23T18:36:02.998Z</time></trkpt><trkpt lat="44.44236616219328" lon="7.782008675650336"><ele>395.0</ele><time>2026-04-23T18:36:03.998Z</time></trkpt><trkpt lat="44.44244641744335" lon="7.782309463277622"><ele>394.0</ele><time>2026-04-23T18:36:04.998Z</time></trkpt><trkpt lat="44.442528582897005" lon="7.782607902295434"><ele>393.6666666666667</ele><time>2026-04-23T18:36:05.998Z</time></trkpt><trkpt lat="44.442587881838115" lon="7.782897535486225"><ele>393.33333333333337</ele><time>2026-04-23T18:36:06.998Z</time></trkpt><trkpt lat="44.44266033535098" lon="7.783149747724107"><ele>393.0</ele><time>2026-04-23T18:36:07.998Z</time></trkpt><trkpt lat="44.44273473933854" lon="7.783408680897932"><ele>392.0</ele><time>2026-04-23T18:36:08.998Z</time></trkpt><trkpt lat="44.44280592906594" lon="7.783656428138247"><ele>391.0</ele><time>2026-04-23T18:36:09.998Z</time></trkpt><trkpt lat="44.44288089659996" lon="7.783917322528063"><ele>390.0</ele><time>2026-04-23T18:36:10.998Z</time></trkpt><trkpt lat="44.442961535092145" lon="7.784197952401886"><ele>390.0</ele><time>2026-04-23T18:36:12Z</time></trkpt><trkpt lat="44.443046248740856" lon="7.784492764221712"><ele>390.0</ele><time>2026-04-23T18:36:13Z</time></trkpt><trkpt lat="44.443131774316235" lon="7.784790139355606"><ele>390.0</ele><time>2026-04-23T18:36:14Z</time></trkpt><trkpt lat="44.44322235180195" lon="7.785103753076508"><ele>390.0</ele><time>2026-04-23T18:36:15Z</time></trkpt><trkpt lat="44.44331632313565" lon="7.785414761705777"><ele>390.5</ele><time>2026-04-23T18:36:16Z</time></trkpt><trkpt lat="44.44341096878105" lon="7.785714878091393"><ele>391.0</ele><time>2026-04-23T18:36:17Z</time></trkpt><trkpt lat="44.44349863789283" lon="7.785991947294209"><ele>391.6666666666667</ele><time>2026-04-23T18:36:18Z</time></trkpt><trkpt lat="44.443568765290436" lon="7.786213577746863"><ele>392.33333333333337</ele><time>2026-04-23T18:36:19Z</time></trkpt><trkpt lat="44.44366147138347" lon="7.7864267502802065"><ele>393.0</ele><time>2026-04-23T18:36:20Z</time></trkpt><trkpt lat="44.44371888680445" lon="7.786643588544282"><ele>393.0</ele><time>2026-04-23T18:36:21Z</time></trkpt><trkpt lat="44.44376139203604" lon="7.78682339394007"><ele>393.0</ele><time>2026-04-23T18:36:22Z</time></trkpt><trkpt lat="44.44380532565018" lon="7.78698799515933"><ele>393.0</ele><time>2026-04-23T18:36:23Z</time></trkpt><trkpt lat="44.443844541047596" lon="7.78712023947154"><ele>393.0</ele><time>2026-04-23T18:36:24Z</time></trkpt><trkpt lat="44.44388377509584" lon="7.78724657002367"><ele>392.6666666666667</ele><time>2026-04-23T18:36:25Z</time></trkpt><trkpt lat="44.443904039605314" lon="7.787372547479951"><ele>392.33333333333337</ele><time>2026-04-23T18:36:26Z</time></trkpt><trkpt lat="44.44391196980185" lon="7.787493992584719"><ele>392.0</ele><time>2026-04-23T18:36:27Z</time></trkpt><trkpt lat="44.443924264359104" lon="7.787633146741517"><ele>391.6666666666667</ele><time>2026-04-23T18:36:28Z</time></trkpt><trkpt lat="44.443941598503784" lon="7.787755979690008"><ele>391.33333333333337</ele><time>2026-04-23T18:36:29Z</time></trkpt><trkpt lat="44.443965145666176" lon="7.787863516183566"><ele>391.0</ele><time>2026-04-23T18:36:30Z</time></trkpt><trkpt lat="44.444006113271115" lon="7.787971048811264"><ele>390.75</ele><time>2026-04-23T18:36:31Z</time></trkpt><trkpt lat="44.44406375814108" lon="7.788084956759825"><ele>390.5</ele><time>2026-04-23T18:36:32Z</time></trkpt><trkpt lat="44.44414313928938" lon="7.788181073253589"><ele>390.25</ele><time>2026-04-23T18:36:33Z</time></trkpt><trkpt lat="44.44422515005718" lon="7.788318973125117"><ele>390.0</ele><time>2026-04-23T18:36:34Z</time></trkpt><trkpt lat="44.44429704600707" lon="7.788488530240013"><ele>389.66666666666663</ele><time>2026-04-23T18:36:35Z</time></trkpt><trkpt lat="44.4443575797895" lon="7.788680530580621"><ele>389.3333333333333</ele><time>2026-04-23T18:36:36Z</time></trkpt><trkpt lat="44.444424111647294" lon="7.7888922986906985"><ele>389.0</ele><time>2026-04-23T18:36:37Z</time></trkpt><trkpt lat="44.44449402333707" lon="7.789117617838215"><ele>388.66666666666663</ele><time>2026-04-23T18:36:38Z</time></trkpt><trkpt lat="44.44457116796952" lon="7.789346151167181"><ele>388.33333333333337</ele><time>2026-04-23T18:36:39Z</time></trkpt><trkpt lat="44.444648776090965" lon="7.7895798253768165"><ele>388.0</ele><time>2026-04-23T18:36:40Z</time></trkpt><trkpt lat="44.44472487876217" lon="7.789817217841446"><ele>388.0</ele><time>2026-04-23T18:36:41Z</time></trkpt><trkpt lat="44.44480786419519" lon="7.7900624775672656"><ele>388.0</ele><time>2026-04-23T18:36:42Z</time></trkpt><trkpt lat="44.44489504055961" lon="7.790304118956815"><ele>388.0</ele><time>2026-04-23T18:36:43Z</time></trkpt><trkpt lat="44.4449911932384" lon="7.790560196477246"><ele>388.0</ele><time>2026-04-23T18:36:44Z</time></trkpt><trkpt lat="44.445090154771236" lon="7.790819602029337"><ele>388.0</ele><time>2026-04-23T18:36:45Z</time></trkpt><trkpt lat="44.44519760264138" lon="7.791069652560605"><ele>388.0</ele><time>2026-04-23T18:36:46Z</time></trkpt><trkpt lat="44.445323192047205" lon="7.791309173879784"><ele>388.0</ele><time>2026-04-23T18:36:47Z</time></trkpt><trkpt lat="44.44544156067015" lon="7.791573186389444"><ele>388.0</ele><time>2026-04-23T18:36:48Z</time></trkpt><trkpt lat="44.44558568433842" lon="7.791803902028062"><ele>388.0</ele><time>2026-04-23T18:36:49Z</time></trkpt><trkpt lat="44.445721101532136" lon="7.792054871400205"><ele>386.5</ele><time>2026-04-23T18:36:50Z</time></trkpt><trkpt lat="44.44588470695095" lon="7.79229743062562"><ele>385.0</ele><time>2026-04-23T18:36:51Z</time></trkpt><trkpt lat="44.446045250496454" lon="7.792540514868522"><ele>385.0</ele><time>2026-04-23T18:36:52Z</time></trkpt><trkpt lat="44.446209616082506" lon="7.792780668027727"><ele>385.0</ele><time>2026-04-23T18:36:53Z</time></trkpt><trkpt lat="44.44639663030111" lon="7.793010505224548"><ele>385.5</ele><time>2026-04-23T18:36:54Z</time></trkpt><trkpt lat="44.44658784456159" lon="7.793229202511797"><ele>386.0</ele><time>2026-04-23T18:36:55Z</time></trkpt><trkpt lat="44.44677947517826" lon="7.793454891373809"><ele>386.0</ele><time>2026-04-23T18:36:56Z</time></trkpt><trkpt lat="44.44697707406288" lon="7.793673553625268"><ele>386.0</ele><time>2026-04-23T18:36:57Z</time></trkpt><trkpt lat="44.447170490758204" lon="7.793912749535027"><ele>386.0</ele><time>2026-04-23T18:36:58Z</time></trkpt><trkpt lat="44.44736985307484" lon="7.794130394786264"><ele>386.0</ele><time>2026-04-23T18:36:59Z</time></trkpt><trkpt lat="44.44756008726965" lon="7.794362646499058"><ele>385.0</ele><time>2026-04-23T18:37:00Z</time></trkpt><trkpt lat="44.44775742622464" lon="7.794577348108457"><ele>384.0</ele><time>2026-04-23T18:37:01Z</time></trkpt><trkpt lat="44.44794744963912" lon="7.79479315910753"><ele>384.5</ele><time>2026-04-23T18:37:02Z</time></trkpt><trkpt lat="44.44814492018394" lon="7.795012553121386"><ele>385.0</ele><time>2026-04-23T18:37:03Z</time></trkpt><trkpt lat="44.448339557667516" lon="7.795227814556694"><ele>385.5</ele><time>2026-04-23T18:37:04Z</time></trkpt><trkpt lat="44.4485263298422" lon="7.795465117772852"><ele>386.0</ele><time>2026-04-23T18:37:04.999Z</time></trkpt><trkpt lat="44.44871646379577" lon="7.795682678133522"><ele>386.0</ele><time>2026-04-23T18:37:05.999Z</time></trkpt><trkpt lat="44.44889375196644" lon="7.795906211570526"><ele>386.0</ele><time>2026-04-23T18:37:06.999Z</time></trkpt><trkpt lat="44.44908727731847" lon="7.796104622151074"><ele>386.0</ele><time>2026-04-23T18:37:07.999Z</time></trkpt><trkpt lat="44.44925432980282" lon="7.796312686775611"><ele>386.0</ele><time>2026-04-23T18:37:08.999Z</time></trkpt><trkpt lat="44.44941732681843" lon="7.796500334089863"><ele>386.0</ele><time>2026-04-23T18:37:09.999Z</time></trkpt><trkpt lat="44.449576585561076" lon="7.796689931251816"><ele>387.0</ele><time>2026-04-23T18:37:10.999Z</time></trkpt><trkpt lat="44.44973122753562" lon="7.796883281574018"><ele>388.0</ele><time>2026-04-23T18:37:11.999Z</time></trkpt><trkpt lat="44.449879769796986" lon="7.797094906402325"><ele>389.0</ele><time>2026-04-23T18:37:12.999Z</time></trkpt><trkpt lat="44.45002856774989" lon="7.797295117697214"><ele>389.0</ele><time>2026-04-23T18:37:13.999Z</time></trkpt><trkpt lat="44.45018218314155" lon="7.797513350472419"><ele>389.0</ele><time>2026-04-23T18:37:14.999Z</time></trkpt><trkpt lat="44.45032920462945" lon="7.797730823693563"><ele>389.0</ele><time>2026-04-23T18:37:15.999Z</time></trkpt><trkpt lat="44.45047207762427" lon="7.797965645579559"><ele>389.0</ele><time>2026-04-23T18:37:16.999Z</time></trkpt><trkpt lat="44.450613549273406" lon="7.798201348066041"><ele>389.0</ele><time>2026-04-23T18:37:17.999Z</time></trkpt><trkpt lat="44.450749879591996" lon="7.798462645694011"><ele>389.0</ele><time>2026-04-23T18:37:18.999Z</time></trkpt><trkpt lat="44.45088548729169" lon="7.798715839821389"><ele>389.0</ele><time>2026-04-23T18:37:19.999Z</time></trkpt><trkpt lat="44.451019003593956" lon="7.798987629892516"><ele>389.0</ele><time>2026-04-23T18:37:20.999Z</time></trkpt><trkpt lat="44.45114953698199" lon="7.799267815900974"><ele>389.0</ele><time>2026-04-23T18:37:21.999Z</time></trkpt><trkpt lat="44.45127193648689" lon="7.799558633285656"><ele>389.0</ele><time>2026-04-23T18:37:22.999Z</time></trkpt><trkpt lat="44.4513918108584" lon="7.799857277602278"><ele>389.0</ele><time>2026-04-23T18:37:23.999Z</time></trkpt><trkpt lat="44.451508516189755" lon="7.80015420360449"><ele>388.5</ele><time>2026-04-23T18:37:24.999Z</time></trkpt><trkpt lat="44.45162620558867" lon="7.8004527777006825"><ele>388.0</ele><time>2026-04-23T18:37:25.999Z</time></trkpt><trkpt lat="44.45175132792301" lon="7.800748550390949"><ele>388.0</ele><time>2026-04-23T18:37:26.999Z</time></trkpt><trkpt lat="44.451873234524335" lon="7.801052876843654"><ele>388.0</ele><time>2026-04-23T18:37:27.999Z</time></trkpt><trkpt lat="44.45199205061733" lon="7.801352258252724"><ele>388.0</ele><time>2026-04-23T18:37:28.999Z</time></trkpt><trkpt lat="44.452115715983666" lon="7.801661522174759"><ele>388.0</ele><time>2026-04-23T18:37:29.999Z</time></trkpt><trkpt lat="44.452239903408106" lon="7.801951366364576"><ele>387.0</ele><time>2026-04-23T18:37:30.999Z</time></trkpt><trkpt lat="44.45235306553499" lon="7.802233179862576"><ele>386.0</ele><time>2026-04-23T18:37:31.999Z</time></trkpt><trkpt lat="44.452468405173825" lon="7.8025270784151415"><ele>386.0</ele><time>2026-04-23T18:37:32.999Z</time></trkpt><trkpt lat="44.45258880844061" lon="7.802820020168948"><ele>386.0</ele><time>2026-04-23T18:37:33.999Z</time></trkpt><trkpt lat="44.45270680841456" lon="7.80310627465519"><ele>386.0</ele><time>2026-04-23T18:37:34.999Z</time></trkpt><trkpt lat="44.45282692865321" lon="7.803411166897668"><ele>386.0</ele><time>2026-04-23T18:37:35.999Z</time></trkpt><trkpt lat="44.45295151153508" lon="7.8037010190134275"><ele>385.5</ele><time>2026-04-23T18:37:36.999Z</time></trkpt><trkpt lat="44.45307349496887" lon="7.803981977181663"><ele>385.0</ele><time>2026-04-23T18:37:37.999Z</time></trkpt><trkpt lat="44.453200911133465" lon="7.804261448415861"><ele>385.5</ele><time>2026-04-23T18:37:38.999Z</time></trkpt><trkpt lat="44.453323854424326" lon="7.80453700024495"><ele>386.0</ele><time>2026-04-23T18:37:39.999Z</time></trkpt><trkpt lat="44.453443858437375" lon="7.804830100938858"><ele>386.0</ele><time>2026-04-23T18:37:40.999Z</time></trkpt><trkpt lat="44.45356638430551" lon="7.805123796411673"><ele>386.0</ele><time>2026-04-23T18:37:41.999Z</time></trkpt><trkpt lat="44.45368660877019" lon="7.805425394945648"><ele>386.0</ele><time>2026-04-23T18:37:42.999Z</time></trkpt><trkpt lat="44.45380572372466" lon="7.805705549288146"><ele>386.0</ele><time>2026-04-23T18:37:43.999Z</time></trkpt><trkpt lat="44.45391286284365" lon="7.805966448013528"><ele>386.0</ele><time>2026-04-23T18:37:44.999Z</time></trkpt><trkpt lat="44.45401977976151" lon="7.8062471042371016"><ele>386.0</ele><time>2026-04-23T18:37:45.999Z</time></trkpt><trkpt lat="44.45412044792291" lon="7.80651309397003"><ele>386.0</ele><time>2026-04-23T18:37:46.999Z</time></trkpt><trkpt lat="44.45422705617333" lon="7.806767725975473"><ele>386.0</ele><time>2026-04-23T18:37:47.999Z</time></trkpt><trkpt lat="44.45433696945314" lon="7.807012673788048"><ele>385.66666666666663</ele><time>2026-04-23T18:37:48.999Z</time></trkpt><trkpt lat="44.45443951582169" lon="7.807266347157653"><ele>385.33333333333337</ele><time>2026-04-23T18:37:49.999Z</time></trkpt><trkpt lat="44.454539380903476" lon="7.807516738736329"><ele>385.0</ele><time>2026-04-23T18:37:50.999Z</time></trkpt><trkpt lat="44.45464215607207" lon="7.807757350896299"><ele>385.6666666666667</ele><time>2026-04-23T18:37:51.999Z</time></trkpt><trkpt lat="44.45473818854534" lon="7.808002600623377"><ele>386.33333333333337</ele><time>2026-04-23T18:37:52.999Z</time></trkpt><trkpt lat="44.45483469024406" lon="7.80824787642335"><ele>387.0</ele><time>2026-04-23T18:37:53.999Z</time></trkpt><trkpt lat="44.45493207114265" lon="7.808486791093439"><ele>386.33333333333337</ele><time>2026-04-23T18:37:54.999Z</time></trkpt><trkpt lat="44.45503627483633" lon="7.808722554827803"><ele>385.6666666666667</ele><time>2026-04-23T18:37:55.999Z</time></trkpt><trkpt lat="44.45513944534388" lon="7.808967782879547"><ele>385.0</ele><time>2026-04-23T18:37:56.999Z</time></trkpt><trkpt lat="44.45523372422834" lon="7.809221657152069"><ele>384.33333333333337</ele><time>2026-04-23T18:37:57.999Z</time></trkpt><trkpt lat="44.45533131053712" lon="7.809455911241251"><ele>383.6666666666667</ele><time>2026-04-23T18:37:58.999Z</time></trkpt><trkpt lat="44.45543384830738" lon="7.809709385813159"><ele>383.0</ele><time>2026-04-23T18:37:59.999Z</time></trkpt><trkpt lat="44.455537045538655" lon="7.809960510641691"><ele>383.0</ele><time>2026-04-23T18:38:00.999Z</time></trkpt><trkpt lat="44.455643462899424" lon="7.810211742878005"><ele>383.0</ele><time>2026-04-23T18:38:01.999Z</time></trkpt><trkpt lat="44.45574295437318" lon="7.8104657662028085"><ele>383.0</ele><time>2026-04-23T18:38:02.999Z</time></trkpt><trkpt lat="44.45585552562315" lon="7.8107238181307315"><ele>383.0</ele><time>2026-04-23T18:38:03.999Z</time></trkpt><trkpt lat="44.45596496205579" lon="7.81098532025485"><ele>383.0</ele><time>2026-04-23T18:38:04.999Z</time></trkpt><trkpt lat="44.456081782647324" lon="7.811245741300259"><ele>383.0</ele><time>2026-04-23T18:38:05.999Z</time></trkpt><trkpt lat="44.456193441115204" lon="7.8115161136960545"><ele>383.0</ele><time>2026-04-23T18:38:06.999Z</time></trkpt><trkpt lat="44.45630718317834" lon="7.811789094466348"><ele>383.0</ele><time>2026-04-23T18:38:07.999Z</time></trkpt><trkpt lat="44.456415078010856" lon="7.8120667897793155"><ele>382.0</ele><time>2026-04-23T18:38:08.999Z</time></trkpt><trkpt lat="44.4565306831589" lon="7.812351972216793"><ele>381.0</ele><time>2026-04-23T18:38:09.999Z</time></trkpt><trkpt lat="44.456650345884185" lon="7.812627035198401"><ele>381.0</ele><time>2026-04-23T18:38:10.999Z</time></trkpt><trkpt lat="44.456773792245166" lon="7.812919167980611"><ele>381.0</ele><time>2026-04-23T18:38:11.999Z</time></trkpt><trkpt lat="44.45689676988273" lon="7.813218434387105"><ele>381.0</ele><time>2026-04-23T18:38:12.999Z</time></trkpt><trkpt lat="44.45701817477775" lon="7.8135139306433645"><ele>381.0</ele><time>2026-04-23T18:38:13.999Z</time></trkpt><trkpt lat="44.457143416627396" lon="7.8138107519304"><ele>381.0</ele><time>2026-04-23T18:38:14.998Z</time></trkpt><trkpt lat="44.45726881483676" lon="7.814118230667199"><ele>381.0</ele><time>2026-04-23T18:38:15.998Z</time></trkpt><trkpt lat="44.457397571576124" lon="7.814426601591556"><ele>380.5</ele><time>2026-04-23T18:38:16.998Z</time></trkpt><trkpt lat="44.45752854248008" lon="7.814731174940487"><ele>380.0</ele><time>2026-04-23T18:38:18Z</time></trkpt><trkpt lat="44.457655804458" lon="7.815035310898296"><ele>380.5</ele><time>2026-04-23T18:38:19Z</time></trkpt><trkpt lat="44.45778111459775" lon="7.815340033807265"><ele>381.0</ele><time>2026-04-23T18:38:20Z</time></trkpt><trkpt lat="44.457903684446855" lon="7.815655440695462"><ele>380.5</ele><time>2026-04-23T18:38:21Z</time></trkpt><trkpt lat="44.45802623836024" lon="7.815966522088279"><ele>380.0</ele><time>2026-04-23T18:38:22Z</time></trkpt><trkpt lat="44.45815158706858" lon="7.816274303003978"><ele>380.0</ele><time>2026-04-23T18:38:23Z</time></trkpt><trkpt lat="44.458280137987444" lon="7.8165669371569395"><ele>380.0</ele><time>2026-04-23T18:38:24Z</time></trkpt><trkpt lat="44.45840414377203" lon="7.816882846820193"><ele>380.0</ele><time>2026-04-23T18:38:25Z</time></trkpt><trkpt lat="44.45852682845435" lon="7.817188018844074"><ele>380.0</ele><time>2026-04-23T18:38:26Z</time></trkpt><trkpt lat="44.45864363781396" lon="7.817499797683905"><ele>380.0</ele><time>2026-04-23T18:38:27Z</time></trkpt><trkpt lat="44.4587720427169" lon="7.817776920542643"><ele>380.0</ele><time>2026-04-23T18:38:28Z</time></trkpt><trkpt lat="44.458885137847965" lon="7.818061146715328"><ele>380.5</ele><time>2026-04-23T18:38:29Z</time></trkpt><trkpt lat="44.45900542809146" lon="7.818341848237093"><ele>381.0</ele><time>2026-04-23T18:38:30Z</time></trkpt><trkpt lat="44.45912933429986" lon="7.818630390730541"><ele>381.5</ele><time>2026-04-23T18:38:31Z</time></trkpt><trkpt lat="44.459250274948865" lon="7.818927437547009"><ele>382.0</ele><time>2026-04-23T18:38:32Z</time></trkpt><trkpt lat="44.459362191035666" lon="7.819195675496458"><ele>381.3333333333333</ele><time>2026-04-23T18:38:33Z</time></trkpt><trkpt lat="44.45947080489042" lon="7.819454147265139"><ele>380.6666666666667</ele><time>2026-04-23T18:38:34Z</time></trkpt><trkpt lat="44.4595873720304" lon="7.819720891197271"><ele>380.0</ele><time>2026-04-23T18:38:35Z</time></trkpt><trkpt lat="44.45968206051749" lon="7.819983909139471"><ele>379.6666666666667</ele><time>2026-04-23T18:38:36Z</time></trkpt><trkpt lat="44.45978102734362" lon="7.820223553598056"><ele>379.3333333333333</ele><time>2026-04-23T18:38:37Z</time></trkpt><trkpt lat="44.459895596015045" lon="7.820455706539839"><ele>379.0</ele><time>2026-04-23T18:38:38Z</time></trkpt><trkpt lat="44.45997808230947" lon="7.820700714805724"><ele>379.0</ele><time>2026-04-23T18:38:39Z</time></trkpt><trkpt lat="44.46007611982472" lon="7.820899137130471"><ele>379.0</ele><time>2026-04-23T18:38:40Z</time></trkpt><trkpt lat="44.46014139659435" lon="7.821096174226251"><ele>379.0</ele><time>2026-04-23T18:38:41Z</time></trkpt><trkpt lat="44.46021904059372" lon="7.821284186255619"><ele>379.0</ele><time>2026-04-23T18:38:42Z</time></trkpt><trkpt lat="44.46031025114933" lon="7.8214685755746425"><ele>379.0</ele><time>2026-04-23T18:38:43Z</time></trkpt><trkpt lat="44.46038810037707" lon="7.821656045678652"><ele>379.0</ele><time>2026-04-23T18:38:44Z</time></trkpt><trkpt lat="44.46045957723749" lon="7.821821743763805"><ele>378.75</ele><time>2026-04-23T18:38:45Z</time></trkpt><trkpt lat="44.46053020137189" lon="7.8220086277120515"><ele>378.5</ele><time>2026-04-23T18:38:46Z</time></trkpt><trkpt lat="44.460596723544626" lon="7.822172990880881"><ele>378.25</ele><time>2026-04-23T18:38:47Z</time></trkpt><trkpt lat="44.46066567864199" lon="7.822343238638115"><ele>378.0</ele><time>2026-04-23T18:38:48Z</time></trkpt><trkpt lat="44.46073566288405" lon="7.822504361947772"><ele>378.25</ele><time>2026-04-23T18:38:49Z</time></trkpt><trkpt lat="44.46079195115715" lon="7.822659834294844"><ele>378.5</ele><time>2026-04-23T18:38:50Z</time></trkpt><trkpt lat="44.46085584956596" lon="7.822814627066435"><ele>378.75</ele><time>2026-04-23T18:38:51Z</time></trkpt><trkpt lat="44.460915656693906" lon="7.822956784616185"><ele>379.0</ele><time>2026-04-23T18:38:52Z</time></trkpt><trkpt lat="44.46097139001859" lon="7.82310537729649"><ele>379.0</ele><time>2026-04-23T18:38:53Z</time></trkpt><trkpt lat="44.46102295186308" lon="7.8232327088591065"><ele>379.0</ele><time>2026-04-23T18:38:54Z</time></trkpt><trkpt lat="44.46106291870805" lon="7.823362051665968"><ele>379.0</ele><time>2026-04-23T18:38:55Z</time></trkpt><trkpt lat="44.46109018829696" lon="7.823467621620059"><ele>379.0</ele><time>2026-04-23T18:38:56Z</time></trkpt><trkpt lat="44.4611053288141" lon="7.8235564658214125"><ele>379.0</ele><time>2026-04-23T18:38:57Z</time></trkpt><trkpt lat="44.4611103338549" lon="7.8236671895400764"><ele>379.0</ele><time>2026-04-23T18:38:58Z</time></trkpt><trkpt lat="44.46114294608806" lon="7.823779481841947"><ele>379.0</ele><time>2026-04-23T18:38:59Z</time></trkpt><trkpt lat="44.46119418232472" lon="7.823878068981357"><ele>379.0</ele><time>2026-04-23T18:39:00Z</time></trkpt><trkpt lat="44.4612703047341" lon="7.823986608703867"><ele>379.0</ele><time>2026-04-23T18:39:01Z</time></trkpt><trkpt lat="44.46134713050353" lon="7.8241027954954685"><ele>379.0</ele><time>2026-04-23T18:39:02Z</time></trkpt><trkpt lat="44.46142181331603" lon="7.824245489713297"><ele>379.0</ele><time>2026-04-23T18:39:03Z</time></trkpt><trkpt lat="44.46149897227268" lon="7.824417376847779"><ele>378.3333333333333</ele><time>2026-04-23T18:39:04Z</time></trkpt><trkpt lat="44.46157617295565" lon="7.82458918776615"><ele>377.6666666666667</ele><time>2026-04-23T18:39:05Z</time></trkpt><trkpt lat="44.46165772355103" lon="7.824784424298565"><ele>377.0</ele><time>2026-04-23T18:39:05.999Z</time></trkpt><trkpt lat="44.46174475073926" lon="7.82497968665403"><ele>376.33333333333337</ele><time>2026-04-23T18:39:06.999Z</time></trkpt><trkpt lat="44.461836301031006" lon="7.825204409211628"><ele>375.6666666666667</ele><time>2026-04-23T18:39:07.999Z</time></trkpt><trkpt lat="44.46194112811708" lon="7.825427189040878"><ele>375.0</ele><time>2026-04-23T18:39:08.999Z</time></trkpt><trkpt lat="44.462035216000004" lon="7.825665615283868"><ele>375.0</ele><time>2026-04-23T18:39:09.999Z</time></trkpt><trkpt lat="44.46215255433526" lon="7.825907569063419"><ele>375.0</ele><time>2026-04-23T18:39:10.999Z</time></trkpt><trkpt lat="44.46228317502696" lon="7.826122827288405"><ele>375.0</ele><time>2026-04-23T18:39:11.999Z</time></trkpt><trkpt lat="44.46241074351369" lon="7.826362637576495"><ele>375.3333333333333</ele><time>2026-04-23T18:39:12.999Z</time></trkpt><trkpt lat="44.462531683002005" lon="7.82657667447433"><ele>375.66666666666663</ele><time>2026-04-23T18:39:13.999Z</time></trkpt><trkpt lat="44.46266201670237" lon="7.826796254678539"><ele>376.0</ele><time>2026-04-23T18:39:14.999Z</time></trkpt><trkpt lat="44.46279570774724" lon="7.827014000047278"><ele>376.0</ele><time>2026-04-23T18:39:15.999Z</time></trkpt><trkpt lat="44.46292619887937" lon="7.827247169475788"><ele>376.0</ele><time>2026-04-23T18:39:16.999Z</time></trkpt><trkpt lat="44.46308177843688" lon="7.827458476532701"><ele>376.0</ele><time>2026-04-23T18:39:17.999Z</time></trkpt><trkpt lat="44.46322334850648" lon="7.8276946048573945"><ele>376.0</ele><time>2026-04-23T18:39:18.999Z</time></trkpt><trkpt lat="44.463373557566314" lon="7.827943765904707"><ele>376.0</ele><time>2026-04-23T18:39:19.999Z</time></trkpt><trkpt lat="44.46351958594921" lon="7.828180715108898"><ele>376.0</ele><time>2026-04-23T18:39:20.999Z</time></trkpt><trkpt lat="44.46365498592633" lon="7.828408428237063"><ele>376.0</ele><time>2026-04-23T18:39:21.999Z</time></trkpt><trkpt lat="44.46378001021671" lon="7.828605329276642"><ele>376.0</ele><time>2026-04-23T18:39:22.999Z</time></trkpt><trkpt lat="44.46390876779146" lon="7.828823697814232"><ele>376.0</ele><time>2026-04-23T18:39:23.999Z</time></trkpt><trkpt lat="44.464038643336245" lon="7.829026003050262"><ele>376.0</ele><time>2026-04-23T18:39:24.999Z</time></trkpt><trkpt lat="44.46416163986522" lon="7.829212600052041"><ele>376.0</ele><time>2026-04-23T18:39:25.999Z</time></trkpt><trkpt lat="44.46427885446734" lon="7.829391846951801"><ele>376.0</ele><time>2026-04-23T18:39:26.999Z</time></trkpt><trkpt lat="44.464389869569054" lon="7.829569169308696"><ele>376.0</ele><time>2026-04-23T18:39:27.999Z</time></trkpt><trkpt lat="44.46450323633041" lon="7.829756736841527"><ele>376.0</ele><time>2026-04-23T18:39:28.999Z</time></trkpt><trkpt lat="44.46461616668552" lon="7.82993388008548"><ele>375.3333333333333</ele><time>2026-04-23T18:39:29.999Z</time></trkpt><trkpt lat="44.464728972235925" lon="7.830118128737697"><ele>374.6666666666667</ele><time>2026-04-23T18:39:30.999Z</time></trkpt><trkpt lat="44.46483733668979" lon="7.830296953815298"><ele>374.0</ele><time>2026-04-23T18:39:31.999Z</time></trkpt><trkpt lat="44.46494993867372" lon="7.830461955374592"><ele>374.0</ele><time>2026-04-23T18:39:32.999Z</time></trkpt><trkpt lat="44.46505810182428" lon="7.830631245641368"><ele>374.0</ele><time>2026-04-23T18:39:33.999Z</time></trkpt><trkpt lat="44.46515643081173" lon="7.8307959999006185"><ele>374.0</ele><time>2026-04-23T18:39:34.999Z</time></trkpt><trkpt lat="44.46526499424537" lon="7.830963287661997"><ele>373.6666666666667</ele><time>2026-04-23T18:39:35.999Z</time></trkpt><trkpt lat="44.46537021220181" lon="7.831130908452086"><ele>373.3333333333333</ele><time>2026-04-23T18:39:36.999Z</time></trkpt><trkpt lat="44.465476617768374" lon="7.831299008028858"><ele>373.0</ele><time>2026-04-23T18:39:37.999Z</time></trkpt><trkpt lat="44.46558462835636" lon="7.831470305171917"><ele>373.66666666666663</ele><time>2026-04-23T18:39:38.999Z</time></trkpt><trkpt lat="44.46569809284103" lon="7.831640041237186"><ele>374.3333333333333</ele><time>2026-04-23T18:39:39.999Z</time></trkpt><trkpt lat="44.465797219448376" lon="7.831803264645387"><ele>375.0</ele><time>2026-04-23T18:39:40.999Z</time></trkpt><trkpt lat="44.465903610175765" lon="7.831971555555183"><ele>375.0</ele><time>2026-04-23T18:39:41.999Z</time></trkpt><trkpt lat="44.46600759559398" lon="7.832136642587284"><ele>375.0</ele><time>2026-04-23T18:39:42.999Z</time></trkpt><trkpt lat="44.46611721890173" lon="7.8323113721183155"><ele>375.0</ele><time>2026-04-23T18:39:43.999Z</time></trkpt><trkpt lat="44.466226824536136" lon="7.83249275435517"><ele>374.5</ele><time>2026-04-23T18:39:44.999Z</time></trkpt><trkpt lat="44.46632321954178" lon="7.832654573748552"><ele>374.0</ele><time>2026-04-23T18:39:45.999Z</time></trkpt><trkpt lat="44.46641079889709" lon="7.832808194997951"><ele>373.5</ele><time>2026-04-23T18:39:46.999Z</time></trkpt><trkpt lat="44.46651500972588" lon="7.832965736891523"><ele>373.0</ele><time>2026-04-23T18:39:47.999Z</time></trkpt><trkpt lat="44.46661968096502" lon="7.833130841307529"><ele>373.0</ele><time>2026-04-23T18:39:48.999Z</time></trkpt><trkpt lat="44.46670014049969" lon="7.833286610124066"><ele>373.0</ele><time>2026-04-23T18:39:49.999Z</time></trkpt><trkpt lat="44.466800458352004" lon="7.833435751076451"><ele>373.0</ele><time>2026-04-23T18:39:50.999Z</time></trkpt><trkpt lat="44.466905846345426" lon="7.83362065696703"><ele>373.0</ele><time>2026-04-23T18:39:51.999Z</time></trkpt><trkpt lat="44.467009466299885" lon="7.83377895828636"><ele>373.0</ele><time>2026-04-23T18:39:52.999Z</time></trkpt><trkpt lat="44.46710507970397" lon="7.8339445707990745"><ele>373.0</ele><time>2026-04-23T18:39:53.999Z</time></trkpt><trkpt lat="44.46719554203408" lon="7.834087431202681"><ele>373.0</ele><time>2026-04-23T18:39:54.999Z</time></trkpt><trkpt lat="44.4672762475404" lon="7.834217276625337"><ele>373.0</ele><time>2026-04-23T18:39:55.999Z</time></trkpt><trkpt lat="44.4673483794859" lon="7.834328250674956"><ele>373.0</ele><time>2026-04-23T18:39:56.999Z</time></trkpt><trkpt lat="44.46740354705687" lon="7.834430427022676"><ele>373.0</ele><time>2026-04-23T18:39:57.999Z</time></trkpt><trkpt lat="44.46745464067633" lon="7.8345042845999435"><ele>373.0</ele><time>2026-04-23T18:39:58.999Z</time></trkpt><trkpt lat="44.46749568869162" lon="7.8345801470584835"><ele>373.0</ele><time>2026-04-23T18:39:59.999Z</time></trkpt><trkpt lat="44.46753179595549" lon="7.834652617872437"><ele>373.0</ele><time>2026-04-23T18:40:01.999Z</time></trkpt><trkpt lat="44.467558900413245" lon="7.834748155119443"><ele>373.0</ele><time>2026-04-23T18:41:05Z</time></trkpt><trkpt lat="44.467650689399704" lon="7.8348425984025925"><ele>373.0</ele><time>2026-04-23T18:41:24.999Z</time></trkpt><trkpt lat="44.46771248965538" lon="7.834945627141866"><ele>373.0</ele><time>2026-04-23T18:41:25.999Z</time></trkpt><trkpt lat="44.467785739723496" lon="7.835077664168164"><ele>373.0</ele><time>2026-04-23T18:41:26.999Z</time></trkpt><trkpt lat="44.46788172508092" lon="7.835233356235986"><ele>372.66666666666663</ele><time>2026-04-23T18:41:27.999Z</time></trkpt><trkpt lat="44.46798267900228" lon="7.835386692290402"><ele>372.3333333333333</ele><time>2026-04-23T18:41:28.999Z</time></trkpt><trkpt lat="44.4681183364155" lon="7.8355684601047155"><ele>372.0</ele><time>2026-04-23T18:41:29.999Z</time></trkpt><trkpt lat="44.468237639605874" lon="7.835747907018299"><ele>372.0</ele><time>2026-04-23T18:41:30.999Z</time></trkpt><trkpt lat="44.46835161196627" lon="7.835935494030017"><ele>372.0</ele><time>2026-04-23T18:41:31.999Z</time></trkpt><trkpt lat="44.46846473577879" lon="7.836118075048726"><ele>372.0</ele><time>2026-04-23T18:41:32.999Z</time></trkpt><trkpt lat="44.46858139542235" lon="7.836306271408106"><ele>372.3333333333333</ele><time>2026-04-23T18:41:33.999Z</time></trkpt><trkpt lat="44.46870523146223" lon="7.836517034990226"><ele>372.66666666666663</ele><time>2026-04-23T18:41:34.999Z</time></trkpt><trkpt lat="44.468832382366266" lon="7.836718945965669"><ele>373.0</ele><time>2026-04-23T18:41:35.999Z</time></trkpt><trkpt lat="44.46897355419806" lon="7.836925409891376"><ele>372.3333333333333</ele><time>2026-04-23T18:41:36.999Z</time></trkpt><trkpt lat="44.46910057563544" lon="7.83715501645452"><ele>371.6666666666667</ele><time>2026-04-23T18:41:37.999Z</time></trkpt><trkpt lat="44.46923466379724" lon="7.837394993797928"><ele>371.0</ele><time>2026-04-23T18:41:38.999Z</time></trkpt><trkpt lat="44.46937912485099" lon="7.837616455467531"><ele>371.0</ele><time>2026-04-23T18:41:39.999Z</time></trkpt><trkpt lat="44.469530805145865" lon="7.83785311640458"><ele>371.0</ele><time>2026-04-23T18:41:40.999Z</time></trkpt><trkpt lat="44.46968250386192" lon="7.838091823146319"><ele>371.0</ele><time>2026-04-23T18:41:41.999Z</time></trkpt><trkpt lat="44.469834315456374" lon="7.838311275917634"><ele>371.0</ele><time>2026-04-23T18:41:42.999Z</time></trkpt><trkpt lat="44.4699628331281" lon="7.83853568785808"><ele>371.0</ele><time>2026-04-23T18:41:43.999Z</time></trkpt><trkpt lat="44.470096423327846" lon="7.838771572902839"><ele>371.0</ele><time>2026-04-23T18:41:44.999Z</time></trkpt><trkpt lat="44.47021686888675" lon="7.839017183223742"><ele>371.0</ele><time>2026-04-23T18:41:45.999Z</time></trkpt><trkpt lat="44.470327652128695" lon="7.839280897620018"><ele>371.0</ele><time>2026-04-23T18:41:46.999Z</time></trkpt><trkpt lat="44.47043679777771" lon="7.839548554943124"><ele>371.0</ele><time>2026-04-23T18:41:47.999Z</time></trkpt><trkpt lat="44.470537475256066" lon="7.8398031263738135"><ele>371.0</ele><time>2026-04-23T18:41:48.999Z</time></trkpt><trkpt lat="44.4706389625975" lon="7.840059033376962"><ele>371.0</ele><time>2026-04-23T18:41:49.999Z</time></trkpt><trkpt lat="44.47071828119416" lon="7.8403500709499925"><ele>370.6666666666667</ele><time>2026-04-23T18:41:50.999Z</time></trkpt><trkpt lat="44.47080859980572" lon="7.840637931819836"><ele>370.3333333333333</ele><time>2026-04-23T18:41:51.999Z</time></trkpt><trkpt lat="44.47088751911879" lon="7.840921929093283"><ele>370.0</ele><time>2026-04-23T18:41:52.999Z</time></trkpt><trkpt lat="44.470944551916226" lon="7.84121809346079"><ele>369.5</ele><time>2026-04-23T18:41:53.999Z</time></trkpt><trkpt lat="44.471004695158406" lon="7.841511703377391"><ele>369.0</ele><time>2026-04-23T18:41:54.999Z</time></trkpt><trkpt lat="44.47105419506525" lon="7.841844265070683"><ele>369.0</ele><time>2026-04-23T18:41:55.999Z</time></trkpt><trkpt lat="44.471104901543164" lon="7.842169408527507"><ele>369.0</ele><time>2026-04-23T18:41:56.999Z</time></trkpt><trkpt lat="44.47114365063592" lon="7.842509876300535"><ele>368.6666666666667</ele><time>2026-04-23T18:41:57.999Z</time></trkpt><trkpt lat="44.47117568507012" lon="7.8427975875081515"><ele>368.33333333333337</ele><time>2026-04-23T18:41:58.999Z</time></trkpt><trkpt lat="44.47121342108578" lon="7.84307285739331"><ele>368.0</ele><time>2026-04-23T18:41:59.999Z</time></trkpt><trkpt lat="44.471258021787015" lon="7.843362929402648"><ele>368.33333333333337</ele><time>2026-04-23T18:42:00.999Z</time></trkpt><trkpt lat="44.47128852112549" lon="7.843634878364236"><ele>368.6666666666667</ele><time>2026-04-23T18:42:01.999Z</time></trkpt><trkpt lat="44.47131955483871" lon="7.84392427056944"><ele>369.0</ele><time>2026-04-23T18:42:02.999Z</time></trkpt><trkpt lat="44.47134973624903" lon="7.844141559844815"><ele>368.6666666666667</ele><time>2026-04-23T18:42:03.999Z</time></trkpt><trkpt lat="44.471378244987626" lon="7.844367671403596"><ele>368.33333333333337</ele><time>2026-04-23T18:42:04.999Z</time></trkpt><trkpt lat="44.47142256798065" lon="7.844583525671046"><ele>368.0</ele><time>2026-04-23T18:42:05.999Z</time></trkpt><trkpt lat="44.471478710817934" lon="7.844781505342115"><ele>368.0</ele><time>2026-04-23T18:42:06.999Z</time></trkpt><trkpt lat="44.47155126267058" lon="7.844987489051669"><ele>368.0</ele><time>2026-04-23T18:42:07.999Z</time></trkpt><trkpt lat="44.47164137694762" lon="7.845201544529889"><ele>368.0</ele><time>2026-04-23T18:42:08.999Z</time></trkpt><trkpt lat="44.47173760824812" lon="7.845405367028644"><ele>367.6666666666667</ele><time>2026-04-23T18:42:09.999Z</time></trkpt><trkpt lat="44.47183116499276" lon="7.845631057310707"><ele>367.3333333333333</ele><time>2026-04-23T18:42:10.999Z</time></trkpt><trkpt lat="44.47192244090733" lon="7.845844109835873"><ele>367.0</ele><time>2026-04-23T18:42:11.999Z</time></trkpt><trkpt lat="44.472013368618576" lon="7.846050326617822"><ele>366.3333333333333</ele><time>2026-04-23T18:42:12.999Z</time></trkpt><trkpt lat="44.47209626844923" lon="7.846247222519665"><ele>365.6666666666667</ele><time>2026-04-23T18:42:13.999Z</time></trkpt><trkpt lat="44.47218471655756" lon="7.846416030644498"><ele>365.0</ele><time>2026-04-23T18:42:14.999Z</time></trkpt><trkpt lat="44.47227000086774" lon="7.8465798613336295"><ele>365.0</ele><time>2026-04-23T18:42:15.999Z</time></trkpt><trkpt lat="44.472344461745564" lon="7.846723237715021"><ele>365.0</ele><time>2026-04-23T18:42:16.999Z</time></trkpt><trkpt lat="44.47240765978148" lon="7.846863215972573"><ele>365.0</ele><time>2026-04-23T18:42:17.999Z</time></trkpt><trkpt lat="44.472464871677936" lon="7.847023033426833"><ele>365.0</ele><time>2026-04-23T18:42:18.999Z</time></trkpt><trkpt lat="44.47251450125015" lon="7.847208068524222"><ele>365.5</ele><time>2026-04-23T18:42:19.999Z</time></trkpt><trkpt lat="44.47255523671067" lon="7.84736830717553"><ele>366.0</ele><time>2026-04-23T18:42:20.999Z</time></trkpt><trkpt lat="44.472601231618874" lon="7.847556672584038"><ele>366.5</ele><time>2026-04-23T18:42:21.999Z</time></trkpt><trkpt lat="44.47265365700107" lon="7.847718032553509"><ele>367.0</ele><time>2026-04-23T18:42:22.999Z</time></trkpt><trkpt lat="44.4726862678206" lon="7.847874929746311"><ele>367.5</ele><time>2026-04-23T18:42:23.999Z</time></trkpt><trkpt lat="44.47271701697025" lon="7.848036954834287"><ele>368.0</ele><time>2026-04-23T18:42:24.999Z</time></trkpt><trkpt lat="44.47274406511217" lon="7.848204806368726"><ele>368.5</ele><time>2026-04-23T18:42:25.999Z</time></trkpt><trkpt lat="44.472773831959714" lon="7.8483580414441265"><ele>369.0</ele><time>2026-04-23T18:42:26.999Z</time></trkpt><trkpt lat="44.47281428515955" lon="7.848500174754865"><ele>369.0</ele><time>2026-04-23T18:42:27.998Z</time></trkpt><trkpt lat="44.472853059432325" lon="7.848623053731572"><ele>369.0</ele><time>2026-04-23T18:42:28.998Z</time></trkpt><trkpt lat="44.4728956660429" lon="7.848765976709284"><ele>369.0</ele><time>2026-04-23T18:42:30Z</time></trkpt><trkpt lat="44.47291579666983" lon="7.84887651350323"><ele>369.0</ele><time>2026-04-23T18:42:31Z</time></trkpt><trkpt lat="44.47295769741123" lon="7.849041941595816"><ele>369.0</ele><time>2026-04-23T18:42:32Z</time></trkpt><trkpt lat="44.47299091702816" lon="7.849220350007743"><ele>369.3333333333333</ele><time>2026-04-23T18:42:33Z</time></trkpt><trkpt lat="44.47303775090976" lon="7.849405252042874"><ele>369.66666666666663</ele><time>2026-04-23T18:42:34Z</time></trkpt><trkpt lat="44.47308878730926" lon="7.849612215548189"><ele>370.0</ele><time>2026-04-23T18:42:35Z</time></trkpt><trkpt lat="44.473140006750896" lon="7.849823484267089"><ele>370.0</ele><time>2026-04-23T18:42:36Z</time></trkpt><trkpt lat="44.47318933907324" lon="7.85003253745564"><ele>370.0</ele><time>2026-04-23T18:42:37Z</time></trkpt><trkpt lat="44.47324395583373" lon="7.850268100297474"><ele>370.0</ele><time>2026-04-23T18:42:38Z</time></trkpt><trkpt lat="44.47329329104417" lon="7.85051606648204"><ele>370.0</ele><time>2026-04-23T18:42:39Z</time></trkpt><trkpt lat="44.47334426033907" lon="7.850765207479552"><ele>370.0</ele><time>2026-04-23T18:42:40Z</time></trkpt><trkpt lat="44.47339236810019" lon="7.851027305963179"><ele>370.0</ele><time>2026-04-23T18:42:41Z</time></trkpt><trkpt lat="44.4734396300108" lon="7.851284261315969"><ele>370.0</ele><time>2026-04-23T18:42:42Z</time></trkpt><trkpt lat="44.473492014636086" lon="7.85155885405896"><ele>370.0</ele><time>2026-04-23T18:42:43Z</time></trkpt><trkpt lat="44.47353862122148" lon="7.851841481088459"><ele>370.0</ele><time>2026-04-23T18:42:44Z</time></trkpt><trkpt lat="44.47358674901476" lon="7.852129568625961"><ele>369.3333333333333</ele><time>2026-04-23T18:42:45Z</time></trkpt><trkpt lat="44.4736352599655" lon="7.8524225518322375"><ele>368.6666666666667</ele><time>2026-04-23T18:42:46Z</time></trkpt><trkpt lat="44.473675245930316" lon="7.8527024051502305"><ele>368.0</ele><time>2026-04-23T18:42:47Z</time></trkpt><trkpt lat="44.47371199799144" lon="7.852966018983321"><ele>368.0</ele><time>2026-04-23T18:42:48Z</time></trkpt><trkpt lat="44.47374353309756" lon="7.8532209782832645"><ele>368.0</ele><time>2026-04-23T18:42:49Z</time></trkpt><trkpt lat="44.473772307042125" lon="7.853466862458904"><ele>368.0</ele><time>2026-04-23T18:42:50Z</time></trkpt><trkpt lat="44.47379267260567" lon="7.853726601294821"><ele>368.0</ele><time>2026-04-23T18:42:51Z</time></trkpt><trkpt lat="44.473809760567754" lon="7.853993688226537"><ele>368.0</ele><time>2026-04-23T18:42:52Z</time></trkpt><trkpt lat="44.47381711525943" lon="7.8542687741992525"><ele>368.0</ele><time>2026-04-23T18:42:53Z</time></trkpt><trkpt lat="44.47383033027661" lon="7.854556198614375"><ele>368.0</ele><time>2026-04-23T18:42:54Z</time></trkpt><trkpt lat="44.47384355127573" lon="7.8548562297845015"><ele>368.0</ele><time>2026-04-23T18:42:55Z</time></trkpt><trkpt lat="44.473853086573456" lon="7.855179431238685"><ele>368.0</ele><time>2026-04-23T18:42:56Z</time></trkpt><trkpt lat="44.47386939999367" lon="7.8555060289233944"><ele>368.0</ele><time>2026-04-23T18:42:57Z</time></trkpt><trkpt lat="44.47389309867695" lon="7.855851282090888"><ele>368.0</ele><time>2026-04-23T18:42:58Z</time></trkpt><trkpt lat="44.47391819147247" lon="7.856176328534239"><ele>367.5</ele><time>2026-04-23T18:42:59Z</time></trkpt><trkpt lat="44.47394001399768" lon="7.85650659671467"><ele>367.0</ele><time>2026-04-23T18:43:00Z</time></trkpt><trkpt lat="44.47395297113685" lon="7.856831436741306"><ele>366.66666666666663</ele><time>2026-04-23T18:43:01Z</time></trkpt><trkpt lat="44.47396454463571" lon="7.8571301835392235"><ele>366.3333333333333</ele><time>2026-04-23T18:43:02Z</time></trkpt><trkpt lat="44.47397682642756" lon="7.8574047521607016"><ele>366.0</ele><time>2026-04-23T18:43:03Z</time></trkpt><trkpt lat="44.47398655116467" lon="7.8576630405450745"><ele>365.6666666666667</ele><time>2026-04-23T18:43:04Z</time></trkpt><trkpt lat="44.474001454087244" lon="7.857926155477575"><ele>365.33333333333337</ele><time>2026-04-23T18:43:05Z</time></trkpt><trkpt lat="44.47400742112504" lon="7.858197384190206"><ele>365.0</ele><time>2026-04-23T18:43:06Z</time></trkpt><trkpt lat="44.474019222779205" lon="7.858469072869882"><ele>365.6666666666667</ele><time>2026-04-23T18:43:07Z</time></trkpt><trkpt lat="44.4740468432382" lon="7.858727884128591"><ele>366.3333333333333</ele><time>2026-04-23T18:43:08Z</time></trkpt><trkpt lat="44.474042437710715" lon="7.858978267565177"><ele>367.0</ele><time>2026-04-23T18:43:09Z</time></trkpt><trkpt lat="44.47406205696498" lon="7.859239809189287"><ele>366.3333333333333</ele><time>2026-04-23T18:43:10Z</time></trkpt><trkpt lat="44.47410662559439" lon="7.859536294750109"><ele>365.6666666666667</ele><time>2026-04-23T18:43:11Z</time></trkpt><trkpt lat="44.474153751882156" lon="7.859804227993629"><ele>365.0</ele><time>2026-04-23T18:43:12Z</time></trkpt><trkpt lat="44.47420842429096" lon="7.860048171823362"><ele>364.6666666666667</ele><time>2026-04-23T18:43:13Z</time></trkpt><trkpt lat="44.4742718150333" lon="7.860311493886053"><ele>364.3333333333333</ele><time>2026-04-23T18:43:14Z</time></trkpt><trkpt lat="44.47433941872454" lon="7.860545604122111"><ele>364.0</ele><time>2026-04-23T18:43:15Z</time></trkpt><trkpt lat="44.47441656531628" lon="7.860764358963076"><ele>364.0</ele><time>2026-04-23T18:43:16Z</time></trkpt><trkpt lat="44.47449495903106" lon="7.860973836412316"><ele>364.0</ele><time>2026-04-23T18:43:17Z</time></trkpt><trkpt lat="44.47456646097726" lon="7.861177155703648"><ele>364.0</ele><time>2026-04-23T18:43:18Z</time></trkpt><trkpt lat="44.47467048572109" lon="7.861349789865663"><ele>364.0</ele><time>2026-04-23T18:43:19Z</time></trkpt><trkpt lat="44.47474966465826" lon="7.86152404958413"><ele>364.0</ele><time>2026-04-23T18:43:20Z</time></trkpt><trkpt lat="44.47485300727435" lon="7.861675685747179"><ele>364.0</ele><time>2026-04-23T18:43:21Z</time></trkpt><trkpt lat="44.47495179974221" lon="7.861822974805467"><ele>364.0</ele><time>2026-04-23T18:43:21.999Z</time></trkpt><trkpt lat="44.475055030341494" lon="7.861966910220982"><ele>364.0</ele><time>2026-04-23T18:43:22.999Z</time></trkpt><trkpt lat="44.475154973209094" lon="7.862124806797979"><ele>364.0</ele><time>2026-04-23T18:43:23.999Z</time></trkpt><trkpt lat="44.47525602395654" lon="7.862263806821964"><ele>364.0</ele><time>2026-04-23T18:43:24.999Z</time></trkpt><trkpt lat="44.47534554515777" lon="7.862401587921448"><ele>364.0</ele><time>2026-04-23T18:43:25.999Z</time></trkpt><trkpt lat="44.47542745053503" lon="7.862537629368174"><ele>364.25</ele><time>2026-04-23T18:43:26.999Z</time></trkpt><trkpt lat="44.47551263310747" lon="7.862661623762788"><ele>364.5</ele><time>2026-04-23T18:43:27.999Z</time></trkpt><trkpt lat="44.47559900027694" lon="7.862801419222621"><ele>364.75</ele><time>2026-04-23T18:43:28.999Z</time></trkpt><trkpt lat="44.47568256430959" lon="7.862938517560505"><ele>365.0</ele><time>2026-04-23T18:43:29.999Z</time></trkpt><trkpt lat="44.475760262832864" lon="7.863054518921555"><ele>365.0</ele><time>2026-04-23T18:43:30.999Z</time></trkpt><trkpt lat="44.475833587646896" lon="7.863174056796749"><ele>365.0</ele><time>2026-04-23T18:43:31.999Z</time></trkpt><trkpt lat="44.475918405873436" lon="7.863301563795857"><ele>365.0</ele><time>2026-04-23T18:43:32.999Z</time></trkpt><trkpt lat="44.475998198556994" lon="7.863420777737603"><ele>365.0</ele><time>2026-04-23T18:43:33.999Z</time></trkpt><trkpt lat="44.476081305366286" lon="7.8635400737863455"><ele>365.0</ele><time>2026-04-23T18:43:34.999Z</time></trkpt><trkpt lat="44.47615054350931" lon="7.863660057388533"><ele>365.0</ele><time>2026-04-23T18:43:35.999Z</time></trkpt><trkpt lat="44.47622935380587" lon="7.863774745676328"><ele>365.0</ele><time>2026-04-23T18:43:36.999Z</time></trkpt><trkpt lat="44.4762981681125" lon="7.863896765877312"><ele>365.0</ele><time>2026-04-23T18:43:37.999Z</time></trkpt><trkpt lat="44.47636950868982" lon="7.86400154998907"><ele>365.0</ele><time>2026-04-23T18:43:38.999Z</time></trkpt><trkpt lat="44.476445139505266" lon="7.864111231928094"><ele>365.0</ele><time>2026-04-23T18:43:39.999Z</time></trkpt><trkpt lat="44.47652593395395" lon="7.864229984777079"><ele>365.0</ele><time>2026-04-23T18:43:40.999Z</time></trkpt><trkpt lat="44.476599176489245" lon="7.864353535824028"><ele>365.0</ele><time>2026-04-23T18:43:41.999Z</time></trkpt><trkpt lat="44.47667896967878" lon="7.864475269923008"><ele>365.0</ele><time>2026-04-23T18:43:42.999Z</time></trkpt><trkpt lat="44.47675985115616" lon="7.86458689509415"><ele>364.8</ele><time>2026-04-23T18:43:43.999Z</time></trkpt><trkpt lat="44.47683736427815" lon="7.864689990004483"><ele>364.6</ele><time>2026-04-23T18:43:44.999Z</time></trkpt><trkpt lat="44.476912369550355" lon="7.86479646125597"><ele>364.4</ele><time>2026-04-23T18:43:45.999Z</time></trkpt><trkpt lat="44.47698860450349" lon="7.864897512564933"><ele>364.2</ele><time>2026-04-23T18:43:46.999Z</time></trkpt><trkpt lat="44.47706568825615" lon="7.86500408557322"><ele>364.0</ele><time>2026-04-23T18:43:47.999Z</time></trkpt><trkpt lat="44.477148352586106" lon="7.8651078523427564"><ele>364.0</ele><time>2026-04-23T18:43:48.999Z</time></trkpt><trkpt lat="44.47722820480403" lon="7.865218732211395"><ele>364.0</ele><time>2026-04-23T18:43:49.999Z</time></trkpt><trkpt lat="44.47730173687377" lon="7.8653274597555525"><ele>364.0</ele><time>2026-04-23T18:43:50.999Z</time></trkpt><trkpt lat="44.47738813992122" lon="7.865437004758411"><ele>364.0</ele><time>2026-04-23T18:43:51.999Z</time></trkpt><trkpt lat="44.47747190222659" lon="7.86555102603546"><ele>364.0</ele><time>2026-04-23T18:43:52.999Z</time></trkpt><trkpt lat="44.47756136953565" lon="7.865659229728106"><ele>364.0</ele><time>2026-04-23T18:43:53.999Z</time></trkpt><trkpt lat="44.47763706426921" lon="7.865768834489203"><ele>364.0</ele><time>2026-04-23T18:43:54.999Z</time></trkpt><trkpt lat="44.477718577364534" lon="7.865872956361407"><ele>364.0</ele><time>2026-04-23T18:43:55.999Z</time></trkpt><trkpt lat="44.47780284342942" lon="7.865981855402695"><ele>364.0</ele><time>2026-04-23T18:43:56.999Z</time></trkpt><trkpt lat="44.477881471340474" lon="7.866092133825724"><ele>364.0</ele><time>2026-04-23T18:43:57.999Z</time></trkpt><trkpt lat="44.47796157018791" lon="7.866209617612557"><ele>364.0</ele><time>2026-04-23T18:43:58.999Z</time></trkpt><trkpt lat="44.47804576563319" lon="7.86631941977752"><ele>364.0</ele><time>2026-04-23T18:43:59.999Z</time></trkpt><trkpt lat="44.478134504230695" lon="7.86642484845749"><ele>363.5</ele><time>2026-04-23T18:44:00.999Z</time></trkpt><trkpt lat="44.47821479569328" lon="7.866527659270788"><ele>363.0</ele><time>2026-04-23T18:44:01.999Z</time></trkpt><trkpt lat="44.4783075807263" lon="7.8666345721390964"><ele>362.5</ele><time>2026-04-23T18:44:02.999Z</time></trkpt><trkpt lat="44.47839121668962" lon="7.866741010324772"><ele>362.0</ele><time>2026-04-23T18:44:03.999Z</time></trkpt><trkpt lat="44.47848306503289" lon="7.866849771508796"><ele>362.0</ele><time>2026-04-23T18:44:04.999Z</time></trkpt><trkpt lat="44.47857870056956" lon="7.866967577962835"><ele>362.0</ele><time>2026-04-23T18:44:05.999Z</time></trkpt><trkpt lat="44.478669717537734" lon="7.867081099025277"><ele>362.0</ele><time>2026-04-23T18:44:06.999Z</time></trkpt><trkpt lat="44.47876162194738" lon="7.86720391531992"><ele>362.0</ele><time>2026-04-23T18:44:07.999Z</time></trkpt><trkpt lat="44.47887034545481" lon="7.867338608361024"><ele>362.0</ele><time>2026-04-23T18:44:08.999Z</time></trkpt><trkpt lat="44.47898547505357" lon="7.867473055303472"><ele>362.0</ele><time>2026-04-23T18:44:09.999Z</time></trkpt><trkpt lat="44.47909134934903" lon="7.86760685864358"><ele>362.0</ele><time>2026-04-23T18:44:10.999Z</time></trkpt><trkpt lat="44.47919769675225" lon="7.867739182613585"><ele>362.0</ele><time>2026-04-23T18:44:11.999Z</time></trkpt><trkpt lat="44.479295835576245" lon="7.8678713959553574"><ele>362.0</ele><time>2026-04-23T18:44:12.999Z</time></trkpt><trkpt lat="44.47937980772874" lon="7.8679764514260935"><ele>362.0</ele><time>2026-04-23T18:44:13.999Z</time></trkpt><trkpt lat="44.47944553019135" lon="7.8680607585463"><ele>362.0</ele><time>2026-04-23T18:44:14.999Z</time></trkpt><trkpt lat="44.47949874952102" lon="7.868147392532351"><ele>362.0</ele><time>2026-04-23T18:44:15.999Z</time></trkpt><trkpt lat="44.47954391888642" lon="7.868231326644422"><ele>362.0</ele><time>2026-04-23T18:44:16.999Z</time></trkpt><trkpt lat="44.47957783223569" lon="7.868317947563778"><ele>362.0</ele><time>2026-04-23T18:44:17.999Z</time></trkpt><trkpt lat="44.47962661805472" lon="7.868485015724211"><ele>362.0</ele><time>2026-04-23T18:44:19.999Z</time></trkpt><trkpt lat="44.47965072848346" lon="7.868581645640575"><ele>362.0</ele><time>2026-04-23T18:44:20.999Z</time></trkpt><trkpt lat="44.479582517552835" lon="7.868707236819505"><ele>362.0</ele><time>2026-04-23T18:44:21.999Z</time></trkpt><trkpt lat="44.47954935983201" lon="7.868808656569515"><ele>362.0</ele><time>2026-04-23T18:44:22.999Z</time></trkpt><trkpt lat="44.47949297618024" lon="7.868935178036191"><ele>362.0</ele><time>2026-04-23T18:44:23.999Z</time></trkpt><trkpt lat="44.47942022062324" lon="7.869070180895178"><ele>362.0</ele><time>2026-04-23T18:44:24.999Z</time></trkpt><trkpt lat="44.47935310775775" lon="7.86921007877074"><ele>362.0</ele><time>2026-04-23T18:44:25.999Z</time></trkpt><trkpt lat="44.47928751887348" lon="7.869339817778594"><ele>362.0</ele><time>2026-04-23T18:44:26.999Z</time></trkpt><trkpt lat="44.47923479257404" lon="7.869455016212081"><ele>362.0</ele><time>2026-04-23T18:44:27.999Z</time></trkpt><trkpt lat="44.479178002870604" lon="7.869563065309157"><ele>362.0</ele><time>2026-04-23T18:44:28.999Z</time></trkpt><trkpt lat="44.479145396931486" lon="7.869646101373889"><ele>362.20000000000005</ele><time>2026-04-23T18:44:29.999Z</time></trkpt><trkpt lat="44.47909137849091" lon="7.869770895138997"><ele>362.4</ele><time>2026-04-23T18:44:31.998Z</time></trkpt><trkpt lat="44.47905340389396" lon="7.869849509529875"><ele>362.6</ele><time>2026-04-23T18:44:33.998Z</time></trkpt><trkpt lat="44.47918227571246" lon="7.870009423659523"><ele>362.79999999999995</ele><time>2026-04-23T18:44:36Z</time></trkpt><trkpt lat="44.479252706285585" lon="7.87006848594314"><ele>363.0</ele><time>2026-04-23T18:44:37Z</time></trkpt><trkpt lat="44.47934036923108" lon="7.870154360639898"><ele>363.0</ele><time>2026-04-23T18:44:38Z</time></trkpt><trkpt lat="44.47943538355153" lon="7.870247436412875"><ele>363.0</ele><time>2026-04-23T18:44:39Z</time></trkpt><trkpt lat="44.47954550798084" lon="7.8703586750897685"><ele>363.0</ele><time>2026-04-23T18:44:40Z</time></trkpt><trkpt lat="44.47965394265872" lon="7.870465645719021"><ele>363.0</ele><time>2026-04-23T18:44:41Z</time></trkpt><trkpt lat="44.47979855973234" lon="7.870589530901016"><ele>363.0</ele><time>2026-04-23T18:44:42Z</time></trkpt><trkpt lat="44.479921287599865" lon="7.870745437278111"><ele>363.0</ele><time>2026-04-23T18:44:43Z</time></trkpt><trkpt lat="44.480044494444314" lon="7.8708697562238505"><ele>363.0</ele><time>2026-04-23T18:44:44Z</time></trkpt><trkpt lat="44.48016048817166" lon="7.87098973038887"><ele>363.0</ele><time>2026-04-23T18:44:45Z</time></trkpt><trkpt lat="44.48027351551642" lon="7.871105823514162"><ele>363.0</ele><time>2026-04-23T18:44:46Z</time></trkpt><trkpt lat="44.48037762597111" lon="7.871224590199121"><ele>363.0</ele><time>2026-04-23T18:44:47Z</time></trkpt><trkpt lat="44.48047696370184" lon="7.871371671736054"><ele>363.0</ele><time>2026-04-23T18:44:48Z</time></trkpt><trkpt lat="44.48056633421155" lon="7.871524648379128"><ele>363.0</ele><time>2026-04-23T18:44:49Z</time></trkpt><trkpt lat="44.48063310809284" lon="7.8716673658478555"><ele>363.0</ele><time>2026-04-23T18:44:50Z</time></trkpt><trkpt lat="44.48068052079017" lon="7.871787620136016"><ele>363.0</ele><time>2026-04-23T18:44:51Z</time></trkpt><trkpt lat="44.48071454322698" lon="7.871899686792668"><ele>363.0</ele><time>2026-04-23T18:44:52Z</time></trkpt><trkpt lat="44.48074368060016" lon="7.871992341058858"><ele>363.0</ele><time>2026-04-23T18:44:53Z</time></trkpt><trkpt lat="44.480770971320915" lon="7.872128291001502"><ele>363.0</ele><time>2026-04-23T18:44:55Z</time></trkpt><trkpt lat="44.480748643683306" lon="7.872256366536599"><ele>363.0</ele><time>2026-04-23T18:44:57Z</time></trkpt><trkpt lat="44.48064877106876" lon="7.872261445592981"><ele>363.0</ele><time>2026-04-23T18:44:58Z</time></trkpt><trkpt lat="44.48055683940415" lon="7.872321162250703"><ele>363.0</ele><time>2026-04-23T18:44:59Z</time></trkpt><trkpt lat="44.480450057972796" lon="7.872373362869022"><ele>363.0</ele><time>2026-04-23T18:45:00Z</time></trkpt><trkpt lat="44.48033266450966" lon="7.8724367239833475"><ele>363.0</ele><time>2026-04-23T18:45:01Z</time></trkpt><trkpt lat="44.480188968831754" lon="7.872488503609773"><ele>363.0</ele><time>2026-04-23T18:45:02Z</time></trkpt><trkpt lat="44.48004021569252" lon="7.872519214452049"><ele>363.0</ele><time>2026-04-23T18:45:03Z</time></trkpt><trkpt lat="44.479916306920565" lon="7.872556268947332"><ele>363.0</ele><time>2026-04-23T18:45:04Z</time></trkpt><trkpt lat="44.47979915212694" lon="7.87258198972944"><ele>363.0</ele><time>2026-04-23T18:45:05Z</time></trkpt><trkpt lat="44.47970917758046" lon="7.872606697527996"><ele>363.0</ele><time>2026-04-23T18:45:06Z</time></trkpt><trkpt lat="44.47959208865573" lon="7.872638578440663"><ele>363.0</ele><time>2026-04-23T18:45:08Z</time></trkpt><trkpt lat="44.47951930946875" lon="7.87264486425149"><ele>363.0</ele><time>2026-04-23T18:45:10Z</time></trkpt><trkpt lat="44.47945779794089" lon="7.872668539663985"><ele>363.0</ele><time>2026-04-23T18:45:45.999Z</time></trkpt><trkpt lat="44.47950520192581" lon="7.872969537784473"><ele>363.0</ele><time>2026-04-23T18:45:49.999Z</time></trkpt><trkpt lat="44.4795305862432" lon="7.873076913533429"><ele>363.0</ele><time>2026-04-23T18:45:51.999Z</time></trkpt><trkpt lat="44.479536284596605" lon="7.873176463980791"><ele>363.0</ele><time>2026-04-23T18:45:54.017Z</time></trkpt><trkpt lat="44.47969804940915" lon="7.872986428818946"><ele>363.0</ele><time>2026-04-23T18:46:26.289Z</time></trkpt><trkpt lat="44.47945844684999" lon="7.872958448058697"><ele>363.0</ele><time>2026-04-23T18:46:58.998Z</time></trkpt><trkpt lat="44.47950369624057" lon="7.872841154658214"><ele>363.0</ele><time>2026-04-23T18:47:02.998Z</time></trkpt><trkpt lat="44.47957243480154" lon="7.872760885369465"><ele>363.0</ele><time>2026-04-23T18:47:06Z</time></trkpt><trkpt lat="44.479639686696" lon="7.872820034536835"><ele>363.0</ele><time>2026-04-23T18:47:27Z</time></trkpt><trkpt lat="44.47965091366283" lon="7.8729242985061765"><ele>363.0</ele><time>2026-04-23T18:47:35.017Z</time></trkpt><trkpt lat="44.479774958495746" lon="7.873128857470932"><ele>363.0</ele><time>2026-04-23T18:49:23Z</time></trkpt><trkpt lat="44.47967614795786" lon="7.872908823098756"><ele>363.0</ele><time>2026-04-23T18:49:31.018Z</time></trkpt><trkpt lat="44.47979277810823" lon="7.8730335246556145"><ele>363.0</ele><time>2026-04-23T18:49:46Z</time></trkpt><trkpt lat="44.47972344644287" lon="7.873044904518697"><ele>363.0</ele><time>2026-04-23T18:50:47.999Z</time></trkpt><trkpt lat="44.47970140910874" lon="7.872953140727913"><ele>363.0</ele><time>2026-04-23T18:51:03.013Z</time></trkpt><trkpt lat="44.4796636188378" lon="7.873163943178796"><ele>363.0</ele><time>2026-04-23T19:00:59Z</time></trkpt><trkpt lat="44.479687962578254" lon="7.873288443147642"><ele>363.0</ele><time>2026-04-23T19:01:12Z</time></trkpt><trkpt lat="44.47969347329754" lon="7.873189795882089"><ele>363.0</ele><time>2026-04-23T19:01:17Z</time></trkpt><trkpt lat="44.47968748030908" lon="7.873098512835924"><ele>363.0</ele><time>2026-04-23T19:01:22Z</time></trkpt></trkseg></trk></gpx>